<?xml version="1.0" encoding="UTF-8" standalone="no" ?>
<gpx xmlns="http://www.topografix.com/GPX/1/1" xmlns:xsi="http://www.w3.org/2001/XMLSchema-instance" xsi:schemaLocation="http://www.topografix.com/GPX/1/1 http://www.topografix.com/GPX/1/1/gpx.xsd" version="1.1" creator="VisuGPX - https://www.visugpx.com">
  <metadata>
    <name>VTT - Pointe fine &amp;amp; cabane de Belmont</name>
    <desc><![CDATA[Relevé terrain / Jausiers - Pointe fine - Costebelle - cabane de Belmont - Pré de rata / Réel: 40 km / Den  2 200 m
Le CR sur 1001 sentiers:
<http://www.1001sentiers.fr/forum/viewtopic.php?f=35&t=1419>]]></desc>
  </metadata>
  <trk>
    <name><![CDATA[2010-07-24T06:27:53Z]]></name>
    <trkseg>
      <trkpt lat="44.4198" lon="6.7353">
        <ele>1224.3762207</ele>
        <time>2010-07-24T06:27:54Z</time>
      </trkpt>
      <trkpt lat="44.4198" lon="6.73526">
        <ele>1225.8181152</ele>
        <time>2010-07-24T06:28:09Z</time>
      </trkpt>
      <trkpt lat="44.41981" lon="6.73529">
        <ele>1219.0891113</ele>
        <time>2010-07-24T06:29:00Z</time>
      </trkpt>
      <trkpt lat="44.41981" lon="6.73527">
        <ele>1218.1276855</ele>
        <time>2010-07-24T06:29:16Z</time>
      </trkpt>
      <trkpt lat="44.41981" lon="6.73525">
        <ele>1219.0891113</ele>
        <time>2010-07-24T06:29:26Z</time>
      </trkpt>
      <trkpt lat="44.41988" lon="6.73536">
        <ele>1219.5698242</ele>
        <time>2010-07-24T06:29:33Z</time>
      </trkpt>
      <trkpt lat="44.41989" lon="6.73535">
        <ele>1222.4536133</ele>
        <time>2010-07-24T06:29:35Z</time>
      </trkpt>
      <trkpt lat="44.41995" lon="6.73549">
        <ele>1223.4150391</ele>
        <time>2010-07-24T06:29:41Z</time>
      </trkpt>
      <trkpt lat="44.41998" lon="6.73553">
        <ele>1223.4150391</ele>
        <time>2010-07-24T06:29:44Z</time>
      </trkpt>
      <trkpt lat="44.42008" lon="6.73558">
        <ele>1222.4536133</ele>
        <time>2010-07-24T06:29:50Z</time>
      </trkpt>
      <trkpt lat="44.4201" lon="6.73576">
        <ele>1222.4536133</ele>
        <time>2010-07-24T06:29:55Z</time>
      </trkpt>
      <trkpt lat="44.42009" lon="6.7359">
        <ele>1221.9729004</ele>
        <time>2010-07-24T06:29:58Z</time>
      </trkpt>
      <trkpt lat="44.42013" lon="6.7362">
        <ele>1223.4150391</ele>
        <time>2010-07-24T06:30:05Z</time>
      </trkpt>
      <trkpt lat="44.42026" lon="6.73642">
        <ele>1222.4536133</ele>
        <time>2010-07-24T06:30:11Z</time>
      </trkpt>
      <trkpt lat="44.42042" lon="6.73653">
        <ele>1223.8955078</ele>
        <time>2010-07-24T06:30:17Z</time>
      </trkpt>
      <trkpt lat="44.42056" lon="6.73664">
        <ele>1223.8955078</ele>
        <time>2010-07-24T06:30:23Z</time>
      </trkpt>
      <trkpt lat="44.42058" lon="6.73665">
        <ele>1224.8569336</ele>
        <time>2010-07-24T06:30:24Z</time>
      </trkpt>
      <trkpt lat="44.42055" lon="6.73669">
        <ele>1224.8569336</ele>
        <time>2010-07-24T06:30:28Z</time>
      </trkpt>
      <trkpt lat="44.4205" lon="6.73677">
        <ele>1224.3762207</ele>
        <time>2010-07-24T06:30:32Z</time>
      </trkpt>
      <trkpt lat="44.42048" lon="6.73684">
        <ele>1224.3762207</ele>
        <time>2010-07-24T06:30:37Z</time>
      </trkpt>
      <trkpt lat="44.42046" lon="6.73685">
        <ele>1223.4150391</ele>
        <time>2010-07-24T06:30:54Z</time>
      </trkpt>
      <trkpt lat="44.42046" lon="6.73684">
        <ele>1220.050293</ele>
        <time>2010-07-24T06:31:05Z</time>
      </trkpt>
      <trkpt lat="44.42044" lon="6.73688">
        <ele>1222.9343262</ele>
        <time>2010-07-24T06:31:20Z</time>
      </trkpt>
      <trkpt lat="44.42045" lon="6.73687">
        <ele>1223.4150391</ele>
        <time>2010-07-24T06:31:27Z</time>
      </trkpt>
      <trkpt lat="44.42046" lon="6.73688">
        <ele>1223.8955078</ele>
        <time>2010-07-24T06:31:53Z</time>
      </trkpt>
      <trkpt lat="44.42046" lon="6.73686">
        <ele>1225.8181152</ele>
        <time>2010-07-24T06:32:00Z</time>
      </trkpt>
      <trkpt lat="44.42046" lon="6.73686">
        <ele>1225.8181152</ele>
        <time>2010-07-24T06:32:01Z</time>
      </trkpt>
      <trkpt lat="44.42059" lon="6.7368">
        <ele>1228.2216797</ele>
        <time>2010-07-24T06:32:07Z</time>
      </trkpt>
      <trkpt lat="44.42078" lon="6.73682">
        <ele>1228.7023926</ele>
        <time>2010-07-24T06:32:12Z</time>
      </trkpt>
      <trkpt lat="44.42109" lon="6.73691">
        <ele>1228.2216797</ele>
        <time>2010-07-24T06:32:20Z</time>
      </trkpt>
      <trkpt lat="44.42148" lon="6.73703">
        <ele>1227.7407227</ele>
        <time>2010-07-24T06:32:30Z</time>
      </trkpt>
      <trkpt lat="44.42179" lon="6.73713">
        <ele>1227.2602539</ele>
        <time>2010-07-24T06:32:38Z</time>
      </trkpt>
      <trkpt lat="44.42219" lon="6.73722">
        <ele>1226.2988281</ele>
        <time>2010-07-24T06:32:48Z</time>
      </trkpt>
      <trkpt lat="44.42245" lon="6.73723">
        <ele>1227.2602539</ele>
        <time>2010-07-24T06:32:55Z</time>
      </trkpt>
      <trkpt lat="44.42275" lon="6.73721">
        <ele>1228.7023926</ele>
        <time>2010-07-24T06:33:03Z</time>
      </trkpt>
      <trkpt lat="44.42315" lon="6.73719">
        <ele>1232.0668945</ele>
        <time>2010-07-24T06:33:14Z</time>
      </trkpt>
      <trkpt lat="44.42346" lon="6.73716">
        <ele>1233.989502</ele>
        <time>2010-07-24T06:33:23Z</time>
      </trkpt>
      <trkpt lat="44.42376" lon="6.73713">
        <ele>1233.989502</ele>
        <time>2010-07-24T06:33:31Z</time>
      </trkpt>
      <trkpt lat="44.42402" lon="6.73711">
        <ele>1234.9509277</ele>
        <time>2010-07-24T06:33:38Z</time>
      </trkpt>
      <trkpt lat="44.42419" lon="6.7371">
        <ele>1237.8347168</ele>
        <time>2010-07-24T06:33:44Z</time>
      </trkpt>
      <trkpt lat="44.42422" lon="6.73709">
        <ele>1238.3154297</ele>
        <time>2010-07-24T06:33:45Z</time>
      </trkpt>
      <trkpt lat="44.42426" lon="6.73694">
        <ele>1237.3540039</ele>
        <time>2010-07-24T06:33:49Z</time>
      </trkpt>
      <trkpt lat="44.42427" lon="6.73689">
        <ele>1238.3154297</ele>
        <time>2010-07-24T06:33:50Z</time>
      </trkpt>
      <trkpt lat="44.42444" lon="6.73672">
        <ele>1239.2766113</ele>
        <time>2010-07-24T06:33:56Z</time>
      </trkpt>
      <trkpt lat="44.42465" lon="6.73665">
        <ele>1239.7573242</ele>
        <time>2010-07-24T06:34:03Z</time>
      </trkpt>
      <trkpt lat="44.42487" lon="6.73655">
        <ele>1243.1218262</ele>
        <time>2010-07-24T06:34:11Z</time>
      </trkpt>
      <trkpt lat="44.42504" lon="6.73648">
        <ele>1244.5639648</ele>
        <time>2010-07-24T06:34:17Z</time>
      </trkpt>
      <trkpt lat="44.42517" lon="6.73638">
        <ele>1246.0061035</ele>
        <time>2010-07-24T06:34:23Z</time>
      </trkpt>
      <trkpt lat="44.42529" lon="6.73622">
        <ele>1247.9287109</ele>
        <time>2010-07-24T06:34:30Z</time>
      </trkpt>
      <trkpt lat="44.4254" lon="6.73601">
        <ele>1247.9287109</ele>
        <time>2010-07-24T06:34:38Z</time>
      </trkpt>
      <trkpt lat="44.42553" lon="6.73586">
        <ele>1248.4091797</ele>
        <time>2010-07-24T06:34:46Z</time>
      </trkpt>
      <trkpt lat="44.42563" lon="6.7357">
        <ele>1250.3320312</ele>
        <time>2010-07-24T06:34:53Z</time>
      </trkpt>
      <trkpt lat="44.42572" lon="6.73558">
        <ele>1251.2932129</ele>
        <time>2010-07-24T06:35:00Z</time>
      </trkpt>
      <trkpt lat="44.4258" lon="6.73556">
        <ele>1251.7739258</ele>
        <time>2010-07-24T06:35:06Z</time>
      </trkpt>
      <trkpt lat="44.42592" lon="6.73552">
        <ele>1251.2932129</ele>
        <time>2010-07-24T06:35:12Z</time>
      </trkpt>
      <trkpt lat="44.42606" lon="6.73545">
        <ele>1251.7739258</ele>
        <time>2010-07-24T06:35:19Z</time>
      </trkpt>
      <trkpt lat="44.42616" lon="6.73533">
        <ele>1251.7739258</ele>
        <time>2010-07-24T06:35:26Z</time>
      </trkpt>
      <trkpt lat="44.42628" lon="6.73529">
        <ele>1257.0610352</ele>
        <time>2010-07-24T06:35:33Z</time>
      </trkpt>
      <trkpt lat="44.42639" lon="6.73525">
        <ele>1258.0224609</ele>
        <time>2010-07-24T06:35:40Z</time>
      </trkpt>
      <trkpt lat="44.42649" lon="6.73522">
        <ele>1262.3483887</ele>
        <time>2010-07-24T06:35:48Z</time>
      </trkpt>
      <trkpt lat="44.42664" lon="6.73519">
        <ele>1262.3483887</ele>
        <time>2010-07-24T06:35:54Z</time>
      </trkpt>
      <trkpt lat="44.42682" lon="6.73536">
        <ele>1259.4643555</ele>
        <time>2010-07-24T06:36:02Z</time>
      </trkpt>
      <trkpt lat="44.42696" lon="6.73546">
        <ele>1258.5029297</ele>
        <time>2010-07-24T06:36:07Z</time>
      </trkpt>
      <trkpt lat="44.42714" lon="6.73549">
        <ele>1256.5803223</ele>
        <time>2010-07-24T06:36:13Z</time>
      </trkpt>
      <trkpt lat="44.42736" lon="6.73548">
        <ele>1253.6965332</ele>
        <time>2010-07-24T06:36:19Z</time>
      </trkpt>
      <trkpt lat="44.42753" lon="6.73547">
        <ele>1253.6965332</ele>
        <time>2010-07-24T06:36:25Z</time>
      </trkpt>
      <trkpt lat="44.42772" lon="6.7354">
        <ele>1254.6577148</ele>
        <time>2010-07-24T06:36:31Z</time>
      </trkpt>
      <trkpt lat="44.42786" lon="6.73545">
        <ele>1255.6191406</ele>
        <time>2010-07-24T06:36:35Z</time>
      </trkpt>
      <trkpt lat="44.42803" lon="6.73546">
        <ele>1254.6577148</ele>
        <time>2010-07-24T06:36:39Z</time>
      </trkpt>
      <trkpt lat="44.42832" lon="6.73548">
        <ele>1254.1772461</ele>
        <time>2010-07-24T06:36:46Z</time>
      </trkpt>
      <trkpt lat="44.4284" lon="6.73548">
        <ele>1254.6577148</ele>
        <time>2010-07-24T06:36:48Z</time>
      </trkpt>
      <trkpt lat="44.42859" lon="6.73541">
        <ele>1256.5803223</ele>
        <time>2010-07-24T06:36:53Z</time>
      </trkpt>
      <trkpt lat="44.42877" lon="6.73533">
        <ele>1260.4257812</ele>
        <time>2010-07-24T06:37:00Z</time>
      </trkpt>
      <trkpt lat="44.42901" lon="6.73527">
        <ele>1260.4257812</ele>
        <time>2010-07-24T06:37:08Z</time>
      </trkpt>
      <trkpt lat="44.42921" lon="6.73521">
        <ele>1260.4257812</ele>
        <time>2010-07-24T06:37:15Z</time>
      </trkpt>
      <trkpt lat="44.42934" lon="6.73518">
        <ele>1262.3483887</ele>
        <time>2010-07-24T06:37:21Z</time>
      </trkpt>
      <trkpt lat="44.42946" lon="6.7352">
        <ele>1264.751709</ele>
        <time>2010-07-24T06:37:28Z</time>
      </trkpt>
      <trkpt lat="44.42953" lon="6.73527">
        <ele>1269.5583496</ele>
        <time>2010-07-24T06:37:34Z</time>
      </trkpt>
      <trkpt lat="44.42965" lon="6.73535">
        <ele>1273.4035645</ele>
        <time>2010-07-24T06:37:42Z</time>
      </trkpt>
      <trkpt lat="44.42975" lon="6.7354">
        <ele>1276.2875977</ele>
        <time>2010-07-24T06:37:50Z</time>
      </trkpt>
      <trkpt lat="44.42984" lon="6.73542">
        <ele>1276.2875977</ele>
        <time>2010-07-24T06:37:55Z</time>
      </trkpt>
      <trkpt lat="44.42994" lon="6.73546">
        <ele>1274.3647461</ele>
        <time>2010-07-24T06:38:02Z</time>
      </trkpt>
      <trkpt lat="44.42998" lon="6.73556">
        <ele>1278.690918</ele>
        <time>2010-07-24T06:38:08Z</time>
      </trkpt>
      <trkpt lat="44.43006" lon="6.73565">
        <ele>1281.574707</ele>
        <time>2010-07-24T06:38:16Z</time>
      </trkpt>
      <trkpt lat="44.43015" lon="6.73571">
        <ele>1286.3813477</ele>
        <time>2010-07-24T06:38:23Z</time>
      </trkpt>
      <trkpt lat="44.43022" lon="6.73577">
        <ele>1287.8232422</ele>
        <time>2010-07-24T06:38:30Z</time>
      </trkpt>
      <trkpt lat="44.43024" lon="6.73579">
        <ele>1286.8618164</ele>
        <time>2010-07-24T06:38:31Z</time>
      </trkpt>
      <trkpt lat="44.43033" lon="6.73591">
        <ele>1284.4587402</ele>
        <time>2010-07-24T06:38:39Z</time>
      </trkpt>
      <trkpt lat="44.43037" lon="6.73597">
        <ele>1287.8232422</ele>
        <time>2010-07-24T06:38:45Z</time>
      </trkpt>
      <trkpt lat="44.43039" lon="6.73594">
        <ele>1285.4199219</ele>
        <time>2010-07-24T06:38:50Z</time>
      </trkpt>
      <trkpt lat="44.43036" lon="6.73601">
        <ele>1288.3039551</ele>
        <time>2010-07-24T06:38:57Z</time>
      </trkpt>
      <trkpt lat="44.43037" lon="6.73605">
        <ele>1289.2651367</ele>
        <time>2010-07-24T06:39:02Z</time>
      </trkpt>
      <trkpt lat="44.43041" lon="6.73602">
        <ele>1291.1877441</ele>
        <time>2010-07-24T06:39:07Z</time>
      </trkpt>
      <trkpt lat="44.4304" lon="6.73603">
        <ele>1292.630127</ele>
        <time>2010-07-24T06:39:13Z</time>
      </trkpt>
      <trkpt lat="44.4305" lon="6.73609">
        <ele>1292.1494141</ele>
        <time>2010-07-24T06:39:19Z</time>
      </trkpt>
      <trkpt lat="44.43063" lon="6.73615">
        <ele>1293.1105957</ele>
        <time>2010-07-24T06:39:26Z</time>
      </trkpt>
      <trkpt lat="44.43066" lon="6.73617">
        <ele>1294.0720215</ele>
        <time>2010-07-24T06:39:28Z</time>
      </trkpt>
      <trkpt lat="44.43072" lon="6.73626">
        <ele>1294.0720215</ele>
        <time>2010-07-24T06:39:33Z</time>
      </trkpt>
      <trkpt lat="44.43081" lon="6.73632">
        <ele>1299.3591309</ele>
        <time>2010-07-24T06:39:41Z</time>
      </trkpt>
      <trkpt lat="44.43089" lon="6.73641">
        <ele>1299.3591309</ele>
        <time>2010-07-24T06:39:48Z</time>
      </trkpt>
      <trkpt lat="44.43097" lon="6.73657">
        <ele>1298.878418</ele>
        <time>2010-07-24T06:39:55Z</time>
      </trkpt>
      <trkpt lat="44.43103" lon="6.73669">
        <ele>1299.8398438</ele>
        <time>2010-07-24T06:40:02Z</time>
      </trkpt>
      <trkpt lat="44.43113" lon="6.73676">
        <ele>1299.8398438</ele>
        <time>2010-07-24T06:40:08Z</time>
      </trkpt>
      <trkpt lat="44.43122" lon="6.73676">
        <ele>1302.2429199</ele>
        <time>2010-07-24T06:40:15Z</time>
      </trkpt>
      <trkpt lat="44.43129" lon="6.73679">
        <ele>1303.6850586</ele>
        <time>2010-07-24T06:40:21Z</time>
      </trkpt>
      <trkpt lat="44.43139" lon="6.73683">
        <ele>1307.0495605</ele>
        <time>2010-07-24T06:40:29Z</time>
      </trkpt>
      <trkpt lat="44.43145" lon="6.73684">
        <ele>1309.453125</ele>
        <time>2010-07-24T06:40:34Z</time>
      </trkpt>
      <trkpt lat="44.43157" lon="6.73691">
        <ele>1307.0495605</ele>
        <time>2010-07-24T06:40:40Z</time>
      </trkpt>
      <trkpt lat="44.43166" lon="6.73702">
        <ele>1306.0881348</ele>
        <time>2010-07-24T06:40:45Z</time>
      </trkpt>
      <trkpt lat="44.43173" lon="6.73713">
        <ele>1307.5302734</ele>
        <time>2010-07-24T06:40:51Z</time>
      </trkpt>
      <trkpt lat="44.43182" lon="6.73718">
        <ele>1308.9724121</ele>
        <time>2010-07-24T06:40:58Z</time>
      </trkpt>
      <trkpt lat="44.43187" lon="6.73722">
        <ele>1311.3757324</ele>
        <time>2010-07-24T06:41:03Z</time>
      </trkpt>
      <trkpt lat="44.43194" lon="6.73733">
        <ele>1314.7402344</ele>
        <time>2010-07-24T06:41:11Z</time>
      </trkpt>
      <trkpt lat="44.43201" lon="6.73746">
        <ele>1316.1821289</ele>
        <time>2010-07-24T06:41:19Z</time>
      </trkpt>
      <trkpt lat="44.43206" lon="6.73761">
        <ele>1317.6240234</ele>
        <time>2010-07-24T06:41:27Z</time>
      </trkpt>
      <trkpt lat="44.43204" lon="6.73776">
        <ele>1319.546875</ele>
        <time>2010-07-24T06:41:35Z</time>
      </trkpt>
      <trkpt lat="44.43202" lon="6.7379">
        <ele>1320.5080566</ele>
        <time>2010-07-24T06:41:41Z</time>
      </trkpt>
      <trkpt lat="44.43212" lon="6.73803">
        <ele>1320.5080566</ele>
        <time>2010-07-24T06:41:50Z</time>
      </trkpt>
      <trkpt lat="44.4322" lon="6.7381">
        <ele>1320.0273438</ele>
        <time>2010-07-24T06:41:57Z</time>
      </trkpt>
      <trkpt lat="44.43227" lon="6.7382">
        <ele>1321.9499512</ele>
        <time>2010-07-24T06:42:04Z</time>
      </trkpt>
      <trkpt lat="44.43229" lon="6.73831">
        <ele>1321.9499512</ele>
        <time>2010-07-24T06:42:18Z</time>
      </trkpt>
      <trkpt lat="44.43239" lon="6.73845">
        <ele>1320.9887695</ele>
        <time>2010-07-24T06:42:23Z</time>
      </trkpt>
      <trkpt lat="44.43255" lon="6.73863">
        <ele>1318.5854492</ele>
        <time>2010-07-24T06:42:27Z</time>
      </trkpt>
      <trkpt lat="44.43287" lon="6.73883">
        <ele>1313.2983398</ele>
        <time>2010-07-24T06:42:32Z</time>
      </trkpt>
      <trkpt lat="44.43315" lon="6.739">
        <ele>1309.9335938</ele>
        <time>2010-07-24T06:42:37Z</time>
      </trkpt>
      <trkpt lat="44.4333" lon="6.73909">
        <ele>1311.3757324</ele>
        <time>2010-07-24T06:42:42Z</time>
      </trkpt>
      <trkpt lat="44.43348" lon="6.73917">
        <ele>1312.817627</ele>
        <time>2010-07-24T06:42:48Z</time>
      </trkpt>
      <trkpt lat="44.43351" lon="6.73919">
        <ele>1313.2983398</ele>
        <time>2010-07-24T06:42:49Z</time>
      </trkpt>
      <trkpt lat="44.43372" lon="6.73934">
        <ele>1312.817627</ele>
        <time>2010-07-24T06:42:53Z</time>
      </trkpt>
      <trkpt lat="44.43378" lon="6.73939">
        <ele>1312.3369141</ele>
        <time>2010-07-24T06:42:54Z</time>
      </trkpt>
      <trkpt lat="44.43411" lon="6.73947">
        <ele>1304.1657715</ele>
        <time>2010-07-24T06:42:59Z</time>
      </trkpt>
      <trkpt lat="44.43431" lon="6.73971">
        <ele>1305.1269531</ele>
        <time>2010-07-24T06:43:04Z</time>
      </trkpt>
      <trkpt lat="44.43431" lon="6.74">
        <ele>1308.4916992</ele>
        <time>2010-07-24T06:43:08Z</time>
      </trkpt>
      <trkpt lat="44.43416" lon="6.74006">
        <ele>1306.5688477</ele>
        <time>2010-07-24T06:43:11Z</time>
      </trkpt>
      <trkpt lat="44.43404" lon="6.74008">
        <ele>1306.0881348</ele>
        <time>2010-07-24T06:43:13Z</time>
      </trkpt>
      <trkpt lat="44.43391" lon="6.74017">
        <ele>1303.6850586</ele>
        <time>2010-07-24T06:43:18Z</time>
      </trkpt>
      <trkpt lat="44.43402" lon="6.74026">
        <ele>1300.8010254</ele>
        <time>2010-07-24T06:43:20Z</time>
      </trkpt>
      <trkpt lat="44.43408" lon="6.7403">
        <ele>1300.8010254</ele>
        <time>2010-07-24T06:43:21Z</time>
      </trkpt>
      <trkpt lat="44.43438" lon="6.7403">
        <ele>1290.7070312</ele>
        <time>2010-07-24T06:43:26Z</time>
      </trkpt>
      <trkpt lat="44.43448" lon="6.74023">
        <ele>1288.3039551</ele>
        <time>2010-07-24T06:43:28Z</time>
      </trkpt>
      <trkpt lat="44.43473" lon="6.74027">
        <ele>1284.9394531</ele>
        <time>2010-07-24T06:43:33Z</time>
      </trkpt>
      <trkpt lat="44.43475" lon="6.74035">
        <ele>1284.9394531</ele>
        <time>2010-07-24T06:43:34Z</time>
      </trkpt>
      <trkpt lat="44.43496" lon="6.74072">
        <ele>1283.4973145</ele>
        <time>2010-07-24T06:43:39Z</time>
      </trkpt>
      <trkpt lat="44.43504" lon="6.74085">
        <ele>1283.0166016</ele>
        <time>2010-07-24T06:43:41Z</time>
      </trkpt>
      <trkpt lat="44.43507" lon="6.74113">
        <ele>1283.4973145</ele>
        <time>2010-07-24T06:43:45Z</time>
      </trkpt>
      <trkpt lat="44.43496" lon="6.74135">
        <ele>1281.0942383</ele>
        <time>2010-07-24T06:43:48Z</time>
      </trkpt>
      <trkpt lat="44.43495" lon="6.74141">
        <ele>1280.6135254</ele>
        <time>2010-07-24T06:43:49Z</time>
      </trkpt>
      <trkpt lat="44.43492" lon="6.74175">
        <ele>1279.1713867</ele>
        <time>2010-07-24T06:43:56Z</time>
      </trkpt>
      <trkpt lat="44.43501" lon="6.74184">
        <ele>1279.1713867</ele>
        <time>2010-07-24T06:44:02Z</time>
      </trkpt>
      <trkpt lat="44.43509" lon="6.74187">
        <ele>1284.4587402</ele>
        <time>2010-07-24T06:44:09Z</time>
      </trkpt>
      <trkpt lat="44.43519" lon="6.74194">
        <ele>1288.784668</ele>
        <time>2010-07-24T06:44:17Z</time>
      </trkpt>
      <trkpt lat="44.43527" lon="6.74196">
        <ele>1297.4365234</ele>
        <time>2010-07-24T06:44:24Z</time>
      </trkpt>
      <trkpt lat="44.43534" lon="6.74201">
        <ele>1303.2043457</ele>
        <time>2010-07-24T06:44:31Z</time>
      </trkpt>
      <trkpt lat="44.43537" lon="6.74202">
        <ele>1304.1657715</ele>
        <time>2010-07-24T06:44:33Z</time>
      </trkpt>
      <trkpt lat="44.4354" lon="6.74203">
        <ele>1305.1269531</ele>
        <time>2010-07-24T06:44:35Z</time>
      </trkpt>
      <trkpt lat="44.43551" lon="6.74214">
        <ele>1307.0495605</ele>
        <time>2010-07-24T06:44:44Z</time>
      </trkpt>
      <trkpt lat="44.43556" lon="6.7422">
        <ele>1306.0881348</ele>
        <time>2010-07-24T06:44:48Z</time>
      </trkpt>
      <trkpt lat="44.43559" lon="6.74224">
        <ele>1304.1657715</ele>
        <time>2010-07-24T06:44:51Z</time>
      </trkpt>
      <trkpt lat="44.43568" lon="6.74225">
        <ele>1301.2817383</ele>
        <time>2010-07-24T06:44:58Z</time>
      </trkpt>
      <trkpt lat="44.43569" lon="6.74226">
        <ele>1301.7624512</ele>
        <time>2010-07-24T06:45:00Z</time>
      </trkpt>
      <trkpt lat="44.43578" lon="6.74237">
        <ele>1299.3591309</ele>
        <time>2010-07-24T06:45:06Z</time>
      </trkpt>
      <trkpt lat="44.43588" lon="6.74249">
        <ele>1296.9558105</ele>
        <time>2010-07-24T06:45:11Z</time>
      </trkpt>
      <trkpt lat="44.43598" lon="6.74265">
        <ele>1292.1494141</ele>
        <time>2010-07-24T06:45:15Z</time>
      </trkpt>
      <trkpt lat="44.43609" lon="6.74293">
        <ele>1291.668457</ele>
        <time>2010-07-24T06:45:20Z</time>
      </trkpt>
      <trkpt lat="44.43615" lon="6.74305">
        <ele>1290.2265625</ele>
        <time>2010-07-24T06:45:22Z</time>
      </trkpt>
      <trkpt lat="44.43632" lon="6.74327">
        <ele>1289.7458496</ele>
        <time>2010-07-24T06:45:26Z</time>
      </trkpt>
      <trkpt lat="44.43654" lon="6.74336">
        <ele>1287.8232422</ele>
        <time>2010-07-24T06:45:31Z</time>
      </trkpt>
      <trkpt lat="44.43684" lon="6.74336">
        <ele>1283.4973145</ele>
        <time>2010-07-24T06:45:36Z</time>
      </trkpt>
      <trkpt lat="44.43704" lon="6.74335">
        <ele>1281.574707</ele>
        <time>2010-07-24T06:45:39Z</time>
      </trkpt>
      <trkpt lat="44.43715" lon="6.74332">
        <ele>1278.2102051</ele>
        <time>2010-07-24T06:45:41Z</time>
      </trkpt>
      <trkpt lat="44.43737" lon="6.74316">
        <ele>1277.7294922</ele>
        <time>2010-07-24T06:45:46Z</time>
      </trkpt>
      <trkpt lat="44.43755" lon="6.74304">
        <ele>1276.7683105</ele>
        <time>2010-07-24T06:45:49Z</time>
      </trkpt>
      <trkpt lat="44.43781" lon="6.74304">
        <ele>1275.8066406</ele>
        <time>2010-07-24T06:45:54Z</time>
      </trkpt>
      <trkpt lat="44.438" lon="6.74304">
        <ele>1275.8066406</ele>
        <time>2010-07-24T06:45:58Z</time>
      </trkpt>
      <trkpt lat="44.43803" lon="6.74305">
        <ele>1276.2875977</ele>
        <time>2010-07-24T06:45:59Z</time>
      </trkpt>
      <trkpt lat="44.43827" lon="6.74315">
        <ele>1277.2490234</ele>
        <time>2010-07-24T06:46:05Z</time>
      </trkpt>
      <trkpt lat="44.43845" lon="6.74334">
        <ele>1279.1713867</ele>
        <time>2010-07-24T06:46:10Z</time>
      </trkpt>
      <trkpt lat="44.43852" lon="6.74341">
        <ele>1280.1328125</ele>
        <time>2010-07-24T06:46:12Z</time>
      </trkpt>
      <trkpt lat="44.43867" lon="6.74348">
        <ele>1280.6135254</ele>
        <time>2010-07-24T06:46:18Z</time>
      </trkpt>
      <trkpt lat="44.43871" lon="6.7435">
        <ele>1281.0942383</ele>
        <time>2010-07-24T06:46:22Z</time>
      </trkpt>
      <trkpt lat="44.4387" lon="6.74351">
        <ele>1274.845459</ele>
        <time>2010-07-24T06:47:55Z</time>
      </trkpt>
      <trkpt lat="44.43872" lon="6.74346">
        <ele>1277.7294922</ele>
        <time>2010-07-24T06:48:00Z</time>
      </trkpt>
      <trkpt lat="44.43876" lon="6.74339">
        <ele>1278.690918</ele>
        <time>2010-07-24T06:48:04Z</time>
      </trkpt>
      <trkpt lat="44.43886" lon="6.74321">
        <ele>1281.0942383</ele>
        <time>2010-07-24T06:48:12Z</time>
      </trkpt>
      <trkpt lat="44.43896" lon="6.743">
        <ele>1290.2265625</ele>
        <time>2010-07-24T06:48:20Z</time>
      </trkpt>
      <trkpt lat="44.439" lon="6.74289">
        <ele>1299.3591309</ele>
        <time>2010-07-24T06:48:25Z</time>
      </trkpt>
      <trkpt lat="44.43899" lon="6.74284">
        <ele>1303.6850586</ele>
        <time>2010-07-24T06:48:28Z</time>
      </trkpt>
      <trkpt lat="44.43899" lon="6.7428">
        <ele>1306.5688477</ele>
        <time>2010-07-24T06:48:31Z</time>
      </trkpt>
      <trkpt lat="44.43905" lon="6.74278">
        <ele>1306.0881348</ele>
        <time>2010-07-24T06:48:37Z</time>
      </trkpt>
      <trkpt lat="44.43902" lon="6.74279">
        <ele>1296.4753418</ele>
        <time>2010-07-24T06:49:53Z</time>
      </trkpt>
      <trkpt lat="44.43894" lon="6.74286">
        <ele>1300.3205566</ele>
        <time>2010-07-24T06:49:59Z</time>
      </trkpt>
      <trkpt lat="44.43885" lon="6.743">
        <ele>1295.513916</ele>
        <time>2010-07-24T06:50:05Z</time>
      </trkpt>
      <trkpt lat="44.43877" lon="6.74312">
        <ele>1290.7070312</ele>
        <time>2010-07-24T06:50:10Z</time>
      </trkpt>
      <trkpt lat="44.4387" lon="6.74317">
        <ele>1290.7070312</ele>
        <time>2010-07-24T06:50:15Z</time>
      </trkpt>
      <trkpt lat="44.43866" lon="6.74311">
        <ele>1289.7458496</ele>
        <time>2010-07-24T06:50:19Z</time>
      </trkpt>
      <trkpt lat="44.43869" lon="6.74305">
        <ele>1291.668457</ele>
        <time>2010-07-24T06:50:23Z</time>
      </trkpt>
      <trkpt lat="44.43877" lon="6.74296">
        <ele>1296.4753418</ele>
        <time>2010-07-24T06:50:30Z</time>
      </trkpt>
      <trkpt lat="44.4388" lon="6.74284">
        <ele>1299.3591309</ele>
        <time>2010-07-24T06:50:36Z</time>
      </trkpt>
      <trkpt lat="44.43882" lon="6.74274">
        <ele>1304.6462402</ele>
        <time>2010-07-24T06:50:41Z</time>
      </trkpt>
      <trkpt lat="44.43885" lon="6.74261">
        <ele>1308.4916992</ele>
        <time>2010-07-24T06:50:46Z</time>
      </trkpt>
      <trkpt lat="44.43889" lon="6.74255">
        <ele>1317.6240234</ele>
        <time>2010-07-24T06:50:49Z</time>
      </trkpt>
      <trkpt lat="44.43892" lon="6.74237">
        <ele>1324.8342285</ele>
        <time>2010-07-24T06:50:56Z</time>
      </trkpt>
      <trkpt lat="44.43893" lon="6.74234">
        <ele>1325.3146973</ele>
        <time>2010-07-24T06:50:57Z</time>
      </trkpt>
      <trkpt lat="44.43899" lon="6.74223">
        <ele>1326.7568359</ele>
        <time>2010-07-24T06:51:02Z</time>
      </trkpt>
      <trkpt lat="44.43908" lon="6.74208">
        <ele>1337.3310547</ele>
        <time>2010-07-24T06:51:10Z</time>
      </trkpt>
      <trkpt lat="44.43911" lon="6.74193">
        <ele>1342.1379395</ele>
        <time>2010-07-24T06:51:17Z</time>
      </trkpt>
      <trkpt lat="44.43912" lon="6.74183">
        <ele>1345.0217285</ele>
        <time>2010-07-24T06:51:22Z</time>
      </trkpt>
      <trkpt lat="44.43921" lon="6.7416">
        <ele>1341.1765137</ele>
        <time>2010-07-24T06:51:30Z</time>
      </trkpt>
      <trkpt lat="44.43929" lon="6.74147">
        <ele>1338.2924805</ele>
        <time>2010-07-24T06:51:37Z</time>
      </trkpt>
      <trkpt lat="44.43934" lon="6.74139">
        <ele>1339.734375</ele>
        <time>2010-07-24T06:51:43Z</time>
      </trkpt>
      <trkpt lat="44.43943" lon="6.74125">
        <ele>1342.1379395</ele>
        <time>2010-07-24T06:51:51Z</time>
      </trkpt>
      <trkpt lat="44.4395" lon="6.74114">
        <ele>1336.8503418</ele>
        <time>2010-07-24T06:51:56Z</time>
      </trkpt>
      <trkpt lat="44.43962" lon="6.74107">
        <ele>1326.7568359</ele>
        <time>2010-07-24T06:52:04Z</time>
      </trkpt>
      <trkpt lat="44.43973" lon="6.74105">
        <ele>1322.4306641</ele>
        <time>2010-07-24T06:52:11Z</time>
      </trkpt>
      <trkpt lat="44.43985" lon="6.74109">
        <ele>1322.4306641</ele>
        <time>2010-07-24T06:52:18Z</time>
      </trkpt>
      <trkpt lat="44.43996" lon="6.74115">
        <ele>1321.9499512</ele>
        <time>2010-07-24T06:52:25Z</time>
      </trkpt>
      <trkpt lat="44.44008" lon="6.74117">
        <ele>1321.4692383</ele>
        <time>2010-07-24T06:52:32Z</time>
      </trkpt>
      <trkpt lat="44.4402" lon="6.74114">
        <ele>1321.4692383</ele>
        <time>2010-07-24T06:52:39Z</time>
      </trkpt>
      <trkpt lat="44.44033" lon="6.74105">
        <ele>1325.3146973</ele>
        <time>2010-07-24T06:52:48Z</time>
      </trkpt>
      <trkpt lat="44.44042" lon="6.74094">
        <ele>1330.1213379</ele>
        <time>2010-07-24T06:52:56Z</time>
      </trkpt>
      <trkpt lat="44.44047" lon="6.74084">
        <ele>1331.5632324</ele>
        <time>2010-07-24T06:53:01Z</time>
      </trkpt>
      <trkpt lat="44.44049" lon="6.74075">
        <ele>1336.369873</ele>
        <time>2010-07-24T06:53:08Z</time>
      </trkpt>
      <trkpt lat="44.44056" lon="6.7406">
        <ele>1340.6958008</ele>
        <time>2010-07-24T06:53:16Z</time>
      </trkpt>
      <trkpt lat="44.44061" lon="6.74048">
        <ele>1343.0991211</ele>
        <time>2010-07-24T06:53:21Z</time>
      </trkpt>
      <trkpt lat="44.44067" lon="6.74035">
        <ele>1346.4638672</ele>
        <time>2010-07-24T06:53:27Z</time>
      </trkpt>
      <trkpt lat="44.44074" lon="6.74024">
        <ele>1343.0991211</ele>
        <time>2010-07-24T06:53:33Z</time>
      </trkpt>
      <trkpt lat="44.44086" lon="6.74012">
        <ele>1337.8117676</ele>
        <time>2010-07-24T06:53:41Z</time>
      </trkpt>
      <trkpt lat="44.44088" lon="6.74003">
        <ele>1339.2536621</ele>
        <time>2010-07-24T06:53:46Z</time>
      </trkpt>
      <trkpt lat="44.44083" lon="6.73999">
        <ele>1340.215332</ele>
        <time>2010-07-24T06:53:50Z</time>
      </trkpt>
      <trkpt lat="44.44068" lon="6.74011">
        <ele>1342.1379395</ele>
        <time>2010-07-24T06:53:59Z</time>
      </trkpt>
      <trkpt lat="44.44056" lon="6.74017">
        <ele>1343.579834</ele>
        <time>2010-07-24T06:54:07Z</time>
      </trkpt>
      <trkpt lat="44.44041" lon="6.7403">
        <ele>1344.0605469</ele>
        <time>2010-07-24T06:54:17Z</time>
      </trkpt>
      <trkpt lat="44.44026" lon="6.74035">
        <ele>1343.579834</ele>
        <time>2010-07-24T06:54:26Z</time>
      </trkpt>
      <trkpt lat="44.44016" lon="6.74034">
        <ele>1349.3476562</ele>
        <time>2010-07-24T06:54:33Z</time>
      </trkpt>
      <trkpt lat="44.44003" lon="6.74031">
        <ele>1348.8669434</ele>
        <time>2010-07-24T06:54:40Z</time>
      </trkpt>
      <trkpt lat="44.44001" lon="6.74028">
        <ele>1349.8283691</ele>
        <time>2010-07-24T06:54:42Z</time>
      </trkpt>
      <trkpt lat="44.44006" lon="6.74018">
        <ele>1350.309082</ele>
        <time>2010-07-24T06:54:48Z</time>
      </trkpt>
      <trkpt lat="44.44011" lon="6.74015">
        <ele>1352.2314453</ele>
        <time>2010-07-24T06:54:52Z</time>
      </trkpt>
      <trkpt lat="44.44019" lon="6.74013">
        <ele>1354.6347656</ele>
        <time>2010-07-24T06:54:59Z</time>
      </trkpt>
      <trkpt lat="44.44029" lon="6.74004">
        <ele>1355.1154785</ele>
        <time>2010-07-24T06:55:06Z</time>
      </trkpt>
      <trkpt lat="44.44038" lon="6.73991">
        <ele>1356.0769043</ele>
        <time>2010-07-24T06:55:14Z</time>
      </trkpt>
      <trkpt lat="44.44044" lon="6.73981">
        <ele>1357.519043</ele>
        <time>2010-07-24T06:55:20Z</time>
      </trkpt>
      <trkpt lat="44.44051" lon="6.73971">
        <ele>1358.4802246</ele>
        <time>2010-07-24T06:55:27Z</time>
      </trkpt>
      <trkpt lat="44.44059" lon="6.73964">
        <ele>1361.8449707</ele>
        <time>2010-07-24T06:55:33Z</time>
      </trkpt>
      <trkpt lat="44.44067" lon="6.73956">
        <ele>1368.5739746</ele>
        <time>2010-07-24T06:55:39Z</time>
      </trkpt>
      <trkpt lat="44.44073" lon="6.73949">
        <ele>1365.6901855</ele>
        <time>2010-07-24T06:55:45Z</time>
      </trkpt>
      <trkpt lat="44.4408" lon="6.73938">
        <ele>1360.402832</ele>
        <time>2010-07-24T06:55:52Z</time>
      </trkpt>
      <trkpt lat="44.44088" lon="6.73929">
        <ele>1361.3642578</ele>
        <time>2010-07-24T06:55:58Z</time>
      </trkpt>
      <trkpt lat="44.441" lon="6.73922">
        <ele>1359.4416504</ele>
        <time>2010-07-24T06:56:06Z</time>
      </trkpt>
      <trkpt lat="44.44117" lon="6.73918">
        <ele>1357.519043</ele>
        <time>2010-07-24T06:56:16Z</time>
      </trkpt>
      <trkpt lat="44.44133" lon="6.73921">
        <ele>1359.9221191</ele>
        <time>2010-07-24T06:56:24Z</time>
      </trkpt>
      <trkpt lat="44.44145" lon="6.73923">
        <ele>1361.3642578</ele>
        <time>2010-07-24T06:56:31Z</time>
      </trkpt>
      <trkpt lat="44.44158" lon="6.73926">
        <ele>1362.3254395</ele>
        <time>2010-07-24T06:56:39Z</time>
      </trkpt>
      <trkpt lat="44.44165" lon="6.73929">
        <ele>1362.8061523</ele>
        <time>2010-07-24T06:56:44Z</time>
      </trkpt>
      <trkpt lat="44.44177" lon="6.73932">
        <ele>1363.767334</ele>
        <time>2010-07-24T06:56:52Z</time>
      </trkpt>
      <trkpt lat="44.44189" lon="6.7393">
        <ele>1366.1706543</ele>
        <time>2010-07-24T06:57:00Z</time>
      </trkpt>
      <trkpt lat="44.44199" lon="6.73926">
        <ele>1366.6513672</ele>
        <time>2010-07-24T06:57:06Z</time>
      </trkpt>
      <trkpt lat="44.44212" lon="6.73921">
        <ele>1367.6125488</ele>
        <time>2010-07-24T06:57:14Z</time>
      </trkpt>
      <trkpt lat="44.44226" lon="6.7392">
        <ele>1369.0546875</ele>
        <time>2010-07-24T06:57:23Z</time>
      </trkpt>
      <trkpt lat="44.44237" lon="6.73921">
        <ele>1371.4577637</ele>
        <time>2010-07-24T06:57:30Z</time>
      </trkpt>
      <trkpt lat="44.44248" lon="6.73918">
        <ele>1372.4194336</ele>
        <time>2010-07-24T06:57:38Z</time>
      </trkpt>
      <trkpt lat="44.44265" lon="6.73917">
        <ele>1373.8613281</ele>
        <time>2010-07-24T06:57:49Z</time>
      </trkpt>
      <trkpt lat="44.44276" lon="6.73915">
        <ele>1374.342041</ele>
        <time>2010-07-24T06:57:56Z</time>
      </trkpt>
      <trkpt lat="44.44292" lon="6.73909">
        <ele>1375.7839355</ele>
        <time>2010-07-24T06:58:06Z</time>
      </trkpt>
      <trkpt lat="44.44304" lon="6.73901">
        <ele>1377.2260742</ele>
        <time>2010-07-24T06:58:14Z</time>
      </trkpt>
      <trkpt lat="44.44315" lon="6.7389">
        <ele>1379.1484375</ele>
        <time>2010-07-24T06:58:23Z</time>
      </trkpt>
      <trkpt lat="44.44325" lon="6.73875">
        <ele>1381.5517578</ele>
        <time>2010-07-24T06:58:33Z</time>
      </trkpt>
      <trkpt lat="44.44336" lon="6.73862">
        <ele>1383.4743652</ele>
        <time>2010-07-24T06:58:42Z</time>
      </trkpt>
      <trkpt lat="44.44341" lon="6.73849">
        <ele>1387.800293</ele>
        <time>2010-07-24T06:58:49Z</time>
      </trkpt>
      <trkpt lat="44.44345" lon="6.73836">
        <ele>1391.645752</ele>
        <time>2010-07-24T06:58:55Z</time>
      </trkpt>
      <trkpt lat="44.44357" lon="6.73831">
        <ele>1391.1650391</ele>
        <time>2010-07-24T06:59:02Z</time>
      </trkpt>
      <trkpt lat="44.44369" lon="6.73836">
        <ele>1388.7619629</ele>
        <time>2010-07-24T06:59:09Z</time>
      </trkpt>
      <trkpt lat="44.44382" lon="6.73838">
        <ele>1387.800293</ele>
        <time>2010-07-24T06:59:16Z</time>
      </trkpt>
      <trkpt lat="44.44394" lon="6.73831">
        <ele>1386.8388672</ele>
        <time>2010-07-24T06:59:23Z</time>
      </trkpt>
      <trkpt lat="44.44401" lon="6.73818">
        <ele>1389.7231445</ele>
        <time>2010-07-24T06:59:30Z</time>
      </trkpt>
      <trkpt lat="44.444" lon="6.73813">
        <ele>1391.1650391</ele>
        <time>2010-07-24T06:59:32Z</time>
      </trkpt>
      <trkpt lat="44.4439" lon="6.73806">
        <ele>1396.9328613</ele>
        <time>2010-07-24T06:59:39Z</time>
      </trkpt>
      <trkpt lat="44.44373" lon="6.73802">
        <ele>1397.8942871</ele>
        <time>2010-07-24T06:59:48Z</time>
      </trkpt>
      <trkpt lat="44.44362" lon="6.73799">
        <ele>1400.2976074</ele>
        <time>2010-07-24T06:59:55Z</time>
      </trkpt>
      <trkpt lat="44.44353" lon="6.7379">
        <ele>1402.2199707</ele>
        <time>2010-07-24T07:00:02Z</time>
      </trkpt>
      <trkpt lat="44.44343" lon="6.73783">
        <ele>1407.5075684</ele>
        <time>2010-07-24T07:00:09Z</time>
      </trkpt>
      <trkpt lat="44.44331" lon="6.73783">
        <ele>1413.2753906</ele>
        <time>2010-07-24T07:00:17Z</time>
      </trkpt>
      <trkpt lat="44.4432" lon="6.73791">
        <ele>1416.6398926</ele>
        <time>2010-07-24T07:00:24Z</time>
      </trkpt>
      <trkpt lat="44.44308" lon="6.73799">
        <ele>1420.9660645</ele>
        <time>2010-07-24T07:00:32Z</time>
      </trkpt>
      <trkpt lat="44.44295" lon="6.73801">
        <ele>1423.3693848</ele>
        <time>2010-07-24T07:00:39Z</time>
      </trkpt>
      <trkpt lat="44.44284" lon="6.738">
        <ele>1425.291748</ele>
        <time>2010-07-24T07:00:45Z</time>
      </trkpt>
      <trkpt lat="44.44272" lon="6.73798">
        <ele>1425.291748</ele>
        <time>2010-07-24T07:00:52Z</time>
      </trkpt>
      <trkpt lat="44.44259" lon="6.73793">
        <ele>1425.7724609</ele>
        <time>2010-07-24T07:00:59Z</time>
      </trkpt>
      <trkpt lat="44.44249" lon="6.73788">
        <ele>1421.9272461</ele>
        <time>2010-07-24T07:01:05Z</time>
      </trkpt>
      <trkpt lat="44.44236" lon="6.73785">
        <ele>1418.0817871</ele>
        <time>2010-07-24T07:01:12Z</time>
      </trkpt>
      <trkpt lat="44.44223" lon="6.73792">
        <ele>1423.3693848</ele>
        <time>2010-07-24T07:01:20Z</time>
      </trkpt>
      <trkpt lat="44.44211" lon="6.73799">
        <ele>1432.9821777</ele>
        <time>2010-07-24T07:01:28Z</time>
      </trkpt>
      <trkpt lat="44.442" lon="6.73806">
        <ele>1437.7890625</ele>
        <time>2010-07-24T07:01:35Z</time>
      </trkpt>
      <trkpt lat="44.44189" lon="6.73808">
        <ele>1440.6728516</ele>
        <time>2010-07-24T07:01:40Z</time>
      </trkpt>
      <trkpt lat="44.4418" lon="6.73804">
        <ele>1438.2697754</ele>
        <time>2010-07-24T07:01:45Z</time>
      </trkpt>
      <trkpt lat="44.44171" lon="6.7379">
        <ele>1436.8276367</ele>
        <time>2010-07-24T07:01:52Z</time>
      </trkpt>
      <trkpt lat="44.44161" lon="6.73781">
        <ele>1436.347168</ele>
        <time>2010-07-24T07:01:58Z</time>
      </trkpt>
      <trkpt lat="44.44149" lon="6.73777">
        <ele>1436.8276367</ele>
        <time>2010-07-24T07:02:06Z</time>
      </trkpt>
      <trkpt lat="44.44147" lon="6.73773">
        <ele>1437.3083496</ele>
        <time>2010-07-24T07:02:08Z</time>
      </trkpt>
      <trkpt lat="44.44151" lon="6.73764">
        <ele>1436.8276367</ele>
        <time>2010-07-24T07:02:13Z</time>
      </trkpt>
      <trkpt lat="44.44154" lon="6.73765">
        <ele>1436.8276367</ele>
        <time>2010-07-24T07:02:15Z</time>
      </trkpt>
      <trkpt lat="44.44169" lon="6.73774">
        <ele>1436.347168</ele>
        <time>2010-07-24T07:02:25Z</time>
      </trkpt>
      <trkpt lat="44.4418" lon="6.73775">
        <ele>1434.9050293</ele>
        <time>2010-07-24T07:02:31Z</time>
      </trkpt>
      <trkpt lat="44.44191" lon="6.73766">
        <ele>1435.385498</ele>
        <time>2010-07-24T07:02:38Z</time>
      </trkpt>
      <trkpt lat="44.44197" lon="6.73755">
        <ele>1437.7890625</ele>
        <time>2010-07-24T07:02:44Z</time>
      </trkpt>
      <trkpt lat="44.44206" lon="6.73738">
        <ele>1443.0761719</ele>
        <time>2010-07-24T07:02:53Z</time>
      </trkpt>
      <trkpt lat="44.44213" lon="6.73731">
        <ele>1444.9987793</ele>
        <time>2010-07-24T07:02:59Z</time>
      </trkpt>
      <trkpt lat="44.44225" lon="6.73721">
        <ele>1444.9987793</ele>
        <time>2010-07-24T07:03:07Z</time>
      </trkpt>
      <trkpt lat="44.44234" lon="6.73711">
        <ele>1446.440918</ele>
        <time>2010-07-24T07:03:14Z</time>
      </trkpt>
      <trkpt lat="44.44244" lon="6.73698">
        <ele>1447.4020996</ele>
        <time>2010-07-24T07:03:22Z</time>
      </trkpt>
      <trkpt lat="44.44252" lon="6.73688">
        <ele>1446.440918</ele>
        <time>2010-07-24T07:03:29Z</time>
      </trkpt>
      <trkpt lat="44.44258" lon="6.73676">
        <ele>1445.9602051</ele>
        <time>2010-07-24T07:03:35Z</time>
      </trkpt>
      <trkpt lat="44.44266" lon="6.73666">
        <ele>1445.4794922</ele>
        <time>2010-07-24T07:03:42Z</time>
      </trkpt>
      <trkpt lat="44.44278" lon="6.73661">
        <ele>1445.9602051</ele>
        <time>2010-07-24T07:03:49Z</time>
      </trkpt>
      <trkpt lat="44.44294" lon="6.73659">
        <ele>1442.5957031</ele>
        <time>2010-07-24T07:03:57Z</time>
      </trkpt>
      <trkpt lat="44.44308" lon="6.73664">
        <ele>1440.1923828</ele>
        <time>2010-07-24T07:04:04Z</time>
      </trkpt>
      <trkpt lat="44.44326" lon="6.73669">
        <ele>1441.6342773</ele>
        <time>2010-07-24T07:04:13Z</time>
      </trkpt>
      <trkpt lat="44.44333" lon="6.73668">
        <ele>1442.5957031</ele>
        <time>2010-07-24T07:04:17Z</time>
      </trkpt>
      <trkpt lat="44.44335" lon="6.7366">
        <ele>1444.0375977</ele>
        <time>2010-07-24T07:04:22Z</time>
      </trkpt>
      <trkpt lat="44.4433" lon="6.7366">
        <ele>1444.5180664</ele>
        <time>2010-07-24T07:04:25Z</time>
      </trkpt>
      <trkpt lat="44.44315" lon="6.73657">
        <ele>1446.9213867</ele>
        <time>2010-07-24T07:04:34Z</time>
      </trkpt>
      <trkpt lat="44.44305" lon="6.73651">
        <ele>1449.8054199</ele>
        <time>2010-07-24T07:04:41Z</time>
      </trkpt>
      <trkpt lat="44.44295" lon="6.73644">
        <ele>1452.6894531</ele>
        <time>2010-07-24T07:04:48Z</time>
      </trkpt>
      <trkpt lat="44.44287" lon="6.7364">
        <ele>1457.4960938</ele>
        <time>2010-07-24T07:04:55Z</time>
      </trkpt>
      <trkpt lat="44.44275" lon="6.7364">
        <ele>1457.9768066</ele>
        <time>2010-07-24T07:05:02Z</time>
      </trkpt>
      <trkpt lat="44.44261" lon="6.73638">
        <ele>1458.4572754</ele>
        <time>2010-07-24T07:05:10Z</time>
      </trkpt>
      <trkpt lat="44.44249" lon="6.73636">
        <ele>1466.628418</ele>
        <time>2010-07-24T07:05:18Z</time>
      </trkpt>
      <trkpt lat="44.44235" lon="6.73638">
        <ele>1466.628418</ele>
        <time>2010-07-24T07:05:26Z</time>
      </trkpt>
      <trkpt lat="44.44222" lon="6.73643">
        <ele>1467.1091309</ele>
        <time>2010-07-24T07:05:34Z</time>
      </trkpt>
      <trkpt lat="44.44212" lon="6.7365">
        <ele>1465.6672363</ele>
        <time>2010-07-24T07:05:41Z</time>
      </trkpt>
      <trkpt lat="44.44202" lon="6.73654">
        <ele>1462.7832031</ele>
        <time>2010-07-24T07:05:47Z</time>
      </trkpt>
      <trkpt lat="44.44193" lon="6.7366">
        <ele>1459.8991699</ele>
        <time>2010-07-24T07:05:54Z</time>
      </trkpt>
      <trkpt lat="44.44181" lon="6.73666">
        <ele>1457.9768066</ele>
        <time>2010-07-24T07:06:02Z</time>
      </trkpt>
      <trkpt lat="44.44168" lon="6.73671">
        <ele>1460.8605957</ele>
        <time>2010-07-24T07:06:09Z</time>
      </trkpt>
      <trkpt lat="44.44155" lon="6.73674">
        <ele>1468.5512695</ele>
        <time>2010-07-24T07:06:15Z</time>
      </trkpt>
      <trkpt lat="44.44144" lon="6.73675">
        <ele>1468.5512695</ele>
        <time>2010-07-24T07:06:21Z</time>
      </trkpt>
      <trkpt lat="44.44134" lon="6.73668">
        <ele>1467.1091309</ele>
        <time>2010-07-24T07:06:28Z</time>
      </trkpt>
      <trkpt lat="44.44128" lon="6.73662">
        <ele>1466.1477051</ele>
        <time>2010-07-24T07:06:31Z</time>
      </trkpt>
      <trkpt lat="44.44121" lon="6.73658">
        <ele>1471.9157715</ele>
        <time>2010-07-24T07:06:37Z</time>
      </trkpt>
      <trkpt lat="44.44111" lon="6.73654">
        <ele>1473.8383789</ele>
        <time>2010-07-24T07:06:43Z</time>
      </trkpt>
      <trkpt lat="44.44101" lon="6.73652">
        <ele>1476.7224121</ele>
        <time>2010-07-24T07:06:50Z</time>
      </trkpt>
      <trkpt lat="44.4409" lon="6.73648">
        <ele>1480.0869141</ele>
        <time>2010-07-24T07:06:57Z</time>
      </trkpt>
      <trkpt lat="44.44081" lon="6.73645">
        <ele>1486.3356934</ele>
        <time>2010-07-24T07:07:04Z</time>
      </trkpt>
      <trkpt lat="44.4407" lon="6.73639">
        <ele>1488.2583008</ele>
        <time>2010-07-24T07:07:11Z</time>
      </trkpt>
      <trkpt lat="44.44061" lon="6.73633">
        <ele>1491.6228027</ele>
        <time>2010-07-24T07:07:18Z</time>
      </trkpt>
      <trkpt lat="44.44048" lon="6.73624">
        <ele>1492.5842285</ele>
        <time>2010-07-24T07:07:26Z</time>
      </trkpt>
      <trkpt lat="44.44033" lon="6.7362">
        <ele>1494.5065918</ele>
        <time>2010-07-24T07:07:34Z</time>
      </trkpt>
      <trkpt lat="44.44021" lon="6.73613">
        <ele>1491.6228027</ele>
        <time>2010-07-24T07:07:43Z</time>
      </trkpt>
      <trkpt lat="44.44018" lon="6.73611">
        <ele>1492.5842285</ele>
        <time>2010-07-24T07:07:46Z</time>
      </trkpt>
      <trkpt lat="44.44004" lon="6.7361">
        <ele>1493.0646973</ele>
        <time>2010-07-24T07:07:55Z</time>
      </trkpt>
      <trkpt lat="44.43995" lon="6.73607">
        <ele>1490.661377</ele>
        <time>2010-07-24T07:08:00Z</time>
      </trkpt>
      <trkpt lat="44.43999" lon="6.73598">
        <ele>1492.1035156</ele>
        <time>2010-07-24T07:08:05Z</time>
      </trkpt>
      <trkpt lat="44.44005" lon="6.73596">
        <ele>1493.0646973</ele>
        <time>2010-07-24T07:08:08Z</time>
      </trkpt>
      <trkpt lat="44.44027" lon="6.73596">
        <ele>1489.2194824</ele>
        <time>2010-07-24T07:08:20Z</time>
      </trkpt>
      <trkpt lat="44.44046" lon="6.73593">
        <ele>1490.661377</ele>
        <time>2010-07-24T07:08:30Z</time>
      </trkpt>
      <trkpt lat="44.44065" lon="6.7359">
        <ele>1491.1420898</ele>
        <time>2010-07-24T07:08:42Z</time>
      </trkpt>
      <trkpt lat="44.44074" lon="6.73589">
        <ele>1490.1809082</ele>
        <time>2010-07-24T07:08:48Z</time>
      </trkpt>
      <trkpt lat="44.4408" lon="6.73585">
        <ele>1492.1035156</ele>
        <time>2010-07-24T07:08:52Z</time>
      </trkpt>
      <trkpt lat="44.44094" lon="6.7358">
        <ele>1491.1420898</ele>
        <time>2010-07-24T07:09:00Z</time>
      </trkpt>
      <trkpt lat="44.44108" lon="6.73571">
        <ele>1489.7001953</ele>
        <time>2010-07-24T07:09:10Z</time>
      </trkpt>
      <trkpt lat="44.44123" lon="6.73567">
        <ele>1489.7001953</ele>
        <time>2010-07-24T07:09:19Z</time>
      </trkpt>
      <trkpt lat="44.44134" lon="6.73561">
        <ele>1489.2194824</ele>
        <time>2010-07-24T07:09:27Z</time>
      </trkpt>
      <trkpt lat="44.44144" lon="6.73559">
        <ele>1487.7775879</ele>
        <time>2010-07-24T07:09:33Z</time>
      </trkpt>
      <trkpt lat="44.44146" lon="6.73556">
        <ele>1488.7390137</ele>
        <time>2010-07-24T07:09:35Z</time>
      </trkpt>
      <trkpt lat="44.4415" lon="6.73532">
        <ele>1492.1035156</ele>
        <time>2010-07-24T07:09:45Z</time>
      </trkpt>
      <trkpt lat="44.44152" lon="6.73518">
        <ele>1495.9487305</ele>
        <time>2010-07-24T07:09:52Z</time>
      </trkpt>
      <trkpt lat="44.44151" lon="6.73515">
        <ele>1496.9099121</ele>
        <time>2010-07-24T07:09:57Z</time>
      </trkpt>
      <trkpt lat="44.44145" lon="6.73511">
        <ele>1492.1035156</ele>
        <time>2010-07-24T07:10:24Z</time>
      </trkpt>
      <trkpt lat="44.44169" lon="6.73475">
        <ele>1509.4072266</ele>
        <time>2010-07-24T07:10:32Z</time>
      </trkpt>
      <trkpt lat="44.44183" lon="6.73458">
        <ele>1506.5231934</ele>
        <time>2010-07-24T07:10:38Z</time>
      </trkpt>
      <trkpt lat="44.44201" lon="6.73448">
        <ele>1506.0424805</ele>
        <time>2010-07-24T07:10:44Z</time>
      </trkpt>
      <trkpt lat="44.44214" lon="6.73447">
        <ele>1507.4846191</ele>
        <time>2010-07-24T07:10:49Z</time>
      </trkpt>
      <trkpt lat="44.4423" lon="6.7345">
        <ele>1509.4072266</ele>
        <time>2010-07-24T07:10:56Z</time>
      </trkpt>
      <trkpt lat="44.44248" lon="6.73448">
        <ele>1511.329834</ele>
        <time>2010-07-24T07:11:05Z</time>
      </trkpt>
      <trkpt lat="44.44267" lon="6.73438">
        <ele>1511.8105469</ele>
        <time>2010-07-24T07:11:16Z</time>
      </trkpt>
      <trkpt lat="44.44271" lon="6.73432">
        <ele>1514.213623</ele>
        <time>2010-07-24T07:11:19Z</time>
      </trkpt>
      <trkpt lat="44.44288" lon="6.73431">
        <ele>1514.213623</ele>
        <time>2010-07-24T07:11:26Z</time>
      </trkpt>
      <trkpt lat="44.443" lon="6.73416">
        <ele>1514.6943359</ele>
        <time>2010-07-24T07:11:33Z</time>
      </trkpt>
      <trkpt lat="44.44307" lon="6.73412">
        <ele>1516.1364746</ele>
        <time>2010-07-24T07:11:38Z</time>
      </trkpt>
      <trkpt lat="44.44311" lon="6.73408">
        <ele>1520.9431152</ele>
        <time>2010-07-24T07:11:43Z</time>
      </trkpt>
      <trkpt lat="44.44308" lon="6.73413">
        <ele>1535.362793</ele>
        <time>2010-07-24T07:12:16Z</time>
      </trkpt>
      <trkpt lat="44.44316" lon="6.73407">
        <ele>1532.9594727</ele>
        <time>2010-07-24T07:12:20Z</time>
      </trkpt>
      <trkpt lat="44.44332" lon="6.73394">
        <ele>1530.0754395</ele>
        <time>2010-07-24T07:12:25Z</time>
      </trkpt>
      <trkpt lat="44.44354" lon="6.73376">
        <ele>1527.1916504</ele>
        <time>2010-07-24T07:12:31Z</time>
      </trkpt>
      <trkpt lat="44.44377" lon="6.73354">
        <ele>1525.2687988</ele>
        <time>2010-07-24T07:12:39Z</time>
      </trkpt>
      <trkpt lat="44.44393" lon="6.73346">
        <ele>1524.7883301</ele>
        <time>2010-07-24T07:12:44Z</time>
      </trkpt>
      <trkpt lat="44.44403" lon="6.73353">
        <ele>1523.8269043</ele>
        <time>2010-07-24T07:12:48Z</time>
      </trkpt>
      <trkpt lat="44.44419" lon="6.73367">
        <ele>1523.8269043</ele>
        <time>2010-07-24T07:12:54Z</time>
      </trkpt>
      <trkpt lat="44.44445" lon="6.73383">
        <ele>1523.3464355</ele>
        <time>2010-07-24T07:13:01Z</time>
      </trkpt>
      <trkpt lat="44.4447" lon="6.73391">
        <ele>1522.3850098</ele>
        <time>2010-07-24T07:13:08Z</time>
      </trkpt>
      <trkpt lat="44.44487" lon="6.73386">
        <ele>1521.423584</ele>
        <time>2010-07-24T07:13:14Z</time>
      </trkpt>
      <trkpt lat="44.44505" lon="6.73375">
        <ele>1522.8657227</ele>
        <time>2010-07-24T07:13:23Z</time>
      </trkpt>
      <trkpt lat="44.44516" lon="6.73368">
        <ele>1523.8269043</ele>
        <time>2010-07-24T07:13:29Z</time>
      </trkpt>
      <trkpt lat="44.44528" lon="6.73357">
        <ele>1527.1916504</ele>
        <time>2010-07-24T07:13:36Z</time>
      </trkpt>
      <trkpt lat="44.44541" lon="6.73348">
        <ele>1533.9208984</ele>
        <time>2010-07-24T07:13:44Z</time>
      </trkpt>
      <trkpt lat="44.44555" lon="6.73344">
        <ele>1536.3242188</ele>
        <time>2010-07-24T07:13:52Z</time>
      </trkpt>
      <trkpt lat="44.44567" lon="6.73347">
        <ele>1536.3242188</ele>
        <time>2010-07-24T07:13:59Z</time>
      </trkpt>
      <trkpt lat="44.4458" lon="6.73351">
        <ele>1536.3242188</ele>
        <time>2010-07-24T07:14:07Z</time>
      </trkpt>
      <trkpt lat="44.4459" lon="6.73352">
        <ele>1536.3242188</ele>
        <time>2010-07-24T07:14:13Z</time>
      </trkpt>
      <trkpt lat="44.44593" lon="6.73351">
        <ele>1536.8046875</ele>
        <time>2010-07-24T07:14:16Z</time>
      </trkpt>
      <trkpt lat="44.44603" lon="6.73355">
        <ele>1538.2468262</ele>
        <time>2010-07-24T07:14:23Z</time>
      </trkpt>
      <trkpt lat="44.44617" lon="6.73358">
        <ele>1539.2080078</ele>
        <time>2010-07-24T07:14:31Z</time>
      </trkpt>
      <trkpt lat="44.44634" lon="6.73357">
        <ele>1537.7661133</ele>
        <time>2010-07-24T07:14:38Z</time>
      </trkpt>
      <trkpt lat="44.4465" lon="6.73353">
        <ele>1534.8823242</ele>
        <time>2010-07-24T07:14:46Z</time>
      </trkpt>
      <trkpt lat="44.44663" lon="6.73348">
        <ele>1533.4401855</ele>
        <time>2010-07-24T07:14:53Z</time>
      </trkpt>
      <trkpt lat="44.44675" lon="6.73343">
        <ele>1531.9980469</ele>
        <time>2010-07-24T07:14:59Z</time>
      </trkpt>
      <trkpt lat="44.44689" lon="6.73334">
        <ele>1534.8823242</ele>
        <time>2010-07-24T07:15:07Z</time>
      </trkpt>
      <trkpt lat="44.44703" lon="6.7332">
        <ele>1540.6499023</ele>
        <time>2010-07-24T07:15:16Z</time>
      </trkpt>
      <trkpt lat="44.44715" lon="6.73308">
        <ele>1544.4951172</ele>
        <time>2010-07-24T07:15:25Z</time>
      </trkpt>
      <trkpt lat="44.44729" lon="6.73297">
        <ele>1549.7827148</ele>
        <time>2010-07-24T07:15:33Z</time>
      </trkpt>
      <trkpt lat="44.44739" lon="6.73291">
        <ele>1551.7053223</ele>
        <time>2010-07-24T07:15:39Z</time>
      </trkpt>
      <trkpt lat="44.44744" lon="6.73287">
        <ele>1550.7438965</ele>
        <time>2010-07-24T07:15:43Z</time>
      </trkpt>
      <trkpt lat="44.44738" lon="6.73283">
        <ele>1553.1472168</ele>
        <time>2010-07-24T07:15:48Z</time>
      </trkpt>
      <trkpt lat="44.4473" lon="6.73289">
        <ele>1555.5505371</ele>
        <time>2010-07-24T07:15:54Z</time>
      </trkpt>
      <trkpt lat="44.44729" lon="6.73288">
        <ele>1555.0698242</ele>
        <time>2010-07-24T07:15:55Z</time>
      </trkpt>
      <trkpt lat="44.44711" lon="6.73297">
        <ele>1556.5117188</ele>
        <time>2010-07-24T07:16:04Z</time>
      </trkpt>
      <trkpt lat="44.44697" lon="6.73303">
        <ele>1559.395752</ele>
        <time>2010-07-24T07:16:12Z</time>
      </trkpt>
      <trkpt lat="44.44685" lon="6.73309">
        <ele>1561.3183594</ele>
        <time>2010-07-24T07:16:20Z</time>
      </trkpt>
      <trkpt lat="44.44672" lon="6.73315">
        <ele>1564.2023926</ele>
        <time>2010-07-24T07:16:27Z</time>
      </trkpt>
      <trkpt lat="44.44661" lon="6.73313">
        <ele>1568.5283203</ele>
        <time>2010-07-24T07:16:34Z</time>
      </trkpt>
      <trkpt lat="44.44648" lon="6.73303">
        <ele>1567.5668945</ele>
        <time>2010-07-24T07:16:42Z</time>
      </trkpt>
      <trkpt lat="44.44637" lon="6.73293">
        <ele>1569.0090332</ele>
        <time>2010-07-24T07:16:50Z</time>
      </trkpt>
      <trkpt lat="44.44628" lon="6.73275">
        <ele>1570.9316406</ele>
        <time>2010-07-24T07:16:58Z</time>
      </trkpt>
      <trkpt lat="44.44613" lon="6.73256">
        <ele>1572.3735352</ele>
        <time>2010-07-24T07:17:09Z</time>
      </trkpt>
      <trkpt lat="44.44598" lon="6.73244">
        <ele>1576.21875</ele>
        <time>2010-07-24T07:17:20Z</time>
      </trkpt>
      <trkpt lat="44.44587" lon="6.7324">
        <ele>1579.583252</ele>
        <time>2010-07-24T07:17:28Z</time>
      </trkpt>
      <trkpt lat="44.44577" lon="6.73237">
        <ele>1582.4675293</ele>
        <time>2010-07-24T07:17:35Z</time>
      </trkpt>
      <trkpt lat="44.44568" lon="6.73234">
        <ele>1582.947998</ele>
        <time>2010-07-24T07:17:42Z</time>
      </trkpt>
      <trkpt lat="44.44558" lon="6.73238">
        <ele>1581.9868164</ele>
        <time>2010-07-24T07:17:48Z</time>
      </trkpt>
      <trkpt lat="44.44548" lon="6.73239">
        <ele>1578.6220703</ele>
        <time>2010-07-24T07:17:54Z</time>
      </trkpt>
      <trkpt lat="44.44533" lon="6.73248">
        <ele>1578.1413574</ele>
        <time>2010-07-24T07:18:03Z</time>
      </trkpt>
      <trkpt lat="44.44524" lon="6.7325">
        <ele>1580.064209</ele>
        <time>2010-07-24T07:18:09Z</time>
      </trkpt>
      <trkpt lat="44.44514" lon="6.7325">
        <ele>1581.5061035</ele>
        <time>2010-07-24T07:18:16Z</time>
      </trkpt>
      <trkpt lat="44.44504" lon="6.73248">
        <ele>1585.8320312</ele>
        <time>2010-07-24T07:18:23Z</time>
      </trkpt>
      <trkpt lat="44.44495" lon="6.73243">
        <ele>1585.3513184</ele>
        <time>2010-07-24T07:18:30Z</time>
      </trkpt>
      <trkpt lat="44.44482" lon="6.73242">
        <ele>1588.2353516</ele>
        <time>2010-07-24T07:18:38Z</time>
      </trkpt>
      <trkpt lat="44.44466" lon="6.7324">
        <ele>1589.1965332</ele>
        <time>2010-07-24T07:18:46Z</time>
      </trkpt>
      <trkpt lat="44.44449" lon="6.73232">
        <ele>1589.6772461</ele>
        <time>2010-07-24T07:18:56Z</time>
      </trkpt>
      <trkpt lat="44.4443" lon="6.73221">
        <ele>1587.7546387</ele>
        <time>2010-07-24T07:19:05Z</time>
      </trkpt>
      <trkpt lat="44.44413" lon="6.73208">
        <ele>1589.6772461</ele>
        <time>2010-07-24T07:19:14Z</time>
      </trkpt>
      <trkpt lat="44.44402" lon="6.73197">
        <ele>1596.4067383</ele>
        <time>2010-07-24T07:19:23Z</time>
      </trkpt>
      <trkpt lat="44.44388" lon="6.73186">
        <ele>1601.2131348</ele>
        <time>2010-07-24T07:19:33Z</time>
      </trkpt>
      <trkpt lat="44.44376" lon="6.73179">
        <ele>1603.1357422</ele>
        <time>2010-07-24T07:19:41Z</time>
      </trkpt>
      <trkpt lat="44.44364" lon="6.73171">
        <ele>1606.0195312</ele>
        <time>2010-07-24T07:19:49Z</time>
      </trkpt>
      <trkpt lat="44.44353" lon="6.73159">
        <ele>1605.5390625</ele>
        <time>2010-07-24T07:19:57Z</time>
      </trkpt>
      <trkpt lat="44.44346" lon="6.73141">
        <ele>1600.2519531</ele>
        <time>2010-07-24T07:20:05Z</time>
      </trkpt>
      <trkpt lat="44.44339" lon="6.7313">
        <ele>1599.7712402</ele>
        <time>2010-07-24T07:20:13Z</time>
      </trkpt>
      <trkpt lat="44.44331" lon="6.73129">
        <ele>1602.6550293</ele>
        <time>2010-07-24T07:20:20Z</time>
      </trkpt>
      <trkpt lat="44.44328" lon="6.73127">
        <ele>1605.5390625</ele>
        <time>2010-07-24T07:20:23Z</time>
      </trkpt>
      <trkpt lat="44.44321" lon="6.73121">
        <ele>1610.345459</ele>
        <time>2010-07-24T07:20:31Z</time>
      </trkpt>
      <trkpt lat="44.44318" lon="6.7311">
        <ele>1613.2297363</ele>
        <time>2010-07-24T07:20:36Z</time>
      </trkpt>
      <trkpt lat="44.44314" lon="6.73088">
        <ele>1616.1135254</ele>
        <time>2010-07-24T07:20:44Z</time>
      </trkpt>
      <trkpt lat="44.44312" lon="6.73078">
        <ele>1619.4782715</ele>
        <time>2010-07-24T07:20:50Z</time>
      </trkpt>
      <trkpt lat="44.44306" lon="6.73066">
        <ele>1620.920166</ele>
        <time>2010-07-24T07:20:57Z</time>
      </trkpt>
      <trkpt lat="44.443" lon="6.73054">
        <ele>1623.3234863</ele>
        <time>2010-07-24T07:21:04Z</time>
      </trkpt>
      <trkpt lat="44.44291" lon="6.73045">
        <ele>1624.284668</ele>
        <time>2010-07-24T07:21:11Z</time>
      </trkpt>
      <trkpt lat="44.44278" lon="6.73046">
        <ele>1623.8039551</ele>
        <time>2010-07-24T07:21:18Z</time>
      </trkpt>
      <trkpt lat="44.44264" lon="6.7305">
        <ele>1626.2072754</ele>
        <time>2010-07-24T07:21:27Z</time>
      </trkpt>
      <trkpt lat="44.4425" lon="6.73056">
        <ele>1630.0527344</ele>
        <time>2010-07-24T07:21:35Z</time>
      </trkpt>
      <trkpt lat="44.44242" lon="6.73056">
        <ele>1634.3786621</ele>
        <time>2010-07-24T07:21:41Z</time>
      </trkpt>
      <trkpt lat="44.44237" lon="6.73053">
        <ele>1643.0302734</ele>
        <time>2010-07-24T07:21:48Z</time>
      </trkpt>
      <trkpt lat="44.44229" lon="6.73053">
        <ele>1647.8371582</ele>
        <time>2010-07-24T07:21:54Z</time>
      </trkpt>
      <trkpt lat="44.44221" lon="6.73053">
        <ele>1655.5275879</ele>
        <time>2010-07-24T07:22:01Z</time>
      </trkpt>
      <trkpt lat="44.44211" lon="6.73056">
        <ele>1659.8532715</ele>
        <time>2010-07-24T07:22:08Z</time>
      </trkpt>
      <trkpt lat="44.44197" lon="6.73067">
        <ele>1662.7375488</ele>
        <time>2010-07-24T07:22:14Z</time>
      </trkpt>
      <trkpt lat="44.44193" lon="6.73069">
        <ele>1663.2182617</ele>
        <time>2010-07-24T07:22:16Z</time>
      </trkpt>
      <trkpt lat="44.44179" lon="6.73089">
        <ele>1665.1408691</ele>
        <time>2010-07-24T07:22:23Z</time>
      </trkpt>
      <trkpt lat="44.44168" lon="6.731">
        <ele>1668.986084</ele>
        <time>2010-07-24T07:22:30Z</time>
      </trkpt>
      <trkpt lat="44.44158" lon="6.73105">
        <ele>1675.7150879</ele>
        <time>2010-07-24T07:22:37Z</time>
      </trkpt>
      <trkpt lat="44.44151" lon="6.73114">
        <ele>1683.8864746</ele>
        <time>2010-07-24T07:22:43Z</time>
      </trkpt>
      <trkpt lat="44.44138" lon="6.7313">
        <ele>1686.2897949</ele>
        <time>2010-07-24T07:22:50Z</time>
      </trkpt>
      <trkpt lat="44.44133" lon="6.73124">
        <ele>1683.4057617</ele>
        <time>2010-07-24T07:22:54Z</time>
      </trkpt>
      <trkpt lat="44.44134" lon="6.73108">
        <ele>1672.8312988</ele>
        <time>2010-07-24T07:23:01Z</time>
      </trkpt>
      <trkpt lat="44.44146" lon="6.73088">
        <ele>1646.8757324</ele>
        <time>2010-07-24T07:23:08Z</time>
      </trkpt>
      <trkpt lat="44.44152" lon="6.73077">
        <ele>1643.0302734</ele>
        <time>2010-07-24T07:23:15Z</time>
      </trkpt>
      <trkpt lat="44.4416" lon="6.73061">
        <ele>1637.7431641</ele>
        <time>2010-07-24T07:23:22Z</time>
      </trkpt>
      <trkpt lat="44.44169" lon="6.7305">
        <ele>1638.7045898</ele>
        <time>2010-07-24T07:23:29Z</time>
      </trkpt>
      <trkpt lat="44.44173" lon="6.73037">
        <ele>1635.8205566</ele>
        <time>2010-07-24T07:23:35Z</time>
      </trkpt>
      <trkpt lat="44.4418" lon="6.73026">
        <ele>1629.5720215</ele>
        <time>2010-07-24T07:23:42Z</time>
      </trkpt>
      <trkpt lat="44.44189" lon="6.73019">
        <ele>1629.5720215</ele>
        <time>2010-07-24T07:23:49Z</time>
      </trkpt>
      <trkpt lat="44.44201" lon="6.73016">
        <ele>1641.107666</ele>
        <time>2010-07-24T07:23:56Z</time>
      </trkpt>
      <trkpt lat="44.44209" lon="6.7301">
        <ele>1641.5883789</ele>
        <time>2010-07-24T07:24:02Z</time>
      </trkpt>
      <trkpt lat="44.44217" lon="6.73003">
        <ele>1643.5109863</ele>
        <time>2010-07-24T07:24:09Z</time>
      </trkpt>
      <trkpt lat="44.44226" lon="6.72995">
        <ele>1642.5498047</ele>
        <time>2010-07-24T07:24:16Z</time>
      </trkpt>
      <trkpt lat="44.44238" lon="6.72988">
        <ele>1641.5883789</ele>
        <time>2010-07-24T07:24:24Z</time>
      </trkpt>
      <trkpt lat="44.44244" lon="6.72983">
        <ele>1653.6049805</ele>
        <time>2010-07-24T07:24:30Z</time>
      </trkpt>
      <trkpt lat="44.44257" lon="6.72971">
        <ele>1646.8757324</ele>
        <time>2010-07-24T07:24:37Z</time>
      </trkpt>
      <trkpt lat="44.44263" lon="6.72965">
        <ele>1640.6269531</ele>
        <time>2010-07-24T07:24:42Z</time>
      </trkpt>
      <trkpt lat="44.4427" lon="6.72956">
        <ele>1643.5109863</ele>
        <time>2010-07-24T07:24:48Z</time>
      </trkpt>
      <trkpt lat="44.4428" lon="6.72945">
        <ele>1643.9916992</ele>
        <time>2010-07-24T07:24:55Z</time>
      </trkpt>
      <trkpt lat="44.443" lon="6.72939">
        <ele>1647.3564453</ele>
        <time>2010-07-24T07:25:03Z</time>
      </trkpt>
      <trkpt lat="44.44312" lon="6.72929">
        <ele>1641.107666</ele>
        <time>2010-07-24T07:25:09Z</time>
      </trkpt>
      <trkpt lat="44.44326" lon="6.72924">
        <ele>1640.6269531</ele>
        <time>2010-07-24T07:25:17Z</time>
      </trkpt>
      <trkpt lat="44.44337" lon="6.72926">
        <ele>1642.5498047</ele>
        <time>2010-07-24T07:25:25Z</time>
      </trkpt>
      <trkpt lat="44.44348" lon="6.72931">
        <ele>1641.5883789</ele>
        <time>2010-07-24T07:25:33Z</time>
      </trkpt>
      <trkpt lat="44.44362" lon="6.72937">
        <ele>1643.5109863</ele>
        <time>2010-07-24T07:25:44Z</time>
      </trkpt>
      <trkpt lat="44.44372" lon="6.72938">
        <ele>1644.953125</ele>
        <time>2010-07-24T07:25:51Z</time>
      </trkpt>
      <trkpt lat="44.44381" lon="6.72939">
        <ele>1647.8371582</ele>
        <time>2010-07-24T07:25:58Z</time>
      </trkpt>
      <trkpt lat="44.44392" lon="6.72938">
        <ele>1650.7209473</ele>
        <time>2010-07-24T07:26:06Z</time>
      </trkpt>
      <trkpt lat="44.44402" lon="6.72939">
        <ele>1654.0856934</ele>
        <time>2010-07-24T07:26:13Z</time>
      </trkpt>
      <trkpt lat="44.44406" lon="6.72938">
        <ele>1655.5275879</ele>
        <time>2010-07-24T07:26:17Z</time>
      </trkpt>
      <trkpt lat="44.44415" lon="6.72941">
        <ele>1658.8920898</ele>
        <time>2010-07-24T07:26:25Z</time>
      </trkpt>
      <trkpt lat="44.44427" lon="6.72941">
        <ele>1663.2182617</ele>
        <time>2010-07-24T07:26:33Z</time>
      </trkpt>
      <trkpt lat="44.44437" lon="6.72939">
        <ele>1663.6987305</ele>
        <time>2010-07-24T07:26:41Z</time>
      </trkpt>
      <trkpt lat="44.44448" lon="6.72939">
        <ele>1667.5439453</ele>
        <time>2010-07-24T07:26:48Z</time>
      </trkpt>
      <trkpt lat="44.44458" lon="6.72936">
        <ele>1662.7375488</ele>
        <time>2010-07-24T07:26:56Z</time>
      </trkpt>
      <trkpt lat="44.44459" lon="6.72926">
        <ele>1662.7375488</ele>
        <time>2010-07-24T07:27:02Z</time>
      </trkpt>
      <trkpt lat="44.44457" lon="6.72926">
        <ele>1662.7375488</ele>
        <time>2010-07-24T07:27:03Z</time>
      </trkpt>
      <trkpt lat="44.44447" lon="6.72929">
        <ele>1668.5053711</ele>
        <time>2010-07-24T07:27:11Z</time>
      </trkpt>
      <trkpt lat="44.44433" lon="6.72934">
        <ele>1672.8312988</ele>
        <time>2010-07-24T07:27:19Z</time>
      </trkpt>
      <trkpt lat="44.44424" lon="6.72931">
        <ele>1682.4445801</ele>
        <time>2010-07-24T07:27:27Z</time>
      </trkpt>
      <trkpt lat="44.44413" lon="6.72921">
        <ele>1683.4057617</ele>
        <time>2010-07-24T07:27:33Z</time>
      </trkpt>
      <trkpt lat="44.44405" lon="6.72915">
        <ele>1687.7316895</ele>
        <time>2010-07-24T07:27:39Z</time>
      </trkpt>
      <trkpt lat="44.44396" lon="6.7291">
        <ele>1690.1350098</ele>
        <time>2010-07-24T07:27:47Z</time>
      </trkpt>
      <trkpt lat="44.44388" lon="6.72909">
        <ele>1695.4223633</ele>
        <time>2010-07-24T07:27:54Z</time>
      </trkpt>
      <trkpt lat="44.44376" lon="6.72915">
        <ele>1695.4223633</ele>
        <time>2010-07-24T07:28:01Z</time>
      </trkpt>
      <trkpt lat="44.44372" lon="6.72913">
        <ele>1696.3837891</ele>
        <time>2010-07-24T07:28:04Z</time>
      </trkpt>
      <trkpt lat="44.44373" lon="6.72906">
        <ele>1698.3061523</ele>
        <time>2010-07-24T07:28:08Z</time>
      </trkpt>
      <trkpt lat="44.44376" lon="6.72903">
        <ele>1697.8256836</ele>
        <time>2010-07-24T07:28:12Z</time>
      </trkpt>
      <trkpt lat="44.44391" lon="6.72901">
        <ele>1698.7868652</ele>
        <time>2010-07-24T07:28:23Z</time>
      </trkpt>
      <trkpt lat="44.444" lon="6.72902">
        <ele>1700.7094727</ele>
        <time>2010-07-24T07:28:30Z</time>
      </trkpt>
      <trkpt lat="44.44415" lon="6.72902">
        <ele>1703.112793</ele>
        <time>2010-07-24T07:28:41Z</time>
      </trkpt>
      <trkpt lat="44.44424" lon="6.72901">
        <ele>1707.4387207</ele>
        <time>2010-07-24T07:28:48Z</time>
      </trkpt>
      <trkpt lat="44.44433" lon="6.72892">
        <ele>1704.5546875</ele>
        <time>2010-07-24T07:28:54Z</time>
      </trkpt>
      <trkpt lat="44.4444" lon="6.72894">
        <ele>1706.4772949</ele>
        <time>2010-07-24T07:29:00Z</time>
      </trkpt>
      <trkpt lat="44.44451" lon="6.7289">
        <ele>1707.9194336</ele>
        <time>2010-07-24T07:29:07Z</time>
      </trkpt>
      <trkpt lat="44.44461" lon="6.72888">
        <ele>1709.3615723</ele>
        <time>2010-07-24T07:29:15Z</time>
      </trkpt>
      <trkpt lat="44.4447" lon="6.72886">
        <ele>1708.8808594</ele>
        <time>2010-07-24T07:29:23Z</time>
      </trkpt>
      <trkpt lat="44.44484" lon="6.72887">
        <ele>1709.842041</ele>
        <time>2010-07-24T07:29:33Z</time>
      </trkpt>
      <trkpt lat="44.44495" lon="6.72895">
        <ele>1708.8808594</ele>
        <time>2010-07-24T07:29:42Z</time>
      </trkpt>
      <trkpt lat="44.44501" lon="6.72901">
        <ele>1710.3227539</ele>
        <time>2010-07-24T07:29:48Z</time>
      </trkpt>
      <trkpt lat="44.44511" lon="6.72912">
        <ele>1713.6872559</ele>
        <time>2010-07-24T07:29:57Z</time>
      </trkpt>
      <trkpt lat="44.44521" lon="6.72924">
        <ele>1715.6101074</ele>
        <time>2010-07-24T07:30:05Z</time>
      </trkpt>
      <trkpt lat="44.44532" lon="6.72927">
        <ele>1704.5546875</ele>
        <time>2010-07-24T07:30:12Z</time>
      </trkpt>
      <trkpt lat="44.4454" lon="6.72933">
        <ele>1706.9580078</ele>
        <time>2010-07-24T07:30:20Z</time>
      </trkpt>
      <trkpt lat="44.44552" lon="6.72938">
        <ele>1700.7094727</ele>
        <time>2010-07-24T07:30:28Z</time>
      </trkpt>
      <trkpt lat="44.4456" lon="6.72945">
        <ele>1702.6320801</ele>
        <time>2010-07-24T07:30:34Z</time>
      </trkpt>
      <trkpt lat="44.44569" lon="6.72953">
        <ele>1699.748291</ele>
        <time>2010-07-24T07:30:40Z</time>
      </trkpt>
      <trkpt lat="44.44577" lon="6.72958">
        <ele>1696.8642578</ele>
        <time>2010-07-24T07:30:47Z</time>
      </trkpt>
      <trkpt lat="44.44584" lon="6.7296">
        <ele>1696.3837891</ele>
        <time>2010-07-24T07:30:53Z</time>
      </trkpt>
      <trkpt lat="44.44593" lon="6.72956">
        <ele>1696.3837891</ele>
        <time>2010-07-24T07:31:00Z</time>
      </trkpt>
      <trkpt lat="44.44601" lon="6.72951">
        <ele>1690.6154785</ele>
        <time>2010-07-24T07:31:06Z</time>
      </trkpt>
      <trkpt lat="44.44612" lon="6.72948">
        <ele>1693.9804688</ele>
        <time>2010-07-24T07:31:13Z</time>
      </trkpt>
      <trkpt lat="44.4462" lon="6.72944">
        <ele>1692.0578613</ele>
        <time>2010-07-24T07:31:20Z</time>
      </trkpt>
      <trkpt lat="44.4463" lon="6.72938">
        <ele>1690.1350098</ele>
        <time>2010-07-24T07:31:28Z</time>
      </trkpt>
      <trkpt lat="44.44641" lon="6.72928">
        <ele>1692.5385742</ele>
        <time>2010-07-24T07:31:36Z</time>
      </trkpt>
      <trkpt lat="44.44651" lon="6.72917">
        <ele>1700.2290039</ele>
        <time>2010-07-24T07:31:43Z</time>
      </trkpt>
      <trkpt lat="44.44657" lon="6.72912">
        <ele>1700.7094727</ele>
        <time>2010-07-24T07:31:49Z</time>
      </trkpt>
      <trkpt lat="44.44665" lon="6.72913">
        <ele>1705.996582</ele>
        <time>2010-07-24T07:31:55Z</time>
      </trkpt>
      <trkpt lat="44.4467" lon="6.72918">
        <ele>1712.7260742</ele>
        <time>2010-07-24T07:32:02Z</time>
      </trkpt>
      <trkpt lat="44.4468" lon="6.72928">
        <ele>1718.4938965</ele>
        <time>2010-07-24T07:32:08Z</time>
      </trkpt>
      <trkpt lat="44.44685" lon="6.72923">
        <ele>1722.8198242</ele>
        <time>2010-07-24T07:32:14Z</time>
      </trkpt>
      <trkpt lat="44.44682" lon="6.72921">
        <ele>1724.2619629</ele>
        <time>2010-07-24T07:32:17Z</time>
      </trkpt>
      <trkpt lat="44.44671" lon="6.72919">
        <ele>1729.0683594</ele>
        <time>2010-07-24T07:32:25Z</time>
      </trkpt>
      <trkpt lat="44.44662" lon="6.72916">
        <ele>1731.9523926</ele>
        <time>2010-07-24T07:32:32Z</time>
      </trkpt>
      <trkpt lat="44.44657" lon="6.72911">
        <ele>1732.9135742</ele>
        <time>2010-07-24T07:32:36Z</time>
      </trkpt>
      <trkpt lat="44.44649" lon="6.72903">
        <ele>1736.7587891</ele>
        <time>2010-07-24T07:32:43Z</time>
      </trkpt>
      <trkpt lat="44.44637" lon="6.72906">
        <ele>1741.0849609</ele>
        <time>2010-07-24T07:32:52Z</time>
      </trkpt>
      <trkpt lat="44.4463" lon="6.72909">
        <ele>1746.3723145</ele>
        <time>2010-07-24T07:32:59Z</time>
      </trkpt>
      <trkpt lat="44.44625" lon="6.72911">
        <ele>1749.2561035</ele>
        <time>2010-07-24T07:33:03Z</time>
      </trkpt>
      <trkpt lat="44.44613" lon="6.72917">
        <ele>1752.1398926</ele>
        <time>2010-07-24T07:33:10Z</time>
      </trkpt>
      <trkpt lat="44.44602" lon="6.72919">
        <ele>1751.6594238</ele>
        <time>2010-07-24T07:33:16Z</time>
      </trkpt>
      <trkpt lat="44.446" lon="6.72909">
        <ele>1751.1787109</ele>
        <time>2010-07-24T07:33:22Z</time>
      </trkpt>
      <trkpt lat="44.44604" lon="6.72907">
        <ele>1749.2561035</ele>
        <time>2010-07-24T07:33:25Z</time>
      </trkpt>
      <trkpt lat="44.44612" lon="6.72902">
        <ele>1745.8916016</ele>
        <time>2010-07-24T07:33:31Z</time>
      </trkpt>
      <trkpt lat="44.44624" lon="6.72887">
        <ele>1738.6816406</ele>
        <time>2010-07-24T07:33:40Z</time>
      </trkpt>
      <trkpt lat="44.44635" lon="6.7289">
        <ele>1742.5270996</ele>
        <time>2010-07-24T07:33:47Z</time>
      </trkpt>
      <trkpt lat="44.4464" lon="6.72885">
        <ele>1743.0075684</ele>
        <time>2010-07-24T07:33:51Z</time>
      </trkpt>
      <trkpt lat="44.44649" lon="6.72877">
        <ele>1741.0849609</ele>
        <time>2010-07-24T07:33:58Z</time>
      </trkpt>
      <trkpt lat="44.44659" lon="6.72877">
        <ele>1739.6428223</ele>
        <time>2010-07-24T07:34:05Z</time>
      </trkpt>
      <trkpt lat="44.44671" lon="6.72882">
        <ele>1741.5656738</ele>
        <time>2010-07-24T07:34:14Z</time>
      </trkpt>
      <trkpt lat="44.44679" lon="6.72882">
        <ele>1738.6816406</ele>
        <time>2010-07-24T07:34:21Z</time>
      </trkpt>
      <trkpt lat="44.44681" lon="6.72883">
        <ele>1739.6428223</ele>
        <time>2010-07-24T07:34:22Z</time>
      </trkpt>
      <trkpt lat="44.44684" lon="6.72878">
        <ele>1745.8916016</ele>
        <time>2010-07-24T07:34:28Z</time>
      </trkpt>
      <trkpt lat="44.4468" lon="6.72874">
        <ele>1745.8916016</ele>
        <time>2010-07-24T07:34:31Z</time>
      </trkpt>
      <trkpt lat="44.44666" lon="6.72874">
        <ele>1750.2175293</ele>
        <time>2010-07-24T07:34:40Z</time>
      </trkpt>
      <trkpt lat="44.44656" lon="6.72868">
        <ele>1754.0627441</ele>
        <time>2010-07-24T07:34:48Z</time>
      </trkpt>
      <trkpt lat="44.4465" lon="6.72857">
        <ele>1748.7753906</ele>
        <time>2010-07-24T07:34:54Z</time>
      </trkpt>
      <trkpt lat="44.44638" lon="6.72852">
        <ele>1751.6594238</ele>
        <time>2010-07-24T07:35:01Z</time>
      </trkpt>
      <trkpt lat="44.44632" lon="6.72851">
        <ele>1757.4274902</ele>
        <time>2010-07-24T07:35:06Z</time>
      </trkpt>
      <trkpt lat="44.44624" lon="6.72848">
        <ele>1762.7145996</ele>
        <time>2010-07-24T07:35:13Z</time>
      </trkpt>
      <trkpt lat="44.44615" lon="6.7285">
        <ele>1768.4824219</ele>
        <time>2010-07-24T07:35:20Z</time>
      </trkpt>
      <trkpt lat="44.44604" lon="6.72848">
        <ele>1773.7697754</ele>
        <time>2010-07-24T07:35:28Z</time>
      </trkpt>
      <trkpt lat="44.44596" lon="6.72844">
        <ele>1775.2116699</ele>
        <time>2010-07-24T07:35:36Z</time>
      </trkpt>
      <trkpt lat="44.44585" lon="6.72834">
        <ele>1771.8469238</ele>
        <time>2010-07-24T07:35:45Z</time>
      </trkpt>
      <trkpt lat="44.44584" lon="6.72833">
        <ele>1771.8469238</ele>
        <time>2010-07-24T07:35:46Z</time>
      </trkpt>
      <trkpt lat="44.44573" lon="6.72821">
        <ele>1768.4824219</ele>
        <time>2010-07-24T07:35:54Z</time>
      </trkpt>
      <trkpt lat="44.44564" lon="6.72813">
        <ele>1769.9243164</ele>
        <time>2010-07-24T07:36:01Z</time>
      </trkpt>
      <trkpt lat="44.4456" lon="6.72808">
        <ele>1770.4050293</ele>
        <time>2010-07-24T07:36:05Z</time>
      </trkpt>
      <trkpt lat="44.4456" lon="6.72802">
        <ele>1770.8857422</ele>
        <time>2010-07-24T07:36:08Z</time>
      </trkpt>
      <trkpt lat="44.44566" lon="6.72801">
        <ele>1768.4824219</ele>
        <time>2010-07-24T07:36:14Z</time>
      </trkpt>
      <trkpt lat="44.44578" lon="6.72804">
        <ele>1767.0405273</ele>
        <time>2010-07-24T07:36:22Z</time>
      </trkpt>
      <trkpt lat="44.44589" lon="6.72807">
        <ele>1768.001709</ele>
        <time>2010-07-24T07:36:28Z</time>
      </trkpt>
      <trkpt lat="44.44598" lon="6.72813">
        <ele>1776.6538086</ele>
        <time>2010-07-24T07:36:35Z</time>
      </trkpt>
      <trkpt lat="44.44606" lon="6.72806">
        <ele>1771.3662109</ele>
        <time>2010-07-24T07:36:41Z</time>
      </trkpt>
      <trkpt lat="44.44617" lon="6.72801">
        <ele>1771.3662109</ele>
        <time>2010-07-24T07:36:48Z</time>
      </trkpt>
      <trkpt lat="44.44623" lon="6.72802">
        <ele>1768.4824219</ele>
        <time>2010-07-24T07:36:54Z</time>
      </trkpt>
      <trkpt lat="44.44631" lon="6.72806">
        <ele>1767.5209961</ele>
        <time>2010-07-24T07:37:00Z</time>
      </trkpt>
      <trkpt lat="44.44636" lon="6.72809">
        <ele>1771.3662109</ele>
        <time>2010-07-24T07:37:04Z</time>
      </trkpt>
      <trkpt lat="44.4464" lon="6.72805">
        <ele>1775.2116699</ele>
        <time>2010-07-24T07:37:08Z</time>
      </trkpt>
      <trkpt lat="44.4463" lon="6.72801">
        <ele>1782.4216309</ele>
        <time>2010-07-24T07:37:16Z</time>
      </trkpt>
      <trkpt lat="44.44618" lon="6.72788">
        <ele>1785.7861328</ele>
        <time>2010-07-24T07:37:23Z</time>
      </trkpt>
      <trkpt lat="44.44612" lon="6.72786">
        <ele>1791.5541992</ele>
        <time>2010-07-24T07:37:29Z</time>
      </trkpt>
      <trkpt lat="44.44606" lon="6.72789">
        <ele>1799.7253418</ele>
        <time>2010-07-24T07:37:34Z</time>
      </trkpt>
      <trkpt lat="44.44599" lon="6.72789">
        <ele>1799.7253418</ele>
        <time>2010-07-24T07:37:39Z</time>
      </trkpt>
      <trkpt lat="44.446" lon="6.72784">
        <ele>1803.5705566</ele>
        <time>2010-07-24T07:37:44Z</time>
      </trkpt>
      <trkpt lat="44.44606" lon="6.72778">
        <ele>1793.4768066</ele>
        <time>2010-07-24T07:37:48Z</time>
      </trkpt>
      <trkpt lat="44.44615" lon="6.72775">
        <ele>1790.1123047</ele>
        <time>2010-07-24T07:37:55Z</time>
      </trkpt>
      <trkpt lat="44.44622" lon="6.72778">
        <ele>1790.1123047</ele>
        <time>2010-07-24T07:38:01Z</time>
      </trkpt>
      <trkpt lat="44.44633" lon="6.72781">
        <ele>1787.7087402</ele>
        <time>2010-07-24T07:38:09Z</time>
      </trkpt>
      <trkpt lat="44.44641" lon="6.72787">
        <ele>1792.0349121</ele>
        <time>2010-07-24T07:38:16Z</time>
      </trkpt>
      <trkpt lat="44.4465" lon="6.72789">
        <ele>1790.1123047</ele>
        <time>2010-07-24T07:38:23Z</time>
      </trkpt>
      <trkpt lat="44.44661" lon="6.72788">
        <ele>1784.8249512</ele>
        <time>2010-07-24T07:38:29Z</time>
      </trkpt>
      <trkpt lat="44.44667" lon="6.72787">
        <ele>1787.7087402</ele>
        <time>2010-07-24T07:38:33Z</time>
      </trkpt>
      <trkpt lat="44.44677" lon="6.72787">
        <ele>1795.3994141</ele>
        <time>2010-07-24T07:38:41Z</time>
      </trkpt>
      <trkpt lat="44.44688" lon="6.72783">
        <ele>1800.2060547</ele>
        <time>2010-07-24T07:38:49Z</time>
      </trkpt>
      <trkpt lat="44.44695" lon="6.72781">
        <ele>1800.6865234</ele>
        <time>2010-07-24T07:38:56Z</time>
      </trkpt>
      <trkpt lat="44.44708" lon="6.7278">
        <ele>1797.8027344</ele>
        <time>2010-07-24T07:39:05Z</time>
      </trkpt>
      <trkpt lat="44.44716" lon="6.72778">
        <ele>1802.128418</ele>
        <time>2010-07-24T07:39:12Z</time>
      </trkpt>
      <trkpt lat="44.44726" lon="6.72778">
        <ele>1792.9960938</ele>
        <time>2010-07-24T07:39:18Z</time>
      </trkpt>
      <trkpt lat="44.44733" lon="6.72775">
        <ele>1796.8413086</ele>
        <time>2010-07-24T07:39:25Z</time>
      </trkpt>
      <trkpt lat="44.44746" lon="6.72773">
        <ele>1801.1672363</ele>
        <time>2010-07-24T07:39:34Z</time>
      </trkpt>
      <trkpt lat="44.44755" lon="6.72772">
        <ele>1808.8579102</ele>
        <time>2010-07-24T07:39:41Z</time>
      </trkpt>
      <trkpt lat="44.44756" lon="6.7277">
        <ele>1807.4160156</ele>
        <time>2010-07-24T07:39:42Z</time>
      </trkpt>
      <trkpt lat="44.44766" lon="6.72762">
        <ele>1812.2224121</ele>
        <time>2010-07-24T07:39:50Z</time>
      </trkpt>
      <trkpt lat="44.44773" lon="6.72752">
        <ele>1812.703125</ele>
        <time>2010-07-24T07:39:57Z</time>
      </trkpt>
      <trkpt lat="44.44774" lon="6.72751">
        <ele>1811.2612305</ele>
        <time>2010-07-24T07:39:58Z</time>
      </trkpt>
      <trkpt lat="44.44784" lon="6.72732">
        <ele>1813.1838379</ele>
        <time>2010-07-24T07:40:07Z</time>
      </trkpt>
      <trkpt lat="44.44785" lon="6.72729">
        <ele>1814.6257324</ele>
        <time>2010-07-24T07:40:09Z</time>
      </trkpt>
      <trkpt lat="44.44789" lon="6.72713">
        <ele>1811.7419434</ele>
        <time>2010-07-24T07:40:18Z</time>
      </trkpt>
      <trkpt lat="44.44794" lon="6.72695">
        <ele>1808.3771973</ele>
        <time>2010-07-24T07:40:27Z</time>
      </trkpt>
      <trkpt lat="44.44796" lon="6.72691">
        <ele>1806.4545898</ele>
        <time>2010-07-24T07:40:33Z</time>
      </trkpt>
      <trkpt lat="44.44797" lon="6.72686">
        <ele>1793.4768066</ele>
        <time>2010-07-24T07:41:16Z</time>
      </trkpt>
      <trkpt lat="44.44789" lon="6.72758">
        <ele>1867.0175781</ele>
        <time>2010-07-24T07:47:11Z</time>
      </trkpt>
      <trkpt lat="44.44788" lon="6.72721">
        <ele>1849.7138672</ele>
        <time>2010-07-24T07:47:50Z</time>
      </trkpt>
      <trkpt lat="44.448" lon="6.72692">
        <ele>1825.2001953</ele>
        <time>2010-07-24T07:48:04Z</time>
      </trkpt>
      <trkpt lat="44.44806" lon="6.72673">
        <ele>1819.9128418</ele>
        <time>2010-07-24T07:48:12Z</time>
      </trkpt>
      <trkpt lat="44.44812" lon="6.72663">
        <ele>1821.3549805</ele>
        <time>2010-07-24T07:48:18Z</time>
      </trkpt>
      <trkpt lat="44.44817" lon="6.72647">
        <ele>1816.5483398</ele>
        <time>2010-07-24T07:48:25Z</time>
      </trkpt>
      <trkpt lat="44.44824" lon="6.72642">
        <ele>1820.8745117</ele>
        <time>2010-07-24T07:48:32Z</time>
      </trkpt>
      <trkpt lat="44.44835" lon="6.72642">
        <ele>1821.8356934</ele>
        <time>2010-07-24T07:48:39Z</time>
      </trkpt>
      <trkpt lat="44.44843" lon="6.72644">
        <ele>1829.526123</ele>
        <time>2010-07-24T07:48:46Z</time>
      </trkpt>
      <trkpt lat="44.44845" lon="6.72646">
        <ele>1830.4875488</ele>
        <time>2010-07-24T07:48:48Z</time>
      </trkpt>
      <trkpt lat="44.44852" lon="6.72651">
        <ele>1836.736084</ele>
        <time>2010-07-24T07:48:54Z</time>
      </trkpt>
      <trkpt lat="44.44855" lon="6.72653">
        <ele>1842.0234375</ele>
        <time>2010-07-24T07:48:58Z</time>
      </trkpt>
      <trkpt lat="44.44861" lon="6.72657">
        <ele>1842.5041504</ele>
        <time>2010-07-24T07:49:02Z</time>
      </trkpt>
      <trkpt lat="44.44866" lon="6.72659">
        <ele>1840.1008301</ele>
        <time>2010-07-24T07:49:04Z</time>
      </trkpt>
      <trkpt lat="44.44872" lon="6.72649">
        <ele>1830.0068359</ele>
        <time>2010-07-24T07:49:09Z</time>
      </trkpt>
      <trkpt lat="44.44869" lon="6.72642">
        <ele>1827.1230469</ele>
        <time>2010-07-24T07:49:12Z</time>
      </trkpt>
      <trkpt lat="44.44859" lon="6.7263">
        <ele>1821.3549805</ele>
        <time>2010-07-24T07:49:20Z</time>
      </trkpt>
      <trkpt lat="44.44854" lon="6.72623">
        <ele>1827.1230469</ele>
        <time>2010-07-24T07:49:25Z</time>
      </trkpt>
      <trkpt lat="44.44844" lon="6.72613">
        <ele>1830.0068359</ele>
        <time>2010-07-24T07:49:32Z</time>
      </trkpt>
      <trkpt lat="44.44838" lon="6.72603">
        <ele>1835.2939453</ele>
        <time>2010-07-24T07:49:39Z</time>
      </trkpt>
      <trkpt lat="44.4483" lon="6.72594">
        <ele>1841.5427246</ele>
        <time>2010-07-24T07:49:46Z</time>
      </trkpt>
      <trkpt lat="44.44822" lon="6.7259">
        <ele>1842.9846191</ele>
        <time>2010-07-24T07:49:52Z</time>
      </trkpt>
      <trkpt lat="44.44811" lon="6.72584">
        <ele>1839.1394043</ele>
        <time>2010-07-24T07:50:01Z</time>
      </trkpt>
      <trkpt lat="44.44803" lon="6.7258">
        <ele>1840.1008301</ele>
        <time>2010-07-24T07:50:08Z</time>
      </trkpt>
      <trkpt lat="44.44799" lon="6.72578">
        <ele>1842.0234375</ele>
        <time>2010-07-24T07:50:14Z</time>
      </trkpt>
      <trkpt lat="44.44793" lon="6.72584">
        <ele>1845.8686523</ele>
        <time>2010-07-24T07:50:19Z</time>
      </trkpt>
      <trkpt lat="44.44787" lon="6.72585">
        <ele>1847.7912598</ele>
        <time>2010-07-24T07:50:23Z</time>
      </trkpt>
      <trkpt lat="44.44768" lon="6.72578">
        <ele>1853.0786133</ele>
        <time>2010-07-24T07:50:32Z</time>
      </trkpt>
      <trkpt lat="44.44762" lon="6.72572">
        <ele>1852.1171875</ele>
        <time>2010-07-24T07:50:38Z</time>
      </trkpt>
      <trkpt lat="44.44752" lon="6.72564">
        <ele>1849.7138672</ele>
        <time>2010-07-24T07:50:45Z</time>
      </trkpt>
      <trkpt lat="44.4474" lon="6.72555">
        <ele>1845.3879395</ele>
        <time>2010-07-24T07:50:53Z</time>
      </trkpt>
      <trkpt lat="44.44731" lon="6.72548">
        <ele>1844.4265137</ele>
        <time>2010-07-24T07:51:00Z</time>
      </trkpt>
      <trkpt lat="44.44729" lon="6.72547">
        <ele>1846.3493652</ele>
        <time>2010-07-24T07:51:01Z</time>
      </trkpt>
      <trkpt lat="44.44724" lon="6.72547">
        <ele>1843.465332</ele>
        <time>2010-07-24T07:51:07Z</time>
      </trkpt>
      <trkpt lat="44.44722" lon="6.72546">
        <ele>1842.5041504</ele>
        <time>2010-07-24T07:51:10Z</time>
      </trkpt>
      <trkpt lat="44.44714" lon="6.72554">
        <ele>1845.8686523</ele>
        <time>2010-07-24T07:51:15Z</time>
      </trkpt>
      <trkpt lat="44.44707" lon="6.72557">
        <ele>1851.6364746</ele>
        <time>2010-07-24T07:51:21Z</time>
      </trkpt>
      <trkpt lat="44.4469" lon="6.72568">
        <ele>1869.4211426</ele>
        <time>2010-07-24T07:51:30Z</time>
      </trkpt>
      <trkpt lat="44.44675" lon="6.72586">
        <ele>1875.6694336</ele>
        <time>2010-07-24T07:51:39Z</time>
      </trkpt>
      <trkpt lat="44.44671" lon="6.72592">
        <ele>1877.1115723</ele>
        <time>2010-07-24T07:51:43Z</time>
      </trkpt>
      <trkpt lat="44.4466" lon="6.72588">
        <ele>1877.592041</ele>
        <time>2010-07-24T07:51:51Z</time>
      </trkpt>
      <trkpt lat="44.4466" lon="6.72585">
        <ele>1878.5534668</ele>
        <time>2010-07-24T07:51:53Z</time>
      </trkpt>
      <trkpt lat="44.44663" lon="6.72574">
        <ele>1881.9179688</ele>
        <time>2010-07-24T07:52:01Z</time>
      </trkpt>
      <trkpt lat="44.44672" lon="6.7256">
        <ele>1884.8022461</ele>
        <time>2010-07-24T07:52:08Z</time>
      </trkpt>
      <trkpt lat="44.44678" lon="6.72545">
        <ele>1879.0339355</ele>
        <time>2010-07-24T07:52:17Z</time>
      </trkpt>
      <trkpt lat="44.44687" lon="6.72531">
        <ele>1874.708252</ele>
        <time>2010-07-24T07:52:24Z</time>
      </trkpt>
      <trkpt lat="44.44694" lon="6.72525">
        <ele>1869.4211426</ele>
        <time>2010-07-24T07:52:29Z</time>
      </trkpt>
      <trkpt lat="44.44704" lon="6.72507">
        <ele>1866.0561523</ele>
        <time>2010-07-24T07:52:39Z</time>
      </trkpt>
      <trkpt lat="44.4471" lon="6.72495">
        <ele>1866.5368652</ele>
        <time>2010-07-24T07:52:46Z</time>
      </trkpt>
      <trkpt lat="44.44714" lon="6.72483">
        <ele>1874.2275391</ele>
        <time>2010-07-24T07:52:54Z</time>
      </trkpt>
      <trkpt lat="44.44724" lon="6.72474">
        <ele>1873.7468262</ele>
        <time>2010-07-24T07:53:01Z</time>
      </trkpt>
      <trkpt lat="44.44733" lon="6.72471">
        <ele>1877.592041</ele>
        <time>2010-07-24T07:53:09Z</time>
      </trkpt>
      <trkpt lat="44.44743" lon="6.72467">
        <ele>1874.708252</ele>
        <time>2010-07-24T07:53:17Z</time>
      </trkpt>
      <trkpt lat="44.44749" lon="6.72462">
        <ele>1872.3049316</ele>
        <time>2010-07-24T07:53:23Z</time>
      </trkpt>
      <trkpt lat="44.44762" lon="6.72459">
        <ele>1871.3435059</ele>
        <time>2010-07-24T07:53:33Z</time>
      </trkpt>
      <trkpt lat="44.44771" lon="6.72453">
        <ele>1872.7856445</ele>
        <time>2010-07-24T07:53:40Z</time>
      </trkpt>
      <trkpt lat="44.44781" lon="6.72452">
        <ele>1871.3435059</ele>
        <time>2010-07-24T07:53:48Z</time>
      </trkpt>
      <trkpt lat="44.44789" lon="6.72444">
        <ele>1877.1115723</ele>
        <time>2010-07-24T07:53:54Z</time>
      </trkpt>
      <trkpt lat="44.44788" lon="6.72442">
        <ele>1877.592041</ele>
        <time>2010-07-24T07:53:55Z</time>
      </trkpt>
      <trkpt lat="44.44781" lon="6.72438">
        <ele>1878.0727539</ele>
        <time>2010-07-24T07:54:01Z</time>
      </trkpt>
      <trkpt lat="44.44772" lon="6.7244">
        <ele>1879.0339355</ele>
        <time>2010-07-24T07:54:09Z</time>
      </trkpt>
      <trkpt lat="44.44764" lon="6.72436">
        <ele>1879.5146484</ele>
        <time>2010-07-24T07:54:16Z</time>
      </trkpt>
      <trkpt lat="44.44761" lon="6.72436">
        <ele>1881.4372559</ele>
        <time>2010-07-24T07:54:18Z</time>
      </trkpt>
      <trkpt lat="44.4475" lon="6.72431">
        <ele>1882.8791504</ele>
        <time>2010-07-24T07:54:26Z</time>
      </trkpt>
      <trkpt lat="44.44739" lon="6.72425">
        <ele>1883.8405762</ele>
        <time>2010-07-24T07:54:34Z</time>
      </trkpt>
      <trkpt lat="44.44731" lon="6.72419">
        <ele>1885.2827148</ele>
        <time>2010-07-24T07:54:41Z</time>
      </trkpt>
      <trkpt lat="44.4472" lon="6.72417">
        <ele>1887.6860352</ele>
        <time>2010-07-24T07:54:49Z</time>
      </trkpt>
      <trkpt lat="44.4471" lon="6.72416">
        <ele>1888.6474609</ele>
        <time>2010-07-24T07:54:56Z</time>
      </trkpt>
      <trkpt lat="44.44704" lon="6.72415">
        <ele>1888.6474609</ele>
        <time>2010-07-24T07:55:02Z</time>
      </trkpt>
      <trkpt lat="44.44693" lon="6.72419">
        <ele>1891.0505371</ele>
        <time>2010-07-24T07:55:09Z</time>
      </trkpt>
      <trkpt lat="44.44687" lon="6.72419">
        <ele>1889.6086426</ele>
        <time>2010-07-24T07:55:17Z</time>
      </trkpt>
      <trkpt lat="44.44676" lon="6.72423">
        <ele>1894.895752</ele>
        <time>2010-07-24T07:55:23Z</time>
      </trkpt>
      <trkpt lat="44.44672" lon="6.72422">
        <ele>1896.8183594</ele>
        <time>2010-07-24T07:55:27Z</time>
      </trkpt>
      <trkpt lat="44.44673" lon="6.72421">
        <ele>1897.2990723</ele>
        <time>2010-07-24T07:55:28Z</time>
      </trkpt>
      <trkpt lat="44.44677" lon="6.72415">
        <ele>1897.7797852</ele>
        <time>2010-07-24T07:55:32Z</time>
      </trkpt>
      <trkpt lat="44.44688" lon="6.72406">
        <ele>1896.3378906</ele>
        <time>2010-07-24T07:55:40Z</time>
      </trkpt>
      <trkpt lat="44.44697" lon="6.72393">
        <ele>1891.0505371</ele>
        <time>2010-07-24T07:55:47Z</time>
      </trkpt>
      <trkpt lat="44.44707" lon="6.72389">
        <ele>1890.0893555</ele>
        <time>2010-07-24T07:55:55Z</time>
      </trkpt>
      <trkpt lat="44.44718" lon="6.72386">
        <ele>1891.53125</ele>
        <time>2010-07-24T07:56:02Z</time>
      </trkpt>
      <trkpt lat="44.4473" lon="6.7238">
        <ele>1890.5698242</ele>
        <time>2010-07-24T07:56:10Z</time>
      </trkpt>
      <trkpt lat="44.44741" lon="6.72378">
        <ele>1890.0893555</ele>
        <time>2010-07-24T07:56:17Z</time>
      </trkpt>
      <trkpt lat="44.44753" lon="6.72371">
        <ele>1890.0893555</ele>
        <time>2010-07-24T07:56:26Z</time>
      </trkpt>
      <trkpt lat="44.44757" lon="6.7236">
        <ele>1892.9731445</ele>
        <time>2010-07-24T07:56:33Z</time>
      </trkpt>
      <trkpt lat="44.44754" lon="6.72345">
        <ele>1895.8571777</ele>
        <time>2010-07-24T07:56:41Z</time>
      </trkpt>
      <trkpt lat="44.44745" lon="6.72338">
        <ele>1900.6638184</ele>
        <time>2010-07-24T07:56:48Z</time>
      </trkpt>
      <trkpt lat="44.44732" lon="6.72327">
        <ele>1902.1057129</ele>
        <time>2010-07-24T07:56:57Z</time>
      </trkpt>
      <trkpt lat="44.44722" lon="6.72319">
        <ele>1902.1057129</ele>
        <time>2010-07-24T07:57:05Z</time>
      </trkpt>
      <trkpt lat="44.44714" lon="6.72311">
        <ele>1903.0671387</ele>
        <time>2010-07-24T07:57:12Z</time>
      </trkpt>
      <trkpt lat="44.4471" lon="6.72305">
        <ele>1902.1057129</ele>
        <time>2010-07-24T07:57:17Z</time>
      </trkpt>
      <trkpt lat="44.44703" lon="6.72306">
        <ele>1898.2602539</ele>
        <time>2010-07-24T07:57:23Z</time>
      </trkpt>
      <trkpt lat="44.44702" lon="6.72307">
        <ele>1898.7409668</ele>
        <time>2010-07-24T07:57:24Z</time>
      </trkpt>
      <trkpt lat="44.44698" lon="6.72307">
        <ele>1899.7023926</ele>
        <time>2010-07-24T07:57:30Z</time>
      </trkpt>
      <trkpt lat="44.44688" lon="6.72316">
        <ele>1905.9509277</ele>
        <time>2010-07-24T07:57:37Z</time>
      </trkpt>
      <trkpt lat="44.44677" lon="6.72322">
        <ele>1908.354248</ele>
        <time>2010-07-24T07:57:44Z</time>
      </trkpt>
      <trkpt lat="44.44663" lon="6.72336">
        <ele>1913.6413574</ele>
        <time>2010-07-24T07:57:51Z</time>
      </trkpt>
      <trkpt lat="44.4466" lon="6.72335">
        <ele>1917.0063477</ele>
        <time>2010-07-24T07:57:53Z</time>
      </trkpt>
      <trkpt lat="44.44659" lon="6.72331">
        <ele>1917.4868164</ele>
        <time>2010-07-24T07:57:55Z</time>
      </trkpt>
      <trkpt lat="44.44666" lon="6.72314">
        <ele>1914.6027832</ele>
        <time>2010-07-24T07:58:02Z</time>
      </trkpt>
      <trkpt lat="44.44669" lon="6.7231">
        <ele>1914.6027832</ele>
        <time>2010-07-24T07:58:06Z</time>
      </trkpt>
      <trkpt lat="44.44674" lon="6.72297">
        <ele>1920.3708496</ele>
        <time>2010-07-24T07:58:15Z</time>
      </trkpt>
      <trkpt lat="44.44678" lon="6.72281">
        <ele>1923.2548828</ele>
        <time>2010-07-24T07:58:24Z</time>
      </trkpt>
      <trkpt lat="44.44681" lon="6.72271">
        <ele>1922.293457</ele>
        <time>2010-07-24T07:58:31Z</time>
      </trkpt>
      <trkpt lat="44.44682" lon="6.72269">
        <ele>1924.2160645</ele>
        <time>2010-07-24T07:58:35Z</time>
      </trkpt>
      <trkpt lat="44.44685" lon="6.72259">
        <ele>1927.1000977</ele>
        <time>2010-07-24T07:58:41Z</time>
      </trkpt>
      <trkpt lat="44.4469" lon="6.7225">
        <ele>1939.597168</ele>
        <time>2010-07-24T07:58:47Z</time>
      </trkpt>
      <trkpt lat="44.44694" lon="6.72242">
        <ele>1938.6359863</ele>
        <time>2010-07-24T07:58:51Z</time>
      </trkpt>
      <trkpt lat="44.44698" lon="6.72233">
        <ele>1940.0778809</ele>
        <time>2010-07-24T07:58:58Z</time>
      </trkpt>
      <trkpt lat="44.44706" lon="6.72222">
        <ele>1937.6745605</ele>
        <time>2010-07-24T07:59:06Z</time>
      </trkpt>
      <trkpt lat="44.44716" lon="6.72211">
        <ele>1932.8679199</ele>
        <time>2010-07-24T07:59:16Z</time>
      </trkpt>
      <trkpt lat="44.44724" lon="6.72209">
        <ele>1938.6359863</ele>
        <time>2010-07-24T07:59:24Z</time>
      </trkpt>
      <trkpt lat="44.44724" lon="6.72203">
        <ele>1940.0778809</ele>
        <time>2010-07-24T07:59:28Z</time>
      </trkpt>
      <trkpt lat="44.44723" lon="6.72201">
        <ele>1938.6359863</ele>
        <time>2010-07-24T07:59:31Z</time>
      </trkpt>
      <trkpt lat="44.44715" lon="6.72199">
        <ele>1941.0390625</ele>
        <time>2010-07-24T07:59:37Z</time>
      </trkpt>
      <trkpt lat="44.44707" lon="6.72204">
        <ele>1942.9616699</ele>
        <time>2010-07-24T07:59:43Z</time>
      </trkpt>
      <trkpt lat="44.44702" lon="6.72205">
        <ele>1940.5583496</ele>
        <time>2010-07-24T07:59:49Z</time>
      </trkpt>
      <trkpt lat="44.44699" lon="6.72199">
        <ele>1933.8293457</ele>
        <time>2010-07-24T07:59:55Z</time>
      </trkpt>
      <trkpt lat="44.44693" lon="6.72198">
        <ele>1934.7907715</ele>
        <time>2010-07-24T08:00:01Z</time>
      </trkpt>
      <trkpt lat="44.4468" lon="6.72207">
        <ele>1942.9616699</ele>
        <time>2010-07-24T08:00:10Z</time>
      </trkpt>
      <trkpt lat="44.44669" lon="6.72213">
        <ele>1946.326416</ele>
        <time>2010-07-24T08:00:18Z</time>
      </trkpt>
      <trkpt lat="44.44664" lon="6.72215">
        <ele>1950.171875</ele>
        <time>2010-07-24T08:00:23Z</time>
      </trkpt>
      <trkpt lat="44.44657" lon="6.72221">
        <ele>1957.8623047</ele>
        <time>2010-07-24T08:00:27Z</time>
      </trkpt>
      <trkpt lat="44.44642" lon="6.72237">
        <ele>1975.1657715</ele>
        <time>2010-07-24T08:00:36Z</time>
      </trkpt>
      <trkpt lat="44.44638" lon="6.72239">
        <ele>1976.6079102</ele>
        <time>2010-07-24T08:00:41Z</time>
      </trkpt>
      <trkpt lat="44.44625" lon="6.72244">
        <ele>1983.8178711</ele>
        <time>2010-07-24T08:00:51Z</time>
      </trkpt>
      <trkpt lat="44.44615" lon="6.72248">
        <ele>1986.2211914</ele>
        <time>2010-07-24T08:00:58Z</time>
      </trkpt>
      <trkpt lat="44.44609" lon="6.72248">
        <ele>1985.7404785</ele>
        <time>2010-07-24T08:01:04Z</time>
      </trkpt>
      <trkpt lat="44.44603" lon="6.72252">
        <ele>1998.2375488</ele>
        <time>2010-07-24T08:01:12Z</time>
      </trkpt>
      <trkpt lat="44.44596" lon="6.72261">
        <ele>1997.7570801</ele>
        <time>2010-07-24T08:01:18Z</time>
      </trkpt>
      <trkpt lat="44.44589" lon="6.72264">
        <ele>1997.7570801</ele>
        <time>2010-07-24T08:01:24Z</time>
      </trkpt>
      <trkpt lat="44.4458" lon="6.72253">
        <ele>1982.8564453</ele>
        <time>2010-07-24T08:01:29Z</time>
      </trkpt>
      <trkpt lat="44.44583" lon="6.72244">
        <ele>1982.8564453</ele>
        <time>2010-07-24T08:01:35Z</time>
      </trkpt>
      <trkpt lat="44.44589" lon="6.72228">
        <ele>1972.7626953</ele>
        <time>2010-07-24T08:01:45Z</time>
      </trkpt>
      <trkpt lat="44.44595" lon="6.72212">
        <ele>1969.8786621</ele>
        <time>2010-07-24T08:01:53Z</time>
      </trkpt>
      <trkpt lat="44.44598" lon="6.72207">
        <ele>1974.6853027</ele>
        <time>2010-07-24T08:01:59Z</time>
      </trkpt>
      <trkpt lat="44.44603" lon="6.722">
        <ele>1967.4753418</ele>
        <time>2010-07-24T08:02:04Z</time>
      </trkpt>
      <trkpt lat="44.44609" lon="6.72187">
        <ele>1961.2268066</ele>
        <time>2010-07-24T08:02:10Z</time>
      </trkpt>
      <trkpt lat="44.44618" lon="6.7218">
        <ele>1958.8234863</ele>
        <time>2010-07-24T08:02:15Z</time>
      </trkpt>
      <trkpt lat="44.44623" lon="6.72165">
        <ele>1957.3815918</ele>
        <time>2010-07-24T08:02:24Z</time>
      </trkpt>
      <trkpt lat="44.44624" lon="6.72157">
        <ele>1965.0722656</ele>
        <time>2010-07-24T08:02:31Z</time>
      </trkpt>
      <trkpt lat="44.44627" lon="6.72152">
        <ele>1969.8786621</ele>
        <time>2010-07-24T08:02:38Z</time>
      </trkpt>
      <trkpt lat="44.4463" lon="6.72139">
        <ele>1970.8400879</ele>
        <time>2010-07-24T08:02:44Z</time>
      </trkpt>
      <trkpt lat="44.44638" lon="6.72132">
        <ele>1971.8012695</ele>
        <time>2010-07-24T08:02:50Z</time>
      </trkpt>
      <trkpt lat="44.44644" lon="6.72127">
        <ele>1976.6079102</ele>
        <time>2010-07-24T08:02:56Z</time>
      </trkpt>
      <trkpt lat="44.4465" lon="6.72115">
        <ele>1976.1271973</ele>
        <time>2010-07-24T08:03:02Z</time>
      </trkpt>
      <trkpt lat="44.44648" lon="6.72111">
        <ele>1978.5305176</ele>
        <time>2010-07-24T08:03:04Z</time>
      </trkpt>
      <trkpt lat="44.44639" lon="6.7211">
        <ele>1984.298584</ele>
        <time>2010-07-24T08:03:11Z</time>
      </trkpt>
      <trkpt lat="44.44633" lon="6.72115">
        <ele>1986.2211914</ele>
        <time>2010-07-24T08:03:16Z</time>
      </trkpt>
      <trkpt lat="44.44629" lon="6.72119">
        <ele>1982.3759766</ele>
        <time>2010-07-24T08:03:21Z</time>
      </trkpt>
      <trkpt lat="44.44617" lon="6.72128">
        <ele>1989.1049805</ele>
        <time>2010-07-24T08:03:29Z</time>
      </trkpt>
      <trkpt lat="44.44607" lon="6.72142">
        <ele>1998.7182617</ele>
        <time>2010-07-24T08:03:36Z</time>
      </trkpt>
      <trkpt lat="44.44597" lon="6.72151">
        <ele>2001.121582</ele>
        <time>2010-07-24T08:03:45Z</time>
      </trkpt>
      <trkpt lat="44.4459" lon="6.7216">
        <ele>2003.5249023</ele>
        <time>2010-07-24T08:03:52Z</time>
      </trkpt>
      <trkpt lat="44.44577" lon="6.7217">
        <ele>2000.6408691</ele>
        <time>2010-07-24T08:04:01Z</time>
      </trkpt>
      <trkpt lat="44.44572" lon="6.72176">
        <ele>1999.6796875</ele>
        <time>2010-07-24T08:04:08Z</time>
      </trkpt>
      <trkpt lat="44.44563" lon="6.72185">
        <ele>2001.121582</ele>
        <time>2010-07-24T08:04:16Z</time>
      </trkpt>
      <trkpt lat="44.44557" lon="6.72186">
        <ele>1995.8342285</ele>
        <time>2010-07-24T08:04:23Z</time>
      </trkpt>
      <trkpt lat="44.4455" lon="6.72192">
        <ele>1995.3535156</ele>
        <time>2010-07-24T08:04:29Z</time>
      </trkpt>
      <trkpt lat="44.44541" lon="6.72203">
        <ele>2002.0827637</ele>
        <time>2010-07-24T08:04:37Z</time>
      </trkpt>
      <trkpt lat="44.44539" lon="6.72205">
        <ele>2002.5634766</ele>
        <time>2010-07-24T08:04:39Z</time>
      </trkpt>
      <trkpt lat="44.44528" lon="6.72217">
        <ele>2009.7731934</ele>
        <time>2010-07-24T08:04:47Z</time>
      </trkpt>
      <trkpt lat="44.44521" lon="6.72223">
        <ele>2014.0993652</ele>
        <time>2010-07-24T08:04:53Z</time>
      </trkpt>
      <trkpt lat="44.44515" lon="6.72229">
        <ele>2011.6960449</ele>
        <time>2010-07-24T08:05:01Z</time>
      </trkpt>
      <trkpt lat="44.44509" lon="6.72241">
        <ele>2012.6574707</ele>
        <time>2010-07-24T08:05:07Z</time>
      </trkpt>
      <trkpt lat="44.4451" lon="6.72245">
        <ele>2012.1767578</ele>
        <time>2010-07-24T08:05:11Z</time>
      </trkpt>
      <trkpt lat="44.44503" lon="6.72257">
        <ele>2015.5415039</ele>
        <time>2010-07-24T08:05:16Z</time>
      </trkpt>
      <trkpt lat="44.44498" lon="6.72259">
        <ele>2018.9060059</ele>
        <time>2010-07-24T08:05:21Z</time>
      </trkpt>
      <trkpt lat="44.4449" lon="6.72269">
        <ele>2016.9833984</ele>
        <time>2010-07-24T08:05:29Z</time>
      </trkpt>
      <trkpt lat="44.44482" lon="6.72264">
        <ele>2012.1767578</ele>
        <time>2010-07-24T08:05:37Z</time>
      </trkpt>
      <trkpt lat="44.44483" lon="6.72257">
        <ele>2012.6574707</ele>
        <time>2010-07-24T08:05:41Z</time>
      </trkpt>
      <trkpt lat="44.44488" lon="6.72243">
        <ele>2010.7346191</ele>
        <time>2010-07-24T08:05:48Z</time>
      </trkpt>
      <trkpt lat="44.44492" lon="6.72232">
        <ele>2008.8120117</ele>
        <time>2010-07-24T08:05:54Z</time>
      </trkpt>
      <trkpt lat="44.44496" lon="6.72218">
        <ele>2007.3701172</ele>
        <time>2010-07-24T08:06:02Z</time>
      </trkpt>
      <trkpt lat="44.44501" lon="6.72202">
        <ele>1999.6796875</ele>
        <time>2010-07-24T08:06:09Z</time>
      </trkpt>
      <trkpt lat="44.44507" lon="6.72182">
        <ele>1994.8728027</ele>
        <time>2010-07-24T08:06:18Z</time>
      </trkpt>
      <trkpt lat="44.4451" lon="6.72175">
        <ele>2003.5249023</ele>
        <time>2010-07-24T08:06:25Z</time>
      </trkpt>
      <trkpt lat="44.44514" lon="6.72163">
        <ele>2004.9667969</ele>
        <time>2010-07-24T08:06:32Z</time>
      </trkpt>
      <trkpt lat="44.44518" lon="6.72154">
        <ele>2007.3701172</ele>
        <time>2010-07-24T08:06:39Z</time>
      </trkpt>
      <trkpt lat="44.44521" lon="6.7215">
        <ele>2011.6960449</ele>
        <time>2010-07-24T08:06:43Z</time>
      </trkpt>
      <trkpt lat="44.44526" lon="6.72141">
        <ele>2014.0993652</ele>
        <time>2010-07-24T08:06:51Z</time>
      </trkpt>
      <trkpt lat="44.44535" lon="6.72128">
        <ele>2017.4638672</ele>
        <time>2010-07-24T08:07:00Z</time>
      </trkpt>
      <trkpt lat="44.44541" lon="6.72117">
        <ele>2017.4638672</ele>
        <time>2010-07-24T08:07:06Z</time>
      </trkpt>
      <trkpt lat="44.44544" lon="6.72107">
        <ele>2018.9060059</ele>
        <time>2010-07-24T08:07:12Z</time>
      </trkpt>
      <trkpt lat="44.44548" lon="6.72093">
        <ele>2018.9060059</ele>
        <time>2010-07-24T08:07:20Z</time>
      </trkpt>
      <trkpt lat="44.44553" lon="6.72078">
        <ele>2014.0993652</ele>
        <time>2010-07-24T08:07:27Z</time>
      </trkpt>
      <trkpt lat="44.44554" lon="6.72073">
        <ele>2010.2539062</ele>
        <time>2010-07-24T08:07:29Z</time>
      </trkpt>
      <trkpt lat="44.44556" lon="6.7207">
        <ele>2022.7512207</ele>
        <time>2010-07-24T08:07:35Z</time>
      </trkpt>
      <trkpt lat="44.44556" lon="6.72069">
        <ele>2022.7512207</ele>
        <time>2010-07-24T08:07:36Z</time>
      </trkpt>
      <trkpt lat="44.44562" lon="6.72059">
        <ele>2024.6738281</ele>
        <time>2010-07-24T08:07:45Z</time>
      </trkpt>
      <trkpt lat="44.44567" lon="6.72046">
        <ele>2026.5964355</ele>
        <time>2010-07-24T08:07:53Z</time>
      </trkpt>
      <trkpt lat="44.44572" lon="6.72037">
        <ele>2028.5192871</ele>
        <time>2010-07-24T08:08:00Z</time>
      </trkpt>
      <trkpt lat="44.44582" lon="6.72023">
        <ele>2026.1157227</ele>
        <time>2010-07-24T08:08:08Z</time>
      </trkpt>
      <trkpt lat="44.44589" lon="6.72014">
        <ele>2030.4418945</ele>
        <time>2010-07-24T08:08:15Z</time>
      </trkpt>
      <trkpt lat="44.44591" lon="6.72009">
        <ele>2032.364502</ele>
        <time>2010-07-24T08:08:19Z</time>
      </trkpt>
      <trkpt lat="44.44596" lon="6.72003">
        <ele>2030.4418945</ele>
        <time>2010-07-24T08:08:24Z</time>
      </trkpt>
      <trkpt lat="44.44603" lon="6.71995">
        <ele>2031.8837891</ele>
        <time>2010-07-24T08:08:33Z</time>
      </trkpt>
      <trkpt lat="44.44605" lon="6.71986">
        <ele>2031.4030762</ele>
        <time>2010-07-24T08:08:38Z</time>
      </trkpt>
      <trkpt lat="44.44607" lon="6.71984">
        <ele>2032.364502</ele>
        <time>2010-07-24T08:08:42Z</time>
      </trkpt>
      <trkpt lat="44.44615" lon="6.71976">
        <ele>2034.7678223</ele>
        <time>2010-07-24T08:08:49Z</time>
      </trkpt>
      <trkpt lat="44.44616" lon="6.71975">
        <ele>2034.2871094</ele>
        <time>2010-07-24T08:08:50Z</time>
      </trkpt>
      <trkpt lat="44.44621" lon="6.71965">
        <ele>2032.8449707</ele>
        <time>2010-07-24T08:08:54Z</time>
      </trkpt>
      <trkpt lat="44.44624" lon="6.71962">
        <ele>2032.8449707</ele>
        <time>2010-07-24T08:08:58Z</time>
      </trkpt>
      <trkpt lat="44.44629" lon="6.71959">
        <ele>2039.0935059</ele>
        <time>2010-07-24T08:09:04Z</time>
      </trkpt>
      <trkpt lat="44.44635" lon="6.71956">
        <ele>2041.4968262</ele>
        <time>2010-07-24T08:09:09Z</time>
      </trkpt>
      <trkpt lat="44.44636" lon="6.71959">
        <ele>2043.4194336</ele>
        <time>2010-07-24T08:09:11Z</time>
      </trkpt>
      <trkpt lat="44.44646" lon="6.71962">
        <ele>2054.9553223</ele>
        <time>2010-07-24T08:09:20Z</time>
      </trkpt>
      <trkpt lat="44.44656" lon="6.71958">
        <ele>2057.3586426</ele>
        <time>2010-07-24T08:09:29Z</time>
      </trkpt>
      <trkpt lat="44.44667" lon="6.7196">
        <ele>2065.0493164</ele>
        <time>2010-07-24T08:09:37Z</time>
      </trkpt>
      <trkpt lat="44.44674" lon="6.71961">
        <ele>2066.4912109</ele>
        <time>2010-07-24T08:09:43Z</time>
      </trkpt>
      <trkpt lat="44.44685" lon="6.71953">
        <ele>2065.0493164</ele>
        <time>2010-07-24T08:09:53Z</time>
      </trkpt>
      <trkpt lat="44.44695" lon="6.71945">
        <ele>2063.6071777</ele>
        <time>2010-07-24T08:10:02Z</time>
      </trkpt>
      <trkpt lat="44.44701" lon="6.71938">
        <ele>2059.7617188</ele>
        <time>2010-07-24T08:10:09Z</time>
      </trkpt>
      <trkpt lat="44.44708" lon="6.71928">
        <ele>2057.3586426</ele>
        <time>2010-07-24T08:10:17Z</time>
      </trkpt>
      <trkpt lat="44.44715" lon="6.71923">
        <ele>2057.3586426</ele>
        <time>2010-07-24T08:10:24Z</time>
      </trkpt>
      <trkpt lat="44.44726" lon="6.71915">
        <ele>2056.8779297</ele>
        <time>2010-07-24T08:10:33Z</time>
      </trkpt>
      <trkpt lat="44.44728" lon="6.71916">
        <ele>2056.3972168</ele>
        <time>2010-07-24T08:10:38Z</time>
      </trkpt>
      <trkpt lat="44.44737" lon="6.71919">
        <ele>2061.6848145</ele>
        <time>2010-07-24T08:10:46Z</time>
      </trkpt>
      <trkpt lat="44.44746" lon="6.71927">
        <ele>2067.9331055</ele>
        <time>2010-07-24T08:10:55Z</time>
      </trkpt>
      <trkpt lat="44.44756" lon="6.71937">
        <ele>2069.8557129</ele>
        <time>2010-07-24T08:11:04Z</time>
      </trkpt>
      <trkpt lat="44.44766" lon="6.71942">
        <ele>2067.4523926</ele>
        <time>2010-07-24T08:11:11Z</time>
      </trkpt>
      <trkpt lat="44.4478" lon="6.71952">
        <ele>2067.9331055</ele>
        <time>2010-07-24T08:11:21Z</time>
      </trkpt>
      <trkpt lat="44.4479" lon="6.71967">
        <ele>2077.065918</ele>
        <time>2010-07-24T08:11:30Z</time>
      </trkpt>
      <trkpt lat="44.44802" lon="6.71979">
        <ele>2076.5852051</ele>
        <time>2010-07-24T08:11:38Z</time>
      </trkpt>
      <trkpt lat="44.44813" lon="6.71982">
        <ele>2069.3752441</ele>
        <time>2010-07-24T08:11:44Z</time>
      </trkpt>
      <trkpt lat="44.44818" lon="6.71985">
        <ele>2074.6623535</ele>
        <time>2010-07-24T08:11:50Z</time>
      </trkpt>
      <trkpt lat="44.44833" lon="6.71982">
        <ele>2074.1816406</ele>
        <time>2010-07-24T08:11:57Z</time>
      </trkpt>
      <trkpt lat="44.44846" lon="6.7198">
        <ele>2073.220459</ele>
        <time>2010-07-24T08:12:05Z</time>
      </trkpt>
      <trkpt lat="44.44847" lon="6.71978">
        <ele>2073.220459</ele>
        <time>2010-07-24T08:12:06Z</time>
      </trkpt>
      <trkpt lat="44.4485" lon="6.71968">
        <ele>2066.9719238</ele>
        <time>2010-07-24T08:12:13Z</time>
      </trkpt>
      <trkpt lat="44.44852" lon="6.71965">
        <ele>2065.5300293</ele>
        <time>2010-07-24T08:12:27Z</time>
      </trkpt>
      <trkpt lat="44.44855" lon="6.71966">
        <ele>2071.2976074</ele>
        <time>2010-07-24T08:12:37Z</time>
      </trkpt>
      <trkpt lat="44.44858" lon="6.71973">
        <ele>2088.1208496</ele>
        <time>2010-07-24T08:13:11Z</time>
      </trkpt>
      <trkpt lat="44.44861" lon="6.71955">
        <ele>2090.5239258</ele>
        <time>2010-07-24T08:13:16Z</time>
      </trkpt>
      <trkpt lat="44.44858" lon="6.71933">
        <ele>2082.3530273</ele>
        <time>2010-07-24T08:13:22Z</time>
      </trkpt>
      <trkpt lat="44.44854" lon="6.71919">
        <ele>2079.4689941</ele>
        <time>2010-07-24T08:13:26Z</time>
      </trkpt>
      <trkpt lat="44.44848" lon="6.71903">
        <ele>2077.5463867</ele>
        <time>2010-07-24T08:13:31Z</time>
      </trkpt>
      <trkpt lat="44.44847" lon="6.71885">
        <ele>2079.4689941</ele>
        <time>2010-07-24T08:13:36Z</time>
      </trkpt>
      <trkpt lat="44.44854" lon="6.71874">
        <ele>2080.9111328</ele>
        <time>2010-07-24T08:13:42Z</time>
      </trkpt>
      <trkpt lat="44.44858" lon="6.71863">
        <ele>2082.3530273</ele>
        <time>2010-07-24T08:13:48Z</time>
      </trkpt>
      <trkpt lat="44.44857" lon="6.71847">
        <ele>2080.9111328</ele>
        <time>2010-07-24T08:13:56Z</time>
      </trkpt>
      <trkpt lat="44.44856" lon="6.7184">
        <ele>2080.9111328</ele>
        <time>2010-07-24T08:14:00Z</time>
      </trkpt>
      <trkpt lat="44.44854" lon="6.71829">
        <ele>2083.7949219</ele>
        <time>2010-07-24T08:14:08Z</time>
      </trkpt>
      <trkpt lat="44.44854" lon="6.71825">
        <ele>2085.2368164</ele>
        <time>2010-07-24T08:14:11Z</time>
      </trkpt>
      <trkpt lat="44.44849" lon="6.7181">
        <ele>2086.6787109</ele>
        <time>2010-07-24T08:14:20Z</time>
      </trkpt>
      <trkpt lat="44.44843" lon="6.71799">
        <ele>2088.6015625</ele>
        <time>2010-07-24T08:14:28Z</time>
      </trkpt>
      <trkpt lat="44.44833" lon="6.71783">
        <ele>2095.3308105</ele>
        <time>2010-07-24T08:14:38Z</time>
      </trkpt>
      <trkpt lat="44.44831" lon="6.71769">
        <ele>2095.8115234</ele>
        <time>2010-07-24T08:14:45Z</time>
      </trkpt>
      <trkpt lat="44.44833" lon="6.71755">
        <ele>2096.2922363</ele>
        <time>2010-07-24T08:14:52Z</time>
      </trkpt>
      <trkpt lat="44.44836" lon="6.71741">
        <ele>2095.8115234</ele>
        <time>2010-07-24T08:14:59Z</time>
      </trkpt>
      <trkpt lat="44.44838" lon="6.71733">
        <ele>2099.1760254</ele>
        <time>2010-07-24T08:15:06Z</time>
      </trkpt>
      <trkpt lat="44.44842" lon="6.71714">
        <ele>2097.7341309</ele>
        <time>2010-07-24T08:15:14Z</time>
      </trkpt>
      <trkpt lat="44.44841" lon="6.71702">
        <ele>2102.0598145</ele>
        <time>2010-07-24T08:15:21Z</time>
      </trkpt>
      <trkpt lat="44.44842" lon="6.71687">
        <ele>2103.5019531</ele>
        <time>2010-07-24T08:15:28Z</time>
      </trkpt>
      <trkpt lat="44.44843" lon="6.71669">
        <ele>2105.4245605</ele>
        <time>2010-07-24T08:15:36Z</time>
      </trkpt>
      <trkpt lat="44.44844" lon="6.71653">
        <ele>2107.347168</ele>
        <time>2010-07-24T08:15:43Z</time>
      </trkpt>
      <trkpt lat="44.44848" lon="6.71626">
        <ele>2107.347168</ele>
        <time>2010-07-24T08:15:52Z</time>
      </trkpt>
      <trkpt lat="44.4485" lon="6.71618">
        <ele>2106.3857422</ele>
        <time>2010-07-24T08:15:55Z</time>
      </trkpt>
      <trkpt lat="44.44849" lon="6.71611">
        <ele>2106.3857422</ele>
        <time>2010-07-24T08:16:00Z</time>
      </trkpt>
      <trkpt lat="44.44848" lon="6.71608">
        <ele>2103.0212402</ele>
        <time>2010-07-24T08:16:19Z</time>
      </trkpt>
      <trkpt lat="44.44845" lon="6.71604">
        <ele>2103.5019531</ele>
        <time>2010-07-24T08:16:25Z</time>
      </trkpt>
      <trkpt lat="44.44846" lon="6.71603">
        <ele>2103.5019531</ele>
        <time>2010-07-24T08:16:31Z</time>
      </trkpt>
      <trkpt lat="44.44846" lon="6.71602">
        <ele>2103.0212402</ele>
        <time>2010-07-24T08:16:43Z</time>
      </trkpt>
      <trkpt lat="44.44845" lon="6.71602">
        <ele>2102.0598145</ele>
        <time>2010-07-24T08:16:56Z</time>
      </trkpt>
      <trkpt lat="44.44844" lon="6.71602">
        <ele>2100.1374512</ele>
        <time>2010-07-24T08:17:10Z</time>
      </trkpt>
      <trkpt lat="44.44844" lon="6.71602">
        <ele>2099.6567383</ele>
        <time>2010-07-24T08:17:29Z</time>
      </trkpt>
      <trkpt lat="44.44844" lon="6.71602">
        <ele>2099.6567383</ele>
        <time>2010-07-24T08:17:42Z</time>
      </trkpt>
      <trkpt lat="44.44845" lon="6.71602">
        <ele>2099.6567383</ele>
        <time>2010-07-24T08:17:53Z</time>
      </trkpt>
      <trkpt lat="44.44845" lon="6.71602">
        <ele>2099.6567383</ele>
        <time>2010-07-24T08:18:05Z</time>
      </trkpt>
      <trkpt lat="44.44844" lon="6.71602">
        <ele>2098.6953125</ele>
        <time>2010-07-24T08:18:18Z</time>
      </trkpt>
      <trkpt lat="44.44844" lon="6.71602">
        <ele>2098.2145996</ele>
        <time>2010-07-24T08:18:30Z</time>
      </trkpt>
      <trkpt lat="44.44844" lon="6.71602">
        <ele>2098.2145996</ele>
        <time>2010-07-24T08:18:48Z</time>
      </trkpt>
      <trkpt lat="44.44844" lon="6.71602">
        <ele>2098.6953125</ele>
        <time>2010-07-24T08:19:01Z</time>
      </trkpt>
      <trkpt lat="44.44846" lon="6.71602">
        <ele>2099.1760254</ele>
        <time>2010-07-24T08:19:12Z</time>
      </trkpt>
      <trkpt lat="44.44845" lon="6.71602">
        <ele>2098.6953125</ele>
        <time>2010-07-24T08:19:24Z</time>
      </trkpt>
      <trkpt lat="44.44846" lon="6.71602">
        <ele>2099.6567383</ele>
        <time>2010-07-24T08:19:37Z</time>
      </trkpt>
      <trkpt lat="44.44846" lon="6.71601">
        <ele>2100.1374512</ele>
        <time>2010-07-24T08:19:51Z</time>
      </trkpt>
      <trkpt lat="44.44846" lon="6.71601">
        <ele>2102.0598145</ele>
        <time>2010-07-24T08:20:04Z</time>
      </trkpt>
      <trkpt lat="44.44846" lon="6.71601">
        <ele>2102.5405273</ele>
        <time>2010-07-24T08:20:11Z</time>
      </trkpt>
      <trkpt lat="44.44846" lon="6.71601">
        <ele>2102.5405273</ele>
        <time>2010-07-24T08:20:12Z</time>
      </trkpt>
      <trkpt lat="44.44841" lon="6.71588">
        <ele>2104.9438477</ele>
        <time>2010-07-24T08:20:20Z</time>
      </trkpt>
      <trkpt lat="44.44836" lon="6.71578">
        <ele>2103.0212402</ele>
        <time>2010-07-24T08:20:26Z</time>
      </trkpt>
      <trkpt lat="44.44833" lon="6.71575">
        <ele>2101.0986328</ele>
        <time>2010-07-24T08:20:28Z</time>
      </trkpt>
      <trkpt lat="44.44827" lon="6.71563">
        <ele>2101.0986328</ele>
        <time>2010-07-24T08:20:36Z</time>
      </trkpt>
      <trkpt lat="44.44826" lon="6.71562">
        <ele>2099.6567383</ele>
        <time>2010-07-24T08:20:40Z</time>
      </trkpt>
      <trkpt lat="44.44823" lon="6.71559">
        <ele>2099.6567383</ele>
        <time>2010-07-24T08:20:45Z</time>
      </trkpt>
      <trkpt lat="44.44817" lon="6.71552">
        <ele>2100.6179199</ele>
        <time>2010-07-24T08:20:51Z</time>
      </trkpt>
      <trkpt lat="44.4481" lon="6.71544">
        <ele>2102.5405273</ele>
        <time>2010-07-24T08:20:58Z</time>
      </trkpt>
      <trkpt lat="44.44801" lon="6.71538">
        <ele>2105.4245605</ele>
        <time>2010-07-24T08:21:04Z</time>
      </trkpt>
      <trkpt lat="44.44796" lon="6.71528">
        <ele>2106.8664551</ele>
        <time>2010-07-24T08:21:10Z</time>
      </trkpt>
      <trkpt lat="44.44794" lon="6.71518">
        <ele>2107.8278809</ele>
        <time>2010-07-24T08:21:15Z</time>
      </trkpt>
      <trkpt lat="44.44794" lon="6.71512">
        <ele>2109.2700195</ele>
        <time>2010-07-24T08:21:19Z</time>
      </trkpt>
      <trkpt lat="44.44797" lon="6.71508">
        <ele>2110.7119141</ele>
        <time>2010-07-24T08:21:22Z</time>
      </trkpt>
      <trkpt lat="44.44796" lon="6.715">
        <ele>2113.1152344</ele>
        <time>2010-07-24T08:21:27Z</time>
      </trkpt>
      <trkpt lat="44.44788" lon="6.71493">
        <ele>2112.1538086</ele>
        <time>2010-07-24T08:21:34Z</time>
      </trkpt>
      <trkpt lat="44.44787" lon="6.7149">
        <ele>2112.6345215</ele>
        <time>2010-07-24T08:21:36Z</time>
      </trkpt>
      <trkpt lat="44.4478" lon="6.71479">
        <ele>2110.7119141</ele>
        <time>2010-07-24T08:21:44Z</time>
      </trkpt>
      <trkpt lat="44.4478" lon="6.71467">
        <ele>2113.1152344</ele>
        <time>2010-07-24T08:21:50Z</time>
      </trkpt>
      <trkpt lat="44.4478" lon="6.71455">
        <ele>2114.076416</ele>
        <time>2010-07-24T08:21:57Z</time>
      </trkpt>
      <trkpt lat="44.44779" lon="6.71454">
        <ele>2114.5571289</ele>
        <time>2010-07-24T08:21:58Z</time>
      </trkpt>
      <trkpt lat="44.44776" lon="6.71451">
        <ele>2115.9990234</ele>
        <time>2010-07-24T08:22:05Z</time>
      </trkpt>
      <trkpt lat="44.44776" lon="6.71448">
        <ele>2116.9604492</ele>
        <time>2010-07-24T08:22:34Z</time>
      </trkpt>
      <trkpt lat="44.44772" lon="6.71431">
        <ele>2118.4023438</ele>
        <time>2010-07-24T08:22:44Z</time>
      </trkpt>
      <trkpt lat="44.44772" lon="6.71416">
        <ele>2119.8442383</ele>
        <time>2010-07-24T08:22:52Z</time>
      </trkpt>
      <trkpt lat="44.44768" lon="6.71408">
        <ele>2122.7282715</ele>
        <time>2010-07-24T08:23:00Z</time>
      </trkpt>
      <trkpt lat="44.44764" lon="6.71399">
        <ele>2123.2089844</ele>
        <time>2010-07-24T08:23:08Z</time>
      </trkpt>
      <trkpt lat="44.44763" lon="6.71396">
        <ele>2123.6894531</ele>
        <time>2010-07-24T08:23:10Z</time>
      </trkpt>
      <trkpt lat="44.4476" lon="6.71385">
        <ele>2125.6123047</ele>
        <time>2010-07-24T08:23:18Z</time>
      </trkpt>
      <trkpt lat="44.44758" lon="6.71374">
        <ele>2126.0930176</ele>
        <time>2010-07-24T08:23:26Z</time>
      </trkpt>
      <trkpt lat="44.44754" lon="6.71364">
        <ele>2127.5349121</ele>
        <time>2010-07-24T08:23:34Z</time>
      </trkpt>
      <trkpt lat="44.44754" lon="6.71364">
        <ele>2128.015625</ele>
        <time>2010-07-24T08:23:40Z</time>
      </trkpt>
      <trkpt lat="44.44754" lon="6.71363">
        <ele>2131.8608398</ele>
        <time>2010-07-24T08:24:04Z</time>
      </trkpt>
      <trkpt lat="44.44753" lon="6.71355">
        <ele>2132.8220215</ele>
        <time>2010-07-24T08:24:17Z</time>
      </trkpt>
      <trkpt lat="44.44752" lon="6.71345">
        <ele>2134.744873</ele>
        <time>2010-07-24T08:24:23Z</time>
      </trkpt>
      <trkpt lat="44.44748" lon="6.71331">
        <ele>2136.6672363</ele>
        <time>2010-07-24T08:24:32Z</time>
      </trkpt>
      <trkpt lat="44.44746" lon="6.71318">
        <ele>2137.1479492</ele>
        <time>2010-07-24T08:24:39Z</time>
      </trkpt>
      <trkpt lat="44.44743" lon="6.71305">
        <ele>2136.6672363</ele>
        <time>2010-07-24T08:24:47Z</time>
      </trkpt>
      <trkpt lat="44.44741" lon="6.71299">
        <ele>2140.5126953</ele>
        <time>2010-07-24T08:24:55Z</time>
      </trkpt>
      <trkpt lat="44.44737" lon="6.71293">
        <ele>2141.954834</ele>
        <time>2010-07-24T08:25:03Z</time>
      </trkpt>
      <trkpt lat="44.44734" lon="6.71286">
        <ele>2143.3967285</ele>
        <time>2010-07-24T08:25:11Z</time>
      </trkpt>
      <trkpt lat="44.44732" lon="6.71273">
        <ele>2142.4355469</ele>
        <time>2010-07-24T08:25:20Z</time>
      </trkpt>
      <trkpt lat="44.44732" lon="6.71269">
        <ele>2142.9160156</ele>
        <time>2010-07-24T08:25:23Z</time>
      </trkpt>
      <trkpt lat="44.44732" lon="6.71261">
        <ele>2144.3579102</ele>
        <time>2010-07-24T08:25:30Z</time>
      </trkpt>
      <trkpt lat="44.44737" lon="6.71252">
        <ele>2150.6064453</ele>
        <time>2010-07-24T08:25:39Z</time>
      </trkpt>
      <trkpt lat="44.44735" lon="6.71249">
        <ele>2153.4904785</ele>
        <time>2010-07-24T08:25:44Z</time>
      </trkpt>
      <trkpt lat="44.44733" lon="6.71241">
        <ele>2155.4130859</ele>
        <time>2010-07-24T08:25:53Z</time>
      </trkpt>
      <trkpt lat="44.44731" lon="6.71237">
        <ele>2164.0649414</ele>
        <time>2010-07-24T08:26:00Z</time>
      </trkpt>
      <trkpt lat="44.44728" lon="6.71231">
        <ele>2165.5070801</ele>
        <time>2010-07-24T08:26:09Z</time>
      </trkpt>
      <trkpt lat="44.44725" lon="6.71225">
        <ele>2166.9489746</ele>
        <time>2010-07-24T08:26:16Z</time>
      </trkpt>
      <trkpt lat="44.44726" lon="6.71218">
        <ele>2166.9489746</ele>
        <time>2010-07-24T08:26:24Z</time>
      </trkpt>
      <trkpt lat="44.44729" lon="6.7121">
        <ele>2166.9489746</ele>
        <time>2010-07-24T08:26:32Z</time>
      </trkpt>
      <trkpt lat="44.44728" lon="6.712">
        <ele>2163.5842285</ele>
        <time>2010-07-24T08:26:41Z</time>
      </trkpt>
      <trkpt lat="44.44724" lon="6.71196">
        <ele>2163.1037598</ele>
        <time>2010-07-24T08:26:48Z</time>
      </trkpt>
      <trkpt lat="44.44722" lon="6.7119">
        <ele>2163.1037598</ele>
        <time>2010-07-24T08:26:55Z</time>
      </trkpt>
      <trkpt lat="44.44722" lon="6.71185">
        <ele>2163.5842285</ele>
        <time>2010-07-24T08:27:01Z</time>
      </trkpt>
      <trkpt lat="44.44721" lon="6.71176">
        <ele>2162.6230469</ele>
        <time>2010-07-24T08:27:09Z</time>
      </trkpt>
      <trkpt lat="44.44722" lon="6.71165">
        <ele>2161.1811523</ele>
        <time>2010-07-24T08:27:16Z</time>
      </trkpt>
      <trkpt lat="44.44722" lon="6.71156">
        <ele>2162.6230469</ele>
        <time>2010-07-24T08:27:25Z</time>
      </trkpt>
      <trkpt lat="44.4472" lon="6.71154">
        <ele>2163.1037598</ele>
        <time>2010-07-24T08:27:27Z</time>
      </trkpt>
      <trkpt lat="44.44714" lon="6.71149">
        <ele>2169.3522949</ele>
        <time>2010-07-24T08:27:37Z</time>
      </trkpt>
      <trkpt lat="44.44711" lon="6.71148">
        <ele>2171.7553711</ele>
        <time>2010-07-24T08:27:45Z</time>
      </trkpt>
      <trkpt lat="44.44703" lon="6.71145">
        <ele>2169.8327637</ele>
        <time>2010-07-24T08:27:52Z</time>
      </trkpt>
      <trkpt lat="44.44697" lon="6.71137">
        <ele>2171.7553711</ele>
        <time>2010-07-24T08:28:00Z</time>
      </trkpt>
      <trkpt lat="44.44698" lon="6.7113">
        <ele>2172.717041</ele>
        <time>2010-07-24T08:28:06Z</time>
      </trkpt>
      <trkpt lat="44.44703" lon="6.71117">
        <ele>2174.6396484</ele>
        <time>2010-07-24T08:28:15Z</time>
      </trkpt>
      <trkpt lat="44.44704" lon="6.71114">
        <ele>2175.6008301</ele>
        <time>2010-07-24T08:28:17Z</time>
      </trkpt>
      <trkpt lat="44.44704" lon="6.71112">
        <ele>2175.1201172</ele>
        <time>2010-07-24T08:28:19Z</time>
      </trkpt>
      <trkpt lat="44.44697" lon="6.71107">
        <ele>2177.0429688</ele>
        <time>2010-07-24T08:28:27Z</time>
      </trkpt>
      <trkpt lat="44.4469" lon="6.71105">
        <ele>2182.8105469</ele>
        <time>2010-07-24T08:28:34Z</time>
      </trkpt>
      <trkpt lat="44.44687" lon="6.711">
        <ele>2185.2138672</ele>
        <time>2010-07-24T08:28:40Z</time>
      </trkpt>
      <trkpt lat="44.4469" lon="6.71096">
        <ele>2185.6945801</ele>
        <time>2010-07-24T08:28:45Z</time>
      </trkpt>
      <trkpt lat="44.44697" lon="6.71084">
        <ele>2187.1364746</ele>
        <time>2010-07-24T08:28:55Z</time>
      </trkpt>
      <trkpt lat="44.44696" lon="6.7108">
        <ele>2188.5788574</ele>
        <time>2010-07-24T08:28:58Z</time>
      </trkpt>
      <trkpt lat="44.44693" lon="6.71076">
        <ele>2186.6557617</ele>
        <time>2010-07-24T08:29:01Z</time>
      </trkpt>
      <trkpt lat="44.44683" lon="6.71069">
        <ele>2183.7719727</ele>
        <time>2010-07-24T08:29:09Z</time>
      </trkpt>
      <trkpt lat="44.44678" lon="6.71062">
        <ele>2183.7719727</ele>
        <time>2010-07-24T08:29:17Z</time>
      </trkpt>
      <trkpt lat="44.44671" lon="6.71057">
        <ele>2191.4626465</ele>
        <time>2010-07-24T08:29:24Z</time>
      </trkpt>
      <trkpt lat="44.44669" lon="6.71053">
        <ele>2194.3464355</ele>
        <time>2010-07-24T08:29:31Z</time>
      </trkpt>
      <trkpt lat="44.44664" lon="6.71049">
        <ele>2193.3852539</ele>
        <time>2010-07-24T08:29:39Z</time>
      </trkpt>
      <trkpt lat="44.44666" lon="6.71044">
        <ele>2189.0593262</ele>
        <time>2010-07-24T08:29:45Z</time>
      </trkpt>
      <trkpt lat="44.44666" lon="6.71044">
        <ele>2187.1364746</ele>
        <time>2010-07-24T08:29:51Z</time>
      </trkpt>
      <trkpt lat="44.44666" lon="6.71045">
        <ele>2191.4626465</ele>
        <time>2010-07-24T08:30:10Z</time>
      </trkpt>
      <trkpt lat="44.44665" lon="6.71047">
        <ele>2195.3078613</ele>
        <time>2010-07-24T08:30:20Z</time>
      </trkpt>
      <trkpt lat="44.44666" lon="6.71047">
        <ele>2196.7497559</ele>
        <time>2010-07-24T08:30:22Z</time>
      </trkpt>
      <trkpt lat="44.44661" lon="6.71037">
        <ele>2197.7111816</ele>
        <time>2010-07-24T08:30:29Z</time>
      </trkpt>
      <trkpt lat="44.44661" lon="6.71036">
        <ele>2198.1916504</ele>
        <time>2010-07-24T08:30:30Z</time>
      </trkpt>
      <trkpt lat="44.44658" lon="6.71027">
        <ele>2195.3078613</ele>
        <time>2010-07-24T08:30:37Z</time>
      </trkpt>
      <trkpt lat="44.44655" lon="6.71014">
        <ele>2198.1916504</ele>
        <time>2010-07-24T08:30:45Z</time>
      </trkpt>
      <trkpt lat="44.44651" lon="6.71006">
        <ele>2199.1530762</ele>
        <time>2010-07-24T08:30:55Z</time>
      </trkpt>
      <trkpt lat="44.44646" lon="6.70999">
        <ele>2198.1916504</ele>
        <time>2010-07-24T08:31:03Z</time>
      </trkpt>
      <trkpt lat="44.44641" lon="6.70993">
        <ele>2198.6723633</ele>
        <time>2010-07-24T08:31:10Z</time>
      </trkpt>
      <trkpt lat="44.44637" lon="6.70986">
        <ele>2200.114502</ele>
        <time>2010-07-24T08:31:18Z</time>
      </trkpt>
      <trkpt lat="44.44636" lon="6.70978">
        <ele>2201.0756836</ele>
        <time>2010-07-24T08:31:25Z</time>
      </trkpt>
      <trkpt lat="44.44639" lon="6.70976">
        <ele>2206.3630371</ele>
        <time>2010-07-24T08:31:31Z</time>
      </trkpt>
      <trkpt lat="44.44641" lon="6.7097">
        <ele>2208.2856445</ele>
        <time>2010-07-24T08:31:40Z</time>
      </trkpt>
      <trkpt lat="44.44643" lon="6.70962">
        <ele>2212.1308594</ele>
        <time>2010-07-24T08:31:46Z</time>
      </trkpt>
      <trkpt lat="44.44643" lon="6.70955">
        <ele>2212.6115723</ele>
        <time>2010-07-24T08:31:52Z</time>
      </trkpt>
      <trkpt lat="44.44637" lon="6.70949">
        <ele>2212.1308594</ele>
        <time>2010-07-24T08:31:59Z</time>
      </trkpt>
      <trkpt lat="44.44634" lon="6.7094">
        <ele>2206.84375</ele>
        <time>2010-07-24T08:32:07Z</time>
      </trkpt>
      <trkpt lat="44.44632" lon="6.70933">
        <ele>2209.2470703</ele>
        <time>2010-07-24T08:32:15Z</time>
      </trkpt>
      <trkpt lat="44.44629" lon="6.70929">
        <ele>2210.208252</ele>
        <time>2010-07-24T08:32:24Z</time>
      </trkpt>
      <trkpt lat="44.44627" lon="6.70924">
        <ele>2210.6889648</ele>
        <time>2010-07-24T08:32:30Z</time>
      </trkpt>
      <trkpt lat="44.44625" lon="6.7092">
        <ele>2211.6503906</ele>
        <time>2010-07-24T08:32:33Z</time>
      </trkpt>
      <trkpt lat="44.44621" lon="6.70907">
        <ele>2217.4179688</ele>
        <time>2010-07-24T08:32:42Z</time>
      </trkpt>
      <trkpt lat="44.44618" lon="6.70901">
        <ele>2217.4179688</ele>
        <time>2010-07-24T08:32:51Z</time>
      </trkpt>
      <trkpt lat="44.44615" lon="6.70896">
        <ele>2214.0534668</ele>
        <time>2010-07-24T08:32:59Z</time>
      </trkpt>
      <trkpt lat="44.44616" lon="6.70887">
        <ele>2216.9375</ele>
        <time>2010-07-24T08:33:08Z</time>
      </trkpt>
      <trkpt lat="44.44612" lon="6.70878">
        <ele>2216.9375</ele>
        <time>2010-07-24T08:33:16Z</time>
      </trkpt>
      <trkpt lat="44.44611" lon="6.7087">
        <ele>2218.3793945</ele>
        <time>2010-07-24T08:33:24Z</time>
      </trkpt>
      <trkpt lat="44.44608" lon="6.70861">
        <ele>2220.782959</ele>
        <time>2010-07-24T08:33:32Z</time>
      </trkpt>
      <trkpt lat="44.44603" lon="6.70852">
        <ele>2222.2248535</ele>
        <time>2010-07-24T08:33:40Z</time>
      </trkpt>
      <trkpt lat="44.44603" lon="6.7084">
        <ele>2228.9538574</ele>
        <time>2010-07-24T08:33:49Z</time>
      </trkpt>
      <trkpt lat="44.44597" lon="6.70834">
        <ele>2229.4345703</ele>
        <time>2010-07-24T08:33:57Z</time>
      </trkpt>
      <trkpt lat="44.44595" lon="6.7083">
        <ele>2232.3186035</ele>
        <time>2010-07-24T08:34:03Z</time>
      </trkpt>
      <trkpt lat="44.4459" lon="6.70825">
        <ele>2232.7990723</ele>
        <time>2010-07-24T08:34:10Z</time>
      </trkpt>
      <trkpt lat="44.44588" lon="6.70815">
        <ele>2235.6831055</ele>
        <time>2010-07-24T08:34:18Z</time>
      </trkpt>
      <trkpt lat="44.44586" lon="6.70808">
        <ele>2234.2412109</ele>
        <time>2010-07-24T08:34:26Z</time>
      </trkpt>
      <trkpt lat="44.44586" lon="6.70799">
        <ele>2233.760498</ele>
        <time>2010-07-24T08:34:33Z</time>
      </trkpt>
      <trkpt lat="44.44585" lon="6.70791">
        <ele>2236.6445312</ele>
        <time>2010-07-24T08:34:41Z</time>
      </trkpt>
      <trkpt lat="44.44584" lon="6.70786">
        <ele>2236.6445312</ele>
        <time>2010-07-24T08:34:48Z</time>
      </trkpt>
      <trkpt lat="44.44581" lon="6.70782">
        <ele>2234.7219238</ele>
        <time>2010-07-24T08:34:56Z</time>
      </trkpt>
      <trkpt lat="44.44582" lon="6.70775">
        <ele>2239.0478516</ele>
        <time>2010-07-24T08:35:03Z</time>
      </trkpt>
      <trkpt lat="44.44587" lon="6.70769">
        <ele>2238.0866699</ele>
        <time>2010-07-24T08:35:11Z</time>
      </trkpt>
      <trkpt lat="44.44587" lon="6.70757">
        <ele>2241.9318848</ele>
        <time>2010-07-24T08:35:19Z</time>
      </trkpt>
      <trkpt lat="44.44584" lon="6.70746">
        <ele>2244.3349609</ele>
        <time>2010-07-24T08:35:27Z</time>
      </trkpt>
      <trkpt lat="44.44582" lon="6.7074">
        <ele>2245.7770996</ele>
        <time>2010-07-24T08:35:32Z</time>
      </trkpt>
      <trkpt lat="44.44579" lon="6.70727">
        <ele>2248.1801758</ele>
        <time>2010-07-24T08:35:42Z</time>
      </trkpt>
      <trkpt lat="44.44578" lon="6.7072">
        <ele>2250.1030273</ele>
        <time>2010-07-24T08:35:47Z</time>
      </trkpt>
      <trkpt lat="44.44576" lon="6.70709">
        <ele>2246.7382812</ele>
        <time>2010-07-24T08:35:57Z</time>
      </trkpt>
      <trkpt lat="44.44573" lon="6.70699">
        <ele>2247.699707</ele>
        <time>2010-07-24T08:36:04Z</time>
      </trkpt>
      <trkpt lat="44.44572" lon="6.70692">
        <ele>2247.2189941</ele>
        <time>2010-07-24T08:36:11Z</time>
      </trkpt>
      <trkpt lat="44.44572" lon="6.70688">
        <ele>2246.2578125</ele>
        <time>2010-07-24T08:36:14Z</time>
      </trkpt>
      <trkpt lat="44.44566" lon="6.7068">
        <ele>2243.8544922</ele>
        <time>2010-07-24T08:36:23Z</time>
      </trkpt>
      <trkpt lat="44.44557" lon="6.7067">
        <ele>2244.3349609</ele>
        <time>2010-07-24T08:36:33Z</time>
      </trkpt>
      <trkpt lat="44.44551" lon="6.70663">
        <ele>2245.7770996</ele>
        <time>2010-07-24T08:36:41Z</time>
      </trkpt>
      <trkpt lat="44.44545" lon="6.70654">
        <ele>2247.2189941</ele>
        <time>2010-07-24T08:36:50Z</time>
      </trkpt>
      <trkpt lat="44.44536" lon="6.70642">
        <ele>2248.6608887</ele>
        <time>2010-07-24T08:37:00Z</time>
      </trkpt>
      <trkpt lat="44.44532" lon="6.70632">
        <ele>2250.1030273</ele>
        <time>2010-07-24T08:37:07Z</time>
      </trkpt>
      <trkpt lat="44.44531" lon="6.70618">
        <ele>2252.9870605</ele>
        <time>2010-07-24T08:37:15Z</time>
      </trkpt>
      <trkpt lat="44.44531" lon="6.70613">
        <ele>2251.5449219</ele>
        <time>2010-07-24T08:37:22Z</time>
      </trkpt>
      <trkpt lat="44.44535" lon="6.70609">
        <ele>2253.4677734</ele>
        <time>2010-07-24T08:37:29Z</time>
      </trkpt>
      <trkpt lat="44.44535" lon="6.70599">
        <ele>2256.3515625</ele>
        <time>2010-07-24T08:37:38Z</time>
      </trkpt>
      <trkpt lat="44.44533" lon="6.70591">
        <ele>2257.3129883</ele>
        <time>2010-07-24T08:37:46Z</time>
      </trkpt>
      <trkpt lat="44.44531" lon="6.70583">
        <ele>2259.7160645</ele>
        <time>2010-07-24T08:37:53Z</time>
      </trkpt>
      <trkpt lat="44.44525" lon="6.70571">
        <ele>2258.7548828</ele>
        <time>2010-07-24T08:38:03Z</time>
      </trkpt>
      <trkpt lat="44.44524" lon="6.70561">
        <ele>2259.2355957</ele>
        <time>2010-07-24T08:38:12Z</time>
      </trkpt>
      <trkpt lat="44.44523" lon="6.70549">
        <ele>2262.1193848</ele>
        <time>2010-07-24T08:38:20Z</time>
      </trkpt>
      <trkpt lat="44.44522" lon="6.70541">
        <ele>2270.2907715</ele>
        <time>2010-07-24T08:38:27Z</time>
      </trkpt>
      <trkpt lat="44.4452" lon="6.70537">
        <ele>2272.6940918</ele>
        <time>2010-07-24T08:38:31Z</time>
      </trkpt>
      <trkpt lat="44.44517" lon="6.70526">
        <ele>2272.2133789</ele>
        <time>2010-07-24T08:38:40Z</time>
      </trkpt>
      <trkpt lat="44.44512" lon="6.70514">
        <ele>2275.5778809</ele>
        <time>2010-07-24T08:38:49Z</time>
      </trkpt>
      <trkpt lat="44.4451" lon="6.70504">
        <ele>2278.4619141</ele>
        <time>2010-07-24T08:38:57Z</time>
      </trkpt>
      <trkpt lat="44.44507" lon="6.70495">
        <ele>2275.5778809</ele>
        <time>2010-07-24T08:39:03Z</time>
      </trkpt>
      <trkpt lat="44.44503" lon="6.70487">
        <ele>2275.5778809</ele>
        <time>2010-07-24T08:39:12Z</time>
      </trkpt>
      <trkpt lat="44.44496" lon="6.70481">
        <ele>2276.5393066</ele>
        <time>2010-07-24T08:39:20Z</time>
      </trkpt>
      <trkpt lat="44.44493" lon="6.70476">
        <ele>2276.5393066</ele>
        <time>2010-07-24T08:39:26Z</time>
      </trkpt>
      <trkpt lat="44.44488" lon="6.7047">
        <ele>2277.0200195</ele>
        <time>2010-07-24T08:39:35Z</time>
      </trkpt>
      <trkpt lat="44.44484" lon="6.70467">
        <ele>2283.2683105</ele>
        <time>2010-07-24T08:39:40Z</time>
      </trkpt>
      <trkpt lat="44.44476" lon="6.70456">
        <ele>2293.8430176</ele>
        <time>2010-07-24T08:39:51Z</time>
      </trkpt>
      <trkpt lat="44.44471" lon="6.7045">
        <ele>2289.5170898</ele>
        <time>2010-07-24T08:40:20Z</time>
      </trkpt>
      <trkpt lat="44.44472" lon="6.70449">
        <ele>2291.4396973</ele>
        <time>2010-07-24T08:40:26Z</time>
      </trkpt>
      <trkpt lat="44.44471" lon="6.70445">
        <ele>2290.4782715</ele>
        <time>2010-07-24T08:40:32Z</time>
      </trkpt>
      <trkpt lat="44.44465" lon="6.70435">
        <ele>2288.0751953</ele>
        <time>2010-07-24T08:40:38Z</time>
      </trkpt>
      <trkpt lat="44.4446" lon="6.70424">
        <ele>2289.036377</ele>
        <time>2010-07-24T08:40:44Z</time>
      </trkpt>
      <trkpt lat="44.44461" lon="6.70418">
        <ele>2290.4782715</ele>
        <time>2010-07-24T08:40:47Z</time>
      </trkpt>
      <trkpt lat="44.44453" lon="6.70409">
        <ele>2289.036377</ele>
        <time>2010-07-24T08:40:52Z</time>
      </trkpt>
      <trkpt lat="44.44445" lon="6.70396">
        <ele>2289.036377</ele>
        <time>2010-07-24T08:41:00Z</time>
      </trkpt>
      <trkpt lat="44.4445" lon="6.70385">
        <ele>2291.9204102</ele>
        <time>2010-07-24T08:41:06Z</time>
      </trkpt>
      <trkpt lat="44.44444" lon="6.70383">
        <ele>2292.401123</ele>
        <time>2010-07-24T08:41:10Z</time>
      </trkpt>
      <trkpt lat="44.44436" lon="6.70381">
        <ele>2292.8815918</ele>
        <time>2010-07-24T08:41:15Z</time>
      </trkpt>
      <trkpt lat="44.4443" lon="6.70367">
        <ele>2293.8430176</ele>
        <time>2010-07-24T08:41:23Z</time>
      </trkpt>
      <trkpt lat="44.44423" lon="6.70353">
        <ele>2293.8430176</ele>
        <time>2010-07-24T08:41:31Z</time>
      </trkpt>
      <trkpt lat="44.4442" lon="6.70347">
        <ele>2293.8430176</ele>
        <time>2010-07-24T08:41:34Z</time>
      </trkpt>
      <trkpt lat="44.44409" lon="6.70342">
        <ele>2292.8815918</ele>
        <time>2010-07-24T08:41:42Z</time>
      </trkpt>
      <trkpt lat="44.44401" lon="6.7034">
        <ele>2291.9204102</ele>
        <time>2010-07-24T08:41:48Z</time>
      </trkpt>
      <trkpt lat="44.44396" lon="6.70337">
        <ele>2292.8815918</ele>
        <time>2010-07-24T08:41:52Z</time>
      </trkpt>
      <trkpt lat="44.44383" lon="6.70333">
        <ele>2292.401123</ele>
        <time>2010-07-24T08:42:03Z</time>
      </trkpt>
      <trkpt lat="44.44381" lon="6.7033">
        <ele>2292.8815918</ele>
        <time>2010-07-24T08:42:07Z</time>
      </trkpt>
      <trkpt lat="44.44369" lon="6.70331">
        <ele>2291.9204102</ele>
        <time>2010-07-24T08:42:16Z</time>
      </trkpt>
      <trkpt lat="44.44368" lon="6.7033">
        <ele>2291.9204102</ele>
        <time>2010-07-24T08:42:17Z</time>
      </trkpt>
      <trkpt lat="44.44365" lon="6.70334">
        <ele>2291.4396973</ele>
        <time>2010-07-24T08:42:21Z</time>
      </trkpt>
      <trkpt lat="44.44361" lon="6.70332">
        <ele>2291.4396973</ele>
        <time>2010-07-24T08:42:26Z</time>
      </trkpt>
      <trkpt lat="44.44361" lon="6.7033">
        <ele>2292.401123</ele>
        <time>2010-07-24T08:42:31Z</time>
      </trkpt>
      <trkpt lat="44.44355" lon="6.70321">
        <ele>2292.401123</ele>
        <time>2010-07-24T08:42:40Z</time>
      </trkpt>
      <trkpt lat="44.44353" lon="6.7032">
        <ele>2294.3234863</ele>
        <time>2010-07-24T08:42:46Z</time>
      </trkpt>
      <trkpt lat="44.44355" lon="6.70321">
        <ele>2296.2463379</ele>
        <time>2010-07-24T08:43:01Z</time>
      </trkpt>
      <trkpt lat="44.44353" lon="6.70314">
        <ele>2297.2075195</ele>
        <time>2010-07-24T08:43:08Z</time>
      </trkpt>
      <trkpt lat="44.44351" lon="6.70312">
        <ele>2295.765625</ele>
        <time>2010-07-24T08:43:10Z</time>
      </trkpt>
      <trkpt lat="44.44348" lon="6.70305">
        <ele>2296.7268066</ele>
        <time>2010-07-24T08:43:17Z</time>
      </trkpt>
      <trkpt lat="44.44347" lon="6.70292">
        <ele>2298.1687012</ele>
        <time>2010-07-24T08:43:26Z</time>
      </trkpt>
      <trkpt lat="44.44349" lon="6.70279">
        <ele>2300.5722656</ele>
        <time>2010-07-24T08:43:35Z</time>
      </trkpt>
      <trkpt lat="44.44346" lon="6.70268">
        <ele>2300.5722656</ele>
        <time>2010-07-24T08:43:44Z</time>
      </trkpt>
      <trkpt lat="44.44344" lon="6.70258">
        <ele>2300.5722656</ele>
        <time>2010-07-24T08:43:53Z</time>
      </trkpt>
      <trkpt lat="44.44341" lon="6.70245">
        <ele>2303.4562988</ele>
        <time>2010-07-24T08:44:01Z</time>
      </trkpt>
      <trkpt lat="44.44339" lon="6.70237">
        <ele>2304.8981934</ele>
        <time>2010-07-24T08:44:07Z</time>
      </trkpt>
      <trkpt lat="44.44337" lon="6.70232">
        <ele>2306.3400879</ele>
        <time>2010-07-24T08:44:11Z</time>
      </trkpt>
      <trkpt lat="44.4433" lon="6.70226">
        <ele>2307.3015137</ele>
        <time>2010-07-24T08:44:20Z</time>
      </trkpt>
      <trkpt lat="44.44326" lon="6.70222">
        <ele>2310.6660156</ele>
        <time>2010-07-24T08:44:27Z</time>
      </trkpt>
      <trkpt lat="44.44326" lon="6.70225">
        <ele>2312.1079102</ele>
        <time>2010-07-24T08:44:34Z</time>
      </trkpt>
      <trkpt lat="44.44324" lon="6.70219">
        <ele>2312.588623</ele>
        <time>2010-07-24T08:44:39Z</time>
      </trkpt>
      <trkpt lat="44.44324" lon="6.70211">
        <ele>2311.6274414</ele>
        <time>2010-07-24T08:44:46Z</time>
      </trkpt>
      <trkpt lat="44.44323" lon="6.70205">
        <ele>2314.0305176</ele>
        <time>2010-07-24T08:44:54Z</time>
      </trkpt>
      <trkpt lat="44.44323" lon="6.70196">
        <ele>2313.5498047</ele>
        <time>2010-07-24T08:45:01Z</time>
      </trkpt>
      <trkpt lat="44.44322" lon="6.70188">
        <ele>2316.434082</ele>
        <time>2010-07-24T08:45:07Z</time>
      </trkpt>
      <trkpt lat="44.4432" lon="6.70186">
        <ele>2316.9147949</ele>
        <time>2010-07-24T08:45:12Z</time>
      </trkpt>
      <trkpt lat="44.4432" lon="6.70187">
        <ele>2315.953125</ele>
        <time>2010-07-24T08:45:27Z</time>
      </trkpt>
      <trkpt lat="44.4432" lon="6.70188">
        <ele>2314.9919434</ele>
        <time>2010-07-24T08:45:54Z</time>
      </trkpt>
      <trkpt lat="44.44319" lon="6.70188">
        <ele>2318.3566895</ele>
        <time>2010-07-24T08:46:14Z</time>
      </trkpt>
      <trkpt lat="44.44318" lon="6.70189">
        <ele>2321.2404785</ele>
        <time>2010-07-24T08:46:36Z</time>
      </trkpt>
      <trkpt lat="44.44319" lon="6.70187">
        <ele>2315.4726562</ele>
        <time>2010-07-24T08:46:49Z</time>
      </trkpt>
      <trkpt lat="44.44315" lon="6.70176">
        <ele>2317.8759766</ele>
        <time>2010-07-24T08:46:58Z</time>
      </trkpt>
      <trkpt lat="44.44312" lon="6.70163">
        <ele>2322.6826172</ele>
        <time>2010-07-24T08:47:07Z</time>
      </trkpt>
      <trkpt lat="44.44312" lon="6.70153">
        <ele>2325.5664062</ele>
        <time>2010-07-24T08:47:16Z</time>
      </trkpt>
      <trkpt lat="44.44312" lon="6.70151">
        <ele>2327.0085449</ele>
        <time>2010-07-24T08:47:23Z</time>
      </trkpt>
      <trkpt lat="44.44308" lon="6.70148">
        <ele>2330.8537598</ele>
        <time>2010-07-24T08:47:31Z</time>
      </trkpt>
      <trkpt lat="44.44304" lon="6.70148">
        <ele>2333.737793</ele>
        <time>2010-07-24T08:47:37Z</time>
      </trkpt>
      <trkpt lat="44.443" lon="6.70149">
        <ele>2332.7763672</ele>
        <time>2010-07-24T08:47:44Z</time>
      </trkpt>
      <trkpt lat="44.44296" lon="6.70143">
        <ele>2334.2185059</ele>
        <time>2010-07-24T08:47:51Z</time>
      </trkpt>
      <trkpt lat="44.4429" lon="6.70133">
        <ele>2334.6992188</ele>
        <time>2010-07-24T08:48:02Z</time>
      </trkpt>
      <trkpt lat="44.44288" lon="6.70132">
        <ele>2335.1796875</ele>
        <time>2010-07-24T08:48:04Z</time>
      </trkpt>
      <trkpt lat="44.44285" lon="6.7013">
        <ele>2335.1796875</ele>
        <time>2010-07-24T08:48:12Z</time>
      </trkpt>
      <trkpt lat="44.44279" lon="6.70127">
        <ele>2337.1022949</ele>
        <time>2010-07-24T08:48:18Z</time>
      </trkpt>
      <trkpt lat="44.4427" lon="6.70122">
        <ele>2340.4667969</ele>
        <time>2010-07-24T08:48:27Z</time>
      </trkpt>
      <trkpt lat="44.4426" lon="6.70116">
        <ele>2338.0637207</ele>
        <time>2010-07-24T08:48:38Z</time>
      </trkpt>
      <trkpt lat="44.44252" lon="6.70109">
        <ele>2338.0637207</ele>
        <time>2010-07-24T08:48:46Z</time>
      </trkpt>
      <trkpt lat="44.44245" lon="6.701">
        <ele>2338.0637207</ele>
        <time>2010-07-24T08:48:55Z</time>
      </trkpt>
      <trkpt lat="44.44244" lon="6.70084">
        <ele>2340.9475098</ele>
        <time>2010-07-24T08:49:04Z</time>
      </trkpt>
      <trkpt lat="44.4424" lon="6.70072">
        <ele>2341.9089355</ele>
        <time>2010-07-24T08:49:12Z</time>
      </trkpt>
      <trkpt lat="44.44237" lon="6.70072">
        <ele>2342.8701172</ele>
        <time>2010-07-24T08:49:16Z</time>
      </trkpt>
      <trkpt lat="44.44231" lon="6.70076">
        <ele>2348.1574707</ele>
        <time>2010-07-24T08:49:25Z</time>
      </trkpt>
      <trkpt lat="44.4423" lon="6.70073">
        <ele>2349.5996094</ele>
        <time>2010-07-24T08:49:27Z</time>
      </trkpt>
      <trkpt lat="44.44221" lon="6.70064">
        <ele>2351.5222168</ele>
        <time>2010-07-24T08:49:36Z</time>
      </trkpt>
      <trkpt lat="44.44217" lon="6.70056">
        <ele>2355.3674316</ele>
        <time>2010-07-24T08:49:43Z</time>
      </trkpt>
      <trkpt lat="44.44218" lon="6.70055">
        <ele>2356.3286133</ele>
        <time>2010-07-24T08:49:44Z</time>
      </trkpt>
      <trkpt lat="44.44214" lon="6.70051">
        <ele>2354.4060059</ele>
        <time>2010-07-24T08:49:51Z</time>
      </trkpt>
      <trkpt lat="44.44206" lon="6.70044">
        <ele>2354.4060059</ele>
        <time>2010-07-24T08:49:59Z</time>
      </trkpt>
      <trkpt lat="44.44205" lon="6.70042">
        <ele>2353.4448242</ele>
        <time>2010-07-24T08:50:01Z</time>
      </trkpt>
      <trkpt lat="44.44202" lon="6.70036">
        <ele>2353.4448242</ele>
        <time>2010-07-24T08:50:06Z</time>
      </trkpt>
      <trkpt lat="44.44194" lon="6.70027">
        <ele>2356.3286133</ele>
        <time>2010-07-24T08:50:15Z</time>
      </trkpt>
      <trkpt lat="44.44194" lon="6.70026">
        <ele>2356.3286133</ele>
        <time>2010-07-24T08:50:16Z</time>
      </trkpt>
      <trkpt lat="44.44191" lon="6.70015">
        <ele>2360.1738281</ele>
        <time>2010-07-24T08:50:25Z</time>
      </trkpt>
      <trkpt lat="44.44189" lon="6.70008">
        <ele>2361.6159668</ele>
        <time>2010-07-24T08:50:32Z</time>
      </trkpt>
      <trkpt lat="44.44187" lon="6.69998">
        <ele>2364.0192871</ele>
        <time>2010-07-24T08:50:41Z</time>
      </trkpt>
      <trkpt lat="44.44184" lon="6.69992">
        <ele>2363.0578613</ele>
        <time>2010-07-24T08:50:47Z</time>
      </trkpt>
      <trkpt lat="44.44183" lon="6.69982">
        <ele>2365.4614258</ele>
        <time>2010-07-24T08:50:56Z</time>
      </trkpt>
      <trkpt lat="44.44182" lon="6.69982">
        <ele>2367.864502</ele>
        <time>2010-07-24T08:51:05Z</time>
      </trkpt>
      <trkpt lat="44.44182" lon="6.69982">
        <ele>2368.8259277</ele>
        <time>2010-07-24T08:51:20Z</time>
      </trkpt>
      <trkpt lat="44.44181" lon="6.69983">
        <ele>2365.9418945</ele>
        <time>2010-07-24T08:51:32Z</time>
      </trkpt>
      <trkpt lat="44.44181" lon="6.69985">
        <ele>2367.3837891</ele>
        <time>2010-07-24T08:51:46Z</time>
      </trkpt>
      <trkpt lat="44.44182" lon="6.69984">
        <ele>2369.3066406</ele>
        <time>2010-07-24T08:51:56Z</time>
      </trkpt>
      <trkpt lat="44.44178" lon="6.69984">
        <ele>2369.7871094</ele>
        <time>2010-07-24T08:52:01Z</time>
      </trkpt>
      <trkpt lat="44.44177" lon="6.69985">
        <ele>2371.7097168</ele>
        <time>2010-07-24T08:52:07Z</time>
      </trkpt>
      <trkpt lat="44.44178" lon="6.69981">
        <ele>2369.7871094</ele>
        <time>2010-07-24T08:52:15Z</time>
      </trkpt>
      <trkpt lat="44.44179" lon="6.69975">
        <ele>2364.9807129</ele>
        <time>2010-07-24T08:52:32Z</time>
      </trkpt>
      <trkpt lat="44.44179" lon="6.69974">
        <ele>2360.654541</ele>
        <time>2010-07-24T08:52:44Z</time>
      </trkpt>
      <trkpt lat="44.44178" lon="6.6997">
        <ele>2361.1352539</ele>
        <time>2010-07-24T08:52:54Z</time>
      </trkpt>
      <trkpt lat="44.44176" lon="6.69959">
        <ele>2367.864502</ele>
        <time>2010-07-24T08:53:04Z</time>
      </trkpt>
      <trkpt lat="44.44174" lon="6.69949">
        <ele>2370.7485352</ele>
        <time>2010-07-24T08:53:13Z</time>
      </trkpt>
      <trkpt lat="44.44171" lon="6.69941">
        <ele>2374.59375</ele>
        <time>2010-07-24T08:53:21Z</time>
      </trkpt>
      <trkpt lat="44.44168" lon="6.69932">
        <ele>2380.3618164</ele>
        <time>2010-07-24T08:53:30Z</time>
      </trkpt>
      <trkpt lat="44.44169" lon="6.69928">
        <ele>2378.9194336</ele>
        <time>2010-07-24T08:53:36Z</time>
      </trkpt>
      <trkpt lat="44.44169" lon="6.69923">
        <ele>2377.958252</ele>
        <time>2010-07-24T08:53:42Z</time>
      </trkpt>
      <trkpt lat="44.44164" lon="6.69915">
        <ele>2380.3618164</ele>
        <time>2010-07-24T08:53:52Z</time>
      </trkpt>
      <trkpt lat="44.4416" lon="6.69911">
        <ele>2381.322998</ele>
        <time>2010-07-24T08:54:00Z</time>
      </trkpt>
      <trkpt lat="44.44155" lon="6.69909">
        <ele>2382.2844238</ele>
        <time>2010-07-24T08:54:09Z</time>
      </trkpt>
      <trkpt lat="44.4415" lon="6.69903">
        <ele>2382.7648926</ele>
        <time>2010-07-24T08:54:17Z</time>
      </trkpt>
      <trkpt lat="44.44144" lon="6.69903">
        <ele>2386.1296387</ele>
        <time>2010-07-24T08:54:24Z</time>
      </trkpt>
      <trkpt lat="44.44142" lon="6.69899">
        <ele>2388.0522461</ele>
        <time>2010-07-24T08:54:32Z</time>
      </trkpt>
      <trkpt lat="44.44139" lon="6.69894">
        <ele>2390.4553223</ele>
        <time>2010-07-24T08:54:40Z</time>
      </trkpt>
      <trkpt lat="44.44137" lon="6.69888">
        <ele>2394.3005371</ele>
        <time>2010-07-24T08:54:49Z</time>
      </trkpt>
      <trkpt lat="44.44134" lon="6.69888">
        <ele>2395.2619629</ele>
        <time>2010-07-24T08:54:55Z</time>
      </trkpt>
      <trkpt lat="44.44129" lon="6.69889">
        <ele>2395.7426758</ele>
        <time>2010-07-24T08:55:04Z</time>
      </trkpt>
      <trkpt lat="44.44127" lon="6.69886">
        <ele>2396.7041016</ele>
        <time>2010-07-24T08:55:11Z</time>
      </trkpt>
      <trkpt lat="44.44125" lon="6.69881">
        <ele>2399.1074219</ele>
        <time>2010-07-24T08:55:18Z</time>
      </trkpt>
      <trkpt lat="44.44123" lon="6.69874">
        <ele>2401.5107422</ele>
        <time>2010-07-24T08:55:26Z</time>
      </trkpt>
      <trkpt lat="44.44117" lon="6.69867">
        <ele>2402.9526367</ele>
        <time>2010-07-24T08:55:34Z</time>
      </trkpt>
      <trkpt lat="44.44111" lon="6.6986">
        <ele>2402.9526367</ele>
        <time>2010-07-24T08:55:42Z</time>
      </trkpt>
      <trkpt lat="44.44107" lon="6.69854">
        <ele>2403.4333496</ele>
        <time>2010-07-24T08:55:49Z</time>
      </trkpt>
      <trkpt lat="44.44103" lon="6.69846">
        <ele>2404.8752441</ele>
        <time>2010-07-24T08:55:57Z</time>
      </trkpt>
      <trkpt lat="44.44102" lon="6.69838">
        <ele>2407.2785645</ele>
        <time>2010-07-24T08:56:06Z</time>
      </trkpt>
      <trkpt lat="44.44097" lon="6.69828">
        <ele>2409.6816406</ele>
        <time>2010-07-24T08:56:15Z</time>
      </trkpt>
      <trkpt lat="44.44092" lon="6.6982">
        <ele>2409.6816406</ele>
        <time>2010-07-24T08:56:24Z</time>
      </trkpt>
      <trkpt lat="44.4409" lon="6.69809">
        <ele>2411.6044922</ele>
        <time>2010-07-24T08:56:33Z</time>
      </trkpt>
      <trkpt lat="44.44088" lon="6.698">
        <ele>2414.4885254</ele>
        <time>2010-07-24T08:56:43Z</time>
      </trkpt>
      <trkpt lat="44.44086" lon="6.69796">
        <ele>2415.4499512</ele>
        <time>2010-07-24T08:56:49Z</time>
      </trkpt>
      <trkpt lat="44.44083" lon="6.69788">
        <ele>2415.9304199</ele>
        <time>2010-07-24T08:56:55Z</time>
      </trkpt>
      <trkpt lat="44.44081" lon="6.69782">
        <ele>2417.8530273</ele>
        <time>2010-07-24T08:57:02Z</time>
      </trkpt>
      <trkpt lat="44.44077" lon="6.6978">
        <ele>2419.295166</ele>
        <time>2010-07-24T08:57:09Z</time>
      </trkpt>
      <trkpt lat="44.44077" lon="6.69778">
        <ele>2419.7756348</ele>
        <time>2010-07-24T08:57:13Z</time>
      </trkpt>
      <trkpt lat="44.44075" lon="6.69772">
        <ele>2420.7370605</ele>
        <time>2010-07-24T08:57:21Z</time>
      </trkpt>
      <trkpt lat="44.44072" lon="6.69764">
        <ele>2423.6208496</ele>
        <time>2010-07-24T08:57:31Z</time>
      </trkpt>
      <trkpt lat="44.44069" lon="6.69759">
        <ele>2426.0241699</ele>
        <time>2010-07-24T08:57:39Z</time>
      </trkpt>
      <trkpt lat="44.44065" lon="6.69754">
        <ele>2428.4277344</ele>
        <time>2010-07-24T08:57:49Z</time>
      </trkpt>
      <trkpt lat="44.44063" lon="6.69753">
        <ele>2430.3503418</ele>
        <time>2010-07-24T08:57:55Z</time>
      </trkpt>
      <trkpt lat="44.44057" lon="6.69747">
        <ele>2433.7148438</ele>
        <time>2010-07-24T08:58:03Z</time>
      </trkpt>
      <trkpt lat="44.44054" lon="6.69734">
        <ele>2432.753418</ele>
        <time>2010-07-24T08:58:12Z</time>
      </trkpt>
      <trkpt lat="44.44052" lon="6.69732">
        <ele>2432.2729492</ele>
        <time>2010-07-24T08:58:17Z</time>
      </trkpt>
      <trkpt lat="44.44051" lon="6.69732">
        <ele>2432.2729492</ele>
        <time>2010-07-24T08:58:27Z</time>
      </trkpt>
      <trkpt lat="44.44047" lon="6.69722">
        <ele>2430.8310547</ele>
        <time>2010-07-24T08:58:36Z</time>
      </trkpt>
      <trkpt lat="44.44045" lon="6.69718">
        <ele>2431.7922363</ele>
        <time>2010-07-24T08:58:42Z</time>
      </trkpt>
      <trkpt lat="44.44043" lon="6.69715">
        <ele>2431.3115234</ele>
        <time>2010-07-24T08:58:48Z</time>
      </trkpt>
      <trkpt lat="44.4404" lon="6.69714">
        <ele>2431.7922363</ele>
        <time>2010-07-24T08:58:53Z</time>
      </trkpt>
      <trkpt lat="44.44031" lon="6.69711">
        <ele>2434.6762695</ele>
        <time>2010-07-24T08:59:03Z</time>
      </trkpt>
      <trkpt lat="44.44025" lon="6.69709">
        <ele>2436.5986328</ele>
        <time>2010-07-24T08:59:11Z</time>
      </trkpt>
      <trkpt lat="44.4402" lon="6.69708">
        <ele>2438.5214844</ele>
        <time>2010-07-24T08:59:20Z</time>
      </trkpt>
      <trkpt lat="44.44016" lon="6.69705">
        <ele>2439.0019531</ele>
        <time>2010-07-24T08:59:27Z</time>
      </trkpt>
      <trkpt lat="44.44009" lon="6.69705">
        <ele>2440.4438477</ele>
        <time>2010-07-24T08:59:36Z</time>
      </trkpt>
      <trkpt lat="44.44002" lon="6.69704">
        <ele>2442.847168</ele>
        <time>2010-07-24T08:59:43Z</time>
      </trkpt>
      <trkpt lat="44.43993" lon="6.69709">
        <ele>2443.3278809</ele>
        <time>2010-07-24T08:59:52Z</time>
      </trkpt>
      <trkpt lat="44.43987" lon="6.6971">
        <ele>2444.7700195</ele>
        <time>2010-07-24T09:00:00Z</time>
      </trkpt>
      <trkpt lat="44.43985" lon="6.6971">
        <ele>2445.2507324</ele>
        <time>2010-07-24T09:00:03Z</time>
      </trkpt>
      <trkpt lat="44.43978" lon="6.69708">
        <ele>2448.1345215</ele>
        <time>2010-07-24T09:00:13Z</time>
      </trkpt>
      <trkpt lat="44.43974" lon="6.69709">
        <ele>2448.6152344</ele>
        <time>2010-07-24T09:00:21Z</time>
      </trkpt>
      <trkpt lat="44.4397" lon="6.69706">
        <ele>2450.057373</ele>
        <time>2010-07-24T09:00:30Z</time>
      </trkpt>
      <trkpt lat="44.43966" lon="6.69703">
        <ele>2452.4604492</ele>
        <time>2010-07-24T09:00:39Z</time>
      </trkpt>
      <trkpt lat="44.43961" lon="6.69702">
        <ele>2457.2670898</ele>
        <time>2010-07-24T09:00:48Z</time>
      </trkpt>
      <trkpt lat="44.43961" lon="6.69704">
        <ele>2456.786377</ele>
        <time>2010-07-24T09:00:54Z</time>
      </trkpt>
      <trkpt lat="44.4396" lon="6.69705">
        <ele>2458.2282715</ele>
        <time>2010-07-24T09:01:01Z</time>
      </trkpt>
      <trkpt lat="44.43959" lon="6.69704">
        <ele>2457.7478027</ele>
        <time>2010-07-24T09:01:09Z</time>
      </trkpt>
      <trkpt lat="44.43954" lon="6.69703">
        <ele>2457.7478027</ele>
        <time>2010-07-24T09:01:17Z</time>
      </trkpt>
      <trkpt lat="44.43952" lon="6.69705">
        <ele>2458.2282715</ele>
        <time>2010-07-24T09:01:23Z</time>
      </trkpt>
      <trkpt lat="44.4395" lon="6.69708">
        <ele>2461.1125488</ele>
        <time>2010-07-24T09:01:31Z</time>
      </trkpt>
      <trkpt lat="44.43947" lon="6.69708">
        <ele>2461.5932617</ele>
        <time>2010-07-24T09:01:38Z</time>
      </trkpt>
      <trkpt lat="44.43944" lon="6.69709">
        <ele>2461.5932617</ele>
        <time>2010-07-24T09:01:45Z</time>
      </trkpt>
      <trkpt lat="44.43942" lon="6.69713">
        <ele>2463.9963379</ele>
        <time>2010-07-24T09:01:53Z</time>
      </trkpt>
      <trkpt lat="44.43941" lon="6.69714">
        <ele>2465.4384766</ele>
        <time>2010-07-24T09:01:59Z</time>
      </trkpt>
      <trkpt lat="44.43938" lon="6.69717">
        <ele>2467.3608398</ele>
        <time>2010-07-24T09:02:06Z</time>
      </trkpt>
      <trkpt lat="44.43935" lon="6.69719">
        <ele>2468.3222656</ele>
        <time>2010-07-24T09:02:12Z</time>
      </trkpt>
      <trkpt lat="44.43933" lon="6.69716">
        <ele>2468.8029785</ele>
        <time>2010-07-24T09:02:19Z</time>
      </trkpt>
      <trkpt lat="44.43929" lon="6.69716">
        <ele>2471.2060547</ele>
        <time>2010-07-24T09:02:27Z</time>
      </trkpt>
      <trkpt lat="44.43925" lon="6.69715">
        <ele>2472.6481934</ele>
        <time>2010-07-24T09:02:34Z</time>
      </trkpt>
      <trkpt lat="44.43921" lon="6.69714">
        <ele>2474.0900879</ele>
        <time>2010-07-24T09:02:41Z</time>
      </trkpt>
      <trkpt lat="44.4392" lon="6.69713">
        <ele>2474.5708008</ele>
        <time>2010-07-24T09:02:47Z</time>
      </trkpt>
      <trkpt lat="44.43917" lon="6.69715">
        <ele>2475.0512695</ele>
        <time>2010-07-24T09:02:54Z</time>
      </trkpt>
      <trkpt lat="44.43915" lon="6.69714">
        <ele>2474.5708008</ele>
        <time>2010-07-24T09:03:01Z</time>
      </trkpt>
      <trkpt lat="44.43913" lon="6.69711">
        <ele>2475.0512695</ele>
        <time>2010-07-24T09:03:09Z</time>
      </trkpt>
      <trkpt lat="44.43911" lon="6.69706">
        <ele>2477.454834</ele>
        <time>2010-07-24T09:03:16Z</time>
      </trkpt>
      <trkpt lat="44.43905" lon="6.69702">
        <ele>2481.7807617</ele>
        <time>2010-07-24T09:03:25Z</time>
      </trkpt>
      <trkpt lat="44.43905" lon="6.69705">
        <ele>2482.2614746</ele>
        <time>2010-07-24T09:03:31Z</time>
      </trkpt>
      <trkpt lat="44.43905" lon="6.69711">
        <ele>2479.8581543</ele>
        <time>2010-07-24T09:03:39Z</time>
      </trkpt>
      <trkpt lat="44.43903" lon="6.69717">
        <ele>2479.3774414</ele>
        <time>2010-07-24T09:03:47Z</time>
      </trkpt>
      <trkpt lat="44.43902" lon="6.69718">
        <ele>2480.8195801</ele>
        <time>2010-07-24T09:03:54Z</time>
      </trkpt>
      <trkpt lat="44.43901" lon="6.69717">
        <ele>2490.432373</ele>
        <time>2010-07-24T09:05:31Z</time>
      </trkpt>
      <trkpt lat="44.43898" lon="6.69727">
        <ele>2489.4711914</ele>
        <time>2010-07-24T09:05:40Z</time>
      </trkpt>
      <trkpt lat="44.43898" lon="6.69728">
        <ele>2489.9519043</ele>
        <time>2010-07-24T09:05:47Z</time>
      </trkpt>
      <trkpt lat="44.43896" lon="6.69729">
        <ele>2490.9130859</ele>
        <time>2010-07-24T09:05:54Z</time>
      </trkpt>
      <trkpt lat="44.43894" lon="6.69736">
        <ele>2493.3166504</ele>
        <time>2010-07-24T09:06:01Z</time>
      </trkpt>
      <trkpt lat="44.4389" lon="6.69743">
        <ele>2496.6811523</ele>
        <time>2010-07-24T09:06:11Z</time>
      </trkpt>
      <trkpt lat="44.43889" lon="6.69748">
        <ele>2498.6037598</ele>
        <time>2010-07-24T09:06:19Z</time>
      </trkpt>
      <trkpt lat="44.43887" lon="6.69752">
        <ele>2500.0458984</ele>
        <time>2010-07-24T09:06:26Z</time>
      </trkpt>
      <trkpt lat="44.43885" lon="6.69759">
        <ele>2501.9682617</ele>
        <time>2010-07-24T09:06:33Z</time>
      </trkpt>
      <trkpt lat="44.43883" lon="6.69768">
        <ele>2503.4104004</ele>
        <time>2010-07-24T09:06:41Z</time>
      </trkpt>
      <trkpt lat="44.4388" lon="6.69774">
        <ele>2504.371582</ele>
        <time>2010-07-24T09:06:47Z</time>
      </trkpt>
      <trkpt lat="44.43877" lon="6.6978">
        <ele>2504.371582</ele>
        <time>2010-07-24T09:06:56Z</time>
      </trkpt>
      <trkpt lat="44.43872" lon="6.69783">
        <ele>2504.371582</ele>
        <time>2010-07-24T09:07:02Z</time>
      </trkpt>
      <trkpt lat="44.4387" lon="6.69788">
        <ele>2505.3330078</ele>
        <time>2010-07-24T09:07:08Z</time>
      </trkpt>
      <trkpt lat="44.4387" lon="6.69792">
        <ele>2506.2941895</ele>
        <time>2010-07-24T09:07:15Z</time>
      </trkpt>
      <trkpt lat="44.43868" lon="6.69799">
        <ele>2508.217041</ele>
        <time>2010-07-24T09:07:23Z</time>
      </trkpt>
      <trkpt lat="44.43865" lon="6.69801">
        <ele>2509.1784668</ele>
        <time>2010-07-24T09:07:29Z</time>
      </trkpt>
      <trkpt lat="44.43862" lon="6.69806">
        <ele>2510.1396484</ele>
        <time>2010-07-24T09:07:37Z</time>
      </trkpt>
      <trkpt lat="44.43859" lon="6.6981">
        <ele>2510.6203613</ele>
        <time>2010-07-24T09:07:44Z</time>
      </trkpt>
      <trkpt lat="44.43856" lon="6.69815">
        <ele>2511.1010742</ele>
        <time>2010-07-24T09:07:51Z</time>
      </trkpt>
      <trkpt lat="44.43854" lon="6.6982">
        <ele>2512.5429688</ele>
        <time>2010-07-24T09:07:59Z</time>
      </trkpt>
      <trkpt lat="44.43851" lon="6.69824">
        <ele>2513.0236816</ele>
        <time>2010-07-24T09:08:07Z</time>
      </trkpt>
      <trkpt lat="44.43849" lon="6.6983">
        <ele>2514.9462891</ele>
        <time>2010-07-24T09:08:16Z</time>
      </trkpt>
      <trkpt lat="44.43847" lon="6.69836">
        <ele>2515.9074707</ele>
        <time>2010-07-24T09:08:24Z</time>
      </trkpt>
      <trkpt lat="44.43844" lon="6.6984">
        <ele>2516.3881836</ele>
        <time>2010-07-24T09:08:32Z</time>
      </trkpt>
      <trkpt lat="44.43842" lon="6.69844">
        <ele>2518.310791</ele>
        <time>2010-07-24T09:08:40Z</time>
      </trkpt>
      <trkpt lat="44.4384" lon="6.69849">
        <ele>2520.2333984</ele>
        <time>2010-07-24T09:08:47Z</time>
      </trkpt>
      <trkpt lat="44.43837" lon="6.69853">
        <ele>2521.1945801</ele>
        <time>2010-07-24T09:08:55Z</time>
      </trkpt>
      <trkpt lat="44.43833" lon="6.69857">
        <ele>2522.1560059</ele>
        <time>2010-07-24T09:09:02Z</time>
      </trkpt>
      <trkpt lat="44.4383" lon="6.69861">
        <ele>2524.0788574</ele>
        <time>2010-07-24T09:09:10Z</time>
      </trkpt>
      <trkpt lat="44.43829" lon="6.69863">
        <ele>2526.0014648</ele>
        <time>2010-07-24T09:09:16Z</time>
      </trkpt>
      <trkpt lat="44.43828" lon="6.69867">
        <ele>2527.9240723</ele>
        <time>2010-07-24T09:09:22Z</time>
      </trkpt>
      <trkpt lat="44.43824" lon="6.6987">
        <ele>2530.8081055</ele>
        <time>2010-07-24T09:09:33Z</time>
      </trkpt>
      <trkpt lat="44.4382" lon="6.69872">
        <ele>2532.25</ele>
        <time>2010-07-24T09:09:42Z</time>
      </trkpt>
      <trkpt lat="44.43818" lon="6.69874">
        <ele>2533.2111816</ele>
        <time>2010-07-24T09:09:48Z</time>
      </trkpt>
      <trkpt lat="44.43815" lon="6.69877">
        <ele>2534.6533203</ele>
        <time>2010-07-24T09:09:57Z</time>
      </trkpt>
      <trkpt lat="44.43811" lon="6.69879">
        <ele>2536.5756836</ele>
        <time>2010-07-24T09:10:05Z</time>
      </trkpt>
      <trkpt lat="44.43807" lon="6.69882">
        <ele>2538.9790039</ele>
        <time>2010-07-24T09:10:13Z</time>
      </trkpt>
      <trkpt lat="44.43805" lon="6.69882">
        <ele>2539.9404297</ele>
        <time>2010-07-24T09:10:18Z</time>
      </trkpt>
      <trkpt lat="44.43802" lon="6.69886">
        <ele>2541.3825684</ele>
        <time>2010-07-24T09:10:24Z</time>
      </trkpt>
      <trkpt lat="44.438" lon="6.6989">
        <ele>2543.3051758</ele>
        <time>2010-07-24T09:10:32Z</time>
      </trkpt>
      <trkpt lat="44.43797" lon="6.69893">
        <ele>2544.7470703</ele>
        <time>2010-07-24T09:10:39Z</time>
      </trkpt>
      <trkpt lat="44.43795" lon="6.69893">
        <ele>2546.189209</ele>
        <time>2010-07-24T09:10:45Z</time>
      </trkpt>
      <trkpt lat="44.43792" lon="6.69898">
        <ele>2547.1503906</ele>
        <time>2010-07-24T09:10:52Z</time>
      </trkpt>
      <trkpt lat="44.4379" lon="6.69901">
        <ele>2549.072998</ele>
        <time>2010-07-24T09:10:59Z</time>
      </trkpt>
      <trkpt lat="44.43788" lon="6.69903">
        <ele>2550.9956055</ele>
        <time>2010-07-24T09:11:06Z</time>
      </trkpt>
      <trkpt lat="44.43784" lon="6.69907">
        <ele>2552.9182129</ele>
        <time>2010-07-24T09:11:14Z</time>
      </trkpt>
      <trkpt lat="44.43783" lon="6.69911">
        <ele>2553.8796387</ele>
        <time>2010-07-24T09:11:21Z</time>
      </trkpt>
      <trkpt lat="44.4378" lon="6.69917">
        <ele>2555.802002</ele>
        <time>2010-07-24T09:11:30Z</time>
      </trkpt>
      <trkpt lat="44.43778" lon="6.6992">
        <ele>2556.7636719</ele>
        <time>2010-07-24T09:11:36Z</time>
      </trkpt>
      <trkpt lat="44.43775" lon="6.69924">
        <ele>2558.6862793</ele>
        <time>2010-07-24T09:11:46Z</time>
      </trkpt>
      <trkpt lat="44.43773" lon="6.69923">
        <ele>2559.6474609</ele>
        <time>2010-07-24T09:11:51Z</time>
      </trkpt>
      <trkpt lat="44.43771" lon="6.69923">
        <ele>2561.5703125</ele>
        <time>2010-07-24T09:11:58Z</time>
      </trkpt>
      <trkpt lat="44.43769" lon="6.69924">
        <ele>2563.012207</ele>
        <time>2010-07-24T09:12:04Z</time>
      </trkpt>
      <trkpt lat="44.43766" lon="6.69923">
        <ele>2566.376709</ele>
        <time>2010-07-24T09:12:12Z</time>
      </trkpt>
      <trkpt lat="44.43763" lon="6.69924">
        <ele>2569.2607422</ele>
        <time>2010-07-24T09:12:19Z</time>
      </trkpt>
      <trkpt lat="44.43762" lon="6.6993">
        <ele>2570.7026367</ele>
        <time>2010-07-24T09:12:25Z</time>
      </trkpt>
      <trkpt lat="44.43759" lon="6.69938">
        <ele>2572.6254883</ele>
        <time>2010-07-24T09:12:33Z</time>
      </trkpt>
      <trkpt lat="44.43756" lon="6.69944">
        <ele>2574.5480957</ele>
        <time>2010-07-24T09:12:40Z</time>
      </trkpt>
      <trkpt lat="44.43755" lon="6.69948">
        <ele>2574.0673828</ele>
        <time>2010-07-24T09:12:46Z</time>
      </trkpt>
      <trkpt lat="44.43755" lon="6.69948">
        <ele>2574.5480957</ele>
        <time>2010-07-24T09:12:56Z</time>
      </trkpt>
      <trkpt lat="44.43755" lon="6.69949">
        <ele>2576.951416</ele>
        <time>2010-07-24T09:13:39Z</time>
      </trkpt>
      <trkpt lat="44.43752" lon="6.69952">
        <ele>2577.9125977</ele>
        <time>2010-07-24T09:14:34Z</time>
      </trkpt>
      <trkpt lat="44.43752" lon="6.69951">
        <ele>2577.4318848</ele>
        <time>2010-07-24T09:14:48Z</time>
      </trkpt>
      <trkpt lat="44.43752" lon="6.69951">
        <ele>2576.4707031</ele>
        <time>2010-07-24T09:14:58Z</time>
      </trkpt>
      <trkpt lat="44.43753" lon="6.69949">
        <ele>2573.5866699</ele>
        <time>2010-07-24T09:15:08Z</time>
      </trkpt>
      <trkpt lat="44.43758" lon="6.69944">
        <ele>2566.376709</ele>
        <time>2010-07-24T09:22:17Z</time>
      </trkpt>
      <trkpt lat="44.43759" lon="6.6995">
        <ele>2565.8959961</ele>
        <time>2010-07-24T09:22:24Z</time>
      </trkpt>
      <trkpt lat="44.43757" lon="6.69962">
        <ele>2562.5314941</ele>
        <time>2010-07-24T09:22:29Z</time>
      </trkpt>
      <trkpt lat="44.43759" lon="6.69974">
        <ele>2557.7250977</ele>
        <time>2010-07-24T09:22:34Z</time>
      </trkpt>
      <trkpt lat="44.43766" lon="6.69989">
        <ele>2551.9567871</ele>
        <time>2010-07-24T09:22:39Z</time>
      </trkpt>
      <trkpt lat="44.43771" lon="6.7">
        <ele>2546.6696777</ele>
        <time>2010-07-24T09:22:44Z</time>
      </trkpt>
      <trkpt lat="44.43771" lon="6.70002">
        <ele>2546.189209</ele>
        <time>2010-07-24T09:22:45Z</time>
      </trkpt>
      <trkpt lat="44.43772" lon="6.70023">
        <ele>2538.0178223</ele>
        <time>2010-07-24T09:22:52Z</time>
      </trkpt>
      <trkpt lat="44.43777" lon="6.70041">
        <ele>2533.2111816</ele>
        <time>2010-07-24T09:22:58Z</time>
      </trkpt>
      <trkpt lat="44.43779" lon="6.70058">
        <ele>2531.2885742</ele>
        <time>2010-07-24T09:23:04Z</time>
      </trkpt>
      <trkpt lat="44.43775" lon="6.70071">
        <ele>2531.7692871</ele>
        <time>2010-07-24T09:23:08Z</time>
      </trkpt>
      <trkpt lat="44.43775" lon="6.70089">
        <ele>2529.8466797</ele>
        <time>2010-07-24T09:23:15Z</time>
      </trkpt>
      <trkpt lat="44.43778" lon="6.70113">
        <ele>2526.9628906</ele>
        <time>2010-07-24T09:23:22Z</time>
      </trkpt>
      <trkpt lat="44.43779" lon="6.70139">
        <ele>2524.0788574</ele>
        <time>2010-07-24T09:23:27Z</time>
      </trkpt>
      <trkpt lat="44.43779" lon="6.70181">
        <ele>2519.7526855</ele>
        <time>2010-07-24T09:23:34Z</time>
      </trkpt>
      <trkpt lat="44.43778" lon="6.70203">
        <ele>2516.3881836</ele>
        <time>2010-07-24T09:23:39Z</time>
      </trkpt>
      <trkpt lat="44.43777" lon="6.7022">
        <ele>2515.9074707</ele>
        <time>2010-07-24T09:23:45Z</time>
      </trkpt>
      <trkpt lat="44.43774" lon="6.70239">
        <ele>2513.5041504</ele>
        <time>2010-07-24T09:23:51Z</time>
      </trkpt>
      <trkpt lat="44.43774" lon="6.70239">
        <ele>2512.5429688</ele>
        <time>2010-07-24T09:23:56Z</time>
      </trkpt>
      <trkpt lat="44.43773" lon="6.70239">
        <ele>2515.427002</ele>
        <time>2010-07-24T09:24:29Z</time>
      </trkpt>
      <trkpt lat="44.43773" lon="6.70241">
        <ele>2514.9462891</ele>
        <time>2010-07-24T09:24:40Z</time>
      </trkpt>
      <trkpt lat="44.4377" lon="6.70249">
        <ele>2515.9074707</ele>
        <time>2010-07-24T09:24:46Z</time>
      </trkpt>
      <trkpt lat="44.43768" lon="6.70257">
        <ele>2515.9074707</ele>
        <time>2010-07-24T09:24:49Z</time>
      </trkpt>
      <trkpt lat="44.43765" lon="6.70266">
        <ele>2516.3881836</ele>
        <time>2010-07-24T09:24:54Z</time>
      </trkpt>
      <trkpt lat="44.43764" lon="6.70273">
        <ele>2517.3493652</ele>
        <time>2010-07-24T09:25:00Z</time>
      </trkpt>
      <trkpt lat="44.4376" lon="6.70283">
        <ele>2515.9074707</ele>
        <time>2010-07-24T09:25:08Z</time>
      </trkpt>
      <trkpt lat="44.43759" lon="6.70288">
        <ele>2515.427002</ele>
        <time>2010-07-24T09:25:14Z</time>
      </trkpt>
      <trkpt lat="44.43759" lon="6.7029">
        <ele>2514.9462891</ele>
        <time>2010-07-24T09:25:21Z</time>
      </trkpt>
      <trkpt lat="44.43759" lon="6.70291">
        <ele>2513.5041504</ele>
        <time>2010-07-24T09:25:29Z</time>
      </trkpt>
      <trkpt lat="44.43759" lon="6.70295">
        <ele>2513.5041504</ele>
        <time>2010-07-24T09:25:47Z</time>
      </trkpt>
      <trkpt lat="44.43762" lon="6.70305">
        <ele>2515.9074707</ele>
        <time>2010-07-24T09:25:55Z</time>
      </trkpt>
      <trkpt lat="44.43763" lon="6.70314">
        <ele>2518.310791</ele>
        <time>2010-07-24T09:26:03Z</time>
      </trkpt>
      <trkpt lat="44.43764" lon="6.70325">
        <ele>2521.675293</ele>
        <time>2010-07-24T09:26:13Z</time>
      </trkpt>
      <trkpt lat="44.43766" lon="6.7033">
        <ele>2523.5979004</ele>
        <time>2010-07-24T09:26:20Z</time>
      </trkpt>
      <trkpt lat="44.43767" lon="6.70336">
        <ele>2525.520752</ele>
        <time>2010-07-24T09:26:28Z</time>
      </trkpt>
      <trkpt lat="44.43768" lon="6.70341">
        <ele>2526.0014648</ele>
        <time>2010-07-24T09:26:36Z</time>
      </trkpt>
      <trkpt lat="44.43769" lon="6.70346">
        <ele>2527.4433594</ele>
        <time>2010-07-24T09:26:43Z</time>
      </trkpt>
      <trkpt lat="44.4377" lon="6.70352">
        <ele>2527.9240723</ele>
        <time>2010-07-24T09:26:52Z</time>
      </trkpt>
      <trkpt lat="44.43771" lon="6.70355">
        <ele>2529.3659668</ele>
        <time>2010-07-24T09:26:59Z</time>
      </trkpt>
      <trkpt lat="44.43772" lon="6.70363">
        <ele>2530.8081055</ele>
        <time>2010-07-24T09:27:10Z</time>
      </trkpt>
      <trkpt lat="44.43772" lon="6.7037">
        <ele>2534.1726074</ele>
        <time>2010-07-24T09:27:19Z</time>
      </trkpt>
      <trkpt lat="44.43773" lon="6.70376">
        <ele>2536.0952148</ele>
        <time>2010-07-24T09:27:27Z</time>
      </trkpt>
      <trkpt lat="44.43774" lon="6.70383">
        <ele>2538.0178223</ele>
        <time>2010-07-24T09:27:37Z</time>
      </trkpt>
      <trkpt lat="44.43774" lon="6.70389">
        <ele>2539.4597168</ele>
        <time>2010-07-24T09:27:45Z</time>
      </trkpt>
      <trkpt lat="44.43774" lon="6.70396">
        <ele>2541.8632812</ele>
        <time>2010-07-24T09:27:53Z</time>
      </trkpt>
      <trkpt lat="44.43774" lon="6.70403">
        <ele>2542.8244629</ele>
        <time>2010-07-24T09:28:00Z</time>
      </trkpt>
      <trkpt lat="44.43774" lon="6.70408">
        <ele>2543.3051758</ele>
        <time>2010-07-24T09:28:05Z</time>
      </trkpt>
      <trkpt lat="44.43773" lon="6.70416">
        <ele>2544.7470703</ele>
        <time>2010-07-24T09:28:14Z</time>
      </trkpt>
      <trkpt lat="44.43771" lon="6.70423">
        <ele>2546.189209</ele>
        <time>2010-07-24T09:28:22Z</time>
      </trkpt>
      <trkpt lat="44.43769" lon="6.70428">
        <ele>2547.6311035</ele>
        <time>2010-07-24T09:28:29Z</time>
      </trkpt>
      <trkpt lat="44.43768" lon="6.70428">
        <ele>2546.189209</ele>
        <time>2010-07-24T09:28:41Z</time>
      </trkpt>
      <trkpt lat="44.43767" lon="6.70425">
        <ele>2546.189209</ele>
        <time>2010-07-24T09:28:56Z</time>
      </trkpt>
      <trkpt lat="44.43766" lon="6.70424">
        <ele>2547.6311035</ele>
        <time>2010-07-24T09:29:07Z</time>
      </trkpt>
      <trkpt lat="44.43766" lon="6.70423">
        <ele>2549.5537109</ele>
        <time>2010-07-24T09:29:16Z</time>
      </trkpt>
      <trkpt lat="44.43765" lon="6.70423">
        <ele>2552.9182129</ele>
        <time>2010-07-24T09:29:34Z</time>
      </trkpt>
      <trkpt lat="44.43765" lon="6.70423">
        <ele>2554.8408203</ele>
        <time>2010-07-24T09:29:52Z</time>
      </trkpt>
      <trkpt lat="44.43763" lon="6.70436">
        <ele>2557.2443848</ele>
        <time>2010-07-24T09:30:01Z</time>
      </trkpt>
      <trkpt lat="44.43764" lon="6.70442">
        <ele>2559.1669922</ele>
        <time>2010-07-24T09:30:06Z</time>
      </trkpt>
      <trkpt lat="44.43763" lon="6.70446">
        <ele>2560.1281738</ele>
        <time>2010-07-24T09:30:12Z</time>
      </trkpt>
      <trkpt lat="44.43761" lon="6.70454">
        <ele>2561.0895996</ele>
        <time>2010-07-24T09:30:17Z</time>
      </trkpt>
      <trkpt lat="44.43757" lon="6.70473">
        <ele>2563.4926758</ele>
        <time>2010-07-24T09:30:26Z</time>
      </trkpt>
      <trkpt lat="44.43753" lon="6.70493">
        <ele>2566.376709</ele>
        <time>2010-07-24T09:30:37Z</time>
      </trkpt>
      <trkpt lat="44.43749" lon="6.70511">
        <ele>2568.2993164</ele>
        <time>2010-07-24T09:30:46Z</time>
      </trkpt>
      <trkpt lat="44.43747" lon="6.70525">
        <ele>2570.2219238</ele>
        <time>2010-07-24T09:30:53Z</time>
      </trkpt>
      <trkpt lat="44.43747" lon="6.70532">
        <ele>2570.7026367</ele>
        <time>2010-07-24T09:31:00Z</time>
      </trkpt>
      <trkpt lat="44.43747" lon="6.70533">
        <ele>2571.6638184</ele>
        <time>2010-07-24T09:31:16Z</time>
      </trkpt>
      <trkpt lat="44.43747" lon="6.7054">
        <ele>2571.6638184</ele>
        <time>2010-07-24T09:31:22Z</time>
      </trkpt>
      <trkpt lat="44.43748" lon="6.70546">
        <ele>2573.5866699</ele>
        <time>2010-07-24T09:31:28Z</time>
      </trkpt>
      <trkpt lat="44.43754" lon="6.70554">
        <ele>2577.4318848</ele>
        <time>2010-07-24T09:31:39Z</time>
      </trkpt>
      <trkpt lat="44.43756" lon="6.70559">
        <ele>2579.3544922</ele>
        <time>2010-07-24T09:31:47Z</time>
      </trkpt>
      <trkpt lat="44.43757" lon="6.70564">
        <ele>2580.7966309</ele>
        <time>2010-07-24T09:31:53Z</time>
      </trkpt>
      <trkpt lat="44.43757" lon="6.70573">
        <ele>2582.7189941</ele>
        <time>2010-07-24T09:32:03Z</time>
      </trkpt>
      <trkpt lat="44.43758" lon="6.70584">
        <ele>2585.1223145</ele>
        <time>2010-07-24T09:32:13Z</time>
      </trkpt>
      <trkpt lat="44.43759" lon="6.70594">
        <ele>2584.6418457</ele>
        <time>2010-07-24T09:32:22Z</time>
      </trkpt>
      <trkpt lat="44.43761" lon="6.70602">
        <ele>2586.564209</ele>
        <time>2010-07-24T09:32:30Z</time>
      </trkpt>
      <trkpt lat="44.43761" lon="6.7061">
        <ele>2588.9677734</ele>
        <time>2010-07-24T09:32:39Z</time>
      </trkpt>
      <trkpt lat="44.43761" lon="6.70619">
        <ele>2591.3710938</ele>
        <time>2010-07-24T09:32:48Z</time>
      </trkpt>
      <trkpt lat="44.4376" lon="6.7063">
        <ele>2593.2937012</ele>
        <time>2010-07-24T09:32:57Z</time>
      </trkpt>
      <trkpt lat="44.43763" lon="6.70638">
        <ele>2593.7744141</ele>
        <time>2010-07-24T09:33:05Z</time>
      </trkpt>
      <trkpt lat="44.43763" lon="6.70639">
        <ele>2593.7744141</ele>
        <time>2010-07-24T09:33:07Z</time>
      </trkpt>
      <trkpt lat="44.43761" lon="6.70653">
        <ele>2595.6970215</ele>
        <time>2010-07-24T09:33:14Z</time>
      </trkpt>
      <trkpt lat="44.43761" lon="6.70672">
        <ele>2598.1000977</ele>
        <time>2010-07-24T09:33:23Z</time>
      </trkpt>
      <trkpt lat="44.4376" lon="6.70683">
        <ele>2599.5419922</ele>
        <time>2010-07-24T09:33:29Z</time>
      </trkpt>
      <trkpt lat="44.43759" lon="6.70683">
        <ele>2601.4648438</ele>
        <time>2010-07-24T09:33:39Z</time>
      </trkpt>
      <trkpt lat="44.43759" lon="6.70684">
        <ele>2601.9453125</ele>
        <time>2010-07-24T09:33:57Z</time>
      </trkpt>
      <trkpt lat="44.43759" lon="6.70684">
        <ele>2602.4262695</ele>
        <time>2010-07-24T09:34:06Z</time>
      </trkpt>
      <trkpt lat="44.43759" lon="6.70684">
        <ele>2602.9067383</ele>
        <time>2010-07-24T09:34:25Z</time>
      </trkpt>
      <trkpt lat="44.43759" lon="6.70684">
        <ele>2601.9453125</ele>
        <time>2010-07-24T09:34:38Z</time>
      </trkpt>
      <trkpt lat="44.43758" lon="6.70684">
        <ele>2603.387207</ele>
        <time>2010-07-24T09:34:49Z</time>
      </trkpt>
      <trkpt lat="44.43759" lon="6.70685">
        <ele>2604.8291016</ele>
        <time>2010-07-24T09:35:07Z</time>
      </trkpt>
      <trkpt lat="44.43759" lon="6.70685">
        <ele>2605.7905273</ele>
        <time>2010-07-24T09:35:38Z</time>
      </trkpt>
      <trkpt lat="44.43758" lon="6.70686">
        <ele>2607.2324219</ele>
        <time>2010-07-24T09:35:54Z</time>
      </trkpt>
      <trkpt lat="44.43758" lon="6.70686">
        <ele>2608.6748047</ele>
        <time>2010-07-24T09:36:13Z</time>
      </trkpt>
      <trkpt lat="44.43757" lon="6.70686">
        <ele>2610.1166992</ele>
        <time>2010-07-24T09:36:34Z</time>
      </trkpt>
      <trkpt lat="44.43757" lon="6.70687">
        <ele>2610.597168</ele>
        <time>2010-07-24T09:36:50Z</time>
      </trkpt>
      <trkpt lat="44.43757" lon="6.70687">
        <ele>2611.5585938</ele>
        <time>2010-07-24T09:37:11Z</time>
      </trkpt>
      <trkpt lat="44.43756" lon="6.70688">
        <ele>2613.9624023</ele>
        <time>2010-07-24T09:37:51Z</time>
      </trkpt>
      <trkpt lat="44.43755" lon="6.70689">
        <ele>2618.2880859</ele>
        <time>2010-07-24T09:39:16Z</time>
      </trkpt>
      <trkpt lat="44.43755" lon="6.70691">
        <ele>2621.171875</ele>
        <time>2010-07-24T09:40:09Z</time>
      </trkpt>
      <trkpt lat="44.43754" lon="6.70692">
        <ele>2623.0947266</ele>
        <time>2010-07-24T09:40:49Z</time>
      </trkpt>
      <trkpt lat="44.43754" lon="6.70692">
        <ele>2623.5751953</ele>
        <time>2010-07-24T09:41:08Z</time>
      </trkpt>
      <trkpt lat="44.43754" lon="6.70693">
        <ele>2625.4980469</ele>
        <time>2010-07-24T09:41:42Z</time>
      </trkpt>
      <trkpt lat="44.43753" lon="6.70694">
        <ele>2628.3818359</ele>
        <time>2010-07-24T09:42:19Z</time>
      </trkpt>
      <trkpt lat="44.43761" lon="6.70678">
        <ele>2588.9677734</ele>
        <time>2010-07-24T09:46:12Z</time>
      </trkpt>
      <trkpt lat="44.4376" lon="6.70677">
        <ele>2589.4484863</ele>
        <time>2010-07-24T09:47:12Z</time>
      </trkpt>
      <trkpt lat="44.43762" lon="6.70676">
        <ele>2588.9677734</ele>
        <time>2010-07-24T09:47:15Z</time>
      </trkpt>
      <trkpt lat="44.43767" lon="6.70673">
        <ele>2589.4484863</ele>
        <time>2010-07-24T09:47:21Z</time>
      </trkpt>
      <trkpt lat="44.43767" lon="6.70672">
        <ele>2589.4484863</ele>
        <time>2010-07-24T09:47:23Z</time>
      </trkpt>
      <trkpt lat="44.43767" lon="6.70656">
        <ele>2588.0065918</ele>
        <time>2010-07-24T09:47:27Z</time>
      </trkpt>
      <trkpt lat="44.43763" lon="6.70628">
        <ele>2586.564209</ele>
        <time>2010-07-24T09:47:31Z</time>
      </trkpt>
      <trkpt lat="44.43763" lon="6.70619">
        <ele>2585.6030273</ele>
        <time>2010-07-24T09:47:33Z</time>
      </trkpt>
      <trkpt lat="44.43763" lon="6.70613">
        <ele>2583.6804199</ele>
        <time>2010-07-24T09:47:35Z</time>
      </trkpt>
      <trkpt lat="44.43762" lon="6.70595">
        <ele>2578.3933105</ele>
        <time>2010-07-24T09:47:40Z</time>
      </trkpt>
      <trkpt lat="44.4376" lon="6.70565">
        <ele>2571.1831055</ele>
        <time>2010-07-24T09:47:46Z</time>
      </trkpt>
      <trkpt lat="44.43757" lon="6.70552">
        <ele>2565.4155273</ele>
        <time>2010-07-24T09:47:50Z</time>
      </trkpt>
      <trkpt lat="44.43754" lon="6.70518">
        <ele>2559.6474609</ele>
        <time>2010-07-24T09:47:55Z</time>
      </trkpt>
      <trkpt lat="44.43759" lon="6.7048">
        <ele>2556.282959</ele>
        <time>2010-07-24T09:48:00Z</time>
      </trkpt>
      <trkpt lat="44.43761" lon="6.70468">
        <ele>2554.3601074</ele>
        <time>2010-07-24T09:48:04Z</time>
      </trkpt>
      <trkpt lat="44.43762" lon="6.70469">
        <ele>2551.9567871</ele>
        <time>2010-07-24T09:48:19Z</time>
      </trkpt>
      <trkpt lat="44.43763" lon="6.7047">
        <ele>2550.9956055</ele>
        <time>2010-07-24T09:48:52Z</time>
      </trkpt>
      <trkpt lat="44.43763" lon="6.7047">
        <ele>2551.4763184</ele>
        <time>2010-07-24T09:49:07Z</time>
      </trkpt>
      <trkpt lat="44.43765" lon="6.70464">
        <ele>2551.9567871</ele>
        <time>2010-07-24T09:49:12Z</time>
      </trkpt>
      <trkpt lat="44.43768" lon="6.70445">
        <ele>2550.5148926</ele>
        <time>2010-07-24T09:49:16Z</time>
      </trkpt>
      <trkpt lat="44.4377" lon="6.70426">
        <ele>2548.1115723</ele>
        <time>2010-07-24T09:49:21Z</time>
      </trkpt>
      <trkpt lat="44.43773" lon="6.70407">
        <ele>2545.2277832</ele>
        <time>2010-07-24T09:49:26Z</time>
      </trkpt>
      <trkpt lat="44.43774" lon="6.70392">
        <ele>2542.8244629</ele>
        <time>2010-07-24T09:49:30Z</time>
      </trkpt>
      <trkpt lat="44.43773" lon="6.70372">
        <ele>2539.4597168</ele>
        <time>2010-07-24T09:49:35Z</time>
      </trkpt>
      <trkpt lat="44.4377" lon="6.7035">
        <ele>2534.6533203</ele>
        <time>2010-07-24T09:49:40Z</time>
      </trkpt>
      <trkpt lat="44.43765" lon="6.70326">
        <ele>2528.8852539</ele>
        <time>2010-07-24T09:49:46Z</time>
      </trkpt>
      <trkpt lat="44.43761" lon="6.70306">
        <ele>2524.0788574</ele>
        <time>2010-07-24T09:49:51Z</time>
      </trkpt>
      <trkpt lat="44.43756" lon="6.70286">
        <ele>2517.3493652</ele>
        <time>2010-07-24T09:49:57Z</time>
      </trkpt>
      <trkpt lat="44.4375" lon="6.70261">
        <ele>2511.1010742</ele>
        <time>2010-07-24T09:50:03Z</time>
      </trkpt>
      <trkpt lat="44.43741" lon="6.70242">
        <ele>2505.3330078</ele>
        <time>2010-07-24T09:50:08Z</time>
      </trkpt>
      <trkpt lat="44.43732" lon="6.70215">
        <ele>2499.0844727</ele>
        <time>2010-07-24T09:50:13Z</time>
      </trkpt>
      <trkpt lat="44.43723" lon="6.70196">
        <ele>2494.7585449</ele>
        <time>2010-07-24T09:50:17Z</time>
      </trkpt>
      <trkpt lat="44.4371" lon="6.70177">
        <ele>2488.5100098</ele>
        <time>2010-07-24T09:50:24Z</time>
      </trkpt>
      <trkpt lat="44.43707" lon="6.70174">
        <ele>2487.548584</ele>
        <time>2010-07-24T09:50:25Z</time>
      </trkpt>
      <trkpt lat="44.43684" lon="6.70159">
        <ele>2479.8581543</ele>
        <time>2010-07-24T09:50:32Z</time>
      </trkpt>
      <trkpt lat="44.43681" lon="6.70154">
        <ele>2477.454834</ele>
        <time>2010-07-24T09:50:36Z</time>
      </trkpt>
      <trkpt lat="44.43682" lon="6.70153">
        <ele>2476.0129395</ele>
        <time>2010-07-24T09:50:50Z</time>
      </trkpt>
      <trkpt lat="44.4368" lon="6.70154">
        <ele>2481.3000488</ele>
        <time>2010-07-24T09:51:57Z</time>
      </trkpt>
      <trkpt lat="44.4368" lon="6.70154">
        <ele>2481.3000488</ele>
        <time>2010-07-24T09:52:00Z</time>
      </trkpt>
      <trkpt lat="44.43671" lon="6.7015">
        <ele>2480.3388672</ele>
        <time>2010-07-24T09:52:04Z</time>
      </trkpt>
      <trkpt lat="44.43668" lon="6.70147">
        <ele>2479.8581543</ele>
        <time>2010-07-24T09:52:05Z</time>
      </trkpt>
      <trkpt lat="44.43641" lon="6.70136">
        <ele>2474.0900879</ele>
        <time>2010-07-24T09:52:12Z</time>
      </trkpt>
      <trkpt lat="44.43628" lon="6.70128">
        <ele>2471.2060547</ele>
        <time>2010-07-24T09:52:15Z</time>
      </trkpt>
      <trkpt lat="44.43608" lon="6.70125">
        <ele>2466.3996582</ele>
        <time>2010-07-24T09:52:20Z</time>
      </trkpt>
      <trkpt lat="44.43603" lon="6.70124">
        <ele>2464.4770508</ele>
        <time>2010-07-24T09:52:21Z</time>
      </trkpt>
      <trkpt lat="44.43587" lon="6.70119">
        <ele>2460.6318359</ele>
        <time>2010-07-24T09:52:26Z</time>
      </trkpt>
      <trkpt lat="44.43583" lon="6.70115">
        <ele>2455.8249512</ele>
        <time>2010-07-24T09:52:30Z</time>
      </trkpt>
      <trkpt lat="44.43583" lon="6.70114">
        <ele>2453.9025879</ele>
        <time>2010-07-24T09:52:44Z</time>
      </trkpt>
      <trkpt lat="44.43576" lon="6.70116">
        <ele>2458.2282715</ele>
        <time>2010-07-24T09:55:00Z</time>
      </trkpt>
      <trkpt lat="44.43571" lon="6.70114">
        <ele>2454.3830566</ele>
        <time>2010-07-24T09:55:06Z</time>
      </trkpt>
      <trkpt lat="44.4357" lon="6.70114">
        <ele>2453.9025879</ele>
        <time>2010-07-24T09:55:07Z</time>
      </trkpt>
      <trkpt lat="44.43566" lon="6.70121">
        <ele>2451.0185547</ele>
        <time>2010-07-24T09:55:12Z</time>
      </trkpt>
      <trkpt lat="44.43562" lon="6.70121">
        <ele>2446.2121582</ele>
        <time>2010-07-24T09:55:16Z</time>
      </trkpt>
      <trkpt lat="44.43557" lon="6.70123">
        <ele>2444.2893066</ele>
        <time>2010-07-24T09:55:20Z</time>
      </trkpt>
      <trkpt lat="44.43552" lon="6.70131">
        <ele>2440.4438477</ele>
        <time>2010-07-24T09:55:25Z</time>
      </trkpt>
      <trkpt lat="44.43547" lon="6.70132">
        <ele>2437.0793457</ele>
        <time>2010-07-24T09:55:30Z</time>
      </trkpt>
      <trkpt lat="44.43544" lon="6.7014">
        <ele>2432.753418</ele>
        <time>2010-07-24T09:55:36Z</time>
      </trkpt>
      <trkpt lat="44.43542" lon="6.70141">
        <ele>2431.7922363</ele>
        <time>2010-07-24T09:55:40Z</time>
      </trkpt>
      <trkpt lat="44.43534" lon="6.70133">
        <ele>2426.0241699</ele>
        <time>2010-07-24T09:55:46Z</time>
      </trkpt>
      <trkpt lat="44.43524" lon="6.70131">
        <ele>2420.7370605</ele>
        <time>2010-07-24T09:55:50Z</time>
      </trkpt>
      <trkpt lat="44.43515" lon="6.70131">
        <ele>2416.4111328</ele>
        <time>2010-07-24T09:55:54Z</time>
      </trkpt>
      <trkpt lat="44.43513" lon="6.70136">
        <ele>2412.0852051</ele>
        <time>2010-07-24T09:55:58Z</time>
      </trkpt>
      <trkpt lat="44.43516" lon="6.70134">
        <ele>2407.7592773</ele>
        <time>2010-07-24T09:56:13Z</time>
      </trkpt>
      <trkpt lat="44.43515" lon="6.70135">
        <ele>2409.6816406</ele>
        <time>2010-07-24T09:56:54Z</time>
      </trkpt>
      <trkpt lat="44.43505" lon="6.70139">
        <ele>2407.7592773</ele>
        <time>2010-07-24T09:56:59Z</time>
      </trkpt>
      <trkpt lat="44.43497" lon="6.70142">
        <ele>2405.8364258</ele>
        <time>2010-07-24T09:57:02Z</time>
      </trkpt>
      <trkpt lat="44.43488" lon="6.70145">
        <ele>2401.0300293</ele>
        <time>2010-07-24T09:57:05Z</time>
      </trkpt>
      <trkpt lat="44.43471" lon="6.70148">
        <ele>2393.3393555</ele>
        <time>2010-07-24T09:57:10Z</time>
      </trkpt>
      <trkpt lat="44.43463" lon="6.70146">
        <ele>2390.9360352</ele>
        <time>2010-07-24T09:57:12Z</time>
      </trkpt>
      <trkpt lat="44.43449" lon="6.70155">
        <ele>2384.2070312</ele>
        <time>2010-07-24T09:57:16Z</time>
      </trkpt>
      <trkpt lat="44.43452" lon="6.70165">
        <ele>2381.8037109</ele>
        <time>2010-07-24T09:57:19Z</time>
      </trkpt>
      <trkpt lat="44.43456" lon="6.70172">
        <ele>2379.8808594</ele>
        <time>2010-07-24T09:57:21Z</time>
      </trkpt>
      <trkpt lat="44.43467" lon="6.70204">
        <ele>2375.0742188</ele>
        <time>2010-07-24T09:57:26Z</time>
      </trkpt>
      <trkpt lat="44.43478" lon="6.70233">
        <ele>2371.2290039</ele>
        <time>2010-07-24T09:57:30Z</time>
      </trkpt>
      <trkpt lat="44.43483" lon="6.70251">
        <ele>2368.3452148</ele>
        <time>2010-07-24T09:57:33Z</time>
      </trkpt>
      <trkpt lat="44.43488" lon="6.70254">
        <ele>2364.0192871</ele>
        <time>2010-07-24T09:57:39Z</time>
      </trkpt>
      <trkpt lat="44.43488" lon="6.70252">
        <ele>2362.5771484</ele>
        <time>2010-07-24T09:57:49Z</time>
      </trkpt>
      <trkpt lat="44.43487" lon="6.70252">
        <ele>2362.5771484</ele>
        <time>2010-07-24T09:57:50Z</time>
      </trkpt>
      <trkpt lat="44.43474" lon="6.70254">
        <ele>2360.1738281</ele>
        <time>2010-07-24T09:57:55Z</time>
      </trkpt>
      <trkpt lat="44.43471" lon="6.70252">
        <ele>2358.7319336</ele>
        <time>2010-07-24T09:57:59Z</time>
      </trkpt>
      <trkpt lat="44.43471" lon="6.70252">
        <ele>2358.7319336</ele>
        <time>2010-07-24T09:58:14Z</time>
      </trkpt>
      <trkpt lat="44.43469" lon="6.70252">
        <ele>2360.1738281</ele>
        <time>2010-07-24T09:58:35Z</time>
      </trkpt>
      <trkpt lat="44.43461" lon="6.70246">
        <ele>2359.6931152</ele>
        <time>2010-07-24T09:59:02Z</time>
      </trkpt>
      <trkpt lat="44.43458" lon="6.70243">
        <ele>2359.2126465</ele>
        <time>2010-07-24T09:59:03Z</time>
      </trkpt>
      <trkpt lat="44.43435" lon="6.70236">
        <ele>2354.8867188</ele>
        <time>2010-07-24T09:59:08Z</time>
      </trkpt>
      <trkpt lat="44.43431" lon="6.70237">
        <ele>2353.9255371</ele>
        <time>2010-07-24T09:59:09Z</time>
      </trkpt>
      <trkpt lat="44.43411" lon="6.70242">
        <ele>2347.1960449</ele>
        <time>2010-07-24T09:59:14Z</time>
      </trkpt>
      <trkpt lat="44.43401" lon="6.70245">
        <ele>2345.2734375</ele>
        <time>2010-07-24T09:59:16Z</time>
      </trkpt>
      <trkpt lat="44.43378" lon="6.70251">
        <ele>2339.0249023</ele>
        <time>2010-07-24T09:59:21Z</time>
      </trkpt>
      <trkpt lat="44.4338" lon="6.7025">
        <ele>2334.6992188</ele>
        <time>2010-07-24T09:59:24Z</time>
      </trkpt>
      <trkpt lat="44.43384" lon="6.70242">
        <ele>2328.9309082</ele>
        <time>2010-07-24T09:59:30Z</time>
      </trkpt>
      <trkpt lat="44.43386" lon="6.70236">
        <ele>2325.5664062</ele>
        <time>2010-07-24T09:59:35Z</time>
      </trkpt>
      <trkpt lat="44.43389" lon="6.70245">
        <ele>2332.7763672</ele>
        <time>2010-07-24T09:59:58Z</time>
      </trkpt>
      <trkpt lat="44.43391" lon="6.70246">
        <ele>2336.621582</ele>
        <time>2010-07-24T10:00:04Z</time>
      </trkpt>
      <trkpt lat="44.43383" lon="6.70249">
        <ele>2340.9475098</ele>
        <time>2010-07-24T10:00:18Z</time>
      </trkpt>
      <trkpt lat="44.43381" lon="6.70251">
        <ele>2342.8701172</ele>
        <time>2010-07-24T10:00:33Z</time>
      </trkpt>
      <trkpt lat="44.43384" lon="6.7025">
        <ele>2348.1574707</ele>
        <time>2010-07-24T10:00:57Z</time>
      </trkpt>
      <trkpt lat="44.43386" lon="6.70248">
        <ele>2347.1960449</ele>
        <time>2010-07-24T10:01:17Z</time>
      </trkpt>
      <trkpt lat="44.43388" lon="6.70248">
        <ele>2346.2348633</ele>
        <time>2010-07-24T10:01:22Z</time>
      </trkpt>
      <trkpt lat="44.43393" lon="6.70246">
        <ele>2348.1574707</ele>
        <time>2010-07-24T10:01:27Z</time>
      </trkpt>
      <trkpt lat="44.43404" lon="6.70254">
        <ele>2349.1188965</ele>
        <time>2010-07-24T10:01:33Z</time>
      </trkpt>
      <trkpt lat="44.43428" lon="6.70263">
        <ele>2345.2734375</ele>
        <time>2010-07-24T10:01:39Z</time>
      </trkpt>
      <trkpt lat="44.43434" lon="6.70275">
        <ele>2343.831543</ele>
        <time>2010-07-24T10:01:42Z</time>
      </trkpt>
      <trkpt lat="44.43441" lon="6.70288">
        <ele>2342.8701172</ele>
        <time>2010-07-24T10:01:46Z</time>
      </trkpt>
      <trkpt lat="44.43448" lon="6.70293">
        <ele>2341.4282227</ele>
        <time>2010-07-24T10:01:49Z</time>
      </trkpt>
      <trkpt lat="44.43451" lon="6.70303">
        <ele>2338.5444336</ele>
        <time>2010-07-24T10:01:54Z</time>
      </trkpt>
      <trkpt lat="44.43446" lon="6.70326">
        <ele>2337.1022949</ele>
        <time>2010-07-24T10:01:58Z</time>
      </trkpt>
      <trkpt lat="44.43446" lon="6.70333">
        <ele>2336.1411133</ele>
        <time>2010-07-24T10:01:59Z</time>
      </trkpt>
      <trkpt lat="44.43445" lon="6.70363">
        <ele>2335.1796875</ele>
        <time>2010-07-24T10:02:04Z</time>
      </trkpt>
      <trkpt lat="44.43446" lon="6.70391">
        <ele>2334.6992188</ele>
        <time>2010-07-24T10:02:09Z</time>
      </trkpt>
      <trkpt lat="44.43446" lon="6.70405">
        <ele>2335.1796875</ele>
        <time>2010-07-24T10:02:11Z</time>
      </trkpt>
      <trkpt lat="44.43446" lon="6.70426">
        <ele>2334.6992188</ele>
        <time>2010-07-24T10:02:14Z</time>
      </trkpt>
      <trkpt lat="44.4344" lon="6.70454">
        <ele>2333.737793</ele>
        <time>2010-07-24T10:02:19Z</time>
      </trkpt>
      <trkpt lat="44.43433" lon="6.70476">
        <ele>2331.8149414</ele>
        <time>2010-07-24T10:02:23Z</time>
      </trkpt>
      <trkpt lat="44.43426" lon="6.7049">
        <ele>2331.3342285</ele>
        <time>2010-07-24T10:02:26Z</time>
      </trkpt>
      <trkpt lat="44.43418" lon="6.70505">
        <ele>2330.8537598</ele>
        <time>2010-07-24T10:02:30Z</time>
      </trkpt>
      <trkpt lat="44.43418" lon="6.70503">
        <ele>2331.8149414</ele>
        <time>2010-07-24T10:02:36Z</time>
      </trkpt>
      <trkpt lat="44.43425" lon="6.70503">
        <ele>2317.8759766</ele>
        <time>2010-07-24T10:03:59Z</time>
      </trkpt>
      <trkpt lat="44.43421" lon="6.70515">
        <ele>2318.3566895</ele>
        <time>2010-07-24T10:04:03Z</time>
      </trkpt>
      <trkpt lat="44.43413" lon="6.70531">
        <ele>2319.798584</ele>
        <time>2010-07-24T10:04:07Z</time>
      </trkpt>
      <trkpt lat="44.43403" lon="6.70554">
        <ele>2321.2404785</ele>
        <time>2010-07-24T10:04:13Z</time>
      </trkpt>
      <trkpt lat="44.43401" lon="6.70568">
        <ele>2321.2404785</ele>
        <time>2010-07-24T10:04:17Z</time>
      </trkpt>
      <trkpt lat="44.43391" lon="6.70581">
        <ele>2322.6826172</ele>
        <time>2010-07-24T10:04:22Z</time>
      </trkpt>
      <trkpt lat="44.43382" lon="6.70586">
        <ele>2322.6826172</ele>
        <time>2010-07-24T10:04:25Z</time>
      </trkpt>
      <trkpt lat="44.43361" lon="6.70599">
        <ele>2323.1633301</ele>
        <time>2010-07-24T10:04:30Z</time>
      </trkpt>
      <trkpt lat="44.4335" lon="6.70622">
        <ele>2321.7211914</ele>
        <time>2010-07-24T10:04:34Z</time>
      </trkpt>
      <trkpt lat="44.43334" lon="6.70655">
        <ele>2317.8759766</ele>
        <time>2010-07-24T10:04:40Z</time>
      </trkpt>
      <trkpt lat="44.43333" lon="6.70659">
        <ele>2317.3952637</ele>
        <time>2010-07-24T10:04:41Z</time>
      </trkpt>
      <trkpt lat="44.43338" lon="6.70672">
        <ele>2315.4726562</ele>
        <time>2010-07-24T10:04:46Z</time>
      </trkpt>
      <trkpt lat="44.43338" lon="6.70687">
        <ele>2314.0305176</ele>
        <time>2010-07-24T10:04:50Z</time>
      </trkpt>
      <trkpt lat="44.43333" lon="6.70696">
        <ele>2312.1079102</ele>
        <time>2010-07-24T10:04:54Z</time>
      </trkpt>
      <trkpt lat="44.43332" lon="6.70701">
        <ele>2310.6660156</ele>
        <time>2010-07-24T10:04:56Z</time>
      </trkpt>
      <trkpt lat="44.43324" lon="6.70728">
        <ele>2309.7045898</ele>
        <time>2010-07-24T10:05:02Z</time>
      </trkpt>
      <trkpt lat="44.43312" lon="6.70741">
        <ele>2307.3015137</ele>
        <time>2010-07-24T10:05:05Z</time>
      </trkpt>
      <trkpt lat="44.43291" lon="6.70752">
        <ele>2303.9370117</ele>
        <time>2010-07-24T10:05:10Z</time>
      </trkpt>
      <trkpt lat="44.43291" lon="6.70753">
        <ele>2302.9755859</ele>
        <time>2010-07-24T10:05:13Z</time>
      </trkpt>
      <trkpt lat="44.43294" lon="6.70753">
        <ele>2306.3400879</ele>
        <time>2010-07-24T10:06:06Z</time>
      </trkpt>
      <trkpt lat="44.43296" lon="6.70753">
        <ele>2306.8208008</ele>
        <time>2010-07-24T10:06:20Z</time>
      </trkpt>
      <trkpt lat="44.43296" lon="6.70756">
        <ele>2306.8208008</ele>
        <time>2010-07-24T10:06:51Z</time>
      </trkpt>
      <trkpt lat="44.43296" lon="6.70772">
        <ele>2307.3015137</ele>
        <time>2010-07-24T10:06:56Z</time>
      </trkpt>
      <trkpt lat="44.43294" lon="6.70796">
        <ele>2307.3015137</ele>
        <time>2010-07-24T10:07:00Z</time>
      </trkpt>
      <trkpt lat="44.43293" lon="6.70817">
        <ele>2305.859375</ele>
        <time>2010-07-24T10:07:03Z</time>
      </trkpt>
      <trkpt lat="44.43289" lon="6.70838">
        <ele>2303.4562988</ele>
        <time>2010-07-24T10:07:07Z</time>
      </trkpt>
      <trkpt lat="44.43294" lon="6.70847">
        <ele>2299.6108398</ele>
        <time>2010-07-24T10:07:11Z</time>
      </trkpt>
      <trkpt lat="44.43299" lon="6.70868">
        <ele>2296.2463379</ele>
        <time>2010-07-24T10:07:15Z</time>
      </trkpt>
      <trkpt lat="44.43305" lon="6.70896">
        <ele>2292.401123</ele>
        <time>2010-07-24T10:07:20Z</time>
      </trkpt>
      <trkpt lat="44.43304" lon="6.70903">
        <ele>2291.4396973</ele>
        <time>2010-07-24T10:07:21Z</time>
      </trkpt>
      <trkpt lat="44.43302" lon="6.70929">
        <ele>2286.1525879</ele>
        <time>2010-07-24T10:07:26Z</time>
      </trkpt>
      <trkpt lat="44.43302" lon="6.70947">
        <ele>2281.826416</ele>
        <time>2010-07-24T10:07:31Z</time>
      </trkpt>
      <trkpt lat="44.43302" lon="6.70948">
        <ele>2280.8652344</ele>
        <time>2010-07-24T10:07:32Z</time>
      </trkpt>
      <trkpt lat="44.43292" lon="6.70948">
        <ele>2279.4230957</ele>
        <time>2010-07-24T10:07:38Z</time>
      </trkpt>
      <trkpt lat="44.43293" lon="6.70947">
        <ele>2276.0585938</ele>
        <time>2010-07-24T10:07:46Z</time>
      </trkpt>
      <trkpt lat="44.43286" lon="6.70949">
        <ele>2275.5778809</ele>
        <time>2010-07-24T10:07:58Z</time>
      </trkpt>
      <trkpt lat="44.43274" lon="6.70955">
        <ele>2273.6552734</ele>
        <time>2010-07-24T10:08:02Z</time>
      </trkpt>
      <trkpt lat="44.43263" lon="6.70967">
        <ele>2272.6940918</ele>
        <time>2010-07-24T10:08:06Z</time>
      </trkpt>
      <trkpt lat="44.43262" lon="6.70971">
        <ele>2273.1748047</ele>
        <time>2010-07-24T10:08:11Z</time>
      </trkpt>
      <trkpt lat="44.43262" lon="6.7097">
        <ele>2277.0200195</ele>
        <time>2010-07-24T10:09:50Z</time>
      </trkpt>
      <trkpt lat="44.43268" lon="6.70972">
        <ele>2276.5393066</ele>
        <time>2010-07-24T10:09:55Z</time>
      </trkpt>
      <trkpt lat="44.43275" lon="6.70983">
        <ele>2276.0585938</ele>
        <time>2010-07-24T10:09:59Z</time>
      </trkpt>
      <trkpt lat="44.43284" lon="6.71002">
        <ele>2273.6552734</ele>
        <time>2010-07-24T10:10:04Z</time>
      </trkpt>
      <trkpt lat="44.43286" lon="6.71005">
        <ele>2273.1748047</ele>
        <time>2010-07-24T10:10:05Z</time>
      </trkpt>
      <trkpt lat="44.43291" lon="6.71022">
        <ele>2269.3295898</ele>
        <time>2010-07-24T10:10:10Z</time>
      </trkpt>
      <trkpt lat="44.43292" lon="6.71023">
        <ele>2268.3681641</ele>
        <time>2010-07-24T10:10:11Z</time>
      </trkpt>
      <trkpt lat="44.43296" lon="6.71022">
        <ele>2265.4841309</ele>
        <time>2010-07-24T10:10:17Z</time>
      </trkpt>
      <trkpt lat="44.43295" lon="6.71024">
        <ele>2265.003418</ele>
        <time>2010-07-24T10:10:21Z</time>
      </trkpt>
      <trkpt lat="44.43296" lon="6.71026">
        <ele>2265.003418</ele>
        <time>2010-07-24T10:10:22Z</time>
      </trkpt>
      <trkpt lat="44.433" lon="6.71047">
        <ele>2261.1582031</ele>
        <time>2010-07-24T10:10:29Z</time>
      </trkpt>
      <trkpt lat="44.43306" lon="6.71067">
        <ele>2256.8322754</ele>
        <time>2010-07-24T10:10:36Z</time>
      </trkpt>
      <trkpt lat="44.43307" lon="6.71066">
        <ele>2254.909668</ele>
        <time>2010-07-24T10:10:41Z</time>
      </trkpt>
      <trkpt lat="44.43308" lon="6.71067">
        <ele>2254.4289551</ele>
        <time>2010-07-24T10:10:43Z</time>
      </trkpt>
      <trkpt lat="44.43316" lon="6.71072">
        <ele>2252.0256348</ele>
        <time>2010-07-24T10:10:50Z</time>
      </trkpt>
      <trkpt lat="44.43318" lon="6.71075">
        <ele>2250.5834961</ele>
        <time>2010-07-24T10:11:00Z</time>
      </trkpt>
      <trkpt lat="44.43316" lon="6.71078">
        <ele>2252.5063477</ele>
        <time>2010-07-24T10:11:02Z</time>
      </trkpt>
      <trkpt lat="44.43315" lon="6.7109">
        <ele>2247.699707</ele>
        <time>2010-07-24T10:11:07Z</time>
      </trkpt>
      <trkpt lat="44.43311" lon="6.71127">
        <ele>2248.1801758</ele>
        <time>2010-07-24T10:11:13Z</time>
      </trkpt>
      <trkpt lat="44.43311" lon="6.7114">
        <ele>2249.6223145</ele>
        <time>2010-07-24T10:11:15Z</time>
      </trkpt>
      <trkpt lat="44.43313" lon="6.7117">
        <ele>2248.6608887</ele>
        <time>2010-07-24T10:11:20Z</time>
      </trkpt>
      <trkpt lat="44.43316" lon="6.71193">
        <ele>2247.699707</ele>
        <time>2010-07-24T10:11:24Z</time>
      </trkpt>
      <trkpt lat="44.43314" lon="6.71219">
        <ele>2246.2578125</ele>
        <time>2010-07-24T10:11:29Z</time>
      </trkpt>
      <trkpt lat="44.4331" lon="6.71237">
        <ele>2245.7770996</ele>
        <time>2010-07-24T10:11:34Z</time>
      </trkpt>
      <trkpt lat="44.4331" lon="6.71245">
        <ele>2243.3737793</ele>
        <time>2010-07-24T10:11:39Z</time>
      </trkpt>
      <trkpt lat="44.43307" lon="6.71242">
        <ele>2249.1416016</ele>
        <time>2010-07-24T10:11:49Z</time>
      </trkpt>
      <trkpt lat="44.43303" lon="6.71255">
        <ele>2253.9484863</ele>
        <time>2010-07-24T10:11:55Z</time>
      </trkpt>
      <trkpt lat="44.43304" lon="6.71259">
        <ele>2251.064209</ele>
        <time>2010-07-24T10:11:59Z</time>
      </trkpt>
      <trkpt lat="44.43306" lon="6.71266">
        <ele>2246.7382812</ele>
        <time>2010-07-24T10:12:18Z</time>
      </trkpt>
      <trkpt lat="44.43307" lon="6.71272">
        <ele>2249.1416016</ele>
        <time>2010-07-24T10:12:20Z</time>
      </trkpt>
      <trkpt lat="44.43304" lon="6.71283">
        <ele>2250.5834961</ele>
        <time>2010-07-24T10:12:24Z</time>
      </trkpt>
      <trkpt lat="44.43293" lon="6.71299">
        <ele>2252.0256348</ele>
        <time>2010-07-24T10:12:29Z</time>
      </trkpt>
      <trkpt lat="44.43291" lon="6.71302">
        <ele>2252.0256348</ele>
        <time>2010-07-24T10:12:30Z</time>
      </trkpt>
      <trkpt lat="44.43279" lon="6.7133">
        <ele>2255.3903809</ele>
        <time>2010-07-24T10:12:36Z</time>
      </trkpt>
      <trkpt lat="44.43277" lon="6.71345">
        <ele>2253.9484863</ele>
        <time>2010-07-24T10:12:40Z</time>
      </trkpt>
      <trkpt lat="44.43277" lon="6.71353">
        <ele>2251.064209</ele>
        <time>2010-07-24T10:12:44Z</time>
      </trkpt>
      <trkpt lat="44.43279" lon="6.71353">
        <ele>2245.2963867</ele>
        <time>2010-07-24T10:13:01Z</time>
      </trkpt>
      <trkpt lat="44.4328" lon="6.71353">
        <ele>2244.8156738</ele>
        <time>2010-07-24T10:13:17Z</time>
      </trkpt>
      <trkpt lat="44.4328" lon="6.71355">
        <ele>2246.2578125</ele>
        <time>2010-07-24T10:13:42Z</time>
      </trkpt>
      <trkpt lat="44.43283" lon="6.71353">
        <ele>2247.2189941</ele>
        <time>2010-07-24T10:13:52Z</time>
      </trkpt>
      <trkpt lat="44.43282" lon="6.71354">
        <ele>2247.2189941</ele>
        <time>2010-07-24T10:13:56Z</time>
      </trkpt>
      <trkpt lat="44.43283" lon="6.7137">
        <ele>2245.2963867</ele>
        <time>2010-07-24T10:14:00Z</time>
      </trkpt>
      <trkpt lat="44.43286" lon="6.71387">
        <ele>2244.8156738</ele>
        <time>2010-07-24T10:14:04Z</time>
      </trkpt>
      <trkpt lat="44.4329" lon="6.71391">
        <ele>2243.8544922</ele>
        <time>2010-07-24T10:14:05Z</time>
      </trkpt>
      <trkpt lat="44.43313" lon="6.71411">
        <ele>2238.5673828</ele>
        <time>2010-07-24T10:14:11Z</time>
      </trkpt>
      <trkpt lat="44.4332" lon="6.71415">
        <ele>2235.2023926</ele>
        <time>2010-07-24T10:14:15Z</time>
      </trkpt>
      <trkpt lat="44.43324" lon="6.71418">
        <ele>2230.876709</ele>
        <time>2010-07-24T10:14:20Z</time>
      </trkpt>
      <trkpt lat="44.43324" lon="6.71418">
        <ele>2228.9538574</ele>
        <time>2010-07-24T10:14:22Z</time>
      </trkpt>
      <trkpt lat="44.43307" lon="6.71418">
        <ele>2226.0700684</ele>
        <time>2010-07-24T10:14:27Z</time>
      </trkpt>
      <trkpt lat="44.43279" lon="6.71417">
        <ele>2227.5119629</ele>
        <time>2010-07-24T10:14:31Z</time>
      </trkpt>
      <trkpt lat="44.43267" lon="6.7142">
        <ele>2223.1862793</ele>
        <time>2010-07-24T10:14:36Z</time>
      </trkpt>
      <trkpt lat="44.43284" lon="6.7143">
        <ele>2219.3408203</ele>
        <time>2010-07-24T10:14:41Z</time>
      </trkpt>
      <trkpt lat="44.43294" lon="6.71436">
        <ele>2217.8986816</ele>
        <time>2010-07-24T10:14:43Z</time>
      </trkpt>
      <trkpt lat="44.4331" lon="6.71455">
        <ele>2215.0148926</ele>
        <time>2010-07-24T10:14:48Z</time>
      </trkpt>
      <trkpt lat="44.43314" lon="6.71457">
        <ele>2211.6503906</ele>
        <time>2010-07-24T10:14:52Z</time>
      </trkpt>
      <trkpt lat="44.43317" lon="6.71456">
        <ele>2205.4018555</ele>
        <time>2010-07-24T10:14:59Z</time>
      </trkpt>
      <trkpt lat="44.43316" lon="6.71459">
        <ele>2204.9211426</ele>
        <time>2010-07-24T10:15:09Z</time>
      </trkpt>
      <trkpt lat="44.43316" lon="6.71463">
        <ele>2208.7663574</ele>
        <time>2010-07-24T10:15:16Z</time>
      </trkpt>
      <trkpt lat="44.43314" lon="6.71463">
        <ele>2210.208252</ele>
        <time>2010-07-24T10:15:26Z</time>
      </trkpt>
      <trkpt lat="44.43314" lon="6.71461">
        <ele>2208.2856445</ele>
        <time>2010-07-24T10:15:31Z</time>
      </trkpt>
      <trkpt lat="44.43319" lon="6.71469">
        <ele>2209.2470703</ele>
        <time>2010-07-24T10:15:37Z</time>
      </trkpt>
      <trkpt lat="44.43319" lon="6.71469">
        <ele>2208.2856445</ele>
        <time>2010-07-24T10:15:38Z</time>
      </trkpt>
      <trkpt lat="44.43308" lon="6.71467">
        <ele>2204.9211426</ele>
        <time>2010-07-24T10:15:43Z</time>
      </trkpt>
      <trkpt lat="44.43294" lon="6.71468">
        <ele>2205.8823242</ele>
        <time>2010-07-24T10:15:45Z</time>
      </trkpt>
      <trkpt lat="44.43276" lon="6.71474">
        <ele>2203.9597168</ele>
        <time>2010-07-24T10:15:48Z</time>
      </trkpt>
      <trkpt lat="44.43249" lon="6.71494">
        <ele>2199.1530762</ele>
        <time>2010-07-24T10:15:53Z</time>
      </trkpt>
      <trkpt lat="44.43234" lon="6.71512">
        <ele>2196.2692871</ele>
        <time>2010-07-24T10:15:57Z</time>
      </trkpt>
      <trkpt lat="44.43232" lon="6.71521">
        <ele>2195.3078613</ele>
        <time>2010-07-24T10:15:59Z</time>
      </trkpt>
      <trkpt lat="44.4323" lon="6.71527">
        <ele>2191.9433594</ele>
        <time>2010-07-24T10:16:05Z</time>
      </trkpt>
      <trkpt lat="44.43231" lon="6.71526">
        <ele>2190.5012207</ele>
        <time>2010-07-24T10:16:11Z</time>
      </trkpt>
      <trkpt lat="44.43232" lon="6.71528">
        <ele>2192.4240723</ele>
        <time>2010-07-24T10:16:25Z</time>
      </trkpt>
      <trkpt lat="44.43243" lon="6.7152">
        <ele>2190.020752</ele>
        <time>2010-07-24T10:16:31Z</time>
      </trkpt>
      <trkpt lat="44.43247" lon="6.71519">
        <ele>2189.5400391</ele>
        <time>2010-07-24T10:16:32Z</time>
      </trkpt>
      <trkpt lat="44.43267" lon="6.71519">
        <ele>2185.2138672</ele>
        <time>2010-07-24T10:16:36Z</time>
      </trkpt>
      <trkpt lat="44.43285" lon="6.7152">
        <ele>2178.965332</ele>
        <time>2010-07-24T10:16:40Z</time>
      </trkpt>
      <trkpt lat="44.43285" lon="6.7152">
        <ele>2177.0429688</ele>
        <time>2010-07-24T10:16:44Z</time>
      </trkpt>
      <trkpt lat="44.43287" lon="6.71523">
        <ele>2187.6171875</ele>
        <time>2010-07-24T10:16:56Z</time>
      </trkpt>
      <trkpt lat="44.43291" lon="6.71527">
        <ele>2198.6723633</ele>
        <time>2010-07-24T10:17:06Z</time>
      </trkpt>
      <trkpt lat="44.43294" lon="6.7153">
        <ele>2206.84375</ele>
        <time>2010-07-24T10:17:15Z</time>
      </trkpt>
      <trkpt lat="44.43292" lon="6.7153">
        <ele>2205.4018555</ele>
        <time>2010-07-24T10:17:28Z</time>
      </trkpt>
      <trkpt lat="44.43289" lon="6.71527">
        <ele>2196.2692871</ele>
        <time>2010-07-24T10:17:33Z</time>
      </trkpt>
      <trkpt lat="44.43284" lon="6.71523">
        <ele>2189.0593262</ele>
        <time>2010-07-24T10:17:44Z</time>
      </trkpt>
      <trkpt lat="44.43286" lon="6.71528">
        <ele>2191.9433594</ele>
        <time>2010-07-24T10:18:21Z</time>
      </trkpt>
      <trkpt lat="44.43287" lon="6.71529">
        <ele>2190.5012207</ele>
        <time>2010-07-24T10:18:44Z</time>
      </trkpt>
      <trkpt lat="44.43288" lon="6.71531">
        <ele>2191.4626465</ele>
        <time>2010-07-24T10:18:52Z</time>
      </trkpt>
      <trkpt lat="44.43286" lon="6.71532">
        <ele>2192.904541</ele>
        <time>2010-07-24T10:19:01Z</time>
      </trkpt>
      <trkpt lat="44.43283" lon="6.7153">
        <ele>2190.5012207</ele>
        <time>2010-07-24T10:19:11Z</time>
      </trkpt>
      <trkpt lat="44.43282" lon="6.71526">
        <ele>2193.3852539</ele>
        <time>2010-07-24T10:19:46Z</time>
      </trkpt>
      <trkpt lat="44.4329" lon="6.71535">
        <ele>2219.8212891</ele>
        <time>2010-07-24T10:20:12Z</time>
      </trkpt>
      <trkpt lat="44.433" lon="6.71538">
        <ele>2236.1640625</ele>
        <time>2010-07-24T10:20:34Z</time>
      </trkpt>
      <trkpt lat="44.433" lon="6.71534">
        <ele>2219.8212891</ele>
        <time>2010-07-24T10:21:03Z</time>
      </trkpt>
      <trkpt lat="44.433" lon="6.7153">
        <ele>2208.7663574</ele>
        <time>2010-07-24T10:21:19Z</time>
      </trkpt>
      <trkpt lat="44.43289" lon="6.71522">
        <ele>2195.7885742</ele>
        <time>2010-07-24T10:21:44Z</time>
      </trkpt>
      <trkpt lat="44.43284" lon="6.71516">
        <ele>2202.5175781</ele>
        <time>2010-07-24T10:21:55Z</time>
      </trkpt>
      <trkpt lat="44.43286" lon="6.71514">
        <ele>2210.208252</ele>
        <time>2010-07-24T10:22:07Z</time>
      </trkpt>
      <trkpt lat="44.43288" lon="6.71514">
        <ele>2212.1308594</ele>
        <time>2010-07-24T10:22:26Z</time>
      </trkpt>
      <trkpt lat="44.43298" lon="6.71518">
        <ele>2211.6503906</ele>
        <time>2010-07-24T10:22:30Z</time>
      </trkpt>
      <trkpt lat="44.43308" lon="6.71524">
        <ele>2204.9211426</ele>
        <time>2010-07-24T10:22:34Z</time>
      </trkpt>
      <trkpt lat="44.4333" lon="6.7154">
        <ele>2186.6557617</ele>
        <time>2010-07-24T10:22:40Z</time>
      </trkpt>
      <trkpt lat="44.4335" lon="6.71558">
        <ele>2178.965332</ele>
        <time>2010-07-24T10:22:44Z</time>
      </trkpt>
      <trkpt lat="44.43379" lon="6.71583">
        <ele>2169.8327637</ele>
        <time>2010-07-24T10:22:50Z</time>
      </trkpt>
      <trkpt lat="44.43382" lon="6.71586">
        <ele>2165.9875488</ele>
        <time>2010-07-24T10:22:53Z</time>
      </trkpt>
      <trkpt lat="44.43382" lon="6.71587">
        <ele>2165.0263672</ele>
        <time>2010-07-24T10:22:54Z</time>
      </trkpt>
      <trkpt lat="44.43372" lon="6.71583">
        <ele>2160.2197266</ele>
        <time>2010-07-24T10:22:58Z</time>
      </trkpt>
      <trkpt lat="44.43353" lon="6.71582">
        <ele>2153.9711914</ele>
        <time>2010-07-24T10:23:02Z</time>
      </trkpt>
      <trkpt lat="44.43338" lon="6.71587">
        <ele>2150.6064453</ele>
        <time>2010-07-24T10:23:05Z</time>
      </trkpt>
      <trkpt lat="44.43313" lon="6.71592">
        <ele>2151.0871582</ele>
        <time>2010-07-24T10:23:10Z</time>
      </trkpt>
      <trkpt lat="44.433" lon="6.71602">
        <ele>2148.6838379</ele>
        <time>2010-07-24T10:23:14Z</time>
      </trkpt>
      <trkpt lat="44.43295" lon="6.71607">
        <ele>2147.2419434</ele>
        <time>2010-07-24T10:23:15Z</time>
      </trkpt>
      <trkpt lat="44.43278" lon="6.71625">
        <ele>2138.109375</ele>
        <time>2010-07-24T10:23:20Z</time>
      </trkpt>
      <trkpt lat="44.43279" lon="6.71627">
        <ele>2134.744873</ele>
        <time>2010-07-24T10:23:22Z</time>
      </trkpt>
      <trkpt lat="44.43293" lon="6.71628">
        <ele>2129.4575195</ele>
        <time>2010-07-24T10:23:27Z</time>
      </trkpt>
      <trkpt lat="44.43308" lon="6.71629">
        <ele>2123.6894531</ele>
        <time>2010-07-24T10:23:31Z</time>
      </trkpt>
      <trkpt lat="44.43323" lon="6.71629">
        <ele>2120.3249512</ele>
        <time>2010-07-24T10:23:34Z</time>
      </trkpt>
      <trkpt lat="44.43349" lon="6.71639">
        <ele>2115.0378418</ele>
        <time>2010-07-24T10:23:39Z</time>
      </trkpt>
      <trkpt lat="44.43364" lon="6.71644">
        <ele>2111.6733398</ele>
        <time>2010-07-24T10:23:44Z</time>
      </trkpt>
      <trkpt lat="44.43366" lon="6.71645">
        <ele>2111.192627</ele>
        <time>2010-07-24T10:23:45Z</time>
      </trkpt>
      <trkpt lat="44.43369" lon="6.71647">
        <ele>2109.7504883</ele>
        <time>2010-07-24T10:23:47Z</time>
      </trkpt>
      <trkpt lat="44.43362" lon="6.71651">
        <ele>2108.3085938</ele>
        <time>2010-07-24T10:23:51Z</time>
      </trkpt>
      <trkpt lat="44.43348" lon="6.71656">
        <ele>2108.3085938</ele>
        <time>2010-07-24T10:23:55Z</time>
      </trkpt>
      <trkpt lat="44.43343" lon="6.71658">
        <ele>2108.3085938</ele>
        <time>2010-07-24T10:23:56Z</time>
      </trkpt>
      <trkpt lat="44.43314" lon="6.71678">
        <ele>2111.192627</ele>
        <time>2010-07-24T10:24:01Z</time>
      </trkpt>
      <trkpt lat="44.43292" lon="6.71696">
        <ele>2112.6345215</ele>
        <time>2010-07-24T10:24:06Z</time>
      </trkpt>
      <trkpt lat="44.43294" lon="6.71701">
        <ele>2112.1538086</ele>
        <time>2010-07-24T10:24:10Z</time>
      </trkpt>
      <trkpt lat="44.43296" lon="6.71699">
        <ele>2109.2700195</ele>
        <time>2010-07-24T10:24:16Z</time>
      </trkpt>
      <trkpt lat="44.43301" lon="6.71684">
        <ele>2089.0820312</ele>
        <time>2010-07-24T10:24:31Z</time>
      </trkpt>
      <trkpt lat="44.43302" lon="6.7168">
        <ele>2084.7563477</ele>
        <time>2010-07-24T10:24:39Z</time>
      </trkpt>
      <trkpt lat="44.43304" lon="6.7168">
        <ele>2085.7175293</ele>
        <time>2010-07-24T10:24:50Z</time>
      </trkpt>
      <trkpt lat="44.43314" lon="6.71684">
        <ele>2091.0046387</ele>
        <time>2010-07-24T10:24:54Z</time>
      </trkpt>
      <trkpt lat="44.43343" lon="6.71695">
        <ele>2104.9438477</ele>
        <time>2010-07-24T10:24:59Z</time>
      </trkpt>
      <trkpt lat="44.43348" lon="6.71695">
        <ele>2104.4631348</ele>
        <time>2010-07-24T10:25:00Z</time>
      </trkpt>
      <trkpt lat="44.43359" lon="6.71699">
        <ele>2105.4245605</ele>
        <time>2010-07-24T10:25:02Z</time>
      </trkpt>
      <trkpt lat="44.43374" lon="6.71717">
        <ele>2105.9050293</ele>
        <time>2010-07-24T10:25:06Z</time>
      </trkpt>
      <trkpt lat="44.43383" lon="6.71725">
        <ele>2102.5405273</ele>
        <time>2010-07-24T10:25:08Z</time>
      </trkpt>
      <trkpt lat="44.43399" lon="6.71732">
        <ele>2095.3308105</ele>
        <time>2010-07-24T10:25:12Z</time>
      </trkpt>
      <trkpt lat="44.43403" lon="6.71738">
        <ele>2092.4470215</ele>
        <time>2010-07-24T10:25:14Z</time>
      </trkpt>
      <trkpt lat="44.43406" lon="6.71744">
        <ele>2092.9274902</ele>
        <time>2010-07-24T10:25:16Z</time>
      </trkpt>
      <trkpt lat="44.43388" lon="6.71751">
        <ele>2094.8500977</ele>
        <time>2010-07-24T10:25:20Z</time>
      </trkpt>
      <trkpt lat="44.4337" lon="6.71756">
        <ele>2091.9660645</ele>
        <time>2010-07-24T10:25:24Z</time>
      </trkpt>
      <trkpt lat="44.43362" lon="6.71756">
        <ele>2090.043457</ele>
        <time>2010-07-24T10:25:26Z</time>
      </trkpt>
      <trkpt lat="44.43336" lon="6.7176">
        <ele>2082.3530273</ele>
        <time>2010-07-24T10:25:32Z</time>
      </trkpt>
      <trkpt lat="44.43335" lon="6.71761">
        <ele>2078.9882812</ele>
        <time>2010-07-24T10:25:36Z</time>
      </trkpt>
      <trkpt lat="44.43344" lon="6.71776">
        <ele>2074.1816406</ele>
        <time>2010-07-24T10:25:40Z</time>
      </trkpt>
      <trkpt lat="44.43361" lon="6.71798">
        <ele>2072.2590332</ele>
        <time>2010-07-24T10:25:44Z</time>
      </trkpt>
      <trkpt lat="44.43383" lon="6.71815">
        <ele>2067.9331055</ele>
        <time>2010-07-24T10:25:49Z</time>
      </trkpt>
      <trkpt lat="44.43385" lon="6.71817">
        <ele>2064.0878906</ele>
        <time>2010-07-24T10:25:52Z</time>
      </trkpt>
      <trkpt lat="44.43387" lon="6.7182">
        <ele>2060.7233887</ele>
        <time>2010-07-24T10:25:55Z</time>
      </trkpt>
      <trkpt lat="44.43379" lon="6.71822">
        <ele>2057.8393555</ele>
        <time>2010-07-24T10:25:58Z</time>
      </trkpt>
      <trkpt lat="44.43363" lon="6.71827">
        <ele>2057.8393555</ele>
        <time>2010-07-24T10:26:00Z</time>
      </trkpt>
      <trkpt lat="44.43348" lon="6.71826">
        <ele>2054.4746094</ele>
        <time>2010-07-24T10:26:02Z</time>
      </trkpt>
      <trkpt lat="44.43331" lon="6.71819">
        <ele>2056.3972168</ele>
        <time>2010-07-24T10:26:05Z</time>
      </trkpt>
      <trkpt lat="44.43322" lon="6.71814">
        <ele>2058.8005371</ele>
        <time>2010-07-24T10:26:07Z</time>
      </trkpt>
      <trkpt lat="44.43305" lon="6.71799">
        <ele>2054.9553223</ele>
        <time>2010-07-24T10:26:11Z</time>
      </trkpt>
      <trkpt lat="44.4328" lon="6.71794">
        <ele>2046.3037109</ele>
        <time>2010-07-24T10:26:15Z</time>
      </trkpt>
      <trkpt lat="44.43251" lon="6.71787">
        <ele>2039.0935059</ele>
        <time>2010-07-24T10:26:21Z</time>
      </trkpt>
      <trkpt lat="44.43247" lon="6.71787">
        <ele>2039.5742188</ele>
        <time>2010-07-24T10:26:23Z</time>
      </trkpt>
      <trkpt lat="44.43242" lon="6.7179">
        <ele>2032.8449707</ele>
        <time>2010-07-24T10:26:26Z</time>
      </trkpt>
      <trkpt lat="44.43249" lon="6.71804">
        <ele>2027.0771484</ele>
        <time>2010-07-24T10:26:30Z</time>
      </trkpt>
      <trkpt lat="44.43253" lon="6.71808">
        <ele>2025.6350098</ele>
        <time>2010-07-24T10:26:31Z</time>
      </trkpt>
      <trkpt lat="44.43277" lon="6.71831">
        <ele>2019.8671875</ele>
        <time>2010-07-24T10:26:36Z</time>
      </trkpt>
      <trkpt lat="44.43286" lon="6.71843">
        <ele>2017.9445801</ele>
        <time>2010-07-24T10:26:38Z</time>
      </trkpt>
      <trkpt lat="44.43299" lon="6.71862">
        <ele>2013.1381836</ele>
        <time>2010-07-24T10:26:41Z</time>
      </trkpt>
      <trkpt lat="44.43308" lon="6.71882">
        <ele>2009.2927246</ele>
        <time>2010-07-24T10:26:45Z</time>
      </trkpt>
      <trkpt lat="44.43311" lon="6.71889">
        <ele>2008.3312988</ele>
        <time>2010-07-24T10:26:47Z</time>
      </trkpt>
      <trkpt lat="44.43303" lon="6.71895">
        <ele>2008.8120117</ele>
        <time>2010-07-24T10:26:51Z</time>
      </trkpt>
      <trkpt lat="44.43293" lon="6.71887">
        <ele>2008.3312988</ele>
        <time>2010-07-24T10:26:54Z</time>
      </trkpt>
      <trkpt lat="44.4329" lon="6.71885">
        <ele>2008.3312988</ele>
        <time>2010-07-24T10:26:55Z</time>
      </trkpt>
      <trkpt lat="44.43258" lon="6.71871">
        <ele>2004.0056152</ele>
        <time>2010-07-24T10:27:00Z</time>
      </trkpt>
      <trkpt lat="44.43242" lon="6.71863">
        <ele>2000.1604004</ele>
        <time>2010-07-24T10:27:05Z</time>
      </trkpt>
      <trkpt lat="44.43243" lon="6.71871">
        <ele>1996.7956543</ele>
        <time>2010-07-24T10:27:08Z</time>
      </trkpt>
      <trkpt lat="44.43254" lon="6.71885">
        <ele>1994.3920898</ele>
        <time>2010-07-24T10:27:11Z</time>
      </trkpt>
      <trkpt lat="44.43267" lon="6.719">
        <ele>1990.0664062</ele>
        <time>2010-07-24T10:27:16Z</time>
      </trkpt>
      <trkpt lat="44.43272" lon="6.71919">
        <ele>1986.2211914</ele>
        <time>2010-07-24T10:27:20Z</time>
      </trkpt>
      <trkpt lat="44.43281" lon="6.71941">
        <ele>1983.8178711</ele>
        <time>2010-07-24T10:27:25Z</time>
      </trkpt>
      <trkpt lat="44.43267" lon="6.7193">
        <ele>1984.298584</ele>
        <time>2010-07-24T10:27:29Z</time>
      </trkpt>
      <trkpt lat="44.43252" lon="6.71922">
        <ele>1986.7016602</ele>
        <time>2010-07-24T10:27:32Z</time>
      </trkpt>
      <trkpt lat="44.43223" lon="6.71918">
        <ele>1983.3371582</ele>
        <time>2010-07-24T10:27:37Z</time>
      </trkpt>
      <trkpt lat="44.43232" lon="6.71939">
        <ele>1975.6464844</ele>
        <time>2010-07-24T10:27:42Z</time>
      </trkpt>
      <trkpt lat="44.43238" lon="6.71961">
        <ele>1971.3205566</ele>
        <time>2010-07-24T10:27:46Z</time>
      </trkpt>
      <trkpt lat="44.43253" lon="6.71993">
        <ele>1959.784668</ele>
        <time>2010-07-24T10:27:50Z</time>
      </trkpt>
      <trkpt lat="44.43254" lon="6.72032">
        <ele>1945.8457031</ele>
        <time>2010-07-24T10:27:55Z</time>
      </trkpt>
      <trkpt lat="44.43248" lon="6.72056">
        <ele>1942.4812012</ele>
        <time>2010-07-24T10:27:58Z</time>
      </trkpt>
      <trkpt lat="44.43239" lon="6.7207">
        <ele>1941.5197754</ele>
        <time>2010-07-24T10:28:00Z</time>
      </trkpt>
      <trkpt lat="44.4323" lon="6.72087">
        <ele>1939.597168</ele>
        <time>2010-07-24T10:28:02Z</time>
      </trkpt>
      <trkpt lat="44.43212" lon="6.72104">
        <ele>1937.1938477</ele>
        <time>2010-07-24T10:28:06Z</time>
      </trkpt>
      <trkpt lat="44.4321" lon="6.72106">
        <ele>1935.2712402</ele>
        <time>2010-07-24T10:28:10Z</time>
      </trkpt>
      <trkpt lat="44.43209" lon="6.72106">
        <ele>1934.3100586</ele>
        <time>2010-07-24T10:28:15Z</time>
      </trkpt>
      <trkpt lat="44.43208" lon="6.72108">
        <ele>1935.7519531</ele>
        <time>2010-07-24T10:28:35Z</time>
      </trkpt>
      <trkpt lat="44.43211" lon="6.72107">
        <ele>1936.232666</ele>
        <time>2010-07-24T10:28:47Z</time>
      </trkpt>
      <trkpt lat="44.43214" lon="6.72104">
        <ele>1936.232666</ele>
        <time>2010-07-24T10:28:53Z</time>
      </trkpt>
      <trkpt lat="44.43216" lon="6.72102">
        <ele>1936.232666</ele>
        <time>2010-07-24T10:28:59Z</time>
      </trkpt>
      <trkpt lat="44.43216" lon="6.72104">
        <ele>1937.6745605</ele>
        <time>2010-07-24T10:29:07Z</time>
      </trkpt>
      <trkpt lat="44.43217" lon="6.72105">
        <ele>1941.5197754</ele>
        <time>2010-07-24T10:29:31Z</time>
      </trkpt>
      <trkpt lat="44.43209" lon="6.72089">
        <ele>1941.5197754</ele>
        <time>2010-07-24T10:29:36Z</time>
      </trkpt>
      <trkpt lat="44.43203" lon="6.72088">
        <ele>1942.4812012</ele>
        <time>2010-07-24T10:29:38Z</time>
      </trkpt>
      <trkpt lat="44.43183" lon="6.72093">
        <ele>1940.5583496</ele>
        <time>2010-07-24T10:29:42Z</time>
      </trkpt>
      <trkpt lat="44.43181" lon="6.72089">
        <ele>1941.0390625</ele>
        <time>2010-07-24T10:29:45Z</time>
      </trkpt>
      <trkpt lat="44.43181" lon="6.72088">
        <ele>1941.0390625</ele>
        <time>2010-07-24T10:29:47Z</time>
      </trkpt>
      <trkpt lat="44.4319" lon="6.72067">
        <ele>1934.7907715</ele>
        <time>2010-07-24T10:29:53Z</time>
      </trkpt>
      <trkpt lat="44.43193" lon="6.72042">
        <ele>1928.5419922</ele>
        <time>2010-07-24T10:29:58Z</time>
      </trkpt>
      <trkpt lat="44.43197" lon="6.72022">
        <ele>1925.1772461</ele>
        <time>2010-07-24T10:30:02Z</time>
      </trkpt>
      <trkpt lat="44.43197" lon="6.72003">
        <ele>1922.293457</ele>
        <time>2010-07-24T10:30:06Z</time>
      </trkpt>
      <trkpt lat="44.43183" lon="6.71997">
        <ele>1920.8515625</ele>
        <time>2010-07-24T10:30:11Z</time>
      </trkpt>
      <trkpt lat="44.43164" lon="6.71994">
        <ele>1918.9289551</ele>
        <time>2010-07-24T10:30:16Z</time>
      </trkpt>
      <trkpt lat="44.43162" lon="6.71993">
        <ele>1918.4482422</ele>
        <time>2010-07-24T10:30:17Z</time>
      </trkpt>
      <trkpt lat="44.43157" lon="6.71986">
        <ele>1916.0449219</ele>
        <time>2010-07-24T10:30:23Z</time>
      </trkpt>
      <trkpt lat="44.43157" lon="6.71981">
        <ele>1914.6027832</ele>
        <time>2010-07-24T10:30:29Z</time>
      </trkpt>
      <trkpt lat="44.43157" lon="6.71981">
        <ele>1913.6413574</ele>
        <time>2010-07-24T10:30:33Z</time>
      </trkpt>
      <trkpt lat="44.43151" lon="6.71975">
        <ele>1911.2382812</ele>
        <time>2010-07-24T10:30:39Z</time>
      </trkpt>
      <trkpt lat="44.43151" lon="6.71974">
        <ele>1911.7189941</ele>
        <time>2010-07-24T10:30:41Z</time>
      </trkpt>
      <trkpt lat="44.4315" lon="6.71962">
        <ele>1911.2382812</ele>
        <time>2010-07-24T10:30:49Z</time>
      </trkpt>
      <trkpt lat="44.4315" lon="6.7196">
        <ele>1909.7961426</ele>
        <time>2010-07-24T10:30:55Z</time>
      </trkpt>
      <trkpt lat="44.43151" lon="6.71956">
        <ele>1911.7189941</ele>
        <time>2010-07-24T10:31:24Z</time>
      </trkpt>
      <trkpt lat="44.43145" lon="6.71954">
        <ele>1913.1608887</ele>
        <time>2010-07-24T10:31:28Z</time>
      </trkpt>
      <trkpt lat="44.4314" lon="6.71952">
        <ele>1913.6413574</ele>
        <time>2010-07-24T10:31:31Z</time>
      </trkpt>
      <trkpt lat="44.43136" lon="6.71947">
        <ele>1915.0834961</ele>
        <time>2010-07-24T10:31:38Z</time>
      </trkpt>
      <trkpt lat="44.43134" lon="6.71947">
        <ele>1914.1220703</ele>
        <time>2010-07-24T10:31:44Z</time>
      </trkpt>
      <trkpt lat="44.43122" lon="6.7195">
        <ele>1910.7575684</ele>
        <time>2010-07-24T10:31:49Z</time>
      </trkpt>
      <trkpt lat="44.4311" lon="6.71953">
        <ele>1906.4316406</ele>
        <time>2010-07-24T10:31:56Z</time>
      </trkpt>
      <trkpt lat="44.43102" lon="6.71957">
        <ele>1904.9897461</ele>
        <time>2010-07-24T10:32:02Z</time>
      </trkpt>
      <trkpt lat="44.43101" lon="6.71963">
        <ele>1913.1608887</ele>
        <time>2010-07-24T10:32:07Z</time>
      </trkpt>
      <trkpt lat="44.43094" lon="6.71961">
        <ele>1912.6801758</ele>
        <time>2010-07-24T10:32:12Z</time>
      </trkpt>
      <trkpt lat="44.4309" lon="6.71969">
        <ele>1930.4645996</ele>
        <time>2010-07-24T10:32:17Z</time>
      </trkpt>
      <trkpt lat="44.43082" lon="6.71967">
        <ele>1922.7741699</ele>
        <time>2010-07-24T10:32:34Z</time>
      </trkpt>
      <trkpt lat="44.43072" lon="6.71954">
        <ele>1900.6638184</ele>
        <time>2010-07-24T10:32:38Z</time>
      </trkpt>
      <trkpt lat="44.43066" lon="6.71943">
        <ele>1885.7634277</ele>
        <time>2010-07-24T10:32:42Z</time>
      </trkpt>
      <trkpt lat="44.43064" lon="6.71939">
        <ele>1878.0727539</ele>
        <time>2010-07-24T10:32:45Z</time>
      </trkpt>
      <trkpt lat="44.43062" lon="6.7194">
        <ele>1873.7468262</ele>
        <time>2010-07-24T10:32:47Z</time>
      </trkpt>
      <trkpt lat="44.43072" lon="6.71955">
        <ele>1870.8630371</ele>
        <time>2010-07-24T10:32:51Z</time>
      </trkpt>
      <trkpt lat="44.43078" lon="6.71964">
        <ele>1867.9787598</ele>
        <time>2010-07-24T10:32:53Z</time>
      </trkpt>
      <trkpt lat="44.43082" lon="6.7197">
        <ele>1866.5368652</ele>
        <time>2010-07-24T10:32:55Z</time>
      </trkpt>
      <trkpt lat="44.43061" lon="6.71964">
        <ele>1867.0175781</ele>
        <time>2010-07-24T10:32:59Z</time>
      </trkpt>
      <trkpt lat="44.43033" lon="6.71942">
        <ele>1860.769043</ele>
        <time>2010-07-24T10:33:04Z</time>
      </trkpt>
      <trkpt lat="44.43019" lon="6.71932">
        <ele>1861.2497559</ele>
        <time>2010-07-24T10:33:09Z</time>
      </trkpt>
      <trkpt lat="44.43007" lon="6.71926">
        <ele>1858.8464355</ele>
        <time>2010-07-24T10:33:12Z</time>
      </trkpt>
      <trkpt lat="44.42998" lon="6.71925">
        <ele>1855.9624023</ele>
        <time>2010-07-24T10:33:14Z</time>
      </trkpt>
      <trkpt lat="44.42975" lon="6.7192">
        <ele>1853.5593262</ele>
        <time>2010-07-24T10:33:19Z</time>
      </trkpt>
      <trkpt lat="44.42957" lon="6.71921">
        <ele>1850.6750488</ele>
        <time>2010-07-24T10:33:22Z</time>
      </trkpt>
      <trkpt lat="44.42947" lon="6.71923">
        <ele>1847.3105469</ele>
        <time>2010-07-24T10:33:25Z</time>
      </trkpt>
      <trkpt lat="44.42947" lon="6.71922">
        <ele>1846.3493652</ele>
        <time>2010-07-24T10:33:27Z</time>
      </trkpt>
      <trkpt lat="44.42964" lon="6.71933">
        <ele>1842.5041504</ele>
        <time>2010-07-24T10:33:31Z</time>
      </trkpt>
      <trkpt lat="44.42961" lon="6.71936">
        <ele>1843.465332</ele>
        <time>2010-07-24T10:33:34Z</time>
      </trkpt>
      <trkpt lat="44.42949" lon="6.71942">
        <ele>1840.1008301</ele>
        <time>2010-07-24T10:33:38Z</time>
      </trkpt>
      <trkpt lat="44.42924" lon="6.71945">
        <ele>1832.4101562</ele>
        <time>2010-07-24T10:33:42Z</time>
      </trkpt>
      <trkpt lat="44.42916" lon="6.71944">
        <ele>1830.0068359</ele>
        <time>2010-07-24T10:33:43Z</time>
      </trkpt>
      <trkpt lat="44.42874" lon="6.71937">
        <ele>1822.7971191</ele>
        <time>2010-07-24T10:33:49Z</time>
      </trkpt>
      <trkpt lat="44.42846" lon="6.71932">
        <ele>1823.7583008</ele>
        <time>2010-07-24T10:33:53Z</time>
      </trkpt>
      <trkpt lat="44.42822" lon="6.71929">
        <ele>1822.3164062</ele>
        <time>2010-07-24T10:33:56Z</time>
      </trkpt>
      <trkpt lat="44.428" lon="6.71916">
        <ele>1817.0290527</ele>
        <time>2010-07-24T10:34:00Z</time>
      </trkpt>
      <trkpt lat="44.42793" lon="6.71908">
        <ele>1816.5483398</ele>
        <time>2010-07-24T10:34:03Z</time>
      </trkpt>
      <trkpt lat="44.42785" lon="6.71908">
        <ele>1810.7805176</ele>
        <time>2010-07-24T10:34:07Z</time>
      </trkpt>
      <trkpt lat="44.42782" lon="6.71903">
        <ele>1808.3771973</ele>
        <time>2010-07-24T10:34:10Z</time>
      </trkpt>
      <trkpt lat="44.42781" lon="6.71892">
        <ele>1805.973877</ele>
        <time>2010-07-24T10:34:12Z</time>
      </trkpt>
      <trkpt lat="44.4278" lon="6.71871">
        <ele>1800.2060547</ele>
        <time>2010-07-24T10:34:16Z</time>
      </trkpt>
      <trkpt lat="44.42777" lon="6.71854">
        <ele>1797.8027344</ele>
        <time>2010-07-24T10:34:18Z</time>
      </trkpt>
      <trkpt lat="44.42774" lon="6.71821">
        <ele>1792.515625</ele>
        <time>2010-07-24T10:34:22Z</time>
      </trkpt>
      <trkpt lat="44.42772" lon="6.71806">
        <ele>1792.515625</ele>
        <time>2010-07-24T10:34:24Z</time>
      </trkpt>
      <trkpt lat="44.42767" lon="6.71763">
        <ele>1789.1508789</ele>
        <time>2010-07-24T10:34:30Z</time>
      </trkpt>
      <trkpt lat="44.4277" lon="6.7172">
        <ele>1779.5375977</ele>
        <time>2010-07-24T10:34:35Z</time>
      </trkpt>
      <trkpt lat="44.42771" lon="6.717">
        <ele>1778.576416</ele>
        <time>2010-07-24T10:34:38Z</time>
      </trkpt>
      <trkpt lat="44.4277" lon="6.71686">
        <ele>1777.6149902</ele>
        <time>2010-07-24T10:34:40Z</time>
      </trkpt>
      <trkpt lat="44.42765" lon="6.71651">
        <ele>1771.3662109</ele>
        <time>2010-07-24T10:34:45Z</time>
      </trkpt>
      <trkpt lat="44.42751" lon="6.7163">
        <ele>1770.4050293</ele>
        <time>2010-07-24T10:34:49Z</time>
      </trkpt>
      <trkpt lat="44.42734" lon="6.71616">
        <ele>1768.9631348</ele>
        <time>2010-07-24T10:34:53Z</time>
      </trkpt>
      <trkpt lat="44.42724" lon="6.71588">
        <ele>1768.9631348</ele>
        <time>2010-07-24T10:34:58Z</time>
      </trkpt>
      <trkpt lat="44.42726" lon="6.71577">
        <ele>1767.5209961</ele>
        <time>2010-07-24T10:35:00Z</time>
      </trkpt>
      <trkpt lat="44.42732" lon="6.71559">
        <ele>1758.8693848</ele>
        <time>2010-07-24T10:35:05Z</time>
      </trkpt>
      <trkpt lat="44.42731" lon="6.7155">
        <ele>1762.2338867</ele>
        <time>2010-07-24T10:35:10Z</time>
      </trkpt>
      <trkpt lat="44.4273" lon="6.7155">
        <ele>1764.637207</ele>
        <time>2010-07-24T10:35:11Z</time>
      </trkpt>
      <trkpt lat="44.42712" lon="6.71544">
        <ele>1780.0183105</ele>
        <time>2010-07-24T10:35:17Z</time>
      </trkpt>
      <trkpt lat="44.42706" lon="6.71541">
        <ele>1784.8249512</ele>
        <time>2010-07-24T10:35:22Z</time>
      </trkpt>
      <trkpt lat="44.427" lon="6.71539">
        <ele>1786.2668457</ele>
        <time>2010-07-24T10:35:28Z</time>
      </trkpt>
      <trkpt lat="44.42695" lon="6.71536">
        <ele>1788.6704102</ele>
        <time>2010-07-24T10:35:33Z</time>
      </trkpt>
      <trkpt lat="44.42683" lon="6.71521">
        <ele>1790.5927734</ele>
        <time>2010-07-24T10:35:39Z</time>
      </trkpt>
      <trkpt lat="44.42681" lon="6.71498">
        <ele>1789.6315918</ele>
        <time>2010-07-24T10:35:44Z</time>
      </trkpt>
      <trkpt lat="44.42673" lon="6.71482">
        <ele>1785.3054199</ele>
        <time>2010-07-24T10:35:48Z</time>
      </trkpt>
      <trkpt lat="44.42672" lon="6.71467">
        <ele>1775.6923828</ele>
        <time>2010-07-24T10:35:53Z</time>
      </trkpt>
      <trkpt lat="44.42672" lon="6.71458">
        <ele>1767.0405273</ele>
        <time>2010-07-24T10:35:57Z</time>
      </trkpt>
      <trkpt lat="44.42674" lon="6.71453">
        <ele>1756.9467773</ele>
        <time>2010-07-24T10:36:04Z</time>
      </trkpt>
      <trkpt lat="44.42674" lon="6.71452">
        <ele>1755.9851074</ele>
        <time>2010-07-24T10:36:05Z</time>
      </trkpt>
      <trkpt lat="44.42667" lon="6.71456">
        <ele>1749.7368164</ele>
        <time>2010-07-24T10:36:10Z</time>
      </trkpt>
      <trkpt lat="44.42666" lon="6.71455">
        <ele>1748.2946777</ele>
        <time>2010-07-24T10:36:11Z</time>
      </trkpt>
      <trkpt lat="44.42667" lon="6.71431">
        <ele>1743.4882812</ele>
        <time>2010-07-24T10:36:16Z</time>
      </trkpt>
      <trkpt lat="44.42654" lon="6.71409">
        <ele>1739.6428223</ele>
        <time>2010-07-24T10:36:21Z</time>
      </trkpt>
      <trkpt lat="44.42653" lon="6.714">
        <ele>1734.8364258</ele>
        <time>2010-07-24T10:36:23Z</time>
      </trkpt>
      <trkpt lat="44.42641" lon="6.71361">
        <ele>1730.0297852</ele>
        <time>2010-07-24T10:36:29Z</time>
      </trkpt>
      <trkpt lat="44.42629" lon="6.71324">
        <ele>1729.0683594</ele>
        <time>2010-07-24T10:36:35Z</time>
      </trkpt>
      <trkpt lat="44.42624" lon="6.71309">
        <ele>1725.7038574</ele>
        <time>2010-07-24T10:36:39Z</time>
      </trkpt>
      <trkpt lat="44.42622" lon="6.71308">
        <ele>1724.7426758</ele>
        <time>2010-07-24T10:36:40Z</time>
      </trkpt>
      <trkpt lat="44.42613" lon="6.71314">
        <ele>1718.0131836</ele>
        <time>2010-07-24T10:36:44Z</time>
      </trkpt>
      <trkpt lat="44.42599" lon="6.71336">
        <ele>1714.1679688</ele>
        <time>2010-07-24T10:36:48Z</time>
      </trkpt>
      <trkpt lat="44.4259" lon="6.71334">
        <ele>1710.8034668</ele>
        <time>2010-07-24T10:36:52Z</time>
      </trkpt>
      <trkpt lat="44.42582" lon="6.71325">
        <ele>1705.996582</ele>
        <time>2010-07-24T10:36:56Z</time>
      </trkpt>
      <trkpt lat="44.42571" lon="6.71319">
        <ele>1698.7868652</ele>
        <time>2010-07-24T10:37:00Z</time>
      </trkpt>
      <trkpt lat="44.42554" lon="6.71306">
        <ele>1691.5769043</ele>
        <time>2010-07-24T10:37:06Z</time>
      </trkpt>
      <trkpt lat="44.42548" lon="6.71304">
        <ele>1689.173584</ele>
        <time>2010-07-24T10:37:08Z</time>
      </trkpt>
      <trkpt lat="44.42534" lon="6.71296">
        <ele>1683.4057617</ele>
        <time>2010-07-24T10:37:13Z</time>
      </trkpt>
      <trkpt lat="44.42516" lon="6.71296">
        <ele>1679.079834</ele>
        <time>2010-07-24T10:37:16Z</time>
      </trkpt>
      <trkpt lat="44.4251" lon="6.71295">
        <ele>1678.5993652</ele>
        <time>2010-07-24T10:37:17Z</time>
      </trkpt>
      <trkpt lat="44.42499" lon="6.71294">
        <ele>1675.7150879</ele>
        <time>2010-07-24T10:37:19Z</time>
      </trkpt>
      <trkpt lat="44.42485" lon="6.71286">
        <ele>1671.869873</ele>
        <time>2010-07-24T10:37:22Z</time>
      </trkpt>
      <trkpt lat="44.42463" lon="6.71282">
        <ele>1663.6987305</ele>
        <time>2010-07-24T10:37:27Z</time>
      </trkpt>
      <trkpt lat="44.42454" lon="6.71286">
        <ele>1656.9694824</ele>
        <time>2010-07-24T10:37:31Z</time>
      </trkpt>
      <trkpt lat="44.42452" lon="6.71288">
        <ele>1653.1242676</ele>
        <time>2010-07-24T10:37:38Z</time>
      </trkpt>
      <trkpt lat="44.42447" lon="6.71288">
        <ele>1650.7209473</ele>
        <time>2010-07-24T10:37:53Z</time>
      </trkpt>
      <trkpt lat="44.4244" lon="6.71287">
        <ele>1652.1628418</ele>
        <time>2010-07-24T10:38:06Z</time>
      </trkpt>
      <trkpt lat="44.4244" lon="6.71288">
        <ele>1652.1628418</ele>
        <time>2010-07-24T10:38:08Z</time>
      </trkpt>
      <trkpt lat="44.42442" lon="6.71309">
        <ele>1647.3564453</ele>
        <time>2010-07-24T10:38:15Z</time>
      </trkpt>
      <trkpt lat="44.42446" lon="6.71329">
        <ele>1641.5883789</ele>
        <time>2010-07-24T10:38:20Z</time>
      </trkpt>
      <trkpt lat="44.42443" lon="6.71344">
        <ele>1635.8205566</ele>
        <time>2010-07-24T10:38:24Z</time>
      </trkpt>
      <trkpt lat="44.42443" lon="6.71365">
        <ele>1626.6879883</ele>
        <time>2010-07-24T10:38:29Z</time>
      </trkpt>
      <trkpt lat="44.42445" lon="6.71381">
        <ele>1619.4782715</ele>
        <time>2010-07-24T10:38:34Z</time>
      </trkpt>
      <trkpt lat="44.42444" lon="6.71382">
        <ele>1619.4782715</ele>
        <time>2010-07-24T10:38:40Z</time>
      </trkpt>
      <trkpt lat="44.42445" lon="6.7138">
        <ele>1617.5554199</ele>
        <time>2010-07-24T10:38:46Z</time>
      </trkpt>
      <trkpt lat="44.42443" lon="6.71376">
        <ele>1616.5942383</ele>
        <time>2010-07-24T10:39:02Z</time>
      </trkpt>
      <trkpt lat="44.42446" lon="6.71376">
        <ele>1612.7490234</ele>
        <time>2010-07-24T10:39:13Z</time>
      </trkpt>
      <trkpt lat="44.42449" lon="6.71379">
        <ele>1612.7490234</ele>
        <time>2010-07-24T10:39:22Z</time>
      </trkpt>
      <trkpt lat="44.42454" lon="6.7138">
        <ele>1619.9587402</ele>
        <time>2010-07-24T10:39:49Z</time>
      </trkpt>
      <trkpt lat="44.42453" lon="6.71382">
        <ele>1622.8427734</ele>
        <time>2010-07-24T10:39:57Z</time>
      </trkpt>
      <trkpt lat="44.42448" lon="6.71377">
        <ele>1623.3234863</ele>
        <time>2010-07-24T10:40:01Z</time>
      </trkpt>
      <trkpt lat="44.42431" lon="6.71364">
        <ele>1618.0361328</ele>
        <time>2010-07-24T10:40:07Z</time>
      </trkpt>
      <trkpt lat="44.42427" lon="6.7136">
        <ele>1617.0749512</ele>
        <time>2010-07-24T10:40:08Z</time>
      </trkpt>
      <trkpt lat="44.42419" lon="6.71337">
        <ele>1617.5554199</ele>
        <time>2010-07-24T10:40:13Z</time>
      </trkpt>
      <trkpt lat="44.4241" lon="6.71312">
        <ele>1621.8813477</ele>
        <time>2010-07-24T10:40:18Z</time>
      </trkpt>
      <trkpt lat="44.42406" lon="6.71298">
        <ele>1623.3234863</ele>
        <time>2010-07-24T10:40:22Z</time>
      </trkpt>
      <trkpt lat="44.42402" lon="6.71291">
        <ele>1620.4394531</ele>
        <time>2010-07-24T10:40:27Z</time>
      </trkpt>
      <trkpt lat="44.42401" lon="6.71287">
        <ele>1617.0749512</ele>
        <time>2010-07-24T10:40:38Z</time>
      </trkpt>
      <trkpt lat="44.42401" lon="6.71286">
        <ele>1617.0749512</ele>
        <time>2010-07-24T10:40:40Z</time>
      </trkpt>
      <trkpt lat="44.42399" lon="6.71272">
        <ele>1615.6330566</ele>
        <time>2010-07-24T10:40:46Z</time>
      </trkpt>
      <trkpt lat="44.42401" lon="6.71256">
        <ele>1609.8647461</ele>
        <time>2010-07-24T10:40:52Z</time>
      </trkpt>
      <trkpt lat="44.42409" lon="6.71232">
        <ele>1606.980957</ele>
        <time>2010-07-24T10:40:58Z</time>
      </trkpt>
      <trkpt lat="44.42411" lon="6.71228">
        <ele>1606.5002441</ele>
        <time>2010-07-24T10:40:59Z</time>
      </trkpt>
      <trkpt lat="44.42424" lon="6.71186">
        <ele>1601.6938477</ele>
        <time>2010-07-24T10:41:05Z</time>
      </trkpt>
      <trkpt lat="44.42433" lon="6.71165">
        <ele>1599.2905273</ele>
        <time>2010-07-24T10:41:09Z</time>
      </trkpt>
      <trkpt lat="44.42454" lon="6.71151">
        <ele>1598.3291016</ele>
        <time>2010-07-24T10:41:14Z</time>
      </trkpt>
      <trkpt lat="44.42469" lon="6.71132">
        <ele>1598.3291016</ele>
        <time>2010-07-24T10:41:18Z</time>
      </trkpt>
      <trkpt lat="44.42478" lon="6.71115">
        <ele>1600.2519531</ele>
        <time>2010-07-24T10:41:21Z</time>
      </trkpt>
      <trkpt lat="44.42493" lon="6.71092">
        <ele>1605.0583496</ele>
        <time>2010-07-24T10:41:27Z</time>
      </trkpt>
      <trkpt lat="44.42511" lon="6.71078">
        <ele>1603.1357422</ele>
        <time>2010-07-24T10:41:32Z</time>
      </trkpt>
      <trkpt lat="44.42519" lon="6.71064">
        <ele>1603.6164551</ele>
        <time>2010-07-24T10:41:36Z</time>
      </trkpt>
      <trkpt lat="44.42511" lon="6.71048">
        <ele>1607.4616699</ele>
        <time>2010-07-24T10:41:41Z</time>
      </trkpt>
      <trkpt lat="44.42491" lon="6.71016">
        <ele>1612.2683105</ele>
        <time>2010-07-24T10:41:49Z</time>
      </trkpt>
      <trkpt lat="44.42491" lon="6.70992">
        <ele>1611.7875977</ele>
        <time>2010-07-24T10:41:54Z</time>
      </trkpt>
      <trkpt lat="44.42501" lon="6.70968">
        <ele>1607.9423828</ele>
        <time>2010-07-24T10:41:59Z</time>
      </trkpt>
      <trkpt lat="44.42499" lon="6.70917">
        <ele>1604.097168</ele>
        <time>2010-07-24T10:42:05Z</time>
      </trkpt>
      <trkpt lat="44.42494" lon="6.7087">
        <ele>1601.2131348</ele>
        <time>2010-07-24T10:42:10Z</time>
      </trkpt>
      <trkpt lat="44.4249" lon="6.70857">
        <ele>1603.6164551</ele>
        <time>2010-07-24T10:42:13Z</time>
      </trkpt>
      <trkpt lat="44.42472" lon="6.70849">
        <ele>1612.2683105</ele>
        <time>2010-07-24T10:42:19Z</time>
      </trkpt>
      <trkpt lat="44.42469" lon="6.70836">
        <ele>1616.5942383</ele>
        <time>2010-07-24T10:42:24Z</time>
      </trkpt>
      <trkpt lat="44.4246" lon="6.70821">
        <ele>1619.4782715</ele>
        <time>2010-07-24T10:42:32Z</time>
      </trkpt>
      <trkpt lat="44.42444" lon="6.70804">
        <ele>1625.7265625</ele>
        <time>2010-07-24T10:42:40Z</time>
      </trkpt>
      <trkpt lat="44.42439" lon="6.70782">
        <ele>1622.3620605</ele>
        <time>2010-07-24T10:42:48Z</time>
      </trkpt>
      <trkpt lat="44.42439" lon="6.70777">
        <ele>1621.4006348</ele>
        <time>2010-07-24T10:42:50Z</time>
      </trkpt>
      <trkpt lat="44.42442" lon="6.70762">
        <ele>1619.4782715</ele>
        <time>2010-07-24T10:42:58Z</time>
      </trkpt>
      <trkpt lat="44.42433" lon="6.70761">
        <ele>1620.920166</ele>
        <time>2010-07-24T10:43:14Z</time>
      </trkpt>
      <trkpt lat="44.42433" lon="6.70762">
        <ele>1622.8427734</ele>
        <time>2010-07-24T10:43:28Z</time>
      </trkpt>
      <trkpt lat="44.42436" lon="6.70763">
        <ele>1620.920166</ele>
        <time>2010-07-24T10:43:52Z</time>
      </trkpt>
      <trkpt lat="44.4245" lon="6.70769">
        <ele>1600.2519531</ele>
        <time>2010-07-24T10:44:07Z</time>
      </trkpt>
      <trkpt lat="44.42456" lon="6.70767">
        <ele>1593.041748</ele>
        <time>2010-07-24T10:44:33Z</time>
      </trkpt>
      <trkpt lat="44.42459" lon="6.70768">
        <ele>1582.947998</ele>
        <time>2010-07-24T10:44:41Z</time>
      </trkpt>
      <trkpt lat="44.42465" lon="6.70753">
        <ele>1585.3513184</ele>
        <time>2010-07-24T10:44:47Z</time>
      </trkpt>
      <trkpt lat="44.42463" lon="6.7075">
        <ele>1589.6772461</ele>
        <time>2010-07-24T10:44:49Z</time>
      </trkpt>
      <trkpt lat="44.42461" lon="6.70745">
        <ele>1594.9643555</ele>
        <time>2010-07-24T10:44:53Z</time>
      </trkpt>
      <trkpt lat="44.42462" lon="6.70732">
        <ele>1600.2519531</ele>
        <time>2010-07-24T10:45:00Z</time>
      </trkpt>
      <trkpt lat="44.42465" lon="6.70722">
        <ele>1606.980957</ele>
        <time>2010-07-24T10:45:07Z</time>
      </trkpt>
      <trkpt lat="44.42466" lon="6.70717">
        <ele>1609.3842773</ele>
        <time>2010-07-24T10:45:11Z</time>
      </trkpt>
      <trkpt lat="44.42472" lon="6.70711">
        <ele>1612.7490234</ele>
        <time>2010-07-24T10:45:16Z</time>
      </trkpt>
      <trkpt lat="44.42482" lon="6.70699">
        <ele>1616.5942383</ele>
        <time>2010-07-24T10:45:23Z</time>
      </trkpt>
      <trkpt lat="44.42488" lon="6.70689">
        <ele>1618.9975586</ele>
        <time>2010-07-24T10:45:28Z</time>
      </trkpt>
      <trkpt lat="44.4249" lon="6.70686">
        <ele>1620.4394531</ele>
        <time>2010-07-24T10:45:30Z</time>
      </trkpt>
      <trkpt lat="44.42494" lon="6.70677">
        <ele>1625.7265625</ele>
        <time>2010-07-24T10:45:37Z</time>
      </trkpt>
      <trkpt lat="44.42496" lon="6.70672">
        <ele>1627.1687012</ele>
        <time>2010-07-24T10:45:44Z</time>
      </trkpt>
      <trkpt lat="44.42498" lon="6.70668">
        <ele>1630.5334473</ele>
        <time>2010-07-24T10:45:48Z</time>
      </trkpt>
      <trkpt lat="44.42504" lon="6.70666">
        <ele>1628.6108398</ele>
        <time>2010-07-24T10:45:54Z</time>
      </trkpt>
      <trkpt lat="44.42515" lon="6.70661">
        <ele>1623.8039551</ele>
        <time>2010-07-24T10:46:03Z</time>
      </trkpt>
      <trkpt lat="44.42515" lon="6.70651">
        <ele>1628.6108398</ele>
        <time>2010-07-24T10:46:09Z</time>
      </trkpt>
      <trkpt lat="44.42516" lon="6.70646">
        <ele>1627.6491699</ele>
        <time>2010-07-24T10:46:14Z</time>
      </trkpt>
      <trkpt lat="44.42519" lon="6.70641">
        <ele>1629.0913086</ele>
        <time>2010-07-24T10:46:19Z</time>
      </trkpt>
      <trkpt lat="44.42519" lon="6.70634">
        <ele>1630.5334473</ele>
        <time>2010-07-24T10:46:26Z</time>
      </trkpt>
      <trkpt lat="44.4252" lon="6.70619">
        <ele>1632.4560547</ele>
        <time>2010-07-24T10:46:32Z</time>
      </trkpt>
      <trkpt lat="44.42526" lon="6.70603">
        <ele>1633.4172363</ele>
        <time>2010-07-24T10:46:38Z</time>
      </trkpt>
      <trkpt lat="44.42517" lon="6.70596">
        <ele>1643.0302734</ele>
        <time>2010-07-24T10:46:45Z</time>
      </trkpt>
      <trkpt lat="44.42511" lon="6.70597">
        <ele>1645.4338379</ele>
        <time>2010-07-24T10:46:50Z</time>
      </trkpt>
      <trkpt lat="44.42505" lon="6.70586">
        <ele>1652.1628418</ele>
        <time>2010-07-24T10:47:00Z</time>
      </trkpt>
      <trkpt lat="44.42506" lon="6.70579">
        <ele>1656.9694824</ele>
        <time>2010-07-24T10:47:04Z</time>
      </trkpt>
      <trkpt lat="44.42518" lon="6.70579">
        <ele>1657.4501953</ele>
        <time>2010-07-24T10:47:11Z</time>
      </trkpt>
      <trkpt lat="44.42527" lon="6.70577">
        <ele>1660.3342285</ele>
        <time>2010-07-24T10:47:27Z</time>
      </trkpt>
      <trkpt lat="44.42526" lon="6.70577">
        <ele>1656.9694824</ele>
        <time>2010-07-24T10:47:33Z</time>
      </trkpt>
      <trkpt lat="44.42519" lon="6.70568">
        <ele>1643.9916992</ele>
        <time>2010-07-24T10:48:00Z</time>
      </trkpt>
      <trkpt lat="44.42519" lon="6.7056">
        <ele>1642.5498047</ele>
        <time>2010-07-24T10:48:06Z</time>
      </trkpt>
      <trkpt lat="44.42519" lon="6.70551">
        <ele>1644.953125</ele>
        <time>2010-07-24T10:48:14Z</time>
      </trkpt>
      <trkpt lat="44.42516" lon="6.70546">
        <ele>1645.9145508</ele>
        <time>2010-07-24T10:48:22Z</time>
      </trkpt>
      <trkpt lat="44.42512" lon="6.70545">
        <ele>1649.2790527</ele>
        <time>2010-07-24T10:48:28Z</time>
      </trkpt>
      <trkpt lat="44.42514" lon="6.70539">
        <ele>1652.1628418</ele>
        <time>2010-07-24T10:48:36Z</time>
      </trkpt>
      <trkpt lat="44.4252" lon="6.70538">
        <ele>1652.1628418</ele>
        <time>2010-07-24T10:48:42Z</time>
      </trkpt>
      <trkpt lat="44.42522" lon="6.70536">
        <ele>1653.1242676</ele>
        <time>2010-07-24T10:48:44Z</time>
      </trkpt>
      <trkpt lat="44.42522" lon="6.70525">
        <ele>1657.9309082</ele>
        <time>2010-07-24T10:48:50Z</time>
      </trkpt>
      <trkpt lat="44.42522" lon="6.7052">
        <ele>1661.7763672</ele>
        <time>2010-07-24T10:48:55Z</time>
      </trkpt>
      <trkpt lat="44.42525" lon="6.7052">
        <ele>1659.8532715</ele>
        <time>2010-07-24T10:49:02Z</time>
      </trkpt>
      <trkpt lat="44.4252" lon="6.70516">
        <ele>1665.1408691</ele>
        <time>2010-07-24T10:49:07Z</time>
      </trkpt>
      <trkpt lat="44.42523" lon="6.70511">
        <ele>1662.2568359</ele>
        <time>2010-07-24T10:49:12Z</time>
      </trkpt>
      <trkpt lat="44.42526" lon="6.70502">
        <ele>1663.2182617</ele>
        <time>2010-07-24T10:49:19Z</time>
      </trkpt>
      <trkpt lat="44.42526" lon="6.70493">
        <ele>1664.1794434</ele>
        <time>2010-07-24T10:49:27Z</time>
      </trkpt>
      <trkpt lat="44.42527" lon="6.70489">
        <ele>1664.6601562</ele>
        <time>2010-07-24T10:49:32Z</time>
      </trkpt>
      <trkpt lat="44.42534" lon="6.70489">
        <ele>1663.2182617</ele>
        <time>2010-07-24T10:49:38Z</time>
      </trkpt>
      <trkpt lat="44.42522" lon="6.70494">
        <ele>1665.1408691</ele>
        <time>2010-07-24T10:50:41Z</time>
      </trkpt>
      <trkpt lat="44.42525" lon="6.70487">
        <ele>1656.4887695</ele>
        <time>2010-07-24T10:51:13Z</time>
      </trkpt>
      <trkpt lat="44.42539" lon="6.70479">
        <ele>1660.3342285</ele>
        <time>2010-07-24T10:52:17Z</time>
      </trkpt>
      <trkpt lat="44.42544" lon="6.70477">
        <ele>1656.0080566</ele>
        <time>2010-07-24T10:52:23Z</time>
      </trkpt>
      <trkpt lat="44.42547" lon="6.70478">
        <ele>1652.1628418</ele>
        <time>2010-07-24T10:52:30Z</time>
      </trkpt>
      <trkpt lat="44.42547" lon="6.7047">
        <ele>1658.8920898</ele>
        <time>2010-07-24T10:52:39Z</time>
      </trkpt>
      <trkpt lat="44.42543" lon="6.70463">
        <ele>1662.7375488</ele>
        <time>2010-07-24T10:52:45Z</time>
      </trkpt>
      <trkpt lat="44.42543" lon="6.70451">
        <ele>1662.2568359</ele>
        <time>2010-07-24T10:52:52Z</time>
      </trkpt>
      <trkpt lat="44.4254" lon="6.70446">
        <ele>1658.8920898</ele>
        <time>2010-07-24T10:52:58Z</time>
      </trkpt>
      <trkpt lat="44.42543" lon="6.70444">
        <ele>1659.3728027</ele>
        <time>2010-07-24T10:53:04Z</time>
      </trkpt>
      <trkpt lat="44.42546" lon="6.70441">
        <ele>1657.4501953</ele>
        <time>2010-07-24T10:53:09Z</time>
      </trkpt>
      <trkpt lat="44.42546" lon="6.70437">
        <ele>1656.4887695</ele>
        <time>2010-07-24T10:53:14Z</time>
      </trkpt>
      <trkpt lat="44.42547" lon="6.70434">
        <ele>1659.3728027</ele>
        <time>2010-07-24T10:53:18Z</time>
      </trkpt>
      <trkpt lat="44.42549" lon="6.7043">
        <ele>1659.3728027</ele>
        <time>2010-07-24T10:53:24Z</time>
      </trkpt>
      <trkpt lat="44.42552" lon="6.70427">
        <ele>1664.1794434</ele>
        <time>2010-07-24T10:53:29Z</time>
      </trkpt>
      <trkpt lat="44.42556" lon="6.70425">
        <ele>1667.5439453</ele>
        <time>2010-07-24T10:53:34Z</time>
      </trkpt>
      <trkpt lat="44.42558" lon="6.70424">
        <ele>1668.986084</ele>
        <time>2010-07-24T10:53:38Z</time>
      </trkpt>
      <trkpt lat="44.42558" lon="6.70426">
        <ele>1670.9086914</ele>
        <time>2010-07-24T10:53:42Z</time>
      </trkpt>
      <trkpt lat="44.42562" lon="6.70427">
        <ele>1667.5439453</ele>
        <time>2010-07-24T10:53:52Z</time>
      </trkpt>
      <trkpt lat="44.4256" lon="6.70435">
        <ele>1668.5053711</ele>
        <time>2010-07-24T10:54:16Z</time>
      </trkpt>
      <trkpt lat="44.42557" lon="6.70432">
        <ele>1675.7150879</ele>
        <time>2010-07-24T10:54:23Z</time>
      </trkpt>
      <trkpt lat="44.4256" lon="6.70417">
        <ele>1680.5219727</ele>
        <time>2010-07-24T10:54:27Z</time>
      </trkpt>
      <trkpt lat="44.42568" lon="6.70409">
        <ele>1679.079834</ele>
        <time>2010-07-24T10:54:33Z</time>
      </trkpt>
      <trkpt lat="44.42577" lon="6.70404">
        <ele>1680.5219727</ele>
        <time>2010-07-24T10:54:39Z</time>
      </trkpt>
      <trkpt lat="44.42584" lon="6.70395">
        <ele>1677.6379395</ele>
        <time>2010-07-24T10:54:46Z</time>
      </trkpt>
      <trkpt lat="44.42587" lon="6.70392">
        <ele>1674.7539062</ele>
        <time>2010-07-24T10:54:51Z</time>
      </trkpt>
      <trkpt lat="44.42591" lon="6.70385">
        <ele>1675.234375</ele>
        <time>2010-07-24T10:54:58Z</time>
      </trkpt>
      <trkpt lat="44.42592" lon="6.70383">
        <ele>1675.234375</ele>
        <time>2010-07-24T10:55:00Z</time>
      </trkpt>
      <trkpt lat="44.42592" lon="6.70378">
        <ele>1674.7539062</ele>
        <time>2010-07-24T10:55:03Z</time>
      </trkpt>
      <trkpt lat="44.42591" lon="6.70374">
        <ele>1673.7924805</ele>
        <time>2010-07-24T10:55:06Z</time>
      </trkpt>
      <trkpt lat="44.42595" lon="6.70365">
        <ele>1674.7539062</ele>
        <time>2010-07-24T10:55:13Z</time>
      </trkpt>
      <trkpt lat="44.42595" lon="6.70361">
        <ele>1676.1960449</ele>
        <time>2010-07-24T10:55:18Z</time>
      </trkpt>
      <trkpt lat="44.42596" lon="6.70358">
        <ele>1677.6379395</ele>
        <time>2010-07-24T10:55:21Z</time>
      </trkpt>
      <trkpt lat="44.42593" lon="6.70352">
        <ele>1679.5605469</ele>
        <time>2010-07-24T10:55:28Z</time>
      </trkpt>
      <trkpt lat="44.42591" lon="6.7034">
        <ele>1679.5605469</ele>
        <time>2010-07-24T10:55:33Z</time>
      </trkpt>
      <trkpt lat="44.42581" lon="6.70317">
        <ele>1679.079834</ele>
        <time>2010-07-24T10:55:38Z</time>
      </trkpt>
      <trkpt lat="44.4258" lon="6.70313">
        <ele>1679.079834</ele>
        <time>2010-07-24T10:55:39Z</time>
      </trkpt>
      <trkpt lat="44.42572" lon="6.70304">
        <ele>1674.7539062</ele>
        <time>2010-07-24T10:55:45Z</time>
      </trkpt>
      <trkpt lat="44.42577" lon="6.703">
        <ele>1671.869873</ele>
        <time>2010-07-24T10:55:55Z</time>
      </trkpt>
      <trkpt lat="44.42576" lon="6.70295">
        <ele>1670.9086914</ele>
        <time>2010-07-24T10:55:58Z</time>
      </trkpt>
      <trkpt lat="44.42574" lon="6.70287">
        <ele>1671.3891602</ele>
        <time>2010-07-24T10:56:03Z</time>
      </trkpt>
      <trkpt lat="44.4257" lon="6.70283">
        <ele>1665.1408691</ele>
        <time>2010-07-24T10:56:07Z</time>
      </trkpt>
      <trkpt lat="44.42568" lon="6.70284">
        <ele>1653.1242676</ele>
        <time>2010-07-24T10:56:12Z</time>
      </trkpt>
      <trkpt lat="44.42564" lon="6.70285">
        <ele>1651.2016602</ele>
        <time>2010-07-24T10:56:26Z</time>
      </trkpt>
      <trkpt lat="44.42563" lon="6.70286">
        <ele>1651.682373</ele>
        <time>2010-07-24T10:56:33Z</time>
      </trkpt>
      <trkpt lat="44.42564" lon="6.70289">
        <ele>1655.046875</ele>
        <time>2010-07-24T10:56:35Z</time>
      </trkpt>
      <trkpt lat="44.4256" lon="6.70284">
        <ele>1655.5275879</ele>
        <time>2010-07-24T10:56:40Z</time>
      </trkpt>
      <trkpt lat="44.42558" lon="6.70284">
        <ele>1651.682373</ele>
        <time>2010-07-24T10:56:46Z</time>
      </trkpt>
      <trkpt lat="44.42552" lon="6.7028">
        <ele>1648.317627</ele>
        <time>2010-07-24T10:56:55Z</time>
      </trkpt>
      <trkpt lat="44.42546" lon="6.70274">
        <ele>1646.3952637</ele>
        <time>2010-07-24T10:57:00Z</time>
      </trkpt>
      <trkpt lat="44.42563" lon="6.70284">
        <ele>1631.9753418</ele>
        <time>2010-07-24T10:57:34Z</time>
      </trkpt>
      <trkpt lat="44.42556" lon="6.70282">
        <ele>1637.2624512</ele>
        <time>2010-07-24T10:57:39Z</time>
      </trkpt>
      <trkpt lat="44.42557" lon="6.70282">
        <ele>1647.3564453</ele>
        <time>2010-07-24T10:57:44Z</time>
      </trkpt>
      <trkpt lat="44.42557" lon="6.7028">
        <ele>1649.2790527</ele>
        <time>2010-07-24T10:57:48Z</time>
      </trkpt>
      <trkpt lat="44.42549" lon="6.7027">
        <ele>1643.9916992</ele>
        <time>2010-07-24T10:58:03Z</time>
      </trkpt>
      <trkpt lat="44.42545" lon="6.70265">
        <ele>1642.5498047</ele>
        <time>2010-07-24T10:58:09Z</time>
      </trkpt>
      <trkpt lat="44.42538" lon="6.70256">
        <ele>1643.9916992</ele>
        <time>2010-07-24T10:58:31Z</time>
      </trkpt>
      <trkpt lat="44.42551" lon="6.70272">
        <ele>1647.8371582</ele>
        <time>2010-07-24T10:59:34Z</time>
      </trkpt>
      <trkpt lat="44.42546" lon="6.70264">
        <ele>1648.317627</ele>
        <time>2010-07-24T10:59:40Z</time>
      </trkpt>
      <trkpt lat="44.42545" lon="6.70263">
        <ele>1648.7983398</ele>
        <time>2010-07-24T10:59:44Z</time>
      </trkpt>
      <trkpt lat="44.42555" lon="6.70258">
        <ele>1656.0080566</ele>
        <time>2010-07-24T11:00:02Z</time>
      </trkpt>
      <trkpt lat="44.42562" lon="6.70264">
        <ele>1662.2568359</ele>
        <time>2010-07-24T11:00:09Z</time>
      </trkpt>
      <trkpt lat="44.42556" lon="6.70255">
        <ele>1654.0856934</ele>
        <time>2010-07-24T11:00:25Z</time>
      </trkpt>
      <trkpt lat="44.42558" lon="6.70252">
        <ele>1651.682373</ele>
        <time>2010-07-24T11:00:37Z</time>
      </trkpt>
      <trkpt lat="44.42559" lon="6.70248">
        <ele>1651.2016602</ele>
        <time>2010-07-24T11:00:42Z</time>
      </trkpt>
      <trkpt lat="44.42577" lon="6.70256">
        <ele>1705.5161133</ele>
        <time>2010-07-24T11:00:58Z</time>
      </trkpt>
      <trkpt lat="44.42575" lon="6.70254">
        <ele>1697.3449707</ele>
        <time>2010-07-24T11:01:05Z</time>
      </trkpt>
      <trkpt lat="44.42558" lon="6.7025">
        <ele>1669.9472656</ele>
        <time>2010-07-24T11:01:14Z</time>
      </trkpt>
      <trkpt lat="44.42555" lon="6.70244">
        <ele>1657.9309082</ele>
        <time>2010-07-24T11:01:20Z</time>
      </trkpt>
      <trkpt lat="44.42554" lon="6.70242">
        <ele>1655.5275879</ele>
        <time>2010-07-24T11:01:22Z</time>
      </trkpt>
      <trkpt lat="44.4255" lon="6.70238">
        <ele>1651.2016602</ele>
        <time>2010-07-24T11:01:29Z</time>
      </trkpt>
      <trkpt lat="44.42547" lon="6.70235">
        <ele>1646.8757324</ele>
        <time>2010-07-24T11:01:33Z</time>
      </trkpt>
      <trkpt lat="44.42546" lon="6.70234">
        <ele>1645.9145508</ele>
        <time>2010-07-24T11:01:34Z</time>
      </trkpt>
      <trkpt lat="44.42544" lon="6.70234">
        <ele>1643.9916992</ele>
        <time>2010-07-24T11:01:36Z</time>
      </trkpt>
      <trkpt lat="44.42545" lon="6.70241">
        <ele>1645.9145508</ele>
        <time>2010-07-24T11:01:42Z</time>
      </trkpt>
      <trkpt lat="44.42544" lon="6.70242">
        <ele>1647.3564453</ele>
        <time>2010-07-24T11:01:44Z</time>
      </trkpt>
      <trkpt lat="44.42535" lon="6.70236">
        <ele>1649.7597656</ele>
        <time>2010-07-24T11:01:51Z</time>
      </trkpt>
      <trkpt lat="44.4253" lon="6.70234">
        <ele>1656.9694824</ele>
        <time>2010-07-24T11:01:56Z</time>
      </trkpt>
      <trkpt lat="44.42526" lon="6.70232">
        <ele>1663.6987305</ele>
        <time>2010-07-24T11:02:02Z</time>
      </trkpt>
      <trkpt lat="44.42523" lon="6.7023">
        <ele>1667.5439453</ele>
        <time>2010-07-24T11:02:07Z</time>
      </trkpt>
      <trkpt lat="44.42521" lon="6.70228">
        <ele>1671.3891602</ele>
        <time>2010-07-24T11:02:18Z</time>
      </trkpt>
      <trkpt lat="44.42514" lon="6.70212">
        <ele>1659.8532715</ele>
        <time>2010-07-24T11:02:24Z</time>
      </trkpt>
      <trkpt lat="44.42513" lon="6.7021">
        <ele>1659.3728027</ele>
        <time>2010-07-24T11:02:28Z</time>
      </trkpt>
      <trkpt lat="44.4251" lon="6.7021">
        <ele>1661.7763672</ele>
        <time>2010-07-24T11:02:34Z</time>
      </trkpt>
      <trkpt lat="44.42509" lon="6.70212">
        <ele>1666.5827637</ele>
        <time>2010-07-24T11:02:38Z</time>
      </trkpt>
      <trkpt lat="44.42499" lon="6.70205">
        <ele>1675.7150879</ele>
        <time>2010-07-24T11:02:46Z</time>
      </trkpt>
      <trkpt lat="44.42499" lon="6.70216">
        <ele>1692.0578613</ele>
        <time>2010-07-24T11:02:55Z</time>
      </trkpt>
      <trkpt lat="44.42497" lon="6.70212">
        <ele>1697.3449707</ele>
        <time>2010-07-24T11:03:04Z</time>
      </trkpt>
      <trkpt lat="44.42491" lon="6.70205">
        <ele>1690.6154785</ele>
        <time>2010-07-24T11:03:08Z</time>
      </trkpt>
      <trkpt lat="44.42483" lon="6.70202">
        <ele>1689.6542969</ele>
        <time>2010-07-24T11:03:15Z</time>
      </trkpt>
      <trkpt lat="44.42478" lon="6.70207">
        <ele>1692.5385742</ele>
        <time>2010-07-24T11:03:20Z</time>
      </trkpt>
      <trkpt lat="44.42471" lon="6.70207">
        <ele>1681.9638672</ele>
        <time>2010-07-24T11:03:26Z</time>
      </trkpt>
      <trkpt lat="44.42462" lon="6.70208">
        <ele>1675.234375</ele>
        <time>2010-07-24T11:03:33Z</time>
      </trkpt>
      <trkpt lat="44.4246" lon="6.70206">
        <ele>1665.621582</ele>
        <time>2010-07-24T11:03:39Z</time>
      </trkpt>
      <trkpt lat="44.42451" lon="6.70205">
        <ele>1659.8532715</ele>
        <time>2010-07-24T11:03:51Z</time>
      </trkpt>
      <trkpt lat="44.42443" lon="6.70206">
        <ele>1659.8532715</ele>
        <time>2010-07-24T11:03:57Z</time>
      </trkpt>
      <trkpt lat="44.42432" lon="6.70204">
        <ele>1657.9309082</ele>
        <time>2010-07-24T11:04:04Z</time>
      </trkpt>
      <trkpt lat="44.42425" lon="6.70206">
        <ele>1665.1408691</ele>
        <time>2010-07-24T11:04:09Z</time>
      </trkpt>
      <trkpt lat="44.42417" lon="6.70205">
        <ele>1676.1960449</ele>
        <time>2010-07-24T11:04:16Z</time>
      </trkpt>
      <trkpt lat="44.42405" lon="6.70204">
        <ele>1677.6379395</ele>
        <time>2010-07-24T11:04:23Z</time>
      </trkpt>
      <trkpt lat="44.42396" lon="6.702">
        <ele>1681.4831543</ele>
        <time>2010-07-24T11:04:30Z</time>
      </trkpt>
      <trkpt lat="44.42393" lon="6.70198">
        <ele>1684.3671875</ele>
        <time>2010-07-24T11:04:32Z</time>
      </trkpt>
      <trkpt lat="44.42379" lon="6.70197">
        <ele>1683.4057617</ele>
        <time>2010-07-24T11:04:40Z</time>
      </trkpt>
      <trkpt lat="44.4238" lon="6.702">
        <ele>1690.1350098</ele>
        <time>2010-07-24T11:04:45Z</time>
      </trkpt>
      <trkpt lat="44.42381" lon="6.70196">
        <ele>1687.2509766</ele>
        <time>2010-07-24T11:05:04Z</time>
      </trkpt>
      <trkpt lat="44.42379" lon="6.70196">
        <ele>1685.809082</ele>
        <time>2010-07-24T11:05:08Z</time>
      </trkpt>
      <trkpt lat="44.42373" lon="6.70196">
        <ele>1687.7316895</ele>
        <time>2010-07-24T11:05:13Z</time>
      </trkpt>
      <trkpt lat="44.42362" lon="6.70179">
        <ele>1683.4057617</ele>
        <time>2010-07-24T11:05:40Z</time>
      </trkpt>
      <trkpt lat="44.42355" lon="6.70174">
        <ele>1684.8479004</ele>
        <time>2010-07-24T11:05:45Z</time>
      </trkpt>
      <trkpt lat="44.42344" lon="6.70186">
        <ele>1699.2675781</ele>
        <time>2010-07-24T11:05:54Z</time>
      </trkpt>
      <trkpt lat="44.42336" lon="6.70184">
        <ele>1700.7094727</ele>
        <time>2010-07-24T11:06:00Z</time>
      </trkpt>
      <trkpt lat="44.42326" lon="6.70182">
        <ele>1694.9416504</ele>
        <time>2010-07-24T11:06:07Z</time>
      </trkpt>
      <trkpt lat="44.42313" lon="6.70179">
        <ele>1689.173584</ele>
        <time>2010-07-24T11:06:15Z</time>
      </trkpt>
      <trkpt lat="44.42305" lon="6.70179">
        <ele>1689.6542969</ele>
        <time>2010-07-24T11:06:22Z</time>
      </trkpt>
      <trkpt lat="44.42297" lon="6.70178">
        <ele>1695.4223633</ele>
        <time>2010-07-24T11:06:30Z</time>
      </trkpt>
      <trkpt lat="44.42289" lon="6.70175">
        <ele>1703.5935059</ele>
        <time>2010-07-24T11:06:37Z</time>
      </trkpt>
      <trkpt lat="44.42279" lon="6.70175">
        <ele>1710.3227539</ele>
        <time>2010-07-24T11:06:45Z</time>
      </trkpt>
      <trkpt lat="44.42269" lon="6.70177">
        <ele>1717.052002</ele>
        <time>2010-07-24T11:06:54Z</time>
      </trkpt>
      <trkpt lat="44.42258" lon="6.70177">
        <ele>1714.6486816</ele>
        <time>2010-07-24T11:07:02Z</time>
      </trkpt>
      <trkpt lat="44.42247" lon="6.7017">
        <ele>1707.9194336</ele>
        <time>2010-07-24T11:07:09Z</time>
      </trkpt>
      <trkpt lat="44.42239" lon="6.70164">
        <ele>1706.4772949</ele>
        <time>2010-07-24T11:07:16Z</time>
      </trkpt>
      <trkpt lat="44.42233" lon="6.70156">
        <ele>1706.4772949</ele>
        <time>2010-07-24T11:07:23Z</time>
      </trkpt>
      <trkpt lat="44.42233" lon="6.70154">
        <ele>1705.996582</ele>
        <time>2010-07-24T11:07:25Z</time>
      </trkpt>
      <trkpt lat="44.42231" lon="6.7015">
        <ele>1706.4772949</ele>
        <time>2010-07-24T11:07:28Z</time>
      </trkpt>
      <trkpt lat="44.42226" lon="6.70138">
        <ele>1707.9194336</ele>
        <time>2010-07-24T11:07:35Z</time>
      </trkpt>
      <trkpt lat="44.42223" lon="6.70124">
        <ele>1712.7260742</ele>
        <time>2010-07-24T11:07:43Z</time>
      </trkpt>
      <trkpt lat="44.42223" lon="6.7011">
        <ele>1717.052002</ele>
        <time>2010-07-24T11:07:51Z</time>
      </trkpt>
      <trkpt lat="44.42223" lon="6.70095">
        <ele>1725.7038574</ele>
        <time>2010-07-24T11:08:01Z</time>
      </trkpt>
      <trkpt lat="44.42221" lon="6.70092">
        <ele>1722.8198242</ele>
        <time>2010-07-24T11:08:05Z</time>
      </trkpt>
      <trkpt lat="44.42221" lon="6.7009">
        <ele>1723.3005371</ele>
        <time>2010-07-24T11:08:19Z</time>
      </trkpt>
      <trkpt lat="44.42227" lon="6.70085">
        <ele>1718.4938965</ele>
        <time>2010-07-24T11:08:28Z</time>
      </trkpt>
      <trkpt lat="44.42236" lon="6.70087">
        <ele>1726.6652832</ele>
        <time>2010-07-24T11:09:09Z</time>
      </trkpt>
      <trkpt lat="44.42225" lon="6.70085">
        <ele>1722.8198242</ele>
        <time>2010-07-24T11:09:36Z</time>
      </trkpt>
      <trkpt lat="44.42224" lon="6.70076">
        <ele>1728.5878906</ele>
        <time>2010-07-24T11:09:45Z</time>
      </trkpt>
      <trkpt lat="44.42224" lon="6.70065">
        <ele>1728.5878906</ele>
        <time>2010-07-24T11:09:51Z</time>
      </trkpt>
      <trkpt lat="44.42226" lon="6.70051">
        <ele>1730.510498</ele>
        <time>2010-07-24T11:09:58Z</time>
      </trkpt>
      <trkpt lat="44.42225" lon="6.70038">
        <ele>1729.0683594</ele>
        <time>2010-07-24T11:10:04Z</time>
      </trkpt>
      <trkpt lat="44.42226" lon="6.70027">
        <ele>1733.875</ele>
        <time>2010-07-24T11:10:10Z</time>
      </trkpt>
      <trkpt lat="44.42224" lon="6.7002">
        <ele>1741.5656738</ele>
        <time>2010-07-24T11:10:15Z</time>
      </trkpt>
      <trkpt lat="44.42215" lon="6.70005">
        <ele>1737.239502</ele>
        <time>2010-07-24T11:10:23Z</time>
      </trkpt>
      <trkpt lat="44.42212" lon="6.69996">
        <ele>1737.239502</ele>
        <time>2010-07-24T11:10:29Z</time>
      </trkpt>
      <trkpt lat="44.4221" lon="6.69988">
        <ele>1735.7976074</ele>
        <time>2010-07-24T11:10:35Z</time>
      </trkpt>
      <trkpt lat="44.42206" lon="6.69981">
        <ele>1737.239502</ele>
        <time>2010-07-24T11:10:40Z</time>
      </trkpt>
      <trkpt lat="44.42208" lon="6.69972">
        <ele>1731.4716797</ele>
        <time>2010-07-24T11:10:47Z</time>
      </trkpt>
      <trkpt lat="44.42212" lon="6.69973">
        <ele>1735.3168945</ele>
        <time>2010-07-24T11:10:54Z</time>
      </trkpt>
      <trkpt lat="44.42222" lon="6.69978">
        <ele>1736.2783203</ele>
        <time>2010-07-24T11:11:03Z</time>
      </trkpt>
      <trkpt lat="44.42228" lon="6.69981">
        <ele>1736.7587891</ele>
        <time>2010-07-24T11:11:08Z</time>
      </trkpt>
      <trkpt lat="44.42231" lon="6.69985">
        <ele>1735.3168945</ele>
        <time>2010-07-24T11:11:14Z</time>
      </trkpt>
      <trkpt lat="44.42236" lon="6.69986">
        <ele>1718.0131836</ele>
        <time>2010-07-24T11:11:31Z</time>
      </trkpt>
      <trkpt lat="44.42236" lon="6.6999">
        <ele>1711.2841797</ele>
        <time>2010-07-24T11:11:49Z</time>
      </trkpt>
      <trkpt lat="44.42235" lon="6.69991">
        <ele>1710.8034668</ele>
        <time>2010-07-24T11:12:02Z</time>
      </trkpt>
      <trkpt lat="44.42234" lon="6.6999">
        <ele>1712.7260742</ele>
        <time>2010-07-24T11:12:15Z</time>
      </trkpt>
      <trkpt lat="44.42235" lon="6.6999">
        <ele>1711.2841797</ele>
        <time>2010-07-24T11:12:36Z</time>
      </trkpt>
      <trkpt lat="44.42236" lon="6.69989">
        <ele>1711.7648926</ele>
        <time>2010-07-24T11:13:32Z</time>
      </trkpt>
      <trkpt lat="44.42229" lon="6.69984">
        <ele>1715.6101074</ele>
        <time>2010-07-24T11:14:50Z</time>
      </trkpt>
      <trkpt lat="44.42232" lon="6.69984">
        <ele>1717.5324707</ele>
        <time>2010-07-24T11:16:36Z</time>
      </trkpt>
      <trkpt lat="44.42234" lon="6.6999">
        <ele>1715.6101074</ele>
        <time>2010-07-24T11:19:13Z</time>
      </trkpt>
      <trkpt lat="44.4224" lon="6.69997">
        <ele>1698.7868652</ele>
        <time>2010-07-24T11:19:24Z</time>
      </trkpt>
      <trkpt lat="44.42242" lon="6.69996">
        <ele>1694.9416504</ele>
        <time>2010-07-24T11:19:37Z</time>
      </trkpt>
      <trkpt lat="44.42236" lon="6.6999">
        <ele>1714.6486816</ele>
        <time>2010-07-24T11:20:03Z</time>
      </trkpt>
      <trkpt lat="44.42235" lon="6.69991">
        <ele>1714.6486816</ele>
        <time>2010-07-24T11:20:17Z</time>
      </trkpt>
      <trkpt lat="44.42243" lon="6.69993">
        <ele>1693.019043</ele>
        <time>2010-07-24T11:20:37Z</time>
      </trkpt>
      <trkpt lat="44.42248" lon="6.69993">
        <ele>1681.4831543</ele>
        <time>2010-07-24T11:20:48Z</time>
      </trkpt>
      <trkpt lat="44.42251" lon="6.69993">
        <ele>1675.7150879</ele>
        <time>2010-07-24T11:21:02Z</time>
      </trkpt>
      <trkpt lat="44.42235" lon="6.69995">
        <ele>1708.4001465</ele>
        <time>2010-07-24T11:21:40Z</time>
      </trkpt>
      <trkpt lat="44.42228" lon="6.69997">
        <ele>1723.7810059</ele>
        <time>2010-07-24T11:21:57Z</time>
      </trkpt>
      <trkpt lat="44.42224" lon="6.7">
        <ele>1728.5878906</ele>
        <time>2010-07-24T11:22:12Z</time>
      </trkpt>
      <trkpt lat="44.4223" lon="6.69997">
        <ele>1718.9746094</ele>
        <time>2010-07-24T11:22:25Z</time>
      </trkpt>
      <trkpt lat="44.42226" lon="6.69997">
        <ele>1727.1459961</ele>
        <time>2010-07-24T11:22:47Z</time>
      </trkpt>
      <trkpt lat="44.42224" lon="6.69996">
        <ele>1732.4331055</ele>
        <time>2010-07-24T11:22:59Z</time>
      </trkpt>
      <trkpt lat="44.42223" lon="6.69991">
        <ele>1744.9301758</ele>
        <time>2010-07-24T11:24:50Z</time>
      </trkpt>
      <trkpt lat="44.42239" lon="6.7001">
        <ele>1692.5385742</ele>
        <time>2010-07-24T11:25:27Z</time>
      </trkpt>
      <trkpt lat="44.42241" lon="6.70008">
        <ele>1693.4997559</ele>
        <time>2010-07-24T11:25:42Z</time>
      </trkpt>
      <trkpt lat="44.42238" lon="6.69999">
        <ele>1705.0354004</ele>
        <time>2010-07-24T11:26:14Z</time>
      </trkpt>
      <trkpt lat="44.42244" lon="6.69999">
        <ele>1690.6154785</ele>
        <time>2010-07-24T11:26:25Z</time>
      </trkpt>
      <trkpt lat="44.42247" lon="6.69996">
        <ele>1685.809082</ele>
        <time>2010-07-24T11:26:35Z</time>
      </trkpt>
      <trkpt lat="44.42236" lon="6.69988">
        <ele>1715.1293945</ele>
        <time>2010-07-24T11:26:47Z</time>
      </trkpt>
      <trkpt lat="44.42221" lon="6.69983">
        <ele>1755.5046387</ele>
        <time>2010-07-24T11:27:05Z</time>
      </trkpt>
      <trkpt lat="44.42227" lon="6.69979">
        <ele>1741.0849609</ele>
        <time>2010-07-24T11:27:22Z</time>
      </trkpt>
      <trkpt lat="44.4223" lon="6.69982">
        <ele>1725.7038574</ele>
        <time>2010-07-24T11:28:14Z</time>
      </trkpt>
      <trkpt lat="44.42232" lon="6.69984">
        <ele>1720.4165039</ele>
        <time>2010-07-24T11:28:27Z</time>
      </trkpt>
      <trkpt lat="44.42227" lon="6.69982">
        <ele>1734.8364258</ele>
        <time>2010-07-24T11:28:48Z</time>
      </trkpt>
      <trkpt lat="44.42235" lon="6.69986">
        <ele>1715.6101074</ele>
        <time>2010-07-24T11:29:25Z</time>
      </trkpt>
      <trkpt lat="44.42239" lon="6.69989">
        <ele>1698.7868652</ele>
        <time>2010-07-24T11:29:43Z</time>
      </trkpt>
      <trkpt lat="44.42237" lon="6.7">
        <ele>1696.3837891</ele>
        <time>2010-07-24T11:30:22Z</time>
      </trkpt>
      <trkpt lat="44.42227" lon="6.70002">
        <ele>1711.7648926</ele>
        <time>2010-07-24T11:30:49Z</time>
      </trkpt>
      <trkpt lat="44.42246" lon="6.69985">
        <ele>1682.4445801</ele>
        <time>2010-07-24T11:31:32Z</time>
      </trkpt>
      <trkpt lat="44.42237" lon="6.69989">
        <ele>1710.3227539</ele>
        <time>2010-07-24T11:31:59Z</time>
      </trkpt>
      <trkpt lat="44.42251" lon="6.69991">
        <ele>1677.6379395</ele>
        <time>2010-07-24T11:32:24Z</time>
      </trkpt>
      <trkpt lat="44.42244" lon="6.69987">
        <ele>1697.8256836</ele>
        <time>2010-07-24T11:32:36Z</time>
      </trkpt>
      <trkpt lat="44.42232" lon="6.69979">
        <ele>1733.3942871</ele>
        <time>2010-07-24T11:32:48Z</time>
      </trkpt>
      <trkpt lat="44.42226" lon="6.69977">
        <ele>1751.1787109</ele>
        <time>2010-07-24T11:33:01Z</time>
      </trkpt>
      <trkpt lat="44.42226" lon="6.69977">
        <ele>1753.5820312</ele>
        <time>2010-07-24T11:33:13Z</time>
      </trkpt>
      <trkpt lat="44.42236" lon="6.69982">
        <ele>1730.0297852</ele>
        <time>2010-07-24T11:34:01Z</time>
      </trkpt>
      <trkpt lat="44.42244" lon="6.69983">
        <ele>1703.5935059</ele>
        <time>2010-07-24T11:34:16Z</time>
      </trkpt>
      <trkpt lat="44.42253" lon="6.6998">
        <ele>1686.7702637</ele>
        <time>2010-07-24T11:34:36Z</time>
      </trkpt>
      <trkpt lat="44.42257" lon="6.69977">
        <ele>1679.5605469</ele>
        <time>2010-07-24T11:34:47Z</time>
      </trkpt>
      <trkpt lat="44.42251" lon="6.69981">
        <ele>1687.7316895</ele>
        <time>2010-07-24T11:34:57Z</time>
      </trkpt>
      <trkpt lat="44.42243" lon="6.69985">
        <ele>1700.7094727</ele>
        <time>2010-07-24T11:35:10Z</time>
      </trkpt>
      <trkpt lat="44.42248" lon="6.69978">
        <ele>1701.6708984</ele>
        <time>2010-07-24T11:35:39Z</time>
      </trkpt>
      <trkpt lat="44.42241" lon="6.69979">
        <ele>1719.935791</ele>
        <time>2010-07-24T11:36:20Z</time>
      </trkpt>
      <trkpt lat="44.42227" lon="6.69988">
        <ele>1747.3334961</ele>
        <time>2010-07-24T11:36:48Z</time>
      </trkpt>
      <trkpt lat="44.4222" lon="6.69993">
        <ele>1753.5820312</ele>
        <time>2010-07-24T11:37:13Z</time>
      </trkpt>
      <trkpt lat="44.42236" lon="6.69998">
        <ele>1721.3776855</ele>
        <time>2010-07-24T11:38:14Z</time>
      </trkpt>
      <trkpt lat="44.4224" lon="6.69998">
        <ele>1710.3227539</ele>
        <time>2010-07-24T11:38:28Z</time>
      </trkpt>
      <trkpt lat="44.42238" lon="6.69997">
        <ele>1719.4553223</ele>
        <time>2010-07-24T11:38:54Z</time>
      </trkpt>
      <trkpt lat="44.42223" lon="6.69985">
        <ele>1757.4274902</ele>
        <time>2010-07-24T11:39:27Z</time>
      </trkpt>
      <trkpt lat="44.42222" lon="6.69985">
        <ele>1757.9082031</ele>
        <time>2010-07-24T11:39:39Z</time>
      </trkpt>
      <trkpt lat="44.4222" lon="6.69981">
        <ele>1759.3500977</ele>
        <time>2010-07-24T11:41:01Z</time>
      </trkpt>
      <trkpt lat="44.42221" lon="6.6998">
        <ele>1758.8693848</ele>
        <time>2010-07-24T11:41:11Z</time>
      </trkpt>
      <trkpt lat="44.4222" lon="6.69981">
        <ele>1757.9082031</ele>
        <time>2010-07-24T11:41:17Z</time>
      </trkpt>
      <trkpt lat="44.42219" lon="6.6998">
        <ele>1751.6594238</ele>
        <time>2010-07-24T11:41:27Z</time>
      </trkpt>
      <trkpt lat="44.42223" lon="6.69992">
        <ele>1746.8527832</ele>
        <time>2010-07-24T11:41:51Z</time>
      </trkpt>
      <trkpt lat="44.42225" lon="6.69992">
        <ele>1744.4494629</ele>
        <time>2010-07-24T11:41:52Z</time>
      </trkpt>
      <trkpt lat="44.42238" lon="6.69998">
        <ele>1736.7587891</ele>
        <time>2010-07-24T11:42:00Z</time>
      </trkpt>
      <trkpt lat="44.42243" lon="6.70004">
        <ele>1741.5656738</ele>
        <time>2010-07-24T11:42:06Z</time>
      </trkpt>
      <trkpt lat="44.42249" lon="6.70012">
        <ele>1746.8527832</ele>
        <time>2010-07-24T11:42:12Z</time>
      </trkpt>
      <trkpt lat="44.42252" lon="6.70013">
        <ele>1749.7368164</ele>
        <time>2010-07-24T11:42:17Z</time>
      </trkpt>
      <trkpt lat="44.42253" lon="6.70019">
        <ele>1753.5820312</ele>
        <time>2010-07-24T11:42:24Z</time>
      </trkpt>
      <trkpt lat="44.42256" lon="6.70025">
        <ele>1751.6594238</ele>
        <time>2010-07-24T11:42:28Z</time>
      </trkpt>
      <trkpt lat="44.4226" lon="6.70032">
        <ele>1757.4274902</ele>
        <time>2010-07-24T11:42:33Z</time>
      </trkpt>
      <trkpt lat="44.42269" lon="6.70043">
        <ele>1752.1398926</ele>
        <time>2010-07-24T11:42:41Z</time>
      </trkpt>
      <trkpt lat="44.42275" lon="6.70048">
        <ele>1757.4274902</ele>
        <time>2010-07-24T11:42:47Z</time>
      </trkpt>
      <trkpt lat="44.42287" lon="6.70051">
        <ele>1753.1013184</ele>
        <time>2010-07-24T11:42:56Z</time>
      </trkpt>
      <trkpt lat="44.42298" lon="6.70047">
        <ele>1744.9301758</ele>
        <time>2010-07-24T11:43:04Z</time>
      </trkpt>
      <trkpt lat="44.42301" lon="6.70046">
        <ele>1751.6594238</ele>
        <time>2010-07-24T11:43:09Z</time>
      </trkpt>
      <trkpt lat="44.42309" lon="6.70047">
        <ele>1762.2338867</ele>
        <time>2010-07-24T11:43:17Z</time>
      </trkpt>
      <trkpt lat="44.42319" lon="6.70043">
        <ele>1750.697998</ele>
        <time>2010-07-24T11:43:24Z</time>
      </trkpt>
      <trkpt lat="44.42321" lon="6.70044">
        <ele>1753.1013184</ele>
        <time>2010-07-24T11:43:31Z</time>
      </trkpt>
      <trkpt lat="44.42328" lon="6.70031">
        <ele>1783.8635254</ele>
        <time>2010-07-24T11:43:57Z</time>
      </trkpt>
      <trkpt lat="44.42329" lon="6.70031">
        <ele>1798.2832031</ele>
        <time>2010-07-24T11:44:05Z</time>
      </trkpt>
      <trkpt lat="44.42331" lon="6.70028">
        <ele>1795.880127</ele>
        <time>2010-07-24T11:44:12Z</time>
      </trkpt>
      <trkpt lat="44.42336" lon="6.70029">
        <ele>1778.0957031</ele>
        <time>2010-07-24T11:44:19Z</time>
      </trkpt>
      <trkpt lat="44.42336" lon="6.70033">
        <ele>1771.8469238</ele>
        <time>2010-07-24T11:44:25Z</time>
      </trkpt>
      <trkpt lat="44.42337" lon="6.70034">
        <ele>1780.0183105</ele>
        <time>2010-07-24T11:44:31Z</time>
      </trkpt>
      <trkpt lat="44.42345" lon="6.7003">
        <ele>1784.3442383</ele>
        <time>2010-07-24T11:44:38Z</time>
      </trkpt>
      <trkpt lat="44.42348" lon="6.70028">
        <ele>1786.7473145</ele>
        <time>2010-07-24T11:44:44Z</time>
      </trkpt>
      <trkpt lat="44.42353" lon="6.70026">
        <ele>1786.7473145</ele>
        <time>2010-07-24T11:44:50Z</time>
      </trkpt>
      <trkpt lat="44.42363" lon="6.70023">
        <ele>1781.4602051</ele>
        <time>2010-07-24T11:44:58Z</time>
      </trkpt>
      <trkpt lat="44.42364" lon="6.70021">
        <ele>1771.3662109</ele>
        <time>2010-07-24T11:45:04Z</time>
      </trkpt>
      <trkpt lat="44.42363" lon="6.70024">
        <ele>1767.0405273</ele>
        <time>2010-07-24T11:45:10Z</time>
      </trkpt>
      <trkpt lat="44.42372" lon="6.70027">
        <ele>1762.2338867</ele>
        <time>2010-07-24T11:45:18Z</time>
      </trkpt>
      <trkpt lat="44.42375" lon="6.70024">
        <ele>1757.9082031</ele>
        <time>2010-07-24T11:45:20Z</time>
      </trkpt>
      <trkpt lat="44.42384" lon="6.70015">
        <ele>1756.4660645</ele>
        <time>2010-07-24T11:45:28Z</time>
      </trkpt>
      <trkpt lat="44.42389" lon="6.7001">
        <ele>1764.1564941</ele>
        <time>2010-07-24T11:45:37Z</time>
      </trkpt>
      <trkpt lat="44.42398" lon="6.70004">
        <ele>1767.0405273</ele>
        <time>2010-07-24T11:45:58Z</time>
      </trkpt>
      <trkpt lat="44.42392" lon="6.69993">
        <ele>1771.3662109</ele>
        <time>2010-07-24T11:46:05Z</time>
      </trkpt>
      <trkpt lat="44.42387" lon="6.6999">
        <ele>1778.576416</ele>
        <time>2010-07-24T11:46:10Z</time>
      </trkpt>
      <trkpt lat="44.42376" lon="6.69989">
        <ele>1797.8027344</ele>
        <time>2010-07-24T11:46:17Z</time>
      </trkpt>
      <trkpt lat="44.42364" lon="6.69993">
        <ele>1819.432373</ele>
        <time>2010-07-24T11:46:26Z</time>
      </trkpt>
      <trkpt lat="44.42358" lon="6.69982">
        <ele>1817.9902344</ele>
        <time>2010-07-24T11:46:33Z</time>
      </trkpt>
      <trkpt lat="44.42351" lon="6.69972">
        <ele>1807.4160156</ele>
        <time>2010-07-24T11:46:40Z</time>
      </trkpt>
      <trkpt lat="44.42346" lon="6.6997">
        <ele>1808.3771973</ele>
        <time>2010-07-24T11:46:45Z</time>
      </trkpt>
      <trkpt lat="44.42343" lon="6.69963">
        <ele>1802.6091309</ele>
        <time>2010-07-24T11:46:49Z</time>
      </trkpt>
      <trkpt lat="44.42347" lon="6.69955">
        <ele>1798.2832031</ele>
        <time>2010-07-24T11:46:53Z</time>
      </trkpt>
      <trkpt lat="44.42358" lon="6.69959">
        <ele>1794.4379883</ele>
        <time>2010-07-24T11:47:02Z</time>
      </trkpt>
      <trkpt lat="44.42358" lon="6.69959">
        <ele>1794.4379883</ele>
        <time>2010-07-24T11:47:03Z</time>
      </trkpt>
      <trkpt lat="44.42362" lon="6.69959">
        <ele>1798.763916</ele>
        <time>2010-07-24T11:47:07Z</time>
      </trkpt>
      <trkpt lat="44.42362" lon="6.69959">
        <ele>1804.5319824</ele>
        <time>2010-07-24T11:47:12Z</time>
      </trkpt>
      <trkpt lat="44.42362" lon="6.69959">
        <ele>1805.4934082</ele>
        <time>2010-07-24T11:47:13Z</time>
      </trkpt>
      <trkpt lat="44.42366" lon="6.69959">
        <ele>1804.0515137</ele>
        <time>2010-07-24T11:47:18Z</time>
      </trkpt>
      <trkpt lat="44.42371" lon="6.69959">
        <ele>1805.0126953</ele>
        <time>2010-07-24T11:47:24Z</time>
      </trkpt>
      <trkpt lat="44.42379" lon="6.69958">
        <ele>1804.0515137</ele>
        <time>2010-07-24T11:47:29Z</time>
      </trkpt>
      <trkpt lat="44.42386" lon="6.6996">
        <ele>1798.2832031</ele>
        <time>2010-07-24T11:47:35Z</time>
      </trkpt>
      <trkpt lat="44.4239" lon="6.69964">
        <ele>1804.0515137</ele>
        <time>2010-07-24T11:47:40Z</time>
      </trkpt>
      <trkpt lat="44.42397" lon="6.69966">
        <ele>1804.5319824</ele>
        <time>2010-07-24T11:47:45Z</time>
      </trkpt>
      <trkpt lat="44.42401" lon="6.69965">
        <ele>1805.0126953</ele>
        <time>2010-07-24T11:47:49Z</time>
      </trkpt>
      <trkpt lat="44.42406" lon="6.69972">
        <ele>1812.703125</ele>
        <time>2010-07-24T11:47:55Z</time>
      </trkpt>
      <trkpt lat="44.42412" lon="6.69978">
        <ele>1811.2612305</ele>
        <time>2010-07-24T11:48:01Z</time>
      </trkpt>
      <trkpt lat="44.42419" lon="6.69981">
        <ele>1810.7805176</ele>
        <time>2010-07-24T11:48:06Z</time>
      </trkpt>
      <trkpt lat="44.42428" lon="6.69984">
        <ele>1812.2224121</ele>
        <time>2010-07-24T11:48:13Z</time>
      </trkpt>
      <trkpt lat="44.4243" lon="6.69983">
        <ele>1815.1064453</ele>
        <time>2010-07-24T11:48:15Z</time>
      </trkpt>
      <trkpt lat="44.42442" lon="6.69973">
        <ele>1804.5319824</ele>
        <time>2010-07-24T11:48:22Z</time>
      </trkpt>
      <trkpt lat="44.4245" lon="6.69975">
        <ele>1799.2446289</ele>
        <time>2010-07-24T11:48:29Z</time>
      </trkpt>
      <trkpt lat="44.42456" lon="6.69978">
        <ele>1801.1672363</ele>
        <time>2010-07-24T11:48:35Z</time>
      </trkpt>
      <trkpt lat="44.42459" lon="6.6998">
        <ele>1807.4160156</ele>
        <time>2010-07-24T11:48:39Z</time>
      </trkpt>
      <trkpt lat="44.42468" lon="6.69982">
        <ele>1817.9902344</ele>
        <time>2010-07-24T11:48:48Z</time>
      </trkpt>
      <trkpt lat="44.42476" lon="6.6998">
        <ele>1822.7971191</ele>
        <time>2010-07-24T11:48:55Z</time>
      </trkpt>
      <trkpt lat="44.42485" lon="6.69987">
        <ele>1830.9682617</ele>
        <time>2010-07-24T11:49:02Z</time>
      </trkpt>
      <trkpt lat="44.42494" lon="6.69989">
        <ele>1831.9294434</ele>
        <time>2010-07-24T11:49:07Z</time>
      </trkpt>
      <trkpt lat="44.42506" lon="6.6999">
        <ele>1830.0068359</ele>
        <time>2010-07-24T11:49:14Z</time>
      </trkpt>
      <trkpt lat="44.42516" lon="6.69978">
        <ele>1816.5483398</ele>
        <time>2010-07-24T11:49:21Z</time>
      </trkpt>
      <trkpt lat="44.42528" lon="6.69964">
        <ele>1810.7805176</ele>
        <time>2010-07-24T11:49:30Z</time>
      </trkpt>
      <trkpt lat="44.42528" lon="6.69957">
        <ele>1816.5483398</ele>
        <time>2010-07-24T11:49:37Z</time>
      </trkpt>
      <trkpt lat="44.42527" lon="6.69957">
        <ele>1817.5095215</ele>
        <time>2010-07-24T11:49:39Z</time>
      </trkpt>
      <trkpt lat="44.42517" lon="6.6997">
        <ele>1835.7746582</ele>
        <time>2010-07-24T11:49:46Z</time>
      </trkpt>
      <trkpt lat="44.42514" lon="6.69962">
        <ele>1824.2390137</ele>
        <time>2010-07-24T11:49:54Z</time>
      </trkpt>
      <trkpt lat="44.42511" lon="6.69957">
        <ele>1832.4101562</ele>
        <time>2010-07-24T11:49:59Z</time>
      </trkpt>
      <trkpt lat="44.42513" lon="6.69957">
        <ele>1847.7912598</ele>
        <time>2010-07-24T11:50:05Z</time>
      </trkpt>
      <trkpt lat="44.42514" lon="6.69959">
        <ele>1861.2497559</ele>
        <time>2010-07-24T11:50:12Z</time>
      </trkpt>
      <trkpt lat="44.42515" lon="6.69953">
        <ele>1858.3657227</ele>
        <time>2010-07-24T11:50:15Z</time>
      </trkpt>
      <trkpt lat="44.4252" lon="6.69943">
        <ele>1852.5979004</ele>
        <time>2010-07-24T11:50:21Z</time>
      </trkpt>
      <trkpt lat="44.42528" lon="6.69932">
        <ele>1851.1557617</ele>
        <time>2010-07-24T11:50:29Z</time>
      </trkpt>
      <trkpt lat="44.4253" lon="6.6993">
        <ele>1853.0786133</ele>
        <time>2010-07-24T11:50:33Z</time>
      </trkpt>
      <trkpt lat="44.42535" lon="6.69918">
        <ele>1851.1557617</ele>
        <time>2010-07-24T11:50:40Z</time>
      </trkpt>
      <trkpt lat="44.42537" lon="6.69916">
        <ele>1853.5593262</ele>
        <time>2010-07-24T11:50:46Z</time>
      </trkpt>
      <trkpt lat="44.42536" lon="6.69915">
        <ele>1855.4819336</ele>
        <time>2010-07-24T11:50:56Z</time>
      </trkpt>
      <trkpt lat="44.42538" lon="6.69915">
        <ele>1860.769043</ele>
        <time>2010-07-24T11:51:07Z</time>
      </trkpt>
      <trkpt lat="44.42539" lon="6.69916">
        <ele>1872.3049316</ele>
        <time>2010-07-24T11:51:13Z</time>
      </trkpt>
      <trkpt lat="44.42538" lon="6.69938">
        <ele>1928.5419922</ele>
        <time>2010-07-24T11:51:26Z</time>
      </trkpt>
      <trkpt lat="44.42545" lon="6.69933">
        <ele>1932.8679199</ele>
        <time>2010-07-24T11:51:32Z</time>
      </trkpt>
      <trkpt lat="44.42554" lon="6.69922">
        <ele>1922.7741699</ele>
        <time>2010-07-24T11:51:41Z</time>
      </trkpt>
      <trkpt lat="44.42561" lon="6.69908">
        <ele>1910.2768555</ele>
        <time>2010-07-24T11:51:49Z</time>
      </trkpt>
      <trkpt lat="44.42565" lon="6.69898">
        <ele>1901.1445312</ele>
        <time>2010-07-24T11:51:54Z</time>
      </trkpt>
      <trkpt lat="44.42568" lon="6.69889">
        <ele>1892.4926758</ele>
        <time>2010-07-24T11:51:58Z</time>
      </trkpt>
      <trkpt lat="44.42572" lon="6.6987">
        <ele>1871.8242188</ele>
        <time>2010-07-24T11:52:09Z</time>
      </trkpt>
      <trkpt lat="44.42573" lon="6.69855">
        <ele>1867.0175781</ele>
        <time>2010-07-24T11:52:16Z</time>
      </trkpt>
      <trkpt lat="44.42582" lon="6.69838">
        <ele>1856.9238281</ele>
        <time>2010-07-24T11:52:23Z</time>
      </trkpt>
      <trkpt lat="44.4259" lon="6.69832">
        <ele>1855.4819336</ele>
        <time>2010-07-24T11:52:28Z</time>
      </trkpt>
      <trkpt lat="44.42595" lon="6.69828">
        <ele>1850.1945801</ele>
        <time>2010-07-24T11:52:34Z</time>
      </trkpt>
      <trkpt lat="44.42596" lon="6.69833">
        <ele>1859.8076172</ele>
        <time>2010-07-24T11:52:42Z</time>
      </trkpt>
      <trkpt lat="44.42596" lon="6.6983">
        <ele>1857.404541</ele>
        <time>2010-07-24T11:52:49Z</time>
      </trkpt>
      <trkpt lat="44.42597" lon="6.69828">
        <ele>1884.3215332</ele>
        <time>2010-07-24T11:53:02Z</time>
      </trkpt>
      <trkpt lat="44.42588" lon="6.69823">
        <ele>1892.4926758</ele>
        <time>2010-07-24T11:53:07Z</time>
      </trkpt>
      <trkpt lat="44.42581" lon="6.69816">
        <ele>1897.2990723</ele>
        <time>2010-07-24T11:53:13Z</time>
      </trkpt>
      <trkpt lat="44.42587" lon="6.69807">
        <ele>1873.2663574</ele>
        <time>2010-07-24T11:53:22Z</time>
      </trkpt>
      <trkpt lat="44.42571" lon="6.69829">
        <ele>1884.8022461</ele>
        <time>2010-07-24T11:53:31Z</time>
      </trkpt>
      <trkpt lat="44.42566" lon="6.69828">
        <ele>1875.1887207</ele>
        <time>2010-07-24T11:53:37Z</time>
      </trkpt>
      <trkpt lat="44.42562" lon="6.69825">
        <ele>1869.9016113</ele>
        <time>2010-07-24T11:53:43Z</time>
      </trkpt>
      <trkpt lat="44.42554" lon="6.69823">
        <ele>1861.7304688</ele>
        <time>2010-07-24T11:53:49Z</time>
      </trkpt>
      <trkpt lat="44.42552" lon="6.69822">
        <ele>1859.3271484</ele>
        <time>2010-07-24T11:53:50Z</time>
      </trkpt>
      <trkpt lat="44.42547" lon="6.6982">
        <ele>1852.5979004</ele>
        <time>2010-07-24T11:53:55Z</time>
      </trkpt>
      <trkpt lat="44.42538" lon="6.69816">
        <ele>1846.829834</ele>
        <time>2010-07-24T11:54:02Z</time>
      </trkpt>
      <trkpt lat="44.42528" lon="6.69818">
        <ele>1854.0400391</ele>
        <time>2010-07-24T11:54:09Z</time>
      </trkpt>
      <trkpt lat="44.42529" lon="6.69812">
        <ele>1856.4431152</ele>
        <time>2010-07-24T11:54:15Z</time>
      </trkpt>
      <trkpt lat="44.42534" lon="6.69812">
        <ele>1855.9624023</ele>
        <time>2010-07-24T11:54:19Z</time>
      </trkpt>
      <trkpt lat="44.42546" lon="6.69802">
        <ele>1852.1171875</ele>
        <time>2010-07-24T11:54:27Z</time>
      </trkpt>
      <trkpt lat="44.42553" lon="6.69803">
        <ele>1864.6142578</ele>
        <time>2010-07-24T11:54:35Z</time>
      </trkpt>
      <trkpt lat="44.42556" lon="6.69806">
        <ele>1874.2275391</ele>
        <time>2010-07-24T11:54:39Z</time>
      </trkpt>
      <trkpt lat="44.42561" lon="6.69802">
        <ele>1880.4760742</ele>
        <time>2010-07-24T11:54:44Z</time>
      </trkpt>
      <trkpt lat="44.42571" lon="6.69795">
        <ele>1880.9567871</ele>
        <time>2010-07-24T11:54:53Z</time>
      </trkpt>
      <trkpt lat="44.4258" lon="6.69788">
        <ele>1879.5146484</ele>
        <time>2010-07-24T11:55:00Z</time>
      </trkpt>
      <trkpt lat="44.42581" lon="6.69785">
        <ele>1877.592041</ele>
        <time>2010-07-24T11:55:01Z</time>
      </trkpt>
      <trkpt lat="44.42592" lon="6.69768">
        <ele>1877.592041</ele>
        <time>2010-07-24T11:55:11Z</time>
      </trkpt>
      <trkpt lat="44.42603" lon="6.69751">
        <ele>1868.9404297</ele>
        <time>2010-07-24T11:55:18Z</time>
      </trkpt>
      <trkpt lat="44.42609" lon="6.69739">
        <ele>1867.9787598</ele>
        <time>2010-07-24T11:55:24Z</time>
      </trkpt>
      <trkpt lat="44.4261" lon="6.69738">
        <ele>1869.9016113</ele>
        <time>2010-07-24T11:55:29Z</time>
      </trkpt>
      <trkpt lat="44.42613" lon="6.69737">
        <ele>1875.6694336</ele>
        <time>2010-07-24T11:55:37Z</time>
      </trkpt>
      <trkpt lat="44.4262" lon="6.69729">
        <ele>1875.6694336</ele>
        <time>2010-07-24T11:55:47Z</time>
      </trkpt>
      <trkpt lat="44.42628" lon="6.69721">
        <ele>1877.1115723</ele>
        <time>2010-07-24T11:55:56Z</time>
      </trkpt>
      <trkpt lat="44.42634" lon="6.69715">
        <ele>1878.0727539</ele>
        <time>2010-07-24T11:56:02Z</time>
      </trkpt>
      <trkpt lat="44.42642" lon="6.69706">
        <ele>1877.1115723</ele>
        <time>2010-07-24T11:56:08Z</time>
      </trkpt>
      <trkpt lat="44.42645" lon="6.697">
        <ele>1885.7634277</ele>
        <time>2010-07-24T11:56:13Z</time>
      </trkpt>
      <trkpt lat="44.4265" lon="6.69694">
        <ele>1890.0893555</ele>
        <time>2010-07-24T11:56:19Z</time>
      </trkpt>
      <trkpt lat="44.42656" lon="6.69682">
        <ele>1882.8791504</ele>
        <time>2010-07-24T11:56:28Z</time>
      </trkpt>
      <trkpt lat="44.42658" lon="6.69675">
        <ele>1882.8791504</ele>
        <time>2010-07-24T11:56:33Z</time>
      </trkpt>
      <trkpt lat="44.42666" lon="6.69667">
        <ele>1884.3215332</ele>
        <time>2010-07-24T11:56:41Z</time>
      </trkpt>
      <trkpt lat="44.42665" lon="6.6967">
        <ele>1890.0893555</ele>
        <time>2010-07-24T11:56:47Z</time>
      </trkpt>
      <trkpt lat="44.42668" lon="6.69666">
        <ele>1888.166748</ele>
        <time>2010-07-24T11:56:56Z</time>
      </trkpt>
      <trkpt lat="44.42674" lon="6.6966">
        <ele>1884.8022461</ele>
        <time>2010-07-24T11:57:08Z</time>
      </trkpt>
      <trkpt lat="44.42678" lon="6.6966">
        <ele>1888.6474609</ele>
        <time>2010-07-24T11:57:13Z</time>
      </trkpt>
      <trkpt lat="44.42678" lon="6.6967">
        <ele>1918.4482422</ele>
        <time>2010-07-24T11:57:37Z</time>
      </trkpt>
      <trkpt lat="44.42683" lon="6.69661">
        <ele>1923.2548828</ele>
        <time>2010-07-24T11:57:43Z</time>
      </trkpt>
      <trkpt lat="44.42695" lon="6.69638">
        <ele>1910.7575684</ele>
        <time>2010-07-24T11:57:59Z</time>
      </trkpt>
      <trkpt lat="44.427" lon="6.69631">
        <ele>1907.8737793</ele>
        <time>2010-07-24T11:58:03Z</time>
      </trkpt>
      <trkpt lat="44.42702" lon="6.69625">
        <ele>1910.2768555</ele>
        <time>2010-07-24T11:58:08Z</time>
      </trkpt>
      <trkpt lat="44.42707" lon="6.69619">
        <ele>1910.7575684</ele>
        <time>2010-07-24T11:58:14Z</time>
      </trkpt>
      <trkpt lat="44.42709" lon="6.69619">
        <ele>1911.7189941</ele>
        <time>2010-07-24T11:58:19Z</time>
      </trkpt>
      <trkpt lat="44.42713" lon="6.69612">
        <ele>1910.2768555</ele>
        <time>2010-07-24T11:58:23Z</time>
      </trkpt>
      <trkpt lat="44.42718" lon="6.69611">
        <ele>1911.7189941</ele>
        <time>2010-07-24T11:58:30Z</time>
      </trkpt>
      <trkpt lat="44.42727" lon="6.69609">
        <ele>1926.1386719</ele>
        <time>2010-07-24T11:58:49Z</time>
      </trkpt>
      <trkpt lat="44.42729" lon="6.69605">
        <ele>1923.7353516</ele>
        <time>2010-07-24T11:58:53Z</time>
      </trkpt>
      <trkpt lat="44.42733" lon="6.69606">
        <ele>1927.1000977</ele>
        <time>2010-07-24T11:58:59Z</time>
      </trkpt>
      <trkpt lat="44.42737" lon="6.69599">
        <ele>1926.1386719</ele>
        <time>2010-07-24T11:59:05Z</time>
      </trkpt>
      <trkpt lat="44.4274" lon="6.69593">
        <ele>1924.6967773</ele>
        <time>2010-07-24T11:59:11Z</time>
      </trkpt>
      <trkpt lat="44.42747" lon="6.69588">
        <ele>1924.2160645</ele>
        <time>2010-07-24T11:59:20Z</time>
      </trkpt>
      <trkpt lat="44.42751" lon="6.69582">
        <ele>1923.2548828</ele>
        <time>2010-07-24T11:59:25Z</time>
      </trkpt>
      <trkpt lat="44.42756" lon="6.69574">
        <ele>1922.293457</ele>
        <time>2010-07-24T11:59:34Z</time>
      </trkpt>
      <trkpt lat="44.4276" lon="6.6957">
        <ele>1920.8515625</ele>
        <time>2010-07-24T11:59:42Z</time>
      </trkpt>
      <trkpt lat="44.42761" lon="6.69565">
        <ele>1919.409668</ele>
        <time>2010-07-24T11:59:44Z</time>
      </trkpt>
      <trkpt lat="44.42762" lon="6.69556">
        <ele>1922.7741699</ele>
        <time>2010-07-24T11:59:51Z</time>
      </trkpt>
      <trkpt lat="44.42761" lon="6.69544">
        <ele>1918.4482422</ele>
        <time>2010-07-24T11:59:57Z</time>
      </trkpt>
      <trkpt lat="44.42751" lon="6.69541">
        <ele>1925.657959</ele>
        <time>2010-07-24T12:00:05Z</time>
      </trkpt>
      <trkpt lat="44.4275" lon="6.69539">
        <ele>1926.1386719</ele>
        <time>2010-07-24T12:00:09Z</time>
      </trkpt>
      <trkpt lat="44.42747" lon="6.69536">
        <ele>1926.6193848</ele>
        <time>2010-07-24T12:00:13Z</time>
      </trkpt>
      <trkpt lat="44.42746" lon="6.69535">
        <ele>1926.1386719</ele>
        <time>2010-07-24T12:00:14Z</time>
      </trkpt>
      <trkpt lat="44.42741" lon="6.69532">
        <ele>1921.3320312</ele>
        <time>2010-07-24T12:00:21Z</time>
      </trkpt>
      <trkpt lat="44.42732" lon="6.6953">
        <ele>1920.8515625</ele>
        <time>2010-07-24T12:00:30Z</time>
      </trkpt>
      <trkpt lat="44.42731" lon="6.69528">
        <ele>1926.6193848</ele>
        <time>2010-07-24T12:00:35Z</time>
      </trkpt>
      <trkpt lat="44.42733" lon="6.69529">
        <ele>1929.9838867</ele>
        <time>2010-07-24T12:00:37Z</time>
      </trkpt>
      <trkpt lat="44.42735" lon="6.6953">
        <ele>1935.2712402</ele>
        <time>2010-07-24T12:00:43Z</time>
      </trkpt>
      <trkpt lat="44.42741" lon="6.69526">
        <ele>1934.3100586</ele>
        <time>2010-07-24T12:01:03Z</time>
      </trkpt>
      <trkpt lat="44.42742" lon="6.69527">
        <ele>1935.2712402</ele>
        <time>2010-07-24T12:01:06Z</time>
      </trkpt>
      <trkpt lat="44.42743" lon="6.69523">
        <ele>1939.1164551</ele>
        <time>2010-07-24T12:01:13Z</time>
      </trkpt>
      <trkpt lat="44.42746" lon="6.69515">
        <ele>1934.7907715</ele>
        <time>2010-07-24T12:01:18Z</time>
      </trkpt>
      <trkpt lat="44.42751" lon="6.69516">
        <ele>1944.8842773</ele>
        <time>2010-07-24T12:01:25Z</time>
      </trkpt>
      <trkpt lat="44.42756" lon="6.69513">
        <ele>1944.4035645</ele>
        <time>2010-07-24T12:01:30Z</time>
      </trkpt>
      <trkpt lat="44.42759" lon="6.69505">
        <ele>1940.0778809</ele>
        <time>2010-07-24T12:01:37Z</time>
      </trkpt>
      <trkpt lat="44.42762" lon="6.695">
        <ele>1941.0390625</ele>
        <time>2010-07-24T12:01:43Z</time>
      </trkpt>
      <trkpt lat="44.42766" lon="6.69491">
        <ele>1940.0778809</ele>
        <time>2010-07-24T12:01:52Z</time>
      </trkpt>
      <trkpt lat="44.42761" lon="6.69476">
        <ele>1931.4257812</ele>
        <time>2010-07-24T12:02:08Z</time>
      </trkpt>
      <trkpt lat="44.4276" lon="6.69476">
        <ele>1932.3874512</ele>
        <time>2010-07-24T12:02:09Z</time>
      </trkpt>
      <trkpt lat="44.42752" lon="6.69483">
        <ele>1938.6359863</ele>
        <time>2010-07-24T12:02:14Z</time>
      </trkpt>
      <trkpt lat="44.42742" lon="6.69489">
        <ele>1947.7683105</ele>
        <time>2010-07-24T12:02:22Z</time>
      </trkpt>
      <trkpt lat="44.4274" lon="6.69487">
        <ele>1949.2104492</ele>
        <time>2010-07-24T12:02:26Z</time>
      </trkpt>
      <trkpt lat="44.42743" lon="6.69485">
        <ele>1949.2104492</ele>
        <time>2010-07-24T12:02:30Z</time>
      </trkpt>
      <trkpt lat="44.42746" lon="6.69481">
        <ele>1952.5749512</ele>
        <time>2010-07-24T12:02:36Z</time>
      </trkpt>
      <trkpt lat="44.42746" lon="6.69481">
        <ele>1954.0170898</ele>
        <time>2010-07-24T12:02:37Z</time>
      </trkpt>
      <trkpt lat="44.42747" lon="6.69481">
        <ele>1956.420166</ele>
        <time>2010-07-24T12:02:43Z</time>
      </trkpt>
      <trkpt lat="44.42747" lon="6.69488">
        <ele>1965.0722656</ele>
        <time>2010-07-24T12:02:54Z</time>
      </trkpt>
      <trkpt lat="44.42752" lon="6.69479">
        <ele>1957.3815918</ele>
        <time>2010-07-24T12:03:05Z</time>
      </trkpt>
      <trkpt lat="44.4276" lon="6.69482">
        <ele>1960.7460938</ele>
        <time>2010-07-24T12:03:12Z</time>
      </trkpt>
      <trkpt lat="44.4276" lon="6.69481">
        <ele>1961.7075195</ele>
        <time>2010-07-24T12:03:18Z</time>
      </trkpt>
      <trkpt lat="44.42777" lon="6.69469">
        <ele>1920.8515625</ele>
        <time>2010-07-24T12:03:45Z</time>
      </trkpt>
      <trkpt lat="44.42766" lon="6.69471">
        <ele>1944.8842773</ele>
        <time>2010-07-24T12:04:01Z</time>
      </trkpt>
      <trkpt lat="44.42767" lon="6.69476">
        <ele>1953.536377</ele>
        <time>2010-07-24T12:05:27Z</time>
      </trkpt>
      <trkpt lat="44.42773" lon="6.69485">
        <ele>1954.9782715</ele>
        <time>2010-07-24T12:05:33Z</time>
      </trkpt>
      <trkpt lat="44.42773" lon="6.69485">
        <ele>1955.9394531</ele>
        <time>2010-07-24T12:05:38Z</time>
      </trkpt>
      <trkpt lat="44.42784" lon="6.69484">
        <ele>1954.4975586</ele>
        <time>2010-07-24T12:05:44Z</time>
      </trkpt>
      <trkpt lat="44.42788" lon="6.69486">
        <ele>1955.4589844</ele>
        <time>2010-07-24T12:05:49Z</time>
      </trkpt>
      <trkpt lat="44.42797" lon="6.69487">
        <ele>1954.0170898</ele>
        <time>2010-07-24T12:05:57Z</time>
      </trkpt>
      <trkpt lat="44.42801" lon="6.69494">
        <ele>1958.8234863</ele>
        <time>2010-07-24T12:06:03Z</time>
      </trkpt>
      <trkpt lat="44.42803" lon="6.69497">
        <ele>1962.6687012</ele>
        <time>2010-07-24T12:06:07Z</time>
      </trkpt>
      <trkpt lat="44.4281" lon="6.69488">
        <ele>1961.2268066</ele>
        <time>2010-07-24T12:06:21Z</time>
      </trkpt>
      <trkpt lat="44.42815" lon="6.69484">
        <ele>1961.2268066</ele>
        <time>2010-07-24T12:06:27Z</time>
      </trkpt>
      <trkpt lat="44.4282" lon="6.69481">
        <ele>1961.2268066</ele>
        <time>2010-07-24T12:06:34Z</time>
      </trkpt>
      <trkpt lat="44.4282" lon="6.6948">
        <ele>1969.3981934</ele>
        <time>2010-07-24T12:06:44Z</time>
      </trkpt>
      <trkpt lat="44.42825" lon="6.69482">
        <ele>1968.9174805</ele>
        <time>2010-07-24T12:06:49Z</time>
      </trkpt>
      <trkpt lat="44.42831" lon="6.6949">
        <ele>1973.2434082</ele>
        <time>2010-07-24T12:06:56Z</time>
      </trkpt>
      <trkpt lat="44.42835" lon="6.6949">
        <ele>1974.2045898</ele>
        <time>2010-07-24T12:07:01Z</time>
      </trkpt>
      <trkpt lat="44.42841" lon="6.69483">
        <ele>1969.8786621</ele>
        <time>2010-07-24T12:07:09Z</time>
      </trkpt>
      <trkpt lat="44.42848" lon="6.69478">
        <ele>1967.9560547</ele>
        <time>2010-07-24T12:07:18Z</time>
      </trkpt>
      <trkpt lat="44.42853" lon="6.69484">
        <ele>1972.2819824</ele>
        <time>2010-07-24T12:07:25Z</time>
      </trkpt>
      <trkpt lat="44.42859" lon="6.69476">
        <ele>1968.9174805</ele>
        <time>2010-07-24T12:07:33Z</time>
      </trkpt>
      <trkpt lat="44.42867" lon="6.69463">
        <ele>1960.2653809</ele>
        <time>2010-07-24T12:07:41Z</time>
      </trkpt>
      <trkpt lat="44.42872" lon="6.69459">
        <ele>1955.9394531</ele>
        <time>2010-07-24T12:07:47Z</time>
      </trkpt>
      <trkpt lat="44.42879" lon="6.69456">
        <ele>1955.9394531</ele>
        <time>2010-07-24T12:07:55Z</time>
      </trkpt>
      <trkpt lat="44.42885" lon="6.69455">
        <ele>1956.9008789</ele>
        <time>2010-07-24T12:08:02Z</time>
      </trkpt>
      <trkpt lat="44.42887" lon="6.69458">
        <ele>1966.5141602</ele>
        <time>2010-07-24T12:08:08Z</time>
      </trkpt>
      <trkpt lat="44.4289" lon="6.69461">
        <ele>1969.3981934</ele>
        <time>2010-07-24T12:08:12Z</time>
      </trkpt>
      <trkpt lat="44.42895" lon="6.69461">
        <ele>1971.8012695</ele>
        <time>2010-07-24T12:08:18Z</time>
      </trkpt>
      <trkpt lat="44.429" lon="6.69461">
        <ele>1977.5690918</ele>
        <time>2010-07-24T12:08:27Z</time>
      </trkpt>
      <trkpt lat="44.42908" lon="6.69462">
        <ele>1980.4533691</ele>
        <time>2010-07-24T12:08:40Z</time>
      </trkpt>
      <trkpt lat="44.42917" lon="6.69451">
        <ele>1971.3205566</ele>
        <time>2010-07-24T12:08:46Z</time>
      </trkpt>
      <trkpt lat="44.4292" lon="6.6945">
        <ele>1973.2434082</ele>
        <time>2010-07-24T12:08:52Z</time>
      </trkpt>
      <trkpt lat="44.4292" lon="6.69447">
        <ele>1972.7626953</ele>
        <time>2010-07-24T12:08:56Z</time>
      </trkpt>
      <trkpt lat="44.42924" lon="6.69437">
        <ele>1970.359375</ele>
        <time>2010-07-24T12:09:02Z</time>
      </trkpt>
      <trkpt lat="44.42927" lon="6.6943">
        <ele>1970.359375</ele>
        <time>2010-07-24T12:09:07Z</time>
      </trkpt>
      <trkpt lat="44.42927" lon="6.69427">
        <ele>1971.3205566</ele>
        <time>2010-07-24T12:09:14Z</time>
      </trkpt>
      <trkpt lat="44.42928" lon="6.69423">
        <ele>1975.1657715</ele>
        <time>2010-07-24T12:09:20Z</time>
      </trkpt>
      <trkpt lat="44.42925" lon="6.69425">
        <ele>1980.4533691</ele>
        <time>2010-07-24T12:09:26Z</time>
      </trkpt>
      <trkpt lat="44.42923" lon="6.69425">
        <ele>1982.3759766</ele>
        <time>2010-07-24T12:09:28Z</time>
      </trkpt>
      <trkpt lat="44.4292" lon="6.69424">
        <ele>1983.3371582</ele>
        <time>2010-07-24T12:09:30Z</time>
      </trkpt>
      <trkpt lat="44.42917" lon="6.69421">
        <ele>1983.8178711</ele>
        <time>2010-07-24T12:09:37Z</time>
      </trkpt>
      <trkpt lat="44.42912" lon="6.69413">
        <ele>1995.8342285</ele>
        <time>2010-07-24T12:10:03Z</time>
      </trkpt>
      <trkpt lat="44.42914" lon="6.6941">
        <ele>1991.5083008</ele>
        <time>2010-07-24T12:10:08Z</time>
      </trkpt>
      <trkpt lat="44.42913" lon="6.69407">
        <ele>1992.4697266</ele>
        <time>2010-07-24T12:10:16Z</time>
      </trkpt>
      <trkpt lat="44.42913" lon="6.69421">
        <ele>1998.2375488</ele>
        <time>2010-07-24T12:10:27Z</time>
      </trkpt>
      <trkpt lat="44.42917" lon="6.69418">
        <ele>1986.7016602</ele>
        <time>2010-07-24T12:10:43Z</time>
      </trkpt>
      <trkpt lat="44.42916" lon="6.69417">
        <ele>1985.2597656</ele>
        <time>2010-07-24T12:11:14Z</time>
      </trkpt>
      <trkpt lat="44.42914" lon="6.6942">
        <ele>1988.1437988</ele>
        <time>2010-07-24T12:11:24Z</time>
      </trkpt>
      <trkpt lat="44.42913" lon="6.69415">
        <ele>1993.4309082</ele>
        <time>2010-07-24T12:12:00Z</time>
      </trkpt>
      <trkpt lat="44.4292" lon="6.69412">
        <ele>1973.2434082</ele>
        <time>2010-07-24T12:12:44Z</time>
      </trkpt>
      <trkpt lat="44.42905" lon="6.69414">
        <ele>1978.0498047</ele>
        <time>2010-07-24T12:12:51Z</time>
      </trkpt>
      <trkpt lat="44.42893" lon="6.69413">
        <ele>1981.8952637</ele>
        <time>2010-07-24T12:12:57Z</time>
      </trkpt>
      <trkpt lat="44.42881" lon="6.69419">
        <ele>1984.7792969</ele>
        <time>2010-07-24T12:13:04Z</time>
      </trkpt>
      <trkpt lat="44.42865" lon="6.6942">
        <ele>1987.6630859</ele>
        <time>2010-07-24T12:13:12Z</time>
      </trkpt>
      <trkpt lat="44.42857" lon="6.69421">
        <ele>1991.5083008</ele>
        <time>2010-07-24T12:13:17Z</time>
      </trkpt>
      <trkpt lat="44.42852" lon="6.69414">
        <ele>1991.9890137</ele>
        <time>2010-07-24T12:13:22Z</time>
      </trkpt>
      <trkpt lat="44.42845" lon="6.69405">
        <ele>1991.9890137</ele>
        <time>2010-07-24T12:13:29Z</time>
      </trkpt>
      <trkpt lat="44.42832" lon="6.69402">
        <ele>1992.4697266</ele>
        <time>2010-07-24T12:13:35Z</time>
      </trkpt>
      <trkpt lat="44.42821" lon="6.69396">
        <ele>1992.9501953</ele>
        <time>2010-07-24T12:13:41Z</time>
      </trkpt>
      <trkpt lat="44.42811" lon="6.69387">
        <ele>1993.4309082</ele>
        <time>2010-07-24T12:13:47Z</time>
      </trkpt>
      <trkpt lat="44.42796" lon="6.69382">
        <ele>1993.4309082</ele>
        <time>2010-07-24T12:13:53Z</time>
      </trkpt>
      <trkpt lat="44.42784" lon="6.69373">
        <ele>1999.1989746</ele>
        <time>2010-07-24T12:14:00Z</time>
      </trkpt>
      <trkpt lat="44.42776" lon="6.69373">
        <ele>2004.486084</ele>
        <time>2010-07-24T12:14:04Z</time>
      </trkpt>
      <trkpt lat="44.42772" lon="6.69359">
        <ele>2002.5634766</ele>
        <time>2010-07-24T12:14:11Z</time>
      </trkpt>
      <trkpt lat="44.42765" lon="6.69358">
        <ele>2006.4086914</ele>
        <time>2010-07-24T12:14:15Z</time>
      </trkpt>
      <trkpt lat="44.42751" lon="6.6936">
        <ele>2010.2539062</ele>
        <time>2010-07-24T12:14:20Z</time>
      </trkpt>
      <trkpt lat="44.42739" lon="6.69369">
        <ele>2012.1767578</ele>
        <time>2010-07-24T12:14:26Z</time>
      </trkpt>
      <trkpt lat="44.42728" lon="6.69374">
        <ele>2011.215332</ele>
        <time>2010-07-24T12:14:31Z</time>
      </trkpt>
      <trkpt lat="44.42717" lon="6.69381">
        <ele>2007.8508301</ele>
        <time>2010-07-24T12:14:37Z</time>
      </trkpt>
      <trkpt lat="44.42715" lon="6.69386">
        <ele>2008.8120117</ele>
        <time>2010-07-24T12:14:39Z</time>
      </trkpt>
      <trkpt lat="44.42696" lon="6.69391">
        <ele>2012.6574707</ele>
        <time>2010-07-24T12:14:47Z</time>
      </trkpt>
      <trkpt lat="44.42682" lon="6.69395">
        <ele>2011.6960449</ele>
        <time>2010-07-24T12:14:54Z</time>
      </trkpt>
      <trkpt lat="44.42675" lon="6.69393">
        <ele>2006.8894043</ele>
        <time>2010-07-24T12:15:00Z</time>
      </trkpt>
      <trkpt lat="44.42667" lon="6.69395">
        <ele>2006.8894043</ele>
        <time>2010-07-24T12:15:05Z</time>
      </trkpt>
      <trkpt lat="44.42653" lon="6.69398">
        <ele>2007.8508301</ele>
        <time>2010-07-24T12:15:12Z</time>
      </trkpt>
      <trkpt lat="44.4264" lon="6.69403">
        <ele>2012.1767578</ele>
        <time>2010-07-24T12:15:18Z</time>
      </trkpt>
      <trkpt lat="44.42625" lon="6.69409">
        <ele>2016.5026855</ele>
        <time>2010-07-24T12:15:24Z</time>
      </trkpt>
      <trkpt lat="44.42611" lon="6.69407">
        <ele>2014.5800781</ele>
        <time>2010-07-24T12:15:29Z</time>
      </trkpt>
      <trkpt lat="44.42596" lon="6.69406">
        <ele>2013.6186523</ele>
        <time>2010-07-24T12:15:35Z</time>
      </trkpt>
      <trkpt lat="44.4258" lon="6.69404">
        <ele>2015.5415039</ele>
        <time>2010-07-24T12:15:41Z</time>
      </trkpt>
      <trkpt lat="44.42564" lon="6.69397">
        <ele>2016.9833984</ele>
        <time>2010-07-24T12:15:48Z</time>
      </trkpt>
      <trkpt lat="44.42547" lon="6.69395">
        <ele>2017.4638672</ele>
        <time>2010-07-24T12:15:54Z</time>
      </trkpt>
      <trkpt lat="44.42528" lon="6.69397">
        <ele>2019.8671875</ele>
        <time>2010-07-24T12:16:00Z</time>
      </trkpt>
      <trkpt lat="44.42517" lon="6.694">
        <ele>2016.9833984</ele>
        <time>2010-07-24T12:16:07Z</time>
      </trkpt>
      <trkpt lat="44.42509" lon="6.69409">
        <ele>2021.7897949</ele>
        <time>2010-07-24T12:16:14Z</time>
      </trkpt>
      <trkpt lat="44.42501" lon="6.69418">
        <ele>2025.1542969</ele>
        <time>2010-07-24T12:16:20Z</time>
      </trkpt>
      <trkpt lat="44.42492" lon="6.69421">
        <ele>2028.9997559</ele>
        <time>2010-07-24T12:16:26Z</time>
      </trkpt>
      <trkpt lat="44.42485" lon="6.6941">
        <ele>2029.9611816</ele>
        <time>2010-07-24T12:16:33Z</time>
      </trkpt>
      <trkpt lat="44.42471" lon="6.69402">
        <ele>2035.7290039</ele>
        <time>2010-07-24T12:16:41Z</time>
      </trkpt>
      <trkpt lat="44.42466" lon="6.69397">
        <ele>2034.7678223</ele>
        <time>2010-07-24T12:16:45Z</time>
      </trkpt>
      <trkpt lat="44.42464" lon="6.69387">
        <ele>2034.7678223</ele>
        <time>2010-07-24T12:16:49Z</time>
      </trkpt>
      <trkpt lat="44.42458" lon="6.69384">
        <ele>2036.2097168</ele>
        <time>2010-07-24T12:16:53Z</time>
      </trkpt>
      <trkpt lat="44.42451" lon="6.69367">
        <ele>2032.8449707</ele>
        <time>2010-07-24T12:17:02Z</time>
      </trkpt>
      <trkpt lat="44.42448" lon="6.6936">
        <ele>2032.8449707</ele>
        <time>2010-07-24T12:17:05Z</time>
      </trkpt>
      <trkpt lat="44.42443" lon="6.69343">
        <ele>2030.4418945</ele>
        <time>2010-07-24T12:17:13Z</time>
      </trkpt>
      <trkpt lat="44.42441" lon="6.69332">
        <ele>2027.5576172</ele>
        <time>2010-07-24T12:17:19Z</time>
      </trkpt>
      <trkpt lat="44.42436" lon="6.69328">
        <ele>2031.8837891</ele>
        <time>2010-07-24T12:17:25Z</time>
      </trkpt>
      <trkpt lat="44.42435" lon="6.6932">
        <ele>2034.7678223</ele>
        <time>2010-07-24T12:17:31Z</time>
      </trkpt>
      <trkpt lat="44.42436" lon="6.69308">
        <ele>2034.7678223</ele>
        <time>2010-07-24T12:17:38Z</time>
      </trkpt>
      <trkpt lat="44.42436" lon="6.69299">
        <ele>2035.7290039</ele>
        <time>2010-07-24T12:17:44Z</time>
      </trkpt>
      <trkpt lat="44.42437" lon="6.69291">
        <ele>2036.2097168</ele>
        <time>2010-07-24T12:17:50Z</time>
      </trkpt>
      <trkpt lat="44.42435" lon="6.69275">
        <ele>2041.4968262</ele>
        <time>2010-07-24T12:17:58Z</time>
      </trkpt>
      <trkpt lat="44.42435" lon="6.69263">
        <ele>2042.9387207</ele>
        <time>2010-07-24T12:18:05Z</time>
      </trkpt>
      <trkpt lat="44.4244" lon="6.69261">
        <ele>2044.3808594</ele>
        <time>2010-07-24T12:18:11Z</time>
      </trkpt>
      <trkpt lat="44.42444" lon="6.69265">
        <ele>2046.3037109</ele>
        <time>2010-07-24T12:18:18Z</time>
      </trkpt>
      <trkpt lat="44.42444" lon="6.69269">
        <ele>2045.3422852</ele>
        <time>2010-07-24T12:18:21Z</time>
      </trkpt>
      <trkpt lat="44.42447" lon="6.69279">
        <ele>2045.822998</ele>
        <time>2010-07-24T12:18:29Z</time>
      </trkpt>
      <trkpt lat="44.42449" lon="6.69286">
        <ele>2047.2648926</ele>
        <time>2010-07-24T12:18:35Z</time>
      </trkpt>
      <trkpt lat="44.42455" lon="6.69298">
        <ele>2048.2260742</ele>
        <time>2010-07-24T12:18:44Z</time>
      </trkpt>
      <trkpt lat="44.42458" lon="6.69304">
        <ele>2053.5134277</ele>
        <time>2010-07-24T12:18:51Z</time>
      </trkpt>
      <trkpt lat="44.42471" lon="6.69311">
        <ele>2047.2648926</ele>
        <time>2010-07-24T12:18:59Z</time>
      </trkpt>
      <trkpt lat="44.42483" lon="6.69314">
        <ele>2044.3808594</ele>
        <time>2010-07-24T12:19:07Z</time>
      </trkpt>
      <trkpt lat="44.4249" lon="6.69317">
        <ele>2047.2648926</ele>
        <time>2010-07-24T12:19:14Z</time>
      </trkpt>
      <trkpt lat="44.42497" lon="6.69323">
        <ele>2049.1875</ele>
        <time>2010-07-24T12:19:22Z</time>
      </trkpt>
      <trkpt lat="44.42504" lon="6.69322">
        <ele>2047.2648926</ele>
        <time>2010-07-24T12:19:26Z</time>
      </trkpt>
      <trkpt lat="44.42515" lon="6.69314">
        <ele>2044.3808594</ele>
        <time>2010-07-24T12:19:33Z</time>
      </trkpt>
      <trkpt lat="44.42523" lon="6.69306">
        <ele>2043.9001465</ele>
        <time>2010-07-24T12:19:39Z</time>
      </trkpt>
      <trkpt lat="44.42526" lon="6.69299">
        <ele>2043.9001465</ele>
        <time>2010-07-24T12:19:43Z</time>
      </trkpt>
      <trkpt lat="44.42532" lon="6.69291">
        <ele>2043.4194336</ele>
        <time>2010-07-24T12:19:47Z</time>
      </trkpt>
      <trkpt lat="44.42539" lon="6.69286">
        <ele>2045.3422852</ele>
        <time>2010-07-24T12:19:53Z</time>
      </trkpt>
      <trkpt lat="44.42547" lon="6.69281">
        <ele>2051.1101074</ele>
        <time>2010-07-24T12:20:00Z</time>
      </trkpt>
      <trkpt lat="44.42553" lon="6.69279">
        <ele>2055.4360352</ele>
        <time>2010-07-24T12:20:05Z</time>
      </trkpt>
      <trkpt lat="44.4256" lon="6.69277">
        <ele>2058.8005371</ele>
        <time>2010-07-24T12:20:10Z</time>
      </trkpt>
      <trkpt lat="44.42565" lon="6.69274">
        <ele>2059.7617188</ele>
        <time>2010-07-24T12:20:15Z</time>
      </trkpt>
      <trkpt lat="44.42569" lon="6.69271">
        <ele>2061.6848145</ele>
        <time>2010-07-24T12:20:19Z</time>
      </trkpt>
      <trkpt lat="44.42577" lon="6.69266">
        <ele>2061.6848145</ele>
        <time>2010-07-24T12:20:27Z</time>
      </trkpt>
      <trkpt lat="44.42578" lon="6.69266">
        <ele>2061.2041016</ele>
        <time>2010-07-24T12:20:32Z</time>
      </trkpt>
      <trkpt lat="44.4258" lon="6.69268">
        <ele>2062.1652832</ele>
        <time>2010-07-24T12:20:40Z</time>
      </trkpt>
      <trkpt lat="44.42583" lon="6.69258">
        <ele>2055.9165039</ele>
        <time>2010-07-24T12:20:48Z</time>
      </trkpt>
      <trkpt lat="44.42583" lon="6.69263">
        <ele>2059.28125</ele>
        <time>2010-07-24T12:20:55Z</time>
      </trkpt>
      <trkpt lat="44.42588" lon="6.69264">
        <ele>2062.1652832</ele>
        <time>2010-07-24T12:21:00Z</time>
      </trkpt>
      <trkpt lat="44.42594" lon="6.6926">
        <ele>2066.010498</ele>
        <time>2010-07-24T12:21:06Z</time>
      </trkpt>
      <trkpt lat="44.42595" lon="6.69259">
        <ele>2070.3364258</ele>
        <time>2010-07-24T12:21:13Z</time>
      </trkpt>
      <trkpt lat="44.42603" lon="6.69253">
        <ele>2074.1816406</ele>
        <time>2010-07-24T12:21:25Z</time>
      </trkpt>
      <trkpt lat="44.42614" lon="6.69244">
        <ele>2074.6623535</ele>
        <time>2010-07-24T12:21:33Z</time>
      </trkpt>
      <trkpt lat="44.42625" lon="6.69237">
        <ele>2073.7009277</ele>
        <time>2010-07-24T12:21:40Z</time>
      </trkpt>
      <trkpt lat="44.42635" lon="6.69229">
        <ele>2073.220459</ele>
        <time>2010-07-24T12:21:48Z</time>
      </trkpt>
      <trkpt lat="44.42645" lon="6.69223">
        <ele>2073.220459</ele>
        <time>2010-07-24T12:21:56Z</time>
      </trkpt>
      <trkpt lat="44.42654" lon="6.69219">
        <ele>2075.1428223</ele>
        <time>2010-07-24T12:22:04Z</time>
      </trkpt>
      <trkpt lat="44.42663" lon="6.69213">
        <ele>2077.065918</ele>
        <time>2010-07-24T12:22:12Z</time>
      </trkpt>
      <trkpt lat="44.42667" lon="6.6921">
        <ele>2079.949707</ele>
        <time>2010-07-24T12:22:18Z</time>
      </trkpt>
      <trkpt lat="44.42674" lon="6.69205">
        <ele>2080.9111328</ele>
        <time>2010-07-24T12:22:25Z</time>
      </trkpt>
      <trkpt lat="44.4268" lon="6.69201">
        <ele>2080.9111328</ele>
        <time>2010-07-24T12:22:31Z</time>
      </trkpt>
      <trkpt lat="44.42686" lon="6.69196">
        <ele>2080.4304199</ele>
        <time>2010-07-24T12:22:36Z</time>
      </trkpt>
      <trkpt lat="44.42691" lon="6.69192">
        <ele>2081.3916016</ele>
        <time>2010-07-24T12:22:42Z</time>
      </trkpt>
      <trkpt lat="44.42698" lon="6.69187">
        <ele>2085.2368164</ele>
        <time>2010-07-24T12:22:57Z</time>
      </trkpt>
      <trkpt lat="44.42703" lon="6.6918">
        <ele>2086.1982422</ele>
        <time>2010-07-24T12:23:03Z</time>
      </trkpt>
      <trkpt lat="44.42707" lon="6.69176">
        <ele>2088.1208496</ele>
        <time>2010-07-24T12:23:09Z</time>
      </trkpt>
      <trkpt lat="44.42713" lon="6.69172">
        <ele>2091.0046387</ele>
        <time>2010-07-24T12:23:13Z</time>
      </trkpt>
      <trkpt lat="44.42718" lon="6.69168">
        <ele>2093.888916</ele>
        <time>2010-07-24T12:23:17Z</time>
      </trkpt>
      <trkpt lat="44.42721" lon="6.69166">
        <ele>2101.5793457</ele>
        <time>2010-07-24T12:23:28Z</time>
      </trkpt>
      <trkpt lat="44.42722" lon="6.69166">
        <ele>2104.4631348</ele>
        <time>2010-07-24T12:23:34Z</time>
      </trkpt>
      <trkpt lat="44.42722" lon="6.69171">
        <ele>2105.9050293</ele>
        <time>2010-07-24T12:23:38Z</time>
      </trkpt>
      <trkpt lat="44.42725" lon="6.69167">
        <ele>2103.5019531</ele>
        <time>2010-07-24T12:23:44Z</time>
      </trkpt>
      <trkpt lat="44.4273" lon="6.69158">
        <ele>2097.7341309</ele>
        <time>2010-07-24T12:23:49Z</time>
      </trkpt>
      <trkpt lat="44.4274" lon="6.69153">
        <ele>2095.3308105</ele>
        <time>2010-07-24T12:23:56Z</time>
      </trkpt>
      <trkpt lat="44.42752" lon="6.69151">
        <ele>2096.7727051</ele>
        <time>2010-07-24T12:24:05Z</time>
      </trkpt>
      <trkpt lat="44.42759" lon="6.69143">
        <ele>2095.8115234</ele>
        <time>2010-07-24T12:24:11Z</time>
      </trkpt>
      <trkpt lat="44.42763" lon="6.69136">
        <ele>2093.888916</ele>
        <time>2010-07-24T12:24:15Z</time>
      </trkpt>
      <trkpt lat="44.42769" lon="6.69126">
        <ele>2093.888916</ele>
        <time>2010-07-24T12:24:22Z</time>
      </trkpt>
      <trkpt lat="44.42775" lon="6.69118">
        <ele>2094.3693848</ele>
        <time>2010-07-24T12:24:29Z</time>
      </trkpt>
      <trkpt lat="44.42782" lon="6.69109">
        <ele>2097.253418</ele>
        <time>2010-07-24T12:24:36Z</time>
      </trkpt>
      <trkpt lat="44.42782" lon="6.69111">
        <ele>2100.1374512</ele>
        <time>2010-07-24T12:24:54Z</time>
      </trkpt>
      <trkpt lat="44.42787" lon="6.6911">
        <ele>2103.0212402</ele>
        <time>2010-07-24T12:25:02Z</time>
      </trkpt>
      <trkpt lat="44.42792" lon="6.69112">
        <ele>2108.7893066</ele>
        <time>2010-07-24T12:25:10Z</time>
      </trkpt>
      <trkpt lat="44.42797" lon="6.69105">
        <ele>2106.3857422</ele>
        <time>2010-07-24T12:25:15Z</time>
      </trkpt>
      <trkpt lat="44.42802" lon="6.69108">
        <ele>2109.7504883</ele>
        <time>2010-07-24T12:25:22Z</time>
      </trkpt>
      <trkpt lat="44.42807" lon="6.69111">
        <ele>2112.6345215</ele>
        <time>2010-07-24T12:25:30Z</time>
      </trkpt>
      <trkpt lat="44.42812" lon="6.69112">
        <ele>2116.9604492</ele>
        <time>2010-07-24T12:25:37Z</time>
      </trkpt>
      <trkpt lat="44.4282" lon="6.69095">
        <ele>2114.5571289</ele>
        <time>2010-07-24T12:25:45Z</time>
      </trkpt>
      <trkpt lat="44.42824" lon="6.69087">
        <ele>2115.5185547</ele>
        <time>2010-07-24T12:25:49Z</time>
      </trkpt>
      <trkpt lat="44.42824" lon="6.69079">
        <ele>2117.9216309</ele>
        <time>2010-07-24T12:25:55Z</time>
      </trkpt>
      <trkpt lat="44.42823" lon="6.69065">
        <ele>2117.440918</ele>
        <time>2010-07-24T12:26:01Z</time>
      </trkpt>
      <trkpt lat="44.42818" lon="6.69062">
        <ele>2116.4797363</ele>
        <time>2010-07-24T12:26:04Z</time>
      </trkpt>
      <trkpt lat="44.428" lon="6.69061">
        <ele>2121.7668457</ele>
        <time>2010-07-24T12:26:14Z</time>
      </trkpt>
      <trkpt lat="44.42798" lon="6.69051">
        <ele>2116.4797363</ele>
        <time>2010-07-24T12:26:21Z</time>
      </trkpt>
      <trkpt lat="44.42799" lon="6.69039">
        <ele>2112.6345215</ele>
        <time>2010-07-24T12:26:28Z</time>
      </trkpt>
      <trkpt lat="44.42804" lon="6.69039">
        <ele>2115.0378418</ele>
        <time>2010-07-24T12:26:34Z</time>
      </trkpt>
      <trkpt lat="44.42809" lon="6.69035">
        <ele>2115.0378418</ele>
        <time>2010-07-24T12:26:39Z</time>
      </trkpt>
      <trkpt lat="44.42814" lon="6.69035">
        <ele>2117.440918</ele>
        <time>2010-07-24T12:26:46Z</time>
      </trkpt>
      <trkpt lat="44.42822" lon="6.6903">
        <ele>2120.8056641</ele>
        <time>2010-07-24T12:26:55Z</time>
      </trkpt>
      <trkpt lat="44.42829" lon="6.69024">
        <ele>2122.2475586</ele>
        <time>2010-07-24T12:27:03Z</time>
      </trkpt>
      <trkpt lat="44.42833" lon="6.69022">
        <ele>2122.2475586</ele>
        <time>2010-07-24T12:27:07Z</time>
      </trkpt>
      <trkpt lat="44.42838" lon="6.69017">
        <ele>2122.2475586</ele>
        <time>2010-07-24T12:27:14Z</time>
      </trkpt>
      <trkpt lat="44.42841" lon="6.69013">
        <ele>2126.5737305</ele>
        <time>2010-07-24T12:27:20Z</time>
      </trkpt>
      <trkpt lat="44.42841" lon="6.69008">
        <ele>2127.5349121</ele>
        <time>2010-07-24T12:27:24Z</time>
      </trkpt>
      <trkpt lat="44.42837" lon="6.69001">
        <ele>2130.4189453</ele>
        <time>2010-07-24T12:27:31Z</time>
      </trkpt>
      <trkpt lat="44.42832" lon="6.68994">
        <ele>2133.3027344</ele>
        <time>2010-07-24T12:28:01Z</time>
      </trkpt>
      <trkpt lat="44.42824" lon="6.6899">
        <ele>2131.8608398</ele>
        <time>2010-07-24T12:28:06Z</time>
      </trkpt>
      <trkpt lat="44.4282" lon="6.68987">
        <ele>2128.4963379</ele>
        <time>2010-07-24T12:28:10Z</time>
      </trkpt>
      <trkpt lat="44.42813" lon="6.68978">
        <ele>2130.4189453</ele>
        <time>2010-07-24T12:28:17Z</time>
      </trkpt>
      <trkpt lat="44.42818" lon="6.68967">
        <ele>2128.015625</ele>
        <time>2010-07-24T12:28:24Z</time>
      </trkpt>
      <trkpt lat="44.42822" lon="6.68962">
        <ele>2127.5349121</ele>
        <time>2010-07-24T12:28:30Z</time>
      </trkpt>
      <trkpt lat="44.42827" lon="6.68955">
        <ele>2126.5737305</ele>
        <time>2010-07-24T12:28:36Z</time>
      </trkpt>
      <trkpt lat="44.42832" lon="6.68946">
        <ele>2125.6123047</ele>
        <time>2010-07-24T12:28:42Z</time>
      </trkpt>
      <trkpt lat="44.42841" lon="6.68938">
        <ele>2127.5349121</ele>
        <time>2010-07-24T12:28:50Z</time>
      </trkpt>
      <trkpt lat="44.42847" lon="6.68933">
        <ele>2130.4189453</ele>
        <time>2010-07-24T12:28:58Z</time>
      </trkpt>
      <trkpt lat="44.4285" lon="6.6893">
        <ele>2134.2641602</ele>
        <time>2010-07-24T12:29:02Z</time>
      </trkpt>
      <trkpt lat="44.42853" lon="6.68928">
        <ele>2137.1479492</ele>
        <time>2010-07-24T12:29:07Z</time>
      </trkpt>
      <trkpt lat="44.4286" lon="6.68919">
        <ele>2138.109375</ele>
        <time>2010-07-24T12:29:14Z</time>
      </trkpt>
      <trkpt lat="44.42865" lon="6.68904">
        <ele>2137.1479492</ele>
        <time>2010-07-24T12:29:22Z</time>
      </trkpt>
      <trkpt lat="44.42866" lon="6.68892">
        <ele>2136.1867676</ele>
        <time>2010-07-24T12:29:29Z</time>
      </trkpt>
      <trkpt lat="44.4286" lon="6.68884">
        <ele>2142.4355469</ele>
        <time>2010-07-24T12:29:37Z</time>
      </trkpt>
      <trkpt lat="44.42855" lon="6.68882">
        <ele>2147.7226562</ele>
        <time>2010-07-24T12:29:43Z</time>
      </trkpt>
      <trkpt lat="44.4285" lon="6.6888">
        <ele>2154.4516602</ele>
        <time>2010-07-24T12:29:50Z</time>
      </trkpt>
      <trkpt lat="44.42836" lon="6.68889">
        <ele>2172.717041</ele>
        <time>2010-07-24T12:30:14Z</time>
      </trkpt>
      <trkpt lat="44.42835" lon="6.68885">
        <ele>2172.2363281</ele>
        <time>2010-07-24T12:30:18Z</time>
      </trkpt>
      <trkpt lat="44.42831" lon="6.6888">
        <ele>2171.7553711</ele>
        <time>2010-07-24T12:30:24Z</time>
      </trkpt>
      <trkpt lat="44.42833" lon="6.68873">
        <ele>2170.3134766</ele>
        <time>2010-07-24T12:30:28Z</time>
      </trkpt>
      <trkpt lat="44.42834" lon="6.68861">
        <ele>2162.6230469</ele>
        <time>2010-07-24T12:30:37Z</time>
      </trkpt>
      <trkpt lat="44.42837" lon="6.68858">
        <ele>2157.3359375</ele>
        <time>2010-07-24T12:30:45Z</time>
      </trkpt>
      <trkpt lat="44.42841" lon="6.68859">
        <ele>2158.777832</ele>
        <time>2010-07-24T12:30:50Z</time>
      </trkpt>
      <trkpt lat="44.42846" lon="6.68861">
        <ele>2160.7004395</ele>
        <time>2010-07-24T12:30:58Z</time>
      </trkpt>
      <trkpt lat="44.42855" lon="6.68858">
        <ele>2161.1811523</ele>
        <time>2010-07-24T12:31:05Z</time>
      </trkpt>
      <trkpt lat="44.42861" lon="6.68851">
        <ele>2159.7390137</ele>
        <time>2010-07-24T12:31:13Z</time>
      </trkpt>
      <trkpt lat="44.42866" lon="6.68847">
        <ele>2159.2585449</ele>
        <time>2010-07-24T12:31:17Z</time>
      </trkpt>
      <trkpt lat="44.42869" lon="6.68845">
        <ele>2160.2197266</ele>
        <time>2010-07-24T12:31:20Z</time>
      </trkpt>
      <trkpt lat="44.42874" lon="6.68838">
        <ele>2162.142334</ele>
        <time>2010-07-24T12:31:25Z</time>
      </trkpt>
      <trkpt lat="44.42878" lon="6.6883">
        <ele>2162.6230469</ele>
        <time>2010-07-24T12:31:33Z</time>
      </trkpt>
      <trkpt lat="44.42882" lon="6.68819">
        <ele>2165.0263672</ele>
        <time>2010-07-24T12:31:55Z</time>
      </trkpt>
      <trkpt lat="44.42886" lon="6.68812">
        <ele>2162.6230469</ele>
        <time>2010-07-24T12:32:01Z</time>
      </trkpt>
      <trkpt lat="44.42889" lon="6.6881">
        <ele>2164.0649414</ele>
        <time>2010-07-24T12:32:09Z</time>
      </trkpt>
      <trkpt lat="44.42891" lon="6.68804">
        <ele>2163.1037598</ele>
        <time>2010-07-24T12:32:15Z</time>
      </trkpt>
      <trkpt lat="44.42894" lon="6.688">
        <ele>2164.5456543</ele>
        <time>2010-07-24T12:32:21Z</time>
      </trkpt>
      <trkpt lat="44.42897" lon="6.68794">
        <ele>2163.5842285</ele>
        <time>2010-07-24T12:32:27Z</time>
      </trkpt>
      <trkpt lat="44.42901" lon="6.68791">
        <ele>2164.0649414</ele>
        <time>2010-07-24T12:32:32Z</time>
      </trkpt>
      <trkpt lat="44.42905" lon="6.68785">
        <ele>2165.0263672</ele>
        <time>2010-07-24T12:32:38Z</time>
      </trkpt>
      <trkpt lat="44.42908" lon="6.68781">
        <ele>2164.5456543</ele>
        <time>2010-07-24T12:32:44Z</time>
      </trkpt>
      <trkpt lat="44.42906" lon="6.68782">
        <ele>2171.2746582</ele>
        <time>2010-07-24T12:32:57Z</time>
      </trkpt>
      <trkpt lat="44.42905" lon="6.6878">
        <ele>2174.1589355</ele>
        <time>2010-07-24T12:33:02Z</time>
      </trkpt>
      <trkpt lat="44.42899" lon="6.6878">
        <ele>2179.9267578</ele>
        <time>2010-07-24T12:33:10Z</time>
      </trkpt>
      <trkpt lat="44.42895" lon="6.68778">
        <ele>2182.3300781</ele>
        <time>2010-07-24T12:33:15Z</time>
      </trkpt>
      <trkpt lat="44.42893" lon="6.68778">
        <ele>2182.3300781</ele>
        <time>2010-07-24T12:33:16Z</time>
      </trkpt>
      <trkpt lat="44.42886" lon="6.68776">
        <ele>2177.0429688</ele>
        <time>2010-07-24T12:33:25Z</time>
      </trkpt>
      <trkpt lat="44.42883" lon="6.68775">
        <ele>2176.081543</ele>
        <time>2010-07-24T12:33:30Z</time>
      </trkpt>
      <trkpt lat="44.42879" lon="6.68779">
        <ele>2178.4848633</ele>
        <time>2010-07-24T12:33:35Z</time>
      </trkpt>
      <trkpt lat="44.42877" lon="6.68779">
        <ele>2179.9267578</ele>
        <time>2010-07-24T12:33:38Z</time>
      </trkpt>
      <trkpt lat="44.42871" lon="6.68778">
        <ele>2182.8105469</ele>
        <time>2010-07-24T12:33:43Z</time>
      </trkpt>
      <trkpt lat="44.42866" lon="6.68781">
        <ele>2186.175293</ele>
        <time>2010-07-24T12:33:47Z</time>
      </trkpt>
      <trkpt lat="44.42861" lon="6.68777">
        <ele>2188.0981445</ele>
        <time>2010-07-24T12:33:52Z</time>
      </trkpt>
      <trkpt lat="44.4286" lon="6.68763">
        <ele>2192.904541</ele>
        <time>2010-07-24T12:33:59Z</time>
      </trkpt>
      <trkpt lat="44.42852" lon="6.68759">
        <ele>2190.9819336</ele>
        <time>2010-07-24T12:34:04Z</time>
      </trkpt>
      <trkpt lat="44.42846" lon="6.68749">
        <ele>2188.5788574</ele>
        <time>2010-07-24T12:34:10Z</time>
      </trkpt>
      <trkpt lat="44.42835" lon="6.68741">
        <ele>2192.4240723</ele>
        <time>2010-07-24T12:34:17Z</time>
      </trkpt>
      <trkpt lat="44.42826" lon="6.68741">
        <ele>2194.8271484</ele>
        <time>2010-07-24T12:34:25Z</time>
      </trkpt>
      <trkpt lat="44.42819" lon="6.68738">
        <ele>2196.2692871</ele>
        <time>2010-07-24T12:34:33Z</time>
      </trkpt>
      <trkpt lat="44.42811" lon="6.68735">
        <ele>2196.7497559</ele>
        <time>2010-07-24T12:34:40Z</time>
      </trkpt>
      <trkpt lat="44.42808" lon="6.6873">
        <ele>2197.7111816</ele>
        <time>2010-07-24T12:34:44Z</time>
      </trkpt>
      <trkpt lat="44.42809" lon="6.68723">
        <ele>2197.2304688</ele>
        <time>2010-07-24T12:34:48Z</time>
      </trkpt>
      <trkpt lat="44.42819" lon="6.68718">
        <ele>2196.2692871</ele>
        <time>2010-07-24T12:34:56Z</time>
      </trkpt>
      <trkpt lat="44.42823" lon="6.68716">
        <ele>2196.7497559</ele>
        <time>2010-07-24T12:35:00Z</time>
      </trkpt>
      <trkpt lat="44.42828" lon="6.68708">
        <ele>2199.6337891</ele>
        <time>2010-07-24T12:35:08Z</time>
      </trkpt>
      <trkpt lat="44.42834" lon="6.68703">
        <ele>2202.0368652</ele>
        <time>2010-07-24T12:35:15Z</time>
      </trkpt>
      <trkpt lat="44.4284" lon="6.687">
        <ele>2203.9597168</ele>
        <time>2010-07-24T12:35:20Z</time>
      </trkpt>
      <trkpt lat="44.42843" lon="6.68699">
        <ele>2203.9597168</ele>
        <time>2010-07-24T12:35:23Z</time>
      </trkpt>
      <trkpt lat="44.42849" lon="6.68698">
        <ele>2209.2470703</ele>
        <time>2010-07-24T12:35:30Z</time>
      </trkpt>
      <trkpt lat="44.42857" lon="6.68695">
        <ele>2209.2470703</ele>
        <time>2010-07-24T12:35:36Z</time>
      </trkpt>
      <trkpt lat="44.42862" lon="6.68695">
        <ele>2211.6503906</ele>
        <time>2010-07-24T12:35:41Z</time>
      </trkpt>
      <trkpt lat="44.42866" lon="6.687">
        <ele>2213.0922852</ele>
        <time>2010-07-24T12:35:47Z</time>
      </trkpt>
      <trkpt lat="44.42876" lon="6.68704">
        <ele>2213.5727539</ele>
        <time>2010-07-24T12:35:55Z</time>
      </trkpt>
      <trkpt lat="44.42883" lon="6.68704">
        <ele>2212.1308594</ele>
        <time>2010-07-24T12:36:00Z</time>
      </trkpt>
      <trkpt lat="44.42888" lon="6.68702">
        <ele>2213.5727539</ele>
        <time>2010-07-24T12:36:05Z</time>
      </trkpt>
      <trkpt lat="44.42889" lon="6.68699">
        <ele>2213.5727539</ele>
        <time>2010-07-24T12:36:07Z</time>
      </trkpt>
      <trkpt lat="44.42898" lon="6.68687">
        <ele>2211.1696777</ele>
        <time>2010-07-24T12:36:15Z</time>
      </trkpt>
      <trkpt lat="44.42899" lon="6.68685">
        <ele>2210.6889648</ele>
        <time>2010-07-24T12:36:16Z</time>
      </trkpt>
      <trkpt lat="44.42908" lon="6.68678">
        <ele>2210.208252</ele>
        <time>2010-07-24T12:36:25Z</time>
      </trkpt>
      <trkpt lat="44.42914" lon="6.68676">
        <ele>2213.0922852</ele>
        <time>2010-07-24T12:36:30Z</time>
      </trkpt>
      <trkpt lat="44.42918" lon="6.68674">
        <ele>2213.5727539</ele>
        <time>2010-07-24T12:36:35Z</time>
      </trkpt>
      <trkpt lat="44.42923" lon="6.68672">
        <ele>2216.4567871</ele>
        <time>2010-07-24T12:36:39Z</time>
      </trkpt>
      <trkpt lat="44.42926" lon="6.68671">
        <ele>2217.8986816</ele>
        <time>2010-07-24T12:36:43Z</time>
      </trkpt>
      <trkpt lat="44.42929" lon="6.68668">
        <ele>2221.2634277</ele>
        <time>2010-07-24T12:36:47Z</time>
      </trkpt>
      <trkpt lat="44.42932" lon="6.68667">
        <ele>2223.1862793</ele>
        <time>2010-07-24T12:36:51Z</time>
      </trkpt>
      <trkpt lat="44.42935" lon="6.68665">
        <ele>2221.7441406</ele>
        <time>2010-07-24T12:36:55Z</time>
      </trkpt>
      <trkpt lat="44.42939" lon="6.6866">
        <ele>2220.782959</ele>
        <time>2010-07-24T12:36:59Z</time>
      </trkpt>
      <trkpt lat="44.42945" lon="6.68655">
        <ele>2220.782959</ele>
        <time>2010-07-24T12:37:07Z</time>
      </trkpt>
      <trkpt lat="44.42949" lon="6.6865">
        <ele>2221.7441406</ele>
        <time>2010-07-24T12:37:12Z</time>
      </trkpt>
      <trkpt lat="44.42954" lon="6.68643">
        <ele>2221.7441406</ele>
        <time>2010-07-24T12:37:18Z</time>
      </trkpt>
      <trkpt lat="44.42961" lon="6.68636">
        <ele>2218.8601074</ele>
        <time>2010-07-24T12:37:24Z</time>
      </trkpt>
      <trkpt lat="44.42964" lon="6.6863">
        <ele>2218.8601074</ele>
        <time>2010-07-24T12:37:28Z</time>
      </trkpt>
      <trkpt lat="44.42971" lon="6.68622">
        <ele>2217.4179688</ele>
        <time>2010-07-24T12:37:35Z</time>
      </trkpt>
      <trkpt lat="44.42977" lon="6.68618">
        <ele>2216.9375</ele>
        <time>2010-07-24T12:37:41Z</time>
      </trkpt>
      <trkpt lat="44.42988" lon="6.68611">
        <ele>2221.7441406</ele>
        <time>2010-07-24T12:37:48Z</time>
      </trkpt>
      <trkpt lat="44.4299" lon="6.68611">
        <ele>2224.6281738</ele>
        <time>2010-07-24T12:37:52Z</time>
      </trkpt>
      <trkpt lat="44.42994" lon="6.68609">
        <ele>2228.9538574</ele>
        <time>2010-07-24T12:37:57Z</time>
      </trkpt>
      <trkpt lat="44.42995" lon="6.68602">
        <ele>2231.3571777</ele>
        <time>2010-07-24T12:38:03Z</time>
      </trkpt>
      <trkpt lat="44.42991" lon="6.68603">
        <ele>2244.3349609</ele>
        <time>2010-07-24T12:38:11Z</time>
      </trkpt>
      <trkpt lat="44.42991" lon="6.68606">
        <ele>2248.1801758</ele>
        <time>2010-07-24T12:38:14Z</time>
      </trkpt>
      <trkpt lat="44.4298" lon="6.68617">
        <ele>2253.9484863</ele>
        <time>2010-07-24T12:38:21Z</time>
      </trkpt>
      <trkpt lat="44.42968" lon="6.68629">
        <ele>2259.7160645</ele>
        <time>2010-07-24T12:38:28Z</time>
      </trkpt>
      <trkpt lat="44.42947" lon="6.68635">
        <ele>2259.2355957</ele>
        <time>2010-07-24T12:38:35Z</time>
      </trkpt>
      <trkpt lat="44.42928" lon="6.68635">
        <ele>2259.7160645</ele>
        <time>2010-07-24T12:38:41Z</time>
      </trkpt>
      <trkpt lat="44.42913" lon="6.68634">
        <ele>2256.8322754</ele>
        <time>2010-07-24T12:38:46Z</time>
      </trkpt>
      <trkpt lat="44.42895" lon="6.68627">
        <ele>2249.6223145</ele>
        <time>2010-07-24T12:38:52Z</time>
      </trkpt>
      <trkpt lat="44.42889" lon="6.68605">
        <ele>2242.8930664</ele>
        <time>2010-07-24T12:38:57Z</time>
      </trkpt>
      <trkpt lat="44.42888" lon="6.68577">
        <ele>2235.2023926</ele>
        <time>2010-07-24T12:39:03Z</time>
      </trkpt>
      <trkpt lat="44.42893" lon="6.68562">
        <ele>2230.876709</ele>
        <time>2010-07-24T12:39:08Z</time>
      </trkpt>
      <trkpt lat="44.42895" lon="6.68543">
        <ele>2228.4733887</ele>
        <time>2010-07-24T12:39:13Z</time>
      </trkpt>
      <trkpt lat="44.42888" lon="6.68529">
        <ele>2227.9926758</ele>
        <time>2010-07-24T12:39:18Z</time>
      </trkpt>
      <trkpt lat="44.42887" lon="6.68509">
        <ele>2229.9152832</ele>
        <time>2010-07-24T12:39:23Z</time>
      </trkpt>
      <trkpt lat="44.42894" lon="6.68488">
        <ele>2229.9152832</ele>
        <time>2010-07-24T12:39:29Z</time>
      </trkpt>
      <trkpt lat="44.42899" lon="6.68467">
        <ele>2234.2412109</ele>
        <time>2010-07-24T12:39:34Z</time>
      </trkpt>
      <trkpt lat="44.42901" lon="6.68448">
        <ele>2240.4897461</ele>
        <time>2010-07-24T12:39:38Z</time>
      </trkpt>
      <trkpt lat="44.42895" lon="6.68422">
        <ele>2245.7770996</ele>
        <time>2010-07-24T12:39:43Z</time>
      </trkpt>
      <trkpt lat="44.42886" lon="6.68395">
        <ele>2249.6223145</ele>
        <time>2010-07-24T12:39:49Z</time>
      </trkpt>
      <trkpt lat="44.42875" lon="6.68368">
        <ele>2256.8322754</ele>
        <time>2010-07-24T12:39:55Z</time>
      </trkpt>
      <trkpt lat="44.42856" lon="6.68354">
        <ele>2271.732666</ele>
        <time>2010-07-24T12:40:00Z</time>
      </trkpt>
      <trkpt lat="44.42853" lon="6.6834">
        <ele>2265.4841309</ele>
        <time>2010-07-24T12:40:04Z</time>
      </trkpt>
      <trkpt lat="44.42864" lon="6.68329">
        <ele>2242.8930664</ele>
        <time>2010-07-24T12:40:08Z</time>
      </trkpt>
      <trkpt lat="44.42866" lon="6.68312">
        <ele>2240.970459</ele>
        <time>2010-07-24T12:40:13Z</time>
      </trkpt>
      <trkpt lat="44.42867" lon="6.68307">
        <ele>2242.4125977</ele>
        <time>2010-07-24T12:40:17Z</time>
      </trkpt>
      <trkpt lat="44.42848" lon="6.68287">
        <ele>2267.4064941</ele>
        <time>2010-07-24T12:40:35Z</time>
      </trkpt>
      <trkpt lat="44.42855" lon="6.68285">
        <ele>2265.9645996</ele>
        <time>2010-07-24T12:40:40Z</time>
      </trkpt>
      <trkpt lat="44.42857" lon="6.68274">
        <ele>2265.4841309</ele>
        <time>2010-07-24T12:40:44Z</time>
      </trkpt>
      <trkpt lat="44.42854" lon="6.68263">
        <ele>2265.4841309</ele>
        <time>2010-07-24T12:40:48Z</time>
      </trkpt>
      <trkpt lat="44.42854" lon="6.68252">
        <ele>2254.909668</ele>
        <time>2010-07-24T12:40:53Z</time>
      </trkpt>
      <trkpt lat="44.42855" lon="6.68233">
        <ele>2250.1030273</ele>
        <time>2010-07-24T12:40:58Z</time>
      </trkpt>
      <trkpt lat="44.42856" lon="6.68217">
        <ele>2244.3349609</ele>
        <time>2010-07-24T12:41:03Z</time>
      </trkpt>
      <trkpt lat="44.42848" lon="6.68195">
        <ele>2252.5063477</ele>
        <time>2010-07-24T12:41:09Z</time>
      </trkpt>
      <trkpt lat="44.42835" lon="6.68172">
        <ele>2258.7548828</ele>
        <time>2010-07-24T12:41:15Z</time>
      </trkpt>
      <trkpt lat="44.42826" lon="6.6816">
        <ele>2260.6774902</ele>
        <time>2010-07-24T12:41:19Z</time>
      </trkpt>
      <trkpt lat="44.42825" lon="6.68155">
        <ele>2256.3515625</ele>
        <time>2010-07-24T12:41:21Z</time>
      </trkpt>
      <trkpt lat="44.42823" lon="6.68132">
        <ele>2242.4125977</ele>
        <time>2010-07-24T12:41:29Z</time>
      </trkpt>
      <trkpt lat="44.42823" lon="6.68117">
        <ele>2233.760498</ele>
        <time>2010-07-24T12:41:34Z</time>
      </trkpt>
      <trkpt lat="44.42816" lon="6.68102">
        <ele>2229.9152832</ele>
        <time>2010-07-24T12:41:38Z</time>
      </trkpt>
      <trkpt lat="44.42799" lon="6.68088">
        <ele>2227.9926758</ele>
        <time>2010-07-24T12:41:44Z</time>
      </trkpt>
      <trkpt lat="44.42786" lon="6.68081">
        <ele>2225.1086426</ele>
        <time>2010-07-24T12:41:48Z</time>
      </trkpt>
      <trkpt lat="44.42776" lon="6.68081">
        <ele>2223.1862793</ele>
        <time>2010-07-24T12:41:50Z</time>
      </trkpt>
      <trkpt lat="44.42756" lon="6.68088">
        <ele>2218.3793945</ele>
        <time>2010-07-24T12:41:54Z</time>
      </trkpt>
      <trkpt lat="44.42742" lon="6.68089">
        <ele>2214.5341797</ele>
        <time>2010-07-24T12:41:58Z</time>
      </trkpt>
      <trkpt lat="44.42744" lon="6.68088">
        <ele>2208.2856445</ele>
        <time>2010-07-24T12:42:04Z</time>
      </trkpt>
      <trkpt lat="44.42747" lon="6.6809">
        <ele>2202.998291</ele>
        <time>2010-07-24T12:42:14Z</time>
      </trkpt>
      <trkpt lat="44.42747" lon="6.68091">
        <ele>2204.4404297</ele>
        <time>2010-07-24T12:42:31Z</time>
      </trkpt>
      <trkpt lat="44.42742" lon="6.68095">
        <ele>2215.0148926</ele>
        <time>2010-07-24T12:42:45Z</time>
      </trkpt>
      <trkpt lat="44.4273" lon="6.68097">
        <ele>2236.1640625</ele>
        <time>2010-07-24T12:43:36Z</time>
      </trkpt>
      <trkpt lat="44.42729" lon="6.68096">
        <ele>2238.0866699</ele>
        <time>2010-07-24T12:43:48Z</time>
      </trkpt>
      <trkpt lat="44.42729" lon="6.68094">
        <ele>2237.605957</ele>
        <time>2010-07-24T12:44:03Z</time>
      </trkpt>
      <trkpt lat="44.42729" lon="6.68093">
        <ele>2236.1640625</ele>
        <time>2010-07-24T12:44:22Z</time>
      </trkpt>
      <trkpt lat="44.42733" lon="6.6809">
        <ele>2229.4345703</ele>
        <time>2010-07-24T12:44:38Z</time>
      </trkpt>
      <trkpt lat="44.42735" lon="6.68089">
        <ele>2226.0700684</ele>
        <time>2010-07-24T12:45:23Z</time>
      </trkpt>
      <trkpt lat="44.42738" lon="6.6809">
        <ele>2220.3022461</ele>
        <time>2010-07-24T12:57:21Z</time>
      </trkpt>
      <trkpt lat="44.42742" lon="6.6809">
        <ele>2213.0922852</ele>
        <time>2010-07-24T13:00:13Z</time>
      </trkpt>
      <trkpt lat="44.42741" lon="6.6809">
        <ele>2215.4956055</ele>
        <time>2010-07-24T13:00:36Z</time>
      </trkpt>
      <trkpt lat="44.42739" lon="6.68089">
        <ele>2217.8986816</ele>
        <time>2010-07-24T13:01:09Z</time>
      </trkpt>
      <trkpt lat="44.42742" lon="6.68087">
        <ele>2217.4179688</ele>
        <time>2010-07-24T13:01:21Z</time>
      </trkpt>
      <trkpt lat="44.42742" lon="6.68086">
        <ele>2220.782959</ele>
        <time>2010-07-24T13:01:26Z</time>
      </trkpt>
      <trkpt lat="44.42738" lon="6.6807">
        <ele>2223.1862793</ele>
        <time>2010-07-24T13:01:31Z</time>
      </trkpt>
      <trkpt lat="44.42739" lon="6.68069">
        <ele>2224.1474609</ele>
        <time>2010-07-24T13:01:32Z</time>
      </trkpt>
      <trkpt lat="44.42749" lon="6.68057">
        <ele>2225.5893555</ele>
        <time>2010-07-24T13:01:38Z</time>
      </trkpt>
      <trkpt lat="44.4275" lon="6.68054">
        <ele>2225.1086426</ele>
        <time>2010-07-24T13:01:39Z</time>
      </trkpt>
      <trkpt lat="44.42753" lon="6.68035">
        <ele>2229.9152832</ele>
        <time>2010-07-24T13:01:46Z</time>
      </trkpt>
      <trkpt lat="44.42756" lon="6.68022">
        <ele>2235.6831055</ele>
        <time>2010-07-24T13:01:51Z</time>
      </trkpt>
      <trkpt lat="44.4276" lon="6.68008">
        <ele>2238.0866699</ele>
        <time>2010-07-24T13:01:55Z</time>
      </trkpt>
      <trkpt lat="44.42764" lon="6.67995">
        <ele>2248.1801758</ele>
        <time>2010-07-24T13:02:01Z</time>
      </trkpt>
      <trkpt lat="44.42766" lon="6.67987">
        <ele>2252.9870605</ele>
        <time>2010-07-24T13:02:05Z</time>
      </trkpt>
      <trkpt lat="44.42768" lon="6.67984">
        <ele>2252.9870605</ele>
        <time>2010-07-24T13:02:07Z</time>
      </trkpt>
      <trkpt lat="44.42776" lon="6.67978">
        <ele>2251.5449219</ele>
        <time>2010-07-24T13:02:13Z</time>
      </trkpt>
      <trkpt lat="44.42773" lon="6.6797">
        <ele>2245.7770996</ele>
        <time>2010-07-24T13:02:25Z</time>
      </trkpt>
      <trkpt lat="44.42783" lon="6.67966">
        <ele>2241.4511719</ele>
        <time>2010-07-24T13:02:29Z</time>
      </trkpt>
      <trkpt lat="44.42783" lon="6.67964">
        <ele>2242.4125977</ele>
        <time>2010-07-24T13:02:30Z</time>
      </trkpt>
      <trkpt lat="44.42784" lon="6.67937">
        <ele>2242.8930664</ele>
        <time>2010-07-24T13:02:36Z</time>
      </trkpt>
      <trkpt lat="44.4279" lon="6.67911">
        <ele>2238.5673828</ele>
        <time>2010-07-24T13:02:42Z</time>
      </trkpt>
      <trkpt lat="44.42795" lon="6.67903">
        <ele>2238.5673828</ele>
        <time>2010-07-24T13:02:44Z</time>
      </trkpt>
      <trkpt lat="44.42803" lon="6.67895">
        <ele>2238.5673828</ele>
        <time>2010-07-24T13:02:46Z</time>
      </trkpt>
      <trkpt lat="44.42814" lon="6.67869">
        <ele>2238.5673828</ele>
        <time>2010-07-24T13:02:50Z</time>
      </trkpt>
      <trkpt lat="44.42816" lon="6.67845">
        <ele>2240.0092773</ele>
        <time>2010-07-24T13:02:54Z</time>
      </trkpt>
      <trkpt lat="44.42809" lon="6.67848">
        <ele>2237.605957</ele>
        <time>2010-07-24T13:02:59Z</time>
      </trkpt>
      <trkpt lat="44.42799" lon="6.6785">
        <ele>2240.4897461</ele>
        <time>2010-07-24T13:03:01Z</time>
      </trkpt>
      <trkpt lat="44.4278" lon="6.67846">
        <ele>2243.3737793</ele>
        <time>2010-07-24T13:03:06Z</time>
      </trkpt>
      <trkpt lat="44.42775" lon="6.67839">
        <ele>2243.3737793</ele>
        <time>2010-07-24T13:03:08Z</time>
      </trkpt>
      <trkpt lat="44.42766" lon="6.67837">
        <ele>2241.9318848</ele>
        <time>2010-07-24T13:03:13Z</time>
      </trkpt>
      <trkpt lat="44.42786" lon="6.67832">
        <ele>2218.3793945</ele>
        <time>2010-07-24T13:03:26Z</time>
      </trkpt>
      <trkpt lat="44.42806" lon="6.67842">
        <ele>2209.2470703</ele>
        <time>2010-07-24T13:03:35Z</time>
      </trkpt>
      <trkpt lat="44.42783" lon="6.6786">
        <ele>2240.4897461</ele>
        <time>2010-07-24T13:03:51Z</time>
      </trkpt>
      <trkpt lat="44.4278" lon="6.67855">
        <ele>2239.0478516</ele>
        <time>2010-07-24T13:03:59Z</time>
      </trkpt>
      <trkpt lat="44.42776" lon="6.67845">
        <ele>2230.876709</ele>
        <time>2010-07-24T13:04:06Z</time>
      </trkpt>
      <trkpt lat="44.42772" lon="6.67844">
        <ele>2232.3186035</ele>
        <time>2010-07-24T13:04:07Z</time>
      </trkpt>
      <trkpt lat="44.42759" lon="6.6785">
        <ele>2229.4345703</ele>
        <time>2010-07-24T13:04:12Z</time>
      </trkpt>
      <trkpt lat="44.42751" lon="6.67845">
        <ele>2227.9926758</ele>
        <time>2010-07-24T13:04:15Z</time>
      </trkpt>
      <trkpt lat="44.42728" lon="6.67839">
        <ele>2229.4345703</ele>
        <time>2010-07-24T13:04:21Z</time>
      </trkpt>
      <trkpt lat="44.42702" lon="6.67827">
        <ele>2232.7990723</ele>
        <time>2010-07-24T13:04:27Z</time>
      </trkpt>
      <trkpt lat="44.4268" lon="6.67812">
        <ele>2235.6831055</ele>
        <time>2010-07-24T13:04:31Z</time>
      </trkpt>
      <trkpt lat="44.42651" lon="6.67786">
        <ele>2237.1252441</ele>
        <time>2010-07-24T13:04:38Z</time>
      </trkpt>
      <trkpt lat="44.42632" lon="6.67772">
        <ele>2240.970459</ele>
        <time>2010-07-24T13:04:43Z</time>
      </trkpt>
      <trkpt lat="44.42617" lon="6.67761">
        <ele>2239.0478516</ele>
        <time>2010-07-24T13:04:48Z</time>
      </trkpt>
      <trkpt lat="44.42601" lon="6.67748">
        <ele>2231.8378906</ele>
        <time>2010-07-24T13:04:53Z</time>
      </trkpt>
      <trkpt lat="44.42584" lon="6.67736">
        <ele>2225.5893555</ele>
        <time>2010-07-24T13:04:58Z</time>
      </trkpt>
      <trkpt lat="44.42563" lon="6.67732">
        <ele>2225.1086426</ele>
        <time>2010-07-24T13:05:02Z</time>
      </trkpt>
      <trkpt lat="44.42551" lon="6.67728">
        <ele>2221.7441406</ele>
        <time>2010-07-24T13:05:04Z</time>
      </trkpt>
      <trkpt lat="44.42527" lon="6.67725">
        <ele>2220.3022461</ele>
        <time>2010-07-24T13:05:09Z</time>
      </trkpt>
      <trkpt lat="44.42512" lon="6.67727">
        <ele>2218.8601074</ele>
        <time>2010-07-24T13:05:13Z</time>
      </trkpt>
      <trkpt lat="44.4248" lon="6.67724">
        <ele>2211.1696777</ele>
        <time>2010-07-24T13:05:18Z</time>
      </trkpt>
      <trkpt lat="44.42448" lon="6.67713">
        <ele>2203.9597168</ele>
        <time>2010-07-24T13:05:23Z</time>
      </trkpt>
      <trkpt lat="44.42424" lon="6.67706">
        <ele>2198.6723633</ele>
        <time>2010-07-24T13:05:27Z</time>
      </trkpt>
      <trkpt lat="44.42393" lon="6.67688">
        <ele>2190.9819336</ele>
        <time>2010-07-24T13:05:33Z</time>
      </trkpt>
      <trkpt lat="44.42376" lon="6.67689">
        <ele>2188.0981445</ele>
        <time>2010-07-24T13:05:38Z</time>
      </trkpt>
      <trkpt lat="44.42373" lon="6.67689">
        <ele>2188.0981445</ele>
        <time>2010-07-24T13:05:40Z</time>
      </trkpt>
      <trkpt lat="44.42364" lon="6.67698">
        <ele>2186.6557617</ele>
        <time>2010-07-24T13:05:44Z</time>
      </trkpt>
      <trkpt lat="44.4236" lon="6.677">
        <ele>2186.175293</ele>
        <time>2010-07-24T13:05:45Z</time>
      </trkpt>
      <trkpt lat="44.42344" lon="6.67713">
        <ele>2185.6945801</ele>
        <time>2010-07-24T13:05:49Z</time>
      </trkpt>
      <trkpt lat="44.42319" lon="6.67711">
        <ele>2179.9267578</ele>
        <time>2010-07-24T13:05:54Z</time>
      </trkpt>
      <trkpt lat="44.42304" lon="6.6771">
        <ele>2178.4848633</ele>
        <time>2010-07-24T13:05:57Z</time>
      </trkpt>
      <trkpt lat="44.42286" lon="6.67721">
        <ele>2177.0429688</ele>
        <time>2010-07-24T13:06:01Z</time>
      </trkpt>
      <trkpt lat="44.42272" lon="6.67731">
        <ele>2177.0429688</ele>
        <time>2010-07-24T13:06:04Z</time>
      </trkpt>
      <trkpt lat="44.42246" lon="6.67766">
        <ele>2174.1589355</ele>
        <time>2010-07-24T13:06:10Z</time>
      </trkpt>
      <trkpt lat="44.42222" lon="6.67786">
        <ele>2168.3908691</ele>
        <time>2010-07-24T13:06:15Z</time>
      </trkpt>
      <trkpt lat="44.42209" lon="6.67785">
        <ele>2159.2585449</ele>
        <time>2010-07-24T13:06:19Z</time>
      </trkpt>
      <trkpt lat="44.42211" lon="6.67786">
        <ele>2157.8166504</ele>
        <time>2010-07-24T13:06:20Z</time>
      </trkpt>
      <trkpt lat="44.42232" lon="6.67787">
        <ele>2146.7612305</ele>
        <time>2010-07-24T13:06:25Z</time>
      </trkpt>
      <trkpt lat="44.4225" lon="6.6778">
        <ele>2140.5126953</ele>
        <time>2010-07-24T13:06:29Z</time>
      </trkpt>
      <trkpt lat="44.42257" lon="6.67775">
        <ele>2138.109375</ele>
        <time>2010-07-24T13:06:33Z</time>
      </trkpt>
      <trkpt lat="44.42267" lon="6.67772">
        <ele>2138.109375</ele>
        <time>2010-07-24T13:06:38Z</time>
      </trkpt>
      <trkpt lat="44.42284" lon="6.67764">
        <ele>2135.7060547</ele>
        <time>2010-07-24T13:06:42Z</time>
      </trkpt>
      <trkpt lat="44.42299" lon="6.67768">
        <ele>2134.744873</ele>
        <time>2010-07-24T13:06:46Z</time>
      </trkpt>
      <trkpt lat="44.42298" lon="6.67785">
        <ele>2140.9934082</ele>
        <time>2010-07-24T13:06:50Z</time>
      </trkpt>
      <trkpt lat="44.42294" lon="6.6779">
        <ele>2142.9160156</ele>
        <time>2010-07-24T13:06:51Z</time>
      </trkpt>
      <trkpt lat="44.42281" lon="6.67807">
        <ele>2146.2807617</ele>
        <time>2010-07-24T13:06:54Z</time>
      </trkpt>
      <trkpt lat="44.42261" lon="6.67837">
        <ele>2148.203125</ele>
        <time>2010-07-24T13:06:59Z</time>
      </trkpt>
      <trkpt lat="44.42256" lon="6.67843">
        <ele>2148.6838379</ele>
        <time>2010-07-24T13:07:00Z</time>
      </trkpt>
      <trkpt lat="44.42241" lon="6.67856">
        <ele>2147.7226562</ele>
        <time>2010-07-24T13:07:03Z</time>
      </trkpt>
      <trkpt lat="44.42214" lon="6.67857">
        <ele>2140.0322266</ele>
        <time>2010-07-24T13:07:08Z</time>
      </trkpt>
      <trkpt lat="44.42196" lon="6.67855">
        <ele>2130.4189453</ele>
        <time>2010-07-24T13:07:13Z</time>
      </trkpt>
      <trkpt lat="44.42197" lon="6.67856">
        <ele>2128.015625</ele>
        <time>2010-07-24T13:07:14Z</time>
      </trkpt>
      <trkpt lat="44.4222" lon="6.67858">
        <ele>2119.8442383</ele>
        <time>2010-07-24T13:07:18Z</time>
      </trkpt>
      <trkpt lat="44.42232" lon="6.67856">
        <ele>2113.5957031</ele>
        <time>2010-07-24T13:07:20Z</time>
      </trkpt>
      <trkpt lat="44.42245" lon="6.67856">
        <ele>2108.3085938</ele>
        <time>2010-07-24T13:07:22Z</time>
      </trkpt>
      <trkpt lat="44.42262" lon="6.67854">
        <ele>2103.982666</ele>
        <time>2010-07-24T13:07:25Z</time>
      </trkpt>
      <trkpt lat="44.42259" lon="6.67863">
        <ele>2099.1760254</ele>
        <time>2010-07-24T13:07:28Z</time>
      </trkpt>
      <trkpt lat="44.42254" lon="6.67866">
        <ele>2097.253418</ele>
        <time>2010-07-24T13:07:29Z</time>
      </trkpt>
      <trkpt lat="44.42222" lon="6.67884">
        <ele>2091.9660645</ele>
        <time>2010-07-24T13:07:34Z</time>
      </trkpt>
      <trkpt lat="44.42199" lon="6.67898">
        <ele>2089.0820312</ele>
        <time>2010-07-24T13:07:38Z</time>
      </trkpt>
      <trkpt lat="44.42183" lon="6.67892">
        <ele>2084.7563477</ele>
        <time>2010-07-24T13:07:42Z</time>
      </trkpt>
      <trkpt lat="44.42175" lon="6.67886">
        <ele>2083.7949219</ele>
        <time>2010-07-24T13:07:45Z</time>
      </trkpt>
      <trkpt lat="44.4215" lon="6.6789">
        <ele>2081.8723145</ele>
        <time>2010-07-24T13:07:50Z</time>
      </trkpt>
      <trkpt lat="44.42145" lon="6.67892">
        <ele>2081.3916016</ele>
        <time>2010-07-24T13:07:51Z</time>
      </trkpt>
      <trkpt lat="44.42114" lon="6.67896">
        <ele>2078.0270996</ele>
        <time>2010-07-24T13:07:56Z</time>
      </trkpt>
      <trkpt lat="44.42079" lon="6.67895">
        <ele>2075.1428223</ele>
        <time>2010-07-24T13:08:01Z</time>
      </trkpt>
      <trkpt lat="44.42049" lon="6.67889">
        <ele>2072.7397461</ele>
        <time>2010-07-24T13:08:05Z</time>
      </trkpt>
      <trkpt lat="44.42016" lon="6.67878">
        <ele>2062.1652832</ele>
        <time>2010-07-24T13:08:10Z</time>
      </trkpt>
      <trkpt lat="44.42007" lon="6.67886">
        <ele>2058.3198242</ele>
        <time>2010-07-24T13:08:14Z</time>
      </trkpt>
      <trkpt lat="44.42027" lon="6.67898">
        <ele>2051.5908203</ele>
        <time>2010-07-24T13:08:17Z</time>
      </trkpt>
      <trkpt lat="44.42034" lon="6.67904">
        <ele>2047.7456055</ele>
        <time>2010-07-24T13:08:19Z</time>
      </trkpt>
      <trkpt lat="44.42032" lon="6.67904">
        <ele>2046.3037109</ele>
        <time>2010-07-24T13:08:22Z</time>
      </trkpt>
      <trkpt lat="44.42016" lon="6.67906">
        <ele>2046.3037109</ele>
        <time>2010-07-24T13:08:25Z</time>
      </trkpt>
      <trkpt lat="44.41995" lon="6.67899">
        <ele>2041.4968262</ele>
        <time>2010-07-24T13:08:29Z</time>
      </trkpt>
      <trkpt lat="44.41983" lon="6.67882">
        <ele>2037.6516113</ele>
        <time>2010-07-24T13:08:32Z</time>
      </trkpt>
      <trkpt lat="44.41972" lon="6.67882">
        <ele>2035.7290039</ele>
        <time>2010-07-24T13:08:37Z</time>
      </trkpt>
      <trkpt lat="44.41973" lon="6.67907">
        <ele>2035.248291</ele>
        <time>2010-07-24T13:08:40Z</time>
      </trkpt>
      <trkpt lat="44.41974" lon="6.6791">
        <ele>2033.3256836</ele>
        <time>2010-07-24T13:08:43Z</time>
      </trkpt>
      <trkpt lat="44.41966" lon="6.67894">
        <ele>2029.9611816</ele>
        <time>2010-07-24T13:08:46Z</time>
      </trkpt>
      <trkpt lat="44.41955" lon="6.67901">
        <ele>2028.5192871</ele>
        <time>2010-07-24T13:08:50Z</time>
      </trkpt>
      <trkpt lat="44.4196" lon="6.67925">
        <ele>2026.5964355</ele>
        <time>2010-07-24T13:08:53Z</time>
      </trkpt>
      <trkpt lat="44.41969" lon="6.67937">
        <ele>2020.8286133</ele>
        <time>2010-07-24T13:08:56Z</time>
      </trkpt>
      <trkpt lat="44.41967" lon="6.67936">
        <ele>2019.3867188</ele>
        <time>2010-07-24T13:08:58Z</time>
      </trkpt>
      <trkpt lat="44.41954" lon="6.67922">
        <ele>2008.3312988</ele>
        <time>2010-07-24T13:09:02Z</time>
      </trkpt>
      <trkpt lat="44.41933" lon="6.67912">
        <ele>2002.0827637</ele>
        <time>2010-07-24T13:09:06Z</time>
      </trkpt>
      <trkpt lat="44.41932" lon="6.67913">
        <ele>2000.6408691</ele>
        <time>2010-07-24T13:09:07Z</time>
      </trkpt>
      <trkpt lat="44.41948" lon="6.67933">
        <ele>2000.6408691</ele>
        <time>2010-07-24T13:09:10Z</time>
      </trkpt>
      <trkpt lat="44.41958" lon="6.67949">
        <ele>1997.7570801</ele>
        <time>2010-07-24T13:09:12Z</time>
      </trkpt>
      <trkpt lat="44.41966" lon="6.67965">
        <ele>1999.1989746</ele>
        <time>2010-07-24T13:09:16Z</time>
      </trkpt>
      <trkpt lat="44.41962" lon="6.67963">
        <ele>2000.1604004</ele>
        <time>2010-07-24T13:09:19Z</time>
      </trkpt>
      <trkpt lat="44.41953" lon="6.67954">
        <ele>1993.4309082</ele>
        <time>2010-07-24T13:09:23Z</time>
      </trkpt>
      <trkpt lat="44.41939" lon="6.67951">
        <ele>1989.1049805</ele>
        <time>2010-07-24T13:09:27Z</time>
      </trkpt>
      <trkpt lat="44.41926" lon="6.67955">
        <ele>1980.934082</ele>
        <time>2010-07-24T13:09:32Z</time>
      </trkpt>
      <trkpt lat="44.41942" lon="6.67977">
        <ele>1979.0109863</ele>
        <time>2010-07-24T13:09:35Z</time>
      </trkpt>
      <trkpt lat="44.41963" lon="6.68008">
        <ele>1976.1271973</ele>
        <time>2010-07-24T13:09:40Z</time>
      </trkpt>
      <trkpt lat="44.41957" lon="6.68007">
        <ele>1979.4916992</ele>
        <time>2010-07-24T13:09:43Z</time>
      </trkpt>
      <trkpt lat="44.41925" lon="6.67989">
        <ele>1976.6079102</ele>
        <time>2010-07-24T13:09:48Z</time>
      </trkpt>
      <trkpt lat="44.41905" lon="6.67984">
        <ele>1975.6464844</ele>
        <time>2010-07-24T13:09:50Z</time>
      </trkpt>
      <trkpt lat="44.41852" lon="6.67967">
        <ele>1974.2045898</ele>
        <time>2010-07-24T13:09:56Z</time>
      </trkpt>
      <trkpt lat="44.41849" lon="6.67966">
        <ele>1972.2819824</ele>
        <time>2010-07-24T13:09:57Z</time>
      </trkpt>
      <trkpt lat="44.41872" lon="6.67993">
        <ele>1964.5915527</ele>
        <time>2010-07-24T13:10:01Z</time>
      </trkpt>
      <trkpt lat="44.4188" lon="6.68">
        <ele>1961.7075195</ele>
        <time>2010-07-24T13:10:02Z</time>
      </trkpt>
      <trkpt lat="44.41914" lon="6.68039">
        <ele>1954.0170898</ele>
        <time>2010-07-24T13:10:08Z</time>
      </trkpt>
      <trkpt lat="44.41918" lon="6.68044">
        <ele>1950.171875</ele>
        <time>2010-07-24T13:10:11Z</time>
      </trkpt>
      <trkpt lat="44.41915" lon="6.68044">
        <ele>1950.6523438</ele>
        <time>2010-07-24T13:10:12Z</time>
      </trkpt>
      <trkpt lat="44.4189" lon="6.68034">
        <ele>1945.8457031</ele>
        <time>2010-07-24T13:10:16Z</time>
      </trkpt>
      <trkpt lat="44.41873" lon="6.68028">
        <ele>1934.7907715</ele>
        <time>2010-07-24T13:10:21Z</time>
      </trkpt>
      <trkpt lat="44.41861" lon="6.68027">
        <ele>1929.9838867</ele>
        <time>2010-07-24T13:10:23Z</time>
      </trkpt>
      <trkpt lat="44.41847" lon="6.68021">
        <ele>1928.5419922</ele>
        <time>2010-07-24T13:10:25Z</time>
      </trkpt>
      <trkpt lat="44.41814" lon="6.68023">
        <ele>1922.293457</ele>
        <time>2010-07-24T13:10:30Z</time>
      </trkpt>
      <trkpt lat="44.41792" lon="6.68032">
        <ele>1918.9289551</ele>
        <time>2010-07-24T13:10:33Z</time>
      </trkpt>
      <trkpt lat="44.41753" lon="6.68045">
        <ele>1911.7189941</ele>
        <time>2010-07-24T13:10:38Z</time>
      </trkpt>
      <trkpt lat="44.41738" lon="6.68047">
        <ele>1910.2768555</ele>
        <time>2010-07-24T13:10:40Z</time>
      </trkpt>
      <trkpt lat="44.41728" lon="6.68047">
        <ele>1908.8349609</ele>
        <time>2010-07-24T13:10:44Z</time>
      </trkpt>
      <trkpt lat="44.41733" lon="6.68046">
        <ele>1909.3156738</ele>
        <time>2010-07-24T13:10:54Z</time>
      </trkpt>
      <trkpt lat="44.41732" lon="6.68048">
        <ele>1918.4482422</ele>
        <time>2010-07-24T13:11:53Z</time>
      </trkpt>
      <trkpt lat="44.4173" lon="6.68051">
        <ele>1922.293457</ele>
        <time>2010-07-24T13:12:01Z</time>
      </trkpt>
      <trkpt lat="44.41731" lon="6.68052">
        <ele>1922.293457</ele>
        <time>2010-07-24T13:12:07Z</time>
      </trkpt>
      <trkpt lat="44.4174" lon="6.68059">
        <ele>1918.9289551</ele>
        <time>2010-07-24T13:12:25Z</time>
      </trkpt>
      <trkpt lat="44.41739" lon="6.68058">
        <ele>1922.293457</ele>
        <time>2010-07-24T13:12:33Z</time>
      </trkpt>
      <trkpt lat="44.41736" lon="6.68057">
        <ele>1925.1772461</ele>
        <time>2010-07-24T13:12:43Z</time>
      </trkpt>
      <trkpt lat="44.41735" lon="6.68056">
        <ele>1925.657959</ele>
        <time>2010-07-24T13:12:55Z</time>
      </trkpt>
      <trkpt lat="44.41735" lon="6.68056">
        <ele>1926.6193848</ele>
        <time>2010-07-24T13:13:03Z</time>
      </trkpt>
      <trkpt lat="44.41739" lon="6.68064">
        <ele>1929.9838867</ele>
        <time>2010-07-24T13:13:38Z</time>
      </trkpt>
      <trkpt lat="44.41747" lon="6.68066">
        <ele>1926.6193848</ele>
        <time>2010-07-24T13:13:42Z</time>
      </trkpt>
      <trkpt lat="44.4177" lon="6.68077">
        <ele>1918.9289551</ele>
        <time>2010-07-24T13:13:47Z</time>
      </trkpt>
      <trkpt lat="44.41785" lon="6.68087">
        <ele>1910.2768555</ele>
        <time>2010-07-24T13:13:52Z</time>
      </trkpt>
      <trkpt lat="44.41783" lon="6.68087">
        <ele>1909.3156738</ele>
        <time>2010-07-24T13:13:53Z</time>
      </trkpt>
      <trkpt lat="44.41764" lon="6.68086">
        <ele>1902.1057129</ele>
        <time>2010-07-24T13:13:57Z</time>
      </trkpt>
      <trkpt lat="44.41752" lon="6.68084">
        <ele>1897.7797852</ele>
        <time>2010-07-24T13:13:59Z</time>
      </trkpt>
      <trkpt lat="44.41739" lon="6.68087">
        <ele>1895.3764648</ele>
        <time>2010-07-24T13:14:01Z</time>
      </trkpt>
      <trkpt lat="44.41714" lon="6.68092">
        <ele>1892.4926758</ele>
        <time>2010-07-24T13:14:06Z</time>
      </trkpt>
      <trkpt lat="44.41678" lon="6.68084">
        <ele>1884.3215332</ele>
        <time>2010-07-24T13:14:11Z</time>
      </trkpt>
      <trkpt lat="44.41655" lon="6.68084">
        <ele>1883.3598633</ele>
        <time>2010-07-24T13:14:13Z</time>
      </trkpt>
      <trkpt lat="44.41629" lon="6.68073">
        <ele>1875.6694336</ele>
        <time>2010-07-24T13:14:17Z</time>
      </trkpt>
      <trkpt lat="44.41613" lon="6.68068">
        <ele>1870.8630371</ele>
        <time>2010-07-24T13:14:21Z</time>
      </trkpt>
      <trkpt lat="44.41612" lon="6.68082">
        <ele>1866.5368652</ele>
        <time>2010-07-24T13:14:24Z</time>
      </trkpt>
      <trkpt lat="44.41624" lon="6.68097">
        <ele>1863.652832</ele>
        <time>2010-07-24T13:14:27Z</time>
      </trkpt>
      <trkpt lat="44.41627" lon="6.68101">
        <ele>1859.3271484</ele>
        <time>2010-07-24T13:14:30Z</time>
      </trkpt>
      <trkpt lat="44.41628" lon="6.681">
        <ele>1859.3271484</ele>
        <time>2010-07-24T13:14:35Z</time>
      </trkpt>
      <trkpt lat="44.41629" lon="6.68106">
        <ele>1864.6142578</ele>
        <time>2010-07-24T13:14:42Z</time>
      </trkpt>
      <trkpt lat="44.41629" lon="6.68107">
        <ele>1864.6142578</ele>
        <time>2010-07-24T13:14:47Z</time>
      </trkpt>
      <trkpt lat="44.41617" lon="6.68094">
        <ele>1865.0949707</ele>
        <time>2010-07-24T13:14:52Z</time>
      </trkpt>
      <trkpt lat="44.41587" lon="6.68094">
        <ele>1861.2497559</ele>
        <time>2010-07-24T13:14:56Z</time>
      </trkpt>
      <trkpt lat="44.41572" lon="6.68093">
        <ele>1858.8464355</ele>
        <time>2010-07-24T13:14:58Z</time>
      </trkpt>
      <trkpt lat="44.41534" lon="6.68077">
        <ele>1853.5593262</ele>
        <time>2010-07-24T13:15:03Z</time>
      </trkpt>
      <trkpt lat="44.4151" lon="6.68049">
        <ele>1845.3879395</ele>
        <time>2010-07-24T13:15:07Z</time>
      </trkpt>
      <trkpt lat="44.41502" lon="6.68056">
        <ele>1839.6201172</ele>
        <time>2010-07-24T13:15:10Z</time>
      </trkpt>
      <trkpt lat="44.41504" lon="6.68073">
        <ele>1835.7746582</ele>
        <time>2010-07-24T13:15:13Z</time>
      </trkpt>
      <trkpt lat="44.41502" lon="6.68074">
        <ele>1832.890625</ele>
        <time>2010-07-24T13:15:15Z</time>
      </trkpt>
      <trkpt lat="44.41487" lon="6.68059">
        <ele>1832.4101562</ele>
        <time>2010-07-24T13:15:19Z</time>
      </trkpt>
      <trkpt lat="44.41482" lon="6.68057">
        <ele>1830.4875488</ele>
        <time>2010-07-24T13:15:22Z</time>
      </trkpt>
      <trkpt lat="44.41477" lon="6.68073">
        <ele>1827.1230469</ele>
        <time>2010-07-24T13:15:25Z</time>
      </trkpt>
      <trkpt lat="44.41471" lon="6.68067">
        <ele>1827.6035156</ele>
        <time>2010-07-24T13:15:28Z</time>
      </trkpt>
      <trkpt lat="44.41469" lon="6.68059">
        <ele>1826.1616211</ele>
        <time>2010-07-24T13:15:30Z</time>
      </trkpt>
      <trkpt lat="44.4146" lon="6.68068">
        <ele>1828.0842285</ele>
        <time>2010-07-24T13:15:33Z</time>
      </trkpt>
      <trkpt lat="44.41458" lon="6.68099">
        <ele>1823.7583008</ele>
        <time>2010-07-24T13:15:38Z</time>
      </trkpt>
      <trkpt lat="44.41457" lon="6.68101">
        <ele>1820.8745117</ele>
        <time>2010-07-24T13:15:40Z</time>
      </trkpt>
      <trkpt lat="44.41448" lon="6.68087">
        <ele>1815.1064453</ele>
        <time>2010-07-24T13:15:44Z</time>
      </trkpt>
      <trkpt lat="44.41436" lon="6.68059">
        <ele>1809.8190918</ele>
        <time>2010-07-24T13:15:49Z</time>
      </trkpt>
      <trkpt lat="44.4143" lon="6.6808">
        <ele>1804.5319824</ele>
        <time>2010-07-24T13:15:52Z</time>
      </trkpt>
      <trkpt lat="44.41426" lon="6.68117">
        <ele>1802.128418</ele>
        <time>2010-07-24T13:15:56Z</time>
      </trkpt>
      <trkpt lat="44.41437" lon="6.6814">
        <ele>1801.1672363</ele>
        <time>2010-07-24T13:15:59Z</time>
      </trkpt>
      <trkpt lat="44.41459" lon="6.68175">
        <ele>1792.9960938</ele>
        <time>2010-07-24T13:16:05Z</time>
      </trkpt>
      <trkpt lat="44.41442" lon="6.68184">
        <ele>1788.6704102</ele>
        <time>2010-07-24T13:16:09Z</time>
      </trkpt>
      <trkpt lat="44.41436" lon="6.68188">
        <ele>1787.2280273</ele>
        <time>2010-07-24T13:16:10Z</time>
      </trkpt>
      <trkpt lat="44.4141" lon="6.68184">
        <ele>1783.8635254</ele>
        <time>2010-07-24T13:16:14Z</time>
      </trkpt>
      <trkpt lat="44.41402" lon="6.68179">
        <ele>1784.3442383</ele>
        <time>2010-07-24T13:16:15Z</time>
      </trkpt>
      <trkpt lat="44.41366" lon="6.68153">
        <ele>1778.576416</ele>
        <time>2010-07-24T13:16:20Z</time>
      </trkpt>
      <trkpt lat="44.41352" lon="6.68144">
        <ele>1778.0957031</ele>
        <time>2010-07-24T13:16:22Z</time>
      </trkpt>
      <trkpt lat="44.41341" lon="6.68134">
        <ele>1775.6923828</ele>
        <time>2010-07-24T13:16:26Z</time>
      </trkpt>
      <trkpt lat="44.4134" lon="6.68135">
        <ele>1774.2504883</ele>
        <time>2010-07-24T13:16:30Z</time>
      </trkpt>
      <trkpt lat="44.41342" lon="6.68139">
        <ele>1773.7697754</ele>
        <time>2010-07-24T13:16:38Z</time>
      </trkpt>
      <trkpt lat="44.41341" lon="6.68144">
        <ele>1779.0568848</ele>
        <time>2010-07-24T13:16:52Z</time>
      </trkpt>
      <trkpt lat="44.41343" lon="6.68145">
        <ele>1776.6538086</ele>
        <time>2010-07-24T13:16:54Z</time>
      </trkpt>
      <trkpt lat="44.41335" lon="6.68147">
        <ele>1776.6538086</ele>
        <time>2010-07-24T13:16:59Z</time>
      </trkpt>
      <trkpt lat="44.41322" lon="6.68146">
        <ele>1774.7312012</ele>
        <time>2010-07-24T13:17:03Z</time>
      </trkpt>
      <trkpt lat="44.41303" lon="6.68154">
        <ele>1771.8469238</ele>
        <time>2010-07-24T13:17:08Z</time>
      </trkpt>
      <trkpt lat="44.41295" lon="6.68158">
        <ele>1770.4050293</ele>
        <time>2010-07-24T13:17:11Z</time>
      </trkpt>
      <trkpt lat="44.41292" lon="6.68175">
        <ele>1764.1564941</ele>
        <time>2010-07-24T13:17:15Z</time>
      </trkpt>
      <trkpt lat="44.41317" lon="6.68203">
        <ele>1758.3886719</ele>
        <time>2010-07-24T13:17:19Z</time>
      </trkpt>
      <trkpt lat="44.41336" lon="6.68223">
        <ele>1754.5432129</ele>
        <time>2010-07-24T13:17:22Z</time>
      </trkpt>
      <trkpt lat="44.41347" lon="6.68242">
        <ele>1748.7753906</ele>
        <time>2010-07-24T13:17:26Z</time>
      </trkpt>
      <trkpt lat="44.41333" lon="6.68248">
        <ele>1746.8527832</ele>
        <time>2010-07-24T13:17:29Z</time>
      </trkpt>
      <trkpt lat="44.41302" lon="6.68254">
        <ele>1743.0075684</ele>
        <time>2010-07-24T13:17:32Z</time>
      </trkpt>
      <trkpt lat="44.41239" lon="6.68287">
        <ele>1735.7976074</ele>
        <time>2010-07-24T13:17:39Z</time>
      </trkpt>
      <trkpt lat="44.41204" lon="6.68311">
        <ele>1730.510498</ele>
        <time>2010-07-24T13:17:43Z</time>
      </trkpt>
      <trkpt lat="44.41173" lon="6.68343">
        <ele>1724.2619629</ele>
        <time>2010-07-24T13:17:47Z</time>
      </trkpt>
      <trkpt lat="44.41174" lon="6.68359">
        <ele>1719.935791</ele>
        <time>2010-07-24T13:17:50Z</time>
      </trkpt>
      <trkpt lat="44.412" lon="6.68343">
        <ele>1715.6101074</ele>
        <time>2010-07-24T13:17:54Z</time>
      </trkpt>
      <trkpt lat="44.41218" lon="6.68344">
        <ele>1715.1293945</ele>
        <time>2010-07-24T13:17:57Z</time>
      </trkpt>
      <trkpt lat="44.41217" lon="6.68359">
        <ele>1714.6486816</ele>
        <time>2010-07-24T13:17:59Z</time>
      </trkpt>
      <trkpt lat="44.41204" lon="6.68384">
        <ele>1710.3227539</ele>
        <time>2010-07-24T13:18:02Z</time>
      </trkpt>
      <trkpt lat="44.41194" lon="6.68399">
        <ele>1707.4387207</ele>
        <time>2010-07-24T13:18:04Z</time>
      </trkpt>
      <trkpt lat="44.41176" lon="6.68417">
        <ele>1702.6320801</ele>
        <time>2010-07-24T13:18:08Z</time>
      </trkpt>
      <trkpt lat="44.41177" lon="6.6842">
        <ele>1699.2675781</ele>
        <time>2010-07-24T13:18:10Z</time>
      </trkpt>
      <trkpt lat="44.41198" lon="6.68429">
        <ele>1693.019043</ele>
        <time>2010-07-24T13:18:14Z</time>
      </trkpt>
      <trkpt lat="44.41198" lon="6.68443">
        <ele>1689.173584</ele>
        <time>2010-07-24T13:18:18Z</time>
      </trkpt>
      <trkpt lat="44.41184" lon="6.68452">
        <ele>1684.8479004</ele>
        <time>2010-07-24T13:18:22Z</time>
      </trkpt>
      <trkpt lat="44.41177" lon="6.68454">
        <ele>1682.4445801</ele>
        <time>2010-07-24T13:18:24Z</time>
      </trkpt>
      <trkpt lat="44.41187" lon="6.68475">
        <ele>1677.6379395</ele>
        <time>2010-07-24T13:18:29Z</time>
      </trkpt>
      <trkpt lat="44.41191" lon="6.68487">
        <ele>1673.3120117</ele>
        <time>2010-07-24T13:18:32Z</time>
      </trkpt>
      <trkpt lat="44.41172" lon="6.68484">
        <ele>1673.3120117</ele>
        <time>2010-07-24T13:18:36Z</time>
      </trkpt>
      <trkpt lat="44.41159" lon="6.68482">
        <ele>1672.8312988</ele>
        <time>2010-07-24T13:18:38Z</time>
      </trkpt>
      <trkpt lat="44.41152" lon="6.68484">
        <ele>1669.4667969</ele>
        <time>2010-07-24T13:18:41Z</time>
      </trkpt>
      <trkpt lat="44.41155" lon="6.68502">
        <ele>1668.5053711</ele>
        <time>2010-07-24T13:18:44Z</time>
      </trkpt>
      <trkpt lat="44.41161" lon="6.6852">
        <ele>1668.986084</ele>
        <time>2010-07-24T13:18:46Z</time>
      </trkpt>
      <trkpt lat="44.41175" lon="6.68549">
        <ele>1669.4667969</ele>
        <time>2010-07-24T13:18:49Z</time>
      </trkpt>
      <trkpt lat="44.41181" lon="6.68579">
        <ele>1661.7763672</ele>
        <time>2010-07-24T13:18:54Z</time>
      </trkpt>
      <trkpt lat="44.41178" lon="6.6858">
        <ele>1656.4887695</ele>
        <time>2010-07-24T13:18:58Z</time>
      </trkpt>
      <trkpt lat="44.4117" lon="6.68573">
        <ele>1648.317627</ele>
        <time>2010-07-24T13:19:10Z</time>
      </trkpt>
      <trkpt lat="44.41169" lon="6.68572">
        <ele>1646.3952637</ele>
        <time>2010-07-24T13:19:21Z</time>
      </trkpt>
      <trkpt lat="44.41157" lon="6.68567">
        <ele>1645.9145508</ele>
        <time>2010-07-24T13:19:26Z</time>
      </trkpt>
      <trkpt lat="44.41154" lon="6.68565">
        <ele>1645.4338379</ele>
        <time>2010-07-24T13:19:27Z</time>
      </trkpt>
      <trkpt lat="44.41149" lon="6.68562">
        <ele>1644.4724121</ele>
        <time>2010-07-24T13:19:29Z</time>
      </trkpt>
      <trkpt lat="44.41146" lon="6.68562">
        <ele>1645.9145508</ele>
        <time>2010-07-24T13:19:31Z</time>
      </trkpt>
      <trkpt lat="44.41139" lon="6.68575">
        <ele>1646.8757324</ele>
        <time>2010-07-24T13:19:37Z</time>
      </trkpt>
      <trkpt lat="44.41139" lon="6.68584">
        <ele>1647.3564453</ele>
        <time>2010-07-24T13:19:41Z</time>
      </trkpt>
      <trkpt lat="44.41143" lon="6.6861">
        <ele>1647.3564453</ele>
        <time>2010-07-24T13:19:46Z</time>
      </trkpt>
      <trkpt lat="44.41144" lon="6.68615">
        <ele>1645.9145508</ele>
        <time>2010-07-24T13:19:47Z</time>
      </trkpt>
      <trkpt lat="44.41138" lon="6.6862">
        <ele>1641.5883789</ele>
        <time>2010-07-24T13:19:51Z</time>
      </trkpt>
      <trkpt lat="44.41133" lon="6.68617">
        <ele>1639.6657715</ele>
        <time>2010-07-24T13:19:55Z</time>
      </trkpt>
      <trkpt lat="44.41126" lon="6.68609">
        <ele>1637.2624512</ele>
        <time>2010-07-24T13:20:01Z</time>
      </trkpt>
      <trkpt lat="44.41112" lon="6.68608">
        <ele>1635.3398438</ele>
        <time>2010-07-24T13:20:05Z</time>
      </trkpt>
      <trkpt lat="44.41091" lon="6.68599">
        <ele>1629.5720215</ele>
        <time>2010-07-24T13:20:11Z</time>
      </trkpt>
      <trkpt lat="44.4108" lon="6.68607">
        <ele>1625.7265625</ele>
        <time>2010-07-24T13:20:16Z</time>
      </trkpt>
      <trkpt lat="44.41076" lon="6.68614">
        <ele>1625.7265625</ele>
        <time>2010-07-24T13:20:18Z</time>
      </trkpt>
      <trkpt lat="44.4108" lon="6.68636">
        <ele>1620.4394531</ele>
        <time>2010-07-24T13:20:23Z</time>
      </trkpt>
      <trkpt lat="44.4109" lon="6.68657">
        <ele>1614.6716309</ele>
        <time>2010-07-24T13:20:27Z</time>
      </trkpt>
      <trkpt lat="44.41092" lon="6.68663">
        <ele>1614.190918</ele>
        <time>2010-07-24T13:20:28Z</time>
      </trkpt>
      <trkpt lat="44.41095" lon="6.6868">
        <ele>1610.345459</ele>
        <time>2010-07-24T13:20:32Z</time>
      </trkpt>
      <trkpt lat="44.41093" lon="6.6868">
        <ele>1609.8647461</ele>
        <time>2010-07-24T13:20:33Z</time>
      </trkpt>
      <trkpt lat="44.4109" lon="6.68674">
        <ele>1608.9035645</ele>
        <time>2010-07-24T13:20:37Z</time>
      </trkpt>
      <trkpt lat="44.41088" lon="6.68682">
        <ele>1606.0195312</ele>
        <time>2010-07-24T13:20:41Z</time>
      </trkpt>
      <trkpt lat="44.4109" lon="6.68686">
        <ele>1606.0195312</ele>
        <time>2010-07-24T13:20:42Z</time>
      </trkpt>
      <trkpt lat="44.41098" lon="6.68704">
        <ele>1602.1743164</ele>
        <time>2010-07-24T13:20:46Z</time>
      </trkpt>
      <trkpt lat="44.41106" lon="6.68723">
        <ele>1599.7712402</ele>
        <time>2010-07-24T13:20:49Z</time>
      </trkpt>
      <trkpt lat="44.41115" lon="6.68738">
        <ele>1597.8486328</ele>
        <time>2010-07-24T13:20:53Z</time>
      </trkpt>
      <trkpt lat="44.41117" lon="6.68739">
        <ele>1595.9257812</ele>
        <time>2010-07-24T13:20:58Z</time>
      </trkpt>
      <trkpt lat="44.41114" lon="6.68741">
        <ele>1595.9257812</ele>
        <time>2010-07-24T13:21:06Z</time>
      </trkpt>
      <trkpt lat="44.41115" lon="6.68746">
        <ele>1598.8098145</ele>
        <time>2010-07-24T13:21:13Z</time>
      </trkpt>
      <trkpt lat="44.4112" lon="6.68749">
        <ele>1598.8098145</ele>
        <time>2010-07-24T13:21:17Z</time>
      </trkpt>
      <trkpt lat="44.41125" lon="6.68755">
        <ele>1603.6164551</ele>
        <time>2010-07-24T13:21:22Z</time>
      </trkpt>
      <trkpt lat="44.41123" lon="6.68756">
        <ele>1608.9035645</ele>
        <time>2010-07-24T13:21:27Z</time>
      </trkpt>
      <trkpt lat="44.4112" lon="6.68755">
        <ele>1611.7875977</ele>
        <time>2010-07-24T13:21:34Z</time>
      </trkpt>
      <trkpt lat="44.4112" lon="6.68752">
        <ele>1609.3842773</ele>
        <time>2010-07-24T13:21:40Z</time>
      </trkpt>
      <trkpt lat="44.41124" lon="6.68755">
        <ele>1606.5002441</ele>
        <time>2010-07-24T13:21:43Z</time>
      </trkpt>
      <trkpt lat="44.41133" lon="6.6876">
        <ele>1600.7324219</ele>
        <time>2010-07-24T13:21:47Z</time>
      </trkpt>
      <trkpt lat="44.41151" lon="6.68766">
        <ele>1595.9257812</ele>
        <time>2010-07-24T13:21:51Z</time>
      </trkpt>
      <trkpt lat="44.41161" lon="6.68767">
        <ele>1594.4836426</ele>
        <time>2010-07-24T13:21:53Z</time>
      </trkpt>
      <trkpt lat="44.41179" lon="6.68759">
        <ele>1592.0805664</ele>
        <time>2010-07-24T13:21:57Z</time>
      </trkpt>
      <trkpt lat="44.41207" lon="6.68753">
        <ele>1590.6384277</ele>
        <time>2010-07-24T13:22:03Z</time>
      </trkpt>
      <trkpt lat="44.41217" lon="6.68755">
        <ele>1588.7160645</ele>
        <time>2010-07-24T13:22:05Z</time>
      </trkpt>
      <trkpt lat="44.41247" lon="6.68766">
        <ele>1587.7546387</ele>
        <time>2010-07-24T13:22:10Z</time>
      </trkpt>
      <trkpt lat="44.41263" lon="6.68785">
        <ele>1587.2739258</ele>
        <time>2010-07-24T13:22:15Z</time>
      </trkpt>
      <trkpt lat="44.41276" lon="6.68815">
        <ele>1583.9094238</ele>
        <time>2010-07-24T13:22:20Z</time>
      </trkpt>
      <trkpt lat="44.41284" lon="6.68816">
        <ele>1581.0256348</ele>
        <time>2010-07-24T13:22:23Z</time>
      </trkpt>
      <trkpt lat="44.41283" lon="6.68817">
        <ele>1580.5449219</ele>
        <time>2010-07-24T13:22:25Z</time>
      </trkpt>
      <trkpt lat="44.41279" lon="6.68828">
        <ele>1577.6606445</ele>
        <time>2010-07-24T13:22:30Z</time>
      </trkpt>
      <trkpt lat="44.41278" lon="6.6883">
        <ele>1576.6994629</ele>
        <time>2010-07-24T13:22:31Z</time>
      </trkpt>
      <trkpt lat="44.41273" lon="6.68834">
        <ele>1573.8154297</ele>
        <time>2010-07-24T13:22:35Z</time>
      </trkpt>
      <trkpt lat="44.41282" lon="6.68843">
        <ele>1571.8928223</ele>
        <time>2010-07-24T13:22:39Z</time>
      </trkpt>
      <trkpt lat="44.41283" lon="6.68847">
        <ele>1572.3735352</ele>
        <time>2010-07-24T13:22:42Z</time>
      </trkpt>
      <trkpt lat="44.41274" lon="6.68853">
        <ele>1571.8928223</ele>
        <time>2010-07-24T13:22:47Z</time>
      </trkpt>
      <trkpt lat="44.41272" lon="6.68853">
        <ele>1571.4121094</ele>
        <time>2010-07-24T13:22:48Z</time>
      </trkpt>
      <trkpt lat="44.41276" lon="6.68866">
        <ele>1566.125</ele>
        <time>2010-07-24T13:22:53Z</time>
      </trkpt>
      <trkpt lat="44.41285" lon="6.68874">
        <ele>1559.395752</ele>
        <time>2010-07-24T13:22:57Z</time>
      </trkpt>
      <trkpt lat="44.41283" lon="6.68884">
        <ele>1555.5505371</ele>
        <time>2010-07-24T13:23:01Z</time>
      </trkpt>
      <trkpt lat="44.41293" lon="6.68892">
        <ele>1551.7053223</ele>
        <time>2010-07-24T13:23:06Z</time>
      </trkpt>
      <trkpt lat="44.41295" lon="6.68899">
        <ele>1552.6665039</ele>
        <time>2010-07-24T13:23:10Z</time>
      </trkpt>
      <trkpt lat="44.41284" lon="6.68904">
        <ele>1552.185791</ele>
        <time>2010-07-24T13:23:14Z</time>
      </trkpt>
      <trkpt lat="44.41281" lon="6.68908">
        <ele>1548.3405762</ele>
        <time>2010-07-24T13:23:18Z</time>
      </trkpt>
      <trkpt lat="44.41287" lon="6.68919">
        <ele>1546.4179688</ele>
        <time>2010-07-24T13:23:22Z</time>
      </trkpt>
      <trkpt lat="44.41284" lon="6.68928">
        <ele>1546.4179688</ele>
        <time>2010-07-24T13:23:26Z</time>
      </trkpt>
      <trkpt lat="44.41287" lon="6.68939">
        <ele>1542.092041</ele>
        <time>2010-07-24T13:23:31Z</time>
      </trkpt>
      <trkpt lat="44.41283" lon="6.68947">
        <ele>1539.6887207</ele>
        <time>2010-07-24T13:23:35Z</time>
      </trkpt>
      <trkpt lat="44.41282" lon="6.68952">
        <ele>1536.3242188</ele>
        <time>2010-07-24T13:23:37Z</time>
      </trkpt>
      <trkpt lat="44.41281" lon="6.68977">
        <ele>1530.5561523</ele>
        <time>2010-07-24T13:23:43Z</time>
      </trkpt>
      <trkpt lat="44.41281" lon="6.68989">
        <ele>1523.8269043</ele>
        <time>2010-07-24T13:23:47Z</time>
      </trkpt>
      <trkpt lat="44.41278" lon="6.68984">
        <ele>1520.9431152</ele>
        <time>2010-07-24T13:23:53Z</time>
      </trkpt>
      <trkpt lat="44.41276" lon="6.68989">
        <ele>1516.6171875</ele>
        <time>2010-07-24T13:24:41Z</time>
      </trkpt>
      <trkpt lat="44.41274" lon="6.68986">
        <ele>1516.1364746</ele>
        <time>2010-07-24T13:24:50Z</time>
      </trkpt>
      <trkpt lat="44.41272" lon="6.68977">
        <ele>1515.1750488</ele>
        <time>2010-07-24T13:24:53Z</time>
      </trkpt>
      <trkpt lat="44.41259" lon="6.68961">
        <ele>1515.1750488</ele>
        <time>2010-07-24T13:24:58Z</time>
      </trkpt>
      <trkpt lat="44.41252" lon="6.68954">
        <ele>1514.6943359</ele>
        <time>2010-07-24T13:25:01Z</time>
      </trkpt>
      <trkpt lat="44.41244" lon="6.68942">
        <ele>1512.7717285</ele>
        <time>2010-07-24T13:25:05Z</time>
      </trkpt>
      <trkpt lat="44.41225" lon="6.68938">
        <ele>1509.4072266</ele>
        <time>2010-07-24T13:25:10Z</time>
      </trkpt>
      <trkpt lat="44.41222" lon="6.68941">
        <ele>1507.4846191</ele>
        <time>2010-07-24T13:25:13Z</time>
      </trkpt>
      <trkpt lat="44.41229" lon="6.68944">
        <ele>1503.1586914</ele>
        <time>2010-07-24T13:25:18Z</time>
      </trkpt>
      <trkpt lat="44.4123" lon="6.68957">
        <ele>1505.5620117</ele>
        <time>2010-07-24T13:25:22Z</time>
      </trkpt>
      <trkpt lat="44.4123" lon="6.68972">
        <ele>1505.5620117</ele>
        <time>2010-07-24T13:25:27Z</time>
      </trkpt>
      <trkpt lat="44.41232" lon="6.68994">
        <ele>1506.0424805</ele>
        <time>2010-07-24T13:25:32Z</time>
      </trkpt>
      <trkpt lat="44.4123" lon="6.69016">
        <ele>1508.9265137</ele>
        <time>2010-07-24T13:25:37Z</time>
      </trkpt>
      <trkpt lat="44.41233" lon="6.69025">
        <ele>1509.8876953</ele>
        <time>2010-07-24T13:25:39Z</time>
      </trkpt>
      <trkpt lat="44.41243" lon="6.69034">
        <ele>1507.965332</ele>
        <time>2010-07-24T13:25:41Z</time>
      </trkpt>
      <trkpt lat="44.41273" lon="6.69043">
        <ele>1493.0646973</ele>
        <time>2010-07-24T13:25:46Z</time>
      </trkpt>
      <trkpt lat="44.41276" lon="6.69058">
        <ele>1488.2583008</ele>
        <time>2010-07-24T13:25:51Z</time>
      </trkpt>
      <trkpt lat="44.41279" lon="6.69066">
        <ele>1488.7390137</ele>
        <time>2010-07-24T13:25:56Z</time>
      </trkpt>
      <trkpt lat="44.41284" lon="6.69071">
        <ele>1489.2194824</ele>
        <time>2010-07-24T13:26:03Z</time>
      </trkpt>
      <trkpt lat="44.41284" lon="6.69077">
        <ele>1491.1420898</ele>
        <time>2010-07-24T13:26:08Z</time>
      </trkpt>
      <trkpt lat="44.4129" lon="6.69083">
        <ele>1492.5842285</ele>
        <time>2010-07-24T13:26:13Z</time>
      </trkpt>
      <trkpt lat="44.41297" lon="6.69088">
        <ele>1492.5842285</ele>
        <time>2010-07-24T13:26:22Z</time>
      </trkpt>
      <trkpt lat="44.41298" lon="6.69093">
        <ele>1494.9873047</ele>
        <time>2010-07-24T13:26:27Z</time>
      </trkpt>
      <trkpt lat="44.41293" lon="6.69103">
        <ele>1496.4294434</ele>
        <time>2010-07-24T13:26:33Z</time>
      </trkpt>
      <trkpt lat="44.41287" lon="6.69115">
        <ele>1498.3518066</ele>
        <time>2010-07-24T13:26:37Z</time>
      </trkpt>
      <trkpt lat="44.4128" lon="6.69131">
        <ele>1499.3132324</ele>
        <time>2010-07-24T13:26:40Z</time>
      </trkpt>
      <trkpt lat="44.41277" lon="6.69163">
        <ele>1498.3518066</ele>
        <time>2010-07-24T13:26:45Z</time>
      </trkpt>
      <trkpt lat="44.41289" lon="6.69176">
        <ele>1494.026123</ele>
        <time>2010-07-24T13:26:49Z</time>
      </trkpt>
      <trkpt lat="44.41325" lon="6.69198">
        <ele>1476.2416992</ele>
        <time>2010-07-24T13:26:55Z</time>
      </trkpt>
      <trkpt lat="44.41342" lon="6.69214">
        <ele>1469.9931641</ele>
        <time>2010-07-24T13:26:58Z</time>
      </trkpt>
      <trkpt lat="44.41363" lon="6.69256">
        <ele>1468.5512695</ele>
        <time>2010-07-24T13:27:03Z</time>
      </trkpt>
      <trkpt lat="44.41374" lon="6.69269">
        <ele>1466.628418</ele>
        <time>2010-07-24T13:27:07Z</time>
      </trkpt>
      <trkpt lat="44.41375" lon="6.69267">
        <ele>1465.6672363</ele>
        <time>2010-07-24T13:27:10Z</time>
      </trkpt>
      <trkpt lat="44.41374" lon="6.69263">
        <ele>1467.5895996</ele>
        <time>2010-07-24T13:27:17Z</time>
      </trkpt>
      <trkpt lat="44.41374" lon="6.69264">
        <ele>1466.628418</ele>
        <time>2010-07-24T13:27:19Z</time>
      </trkpt>
      <trkpt lat="44.41365" lon="6.69261">
        <ele>1467.1091309</ele>
        <time>2010-07-24T13:27:24Z</time>
      </trkpt>
      <trkpt lat="44.41351" lon="6.69251">
        <ele>1467.1091309</ele>
        <time>2010-07-24T13:27:28Z</time>
      </trkpt>
      <trkpt lat="44.41344" lon="6.6925">
        <ele>1466.628418</ele>
        <time>2010-07-24T13:27:30Z</time>
      </trkpt>
      <trkpt lat="44.41339" lon="6.6926">
        <ele>1463.263916</ele>
        <time>2010-07-24T13:27:36Z</time>
      </trkpt>
      <trkpt lat="44.41341" lon="6.69278">
        <ele>1458.9379883</ele>
        <time>2010-07-24T13:27:39Z</time>
      </trkpt>
      <trkpt lat="44.41361" lon="6.69297">
        <ele>1454.1315918</ele>
        <time>2010-07-24T13:27:43Z</time>
      </trkpt>
      <trkpt lat="44.4138" lon="6.69316">
        <ele>1448.8439941</ele>
        <time>2010-07-24T13:27:47Z</time>
      </trkpt>
      <trkpt lat="44.41391" lon="6.69329">
        <ele>1444.0375977</ele>
        <time>2010-07-24T13:27:51Z</time>
      </trkpt>
      <trkpt lat="44.41392" lon="6.69347">
        <ele>1442.5957031</ele>
        <time>2010-07-24T13:27:55Z</time>
      </trkpt>
      <trkpt lat="44.41385" lon="6.69342">
        <ele>1441.1535645</ele>
        <time>2010-07-24T13:27:56Z</time>
      </trkpt>
      <trkpt lat="44.41372" lon="6.69342">
        <ele>1438.7504883</ele>
        <time>2010-07-24T13:28:00Z</time>
      </trkpt>
      <trkpt lat="44.41377" lon="6.69355">
        <ele>1434.4243164</ele>
        <time>2010-07-24T13:28:05Z</time>
      </trkpt>
      <trkpt lat="44.41369" lon="6.69356">
        <ele>1434.4243164</ele>
        <time>2010-07-24T13:28:11Z</time>
      </trkpt>
      <trkpt lat="44.41365" lon="6.69355">
        <ele>1433.9436035</ele>
        <time>2010-07-24T13:28:12Z</time>
      </trkpt>
      <trkpt lat="44.41347" lon="6.6934">
        <ele>1432.0209961</ele>
        <time>2010-07-24T13:28:16Z</time>
      </trkpt>
      <trkpt lat="44.41337" lon="6.69337">
        <ele>1430.0983887</ele>
        <time>2010-07-24T13:28:18Z</time>
      </trkpt>
      <trkpt lat="44.4131" lon="6.69329">
        <ele>1429.1369629</ele>
        <time>2010-07-24T13:28:24Z</time>
      </trkpt>
      <trkpt lat="44.41304" lon="6.69331">
        <ele>1426.7338867</ele>
        <time>2010-07-24T13:28:27Z</time>
      </trkpt>
      <trkpt lat="44.41313" lon="6.69342">
        <ele>1424.8112793</ele>
        <time>2010-07-24T13:28:30Z</time>
      </trkpt>
      <trkpt lat="44.41327" lon="6.69359">
        <ele>1421.9272461</ele>
        <time>2010-07-24T13:28:33Z</time>
      </trkpt>
      <trkpt lat="44.4134" lon="6.69398">
        <ele>1421.4465332</ele>
        <time>2010-07-24T13:28:38Z</time>
      </trkpt>
      <trkpt lat="44.41333" lon="6.69395">
        <ele>1419.0432129</ele>
        <time>2010-07-24T13:28:40Z</time>
      </trkpt>
      <trkpt lat="44.41317" lon="6.69375">
        <ele>1414.7172852</ele>
        <time>2010-07-24T13:28:43Z</time>
      </trkpt>
      <trkpt lat="44.41295" lon="6.69366">
        <ele>1410.8720703</ele>
        <time>2010-07-24T13:28:46Z</time>
      </trkpt>
      <trkpt lat="44.41288" lon="6.69369">
        <ele>1409.4301758</ele>
        <time>2010-07-24T13:28:47Z</time>
      </trkpt>
      <trkpt lat="44.41252" lon="6.69373">
        <ele>1406.5461426</ele>
        <time>2010-07-24T13:28:53Z</time>
      </trkpt>
      <trkpt lat="44.41232" lon="6.69359">
        <ele>1403.1813965</ele>
        <time>2010-07-24T13:28:56Z</time>
      </trkpt>
      <trkpt lat="44.41217" lon="6.69334">
        <ele>1399.8168945</ele>
        <time>2010-07-24T13:28:59Z</time>
      </trkpt>
      <trkpt lat="44.41214" lon="6.69326">
        <ele>1397.8942871</ele>
        <time>2010-07-24T13:29:00Z</time>
      </trkpt>
      <trkpt lat="44.41189" lon="6.69296">
        <ele>1391.1650391</ele>
        <time>2010-07-24T13:29:06Z</time>
      </trkpt>
      <trkpt lat="44.41175" lon="6.69303">
        <ele>1391.1650391</ele>
        <time>2010-07-24T13:29:09Z</time>
      </trkpt>
      <trkpt lat="44.41178" lon="6.69326">
        <ele>1387.800293</ele>
        <time>2010-07-24T13:29:12Z</time>
      </trkpt>
      <trkpt lat="44.4118" lon="6.69335">
        <ele>1387.3195801</ele>
        <time>2010-07-24T13:29:13Z</time>
      </trkpt>
      <trkpt lat="44.4119" lon="6.69397">
        <ele>1388.28125</ele>
        <time>2010-07-24T13:29:19Z</time>
      </trkpt>
      <trkpt lat="44.41193" lon="6.69408">
        <ele>1388.28125</ele>
        <time>2010-07-24T13:29:20Z</time>
      </trkpt>
      <trkpt lat="44.41216" lon="6.69441">
        <ele>1385.3969727</ele>
        <time>2010-07-24T13:29:24Z</time>
      </trkpt>
      <trkpt lat="44.41233" lon="6.6947">
        <ele>1382.9936523</ele>
        <time>2010-07-24T13:29:29Z</time>
      </trkpt>
      <trkpt lat="44.41212" lon="6.69459">
        <ele>1382.9936523</ele>
        <time>2010-07-24T13:29:32Z</time>
      </trkpt>
      <trkpt lat="44.41198" lon="6.69453">
        <ele>1379.6291504</ele>
        <time>2010-07-24T13:29:36Z</time>
      </trkpt>
      <trkpt lat="44.41186" lon="6.69444">
        <ele>1375.3032227</ele>
        <time>2010-07-24T13:29:40Z</time>
      </trkpt>
      <trkpt lat="44.41182" lon="6.69444">
        <ele>1373.3808594</ele>
        <time>2010-07-24T13:29:45Z</time>
      </trkpt>
      <trkpt lat="44.41181" lon="6.69441">
        <ele>1371.4577637</ele>
        <time>2010-07-24T13:29:53Z</time>
      </trkpt>
      <trkpt lat="44.41187" lon="6.69442">
        <ele>1372.4194336</ele>
        <time>2010-07-24T13:30:03Z</time>
      </trkpt>
      <trkpt lat="44.41187" lon="6.69442">
        <ele>1373.3808594</ele>
        <time>2010-07-24T13:30:09Z</time>
      </trkpt>
      <trkpt lat="44.41184" lon="6.69439">
        <ele>1377.706543</ele>
        <time>2010-07-24T13:30:25Z</time>
      </trkpt>
      <trkpt lat="44.41173" lon="6.69432">
        <ele>1378.1872559</ele>
        <time>2010-07-24T13:30:29Z</time>
      </trkpt>
      <trkpt lat="44.41161" lon="6.69414">
        <ele>1375.3032227</ele>
        <time>2010-07-24T13:30:33Z</time>
      </trkpt>
      <trkpt lat="44.41145" lon="6.69389">
        <ele>1369.0546875</ele>
        <time>2010-07-24T13:30:38Z</time>
      </trkpt>
      <trkpt lat="44.41134" lon="6.69376">
        <ele>1365.2094727</ele>
        <time>2010-07-24T13:30:42Z</time>
      </trkpt>
      <trkpt lat="44.41133" lon="6.69376">
        <ele>1362.8061523</ele>
        <time>2010-07-24T13:30:46Z</time>
      </trkpt>
      <trkpt lat="44.41133" lon="6.69375">
        <ele>1362.8061523</ele>
        <time>2010-07-24T13:30:49Z</time>
      </trkpt>
      <trkpt lat="44.41125" lon="6.69369">
        <ele>1360.402832</ele>
        <time>2010-07-24T13:30:54Z</time>
      </trkpt>
      <trkpt lat="44.41118" lon="6.69367">
        <ele>1360.402832</ele>
        <time>2010-07-24T13:30:57Z</time>
      </trkpt>
      <trkpt lat="44.41107" lon="6.69376">
        <ele>1357.519043</ele>
        <time>2010-07-24T13:31:02Z</time>
      </trkpt>
      <trkpt lat="44.41091" lon="6.69392">
        <ele>1352.7121582</ele>
        <time>2010-07-24T13:31:08Z</time>
      </trkpt>
      <trkpt lat="44.41081" lon="6.694">
        <ele>1350.7895508</ele>
        <time>2010-07-24T13:31:10Z</time>
      </trkpt>
      <trkpt lat="44.41072" lon="6.69406">
        <ele>1348.3862305</ele>
        <time>2010-07-24T13:31:12Z</time>
      </trkpt>
      <trkpt lat="44.4106" lon="6.69411">
        <ele>1346.4638672</ele>
        <time>2010-07-24T13:31:16Z</time>
      </trkpt>
      <trkpt lat="44.41069" lon="6.69422">
        <ele>1342.1379395</ele>
        <time>2010-07-24T13:31:20Z</time>
      </trkpt>
      <trkpt lat="44.41077" lon="6.69434">
        <ele>1340.6958008</ele>
        <time>2010-07-24T13:31:22Z</time>
      </trkpt>
      <trkpt lat="44.41092" lon="6.69455">
        <ele>1340.215332</ele>
        <time>2010-07-24T13:31:25Z</time>
      </trkpt>
      <trkpt lat="44.41098" lon="6.69468">
        <ele>1341.1765137</ele>
        <time>2010-07-24T13:31:29Z</time>
      </trkpt>
      <trkpt lat="44.41096" lon="6.69467">
        <ele>1340.215332</ele>
        <time>2010-07-24T13:31:32Z</time>
      </trkpt>
      <trkpt lat="44.41077" lon="6.6946">
        <ele>1340.215332</ele>
        <time>2010-07-24T13:31:36Z</time>
      </trkpt>
      <trkpt lat="44.41043" lon="6.69443">
        <ele>1341.6572266</ele>
        <time>2010-07-24T13:31:40Z</time>
      </trkpt>
      <trkpt lat="44.41037" lon="6.69436">
        <ele>1339.2536621</ele>
        <time>2010-07-24T13:31:42Z</time>
      </trkpt>
      <trkpt lat="44.4103" lon="6.69435">
        <ele>1335.4084473</ele>
        <time>2010-07-24T13:31:46Z</time>
      </trkpt>
      <trkpt lat="44.4103" lon="6.69437">
        <ele>1334.4472656</ele>
        <time>2010-07-24T13:31:47Z</time>
      </trkpt>
      <trkpt lat="44.41028" lon="6.6944">
        <ele>1333.4858398</ele>
        <time>2010-07-24T13:31:49Z</time>
      </trkpt>
      <trkpt lat="44.41029" lon="6.69445">
        <ele>1329.640625</ele>
        <time>2010-07-24T13:31:53Z</time>
      </trkpt>
      <trkpt lat="44.4103" lon="6.69449">
        <ele>1328.1987305</ele>
        <time>2010-07-24T13:31:54Z</time>
      </trkpt>
      <trkpt lat="44.41034" lon="6.69452">
        <ele>1320.5080566</ele>
        <time>2010-07-24T13:31:58Z</time>
      </trkpt>
      <trkpt lat="44.41019" lon="6.69438">
        <ele>1312.3369141</ele>
        <time>2010-07-24T13:32:02Z</time>
      </trkpt>
      <trkpt lat="44.4099" lon="6.69438">
        <ele>1300.8010254</ele>
        <time>2010-07-24T13:32:09Z</time>
      </trkpt>
      <trkpt lat="44.40975" lon="6.69438">
        <ele>1300.3205566</ele>
        <time>2010-07-24T13:32:13Z</time>
      </trkpt>
      <trkpt lat="44.40947" lon="6.69437">
        <ele>1303.6850586</ele>
        <time>2010-07-24T13:32:19Z</time>
      </trkpt>
      <trkpt lat="44.4094" lon="6.69433">
        <ele>1309.9335938</ele>
        <time>2010-07-24T13:32:22Z</time>
      </trkpt>
      <trkpt lat="44.4093" lon="6.69426">
        <ele>1316.6628418</ele>
        <time>2010-07-24T13:32:34Z</time>
      </trkpt>
      <trkpt lat="44.40918" lon="6.69427">
        <ele>1319.0661621</ele>
        <time>2010-07-24T13:32:39Z</time>
      </trkpt>
      <trkpt lat="44.409" lon="6.69435">
        <ele>1312.3369141</ele>
        <time>2010-07-24T13:32:46Z</time>
      </trkpt>
      <trkpt lat="44.40875" lon="6.6944">
        <ele>1309.453125</ele>
        <time>2010-07-24T13:32:51Z</time>
      </trkpt>
      <trkpt lat="44.40868" lon="6.6944">
        <ele>1308.4916992</ele>
        <time>2010-07-24T13:32:52Z</time>
      </trkpt>
      <trkpt lat="44.40845" lon="6.69434">
        <ele>1302.2429199</ele>
        <time>2010-07-24T13:32:56Z</time>
      </trkpt>
      <trkpt lat="44.4083" lon="6.69423">
        <ele>1295.513916</ele>
        <time>2010-07-24T13:32:59Z</time>
      </trkpt>
      <trkpt lat="44.40808" lon="6.6942">
        <ele>1289.2651367</ele>
        <time>2010-07-24T13:33:03Z</time>
      </trkpt>
      <trkpt lat="44.40798" lon="6.69435">
        <ele>1283.9780273</ele>
        <time>2010-07-24T13:33:06Z</time>
      </trkpt>
      <trkpt lat="44.40786" lon="6.69437">
        <ele>1278.2102051</ele>
        <time>2010-07-24T13:33:09Z</time>
      </trkpt>
      <trkpt lat="44.40781" lon="6.69436">
        <ele>1273.4035645</ele>
        <time>2010-07-24T13:33:11Z</time>
      </trkpt>
      <trkpt lat="44.40763" lon="6.69435">
        <ele>1265.2324219</ele>
        <time>2010-07-24T13:33:14Z</time>
      </trkpt>
      <trkpt lat="44.40724" lon="6.69442">
        <ele>1266.6743164</ele>
        <time>2010-07-24T13:33:20Z</time>
      </trkpt>
      <trkpt lat="44.40717" lon="6.69443">
        <ele>1270.5195312</ele>
        <time>2010-07-24T13:33:21Z</time>
      </trkpt>
      <trkpt lat="44.40692" lon="6.69482">
        <ele>1267.635498</ele>
        <time>2010-07-24T13:33:26Z</time>
      </trkpt>
      <trkpt lat="44.40685" lon="6.69489">
        <ele>1266.6743164</ele>
        <time>2010-07-24T13:33:27Z</time>
      </trkpt>
      <trkpt lat="44.40648" lon="6.69519">
        <ele>1261.8679199</ele>
        <time>2010-07-24T13:33:32Z</time>
      </trkpt>
      <trkpt lat="44.40635" lon="6.69531">
        <ele>1258.5029297</ele>
        <time>2010-07-24T13:33:34Z</time>
      </trkpt>
      <trkpt lat="44.40607" lon="6.69563">
        <ele>1253.2158203</ele>
        <time>2010-07-24T13:33:39Z</time>
      </trkpt>
      <trkpt lat="44.40589" lon="6.69578">
        <ele>1249.3706055</ele>
        <time>2010-07-24T13:33:42Z</time>
      </trkpt>
      <trkpt lat="44.40558" lon="6.69615">
        <ele>1246.4868164</ele>
        <time>2010-07-24T13:33:47Z</time>
      </trkpt>
      <trkpt lat="44.40553" lon="6.69623">
        <ele>1245.0446777</ele>
        <time>2010-07-24T13:33:48Z</time>
      </trkpt>
      <trkpt lat="44.4054" lon="6.69648">
        <ele>1241.6799316</ele>
        <time>2010-07-24T13:33:52Z</time>
      </trkpt>
      <trkpt lat="44.40527" lon="6.69673">
        <ele>1243.6025391</ele>
        <time>2010-07-24T13:33:58Z</time>
      </trkpt>
      <trkpt lat="44.40524" lon="6.69678">
        <ele>1243.6025391</ele>
        <time>2010-07-24T13:33:59Z</time>
      </trkpt>
      <trkpt lat="44.40499" lon="6.69713">
        <ele>1245.0446777</ele>
        <time>2010-07-24T13:34:06Z</time>
      </trkpt>
      <trkpt lat="44.40498" lon="6.6972">
        <ele>1245.5253906</ele>
        <time>2010-07-24T13:34:09Z</time>
      </trkpt>
      <trkpt lat="44.40505" lon="6.69722">
        <ele>1243.1218262</ele>
        <time>2010-07-24T13:34:20Z</time>
      </trkpt>
      <trkpt lat="44.40509" lon="6.69728">
        <ele>1244.5639648</ele>
        <time>2010-07-24T13:34:28Z</time>
      </trkpt>
      <trkpt lat="44.40508" lon="6.69726">
        <ele>1246.9672852</ele>
        <time>2010-07-24T13:34:42Z</time>
      </trkpt>
      <trkpt lat="44.40505" lon="6.6974">
        <ele>1249.8513184</ele>
        <time>2010-07-24T13:34:47Z</time>
      </trkpt>
      <trkpt lat="44.40492" lon="6.69754">
        <ele>1248.8898926</ele>
        <time>2010-07-24T13:34:51Z</time>
      </trkpt>
      <trkpt lat="44.40482" lon="6.69763">
        <ele>1246.9672852</ele>
        <time>2010-07-24T13:34:54Z</time>
      </trkpt>
      <trkpt lat="44.40461" lon="6.69795">
        <ele>1242.6413574</ele>
        <time>2010-07-24T13:35:00Z</time>
      </trkpt>
      <trkpt lat="44.40431" lon="6.69833">
        <ele>1237.8347168</ele>
        <time>2010-07-24T13:35:06Z</time>
      </trkpt>
      <trkpt lat="44.40408" lon="6.69867">
        <ele>1232.5476074</ele>
        <time>2010-07-24T13:35:11Z</time>
      </trkpt>
      <trkpt lat="44.40395" lon="6.69879">
        <ele>1232.5476074</ele>
        <time>2010-07-24T13:35:13Z</time>
      </trkpt>
      <trkpt lat="44.40369" lon="6.69922">
        <ele>1233.0280762</ele>
        <time>2010-07-24T13:35:19Z</time>
      </trkpt>
      <trkpt lat="44.40366" lon="6.69939">
        <ele>1232.0668945</ele>
        <time>2010-07-24T13:35:21Z</time>
      </trkpt>
      <trkpt lat="44.40371" lon="6.69976">
        <ele>1225.8181152</ele>
        <time>2010-07-24T13:35:25Z</time>
      </trkpt>
      <trkpt lat="44.40374" lon="6.70025">
        <ele>1221.0117188</ele>
        <time>2010-07-24T13:35:30Z</time>
      </trkpt>
      <trkpt lat="44.40357" lon="6.70051">
        <ele>1211.8791504</ele>
        <time>2010-07-24T13:35:35Z</time>
      </trkpt>
      <trkpt lat="44.40338" lon="6.70082">
        <ele>1202.746582</ele>
        <time>2010-07-24T13:35:39Z</time>
      </trkpt>
      <trkpt lat="44.40322" lon="6.70123">
        <ele>1195.5366211</ele>
        <time>2010-07-24T13:35:43Z</time>
      </trkpt>
      <trkpt lat="44.40321" lon="6.70146">
        <ele>1193.1333008</ele>
        <time>2010-07-24T13:35:46Z</time>
      </trkpt>
      <trkpt lat="44.40328" lon="6.70156">
        <ele>1191.2106934</ele>
        <time>2010-07-24T13:35:49Z</time>
      </trkpt>
      <trkpt lat="44.4033" lon="6.70158">
        <ele>1192.1721191</ele>
        <time>2010-07-24T13:35:54Z</time>
      </trkpt>
      <trkpt lat="44.40331" lon="6.70155">
        <ele>1197.4594727</ele>
        <time>2010-07-24T13:36:15Z</time>
      </trkpt>
      <trkpt lat="44.40339" lon="6.70162">
        <ele>1196.0175781</ele>
        <time>2010-07-24T13:36:36Z</time>
      </trkpt>
      <trkpt lat="44.40349" lon="6.70172">
        <ele>1193.6140137</ele>
        <time>2010-07-24T13:36:41Z</time>
      </trkpt>
      <trkpt lat="44.40365" lon="6.70177">
        <ele>1191.6914062</ele>
        <time>2010-07-24T13:36:45Z</time>
      </trkpt>
      <trkpt lat="44.40377" lon="6.70186">
        <ele>1192.652832</ele>
        <time>2010-07-24T13:36:49Z</time>
      </trkpt>
      <trkpt lat="44.40383" lon="6.70197">
        <ele>1196.0175781</ele>
        <time>2010-07-24T13:36:53Z</time>
      </trkpt>
      <trkpt lat="44.40378" lon="6.70201">
        <ele>1208.0339355</ele>
        <time>2010-07-24T13:37:02Z</time>
      </trkpt>
      <trkpt lat="44.4038" lon="6.70214">
        <ele>1209.4758301</ele>
        <time>2010-07-24T13:37:06Z</time>
      </trkpt>
      <trkpt lat="44.40393" lon="6.70241">
        <ele>1208.0339355</ele>
        <time>2010-07-24T13:37:13Z</time>
      </trkpt>
      <trkpt lat="44.40407" lon="6.70273">
        <ele>1204.1887207</ele>
        <time>2010-07-24T13:37:18Z</time>
      </trkpt>
      <trkpt lat="44.40419" lon="6.7032">
        <ele>1203.2272949</ele>
        <time>2010-07-24T13:37:25Z</time>
      </trkpt>
      <trkpt lat="44.40428" lon="6.70356">
        <ele>1202.746582</ele>
        <time>2010-07-24T13:37:31Z</time>
      </trkpt>
      <trkpt lat="44.40432" lon="6.70371">
        <ele>1202.2658691</ele>
        <time>2010-07-24T13:37:34Z</time>
      </trkpt>
      <trkpt lat="44.40449" lon="6.70401">
        <ele>1201.3046875</ele>
        <time>2010-07-24T13:37:39Z</time>
      </trkpt>
      <trkpt lat="44.40457" lon="6.70428">
        <ele>1196.0175781</ele>
        <time>2010-07-24T13:37:44Z</time>
      </trkpt>
      <trkpt lat="44.40469" lon="6.70462">
        <ele>1192.1721191</ele>
        <time>2010-07-24T13:37:50Z</time>
      </trkpt>
      <trkpt lat="44.40482" lon="6.70481">
        <ele>1190.7299805</ele>
        <time>2010-07-24T13:37:55Z</time>
      </trkpt>
      <trkpt lat="44.40486" lon="6.70482">
        <ele>1191.6914062</ele>
        <time>2010-07-24T13:37:58Z</time>
      </trkpt>
      <trkpt lat="44.40494" lon="6.70486">
        <ele>1192.1721191</ele>
        <time>2010-07-24T13:38:03Z</time>
      </trkpt>
      <trkpt lat="44.40497" lon="6.70487">
        <ele>1192.1721191</ele>
        <time>2010-07-24T13:38:04Z</time>
      </trkpt>
      <trkpt lat="44.40518" lon="6.705">
        <ele>1190.2495117</ele>
        <time>2010-07-24T13:38:12Z</time>
      </trkpt>
      <trkpt lat="44.40544" lon="6.70514">
        <ele>1192.1721191</ele>
        <time>2010-07-24T13:38:20Z</time>
      </trkpt>
      <trkpt lat="44.40567" lon="6.70528">
        <ele>1193.1333008</ele>
        <time>2010-07-24T13:38:27Z</time>
      </trkpt>
      <trkpt lat="44.4059" lon="6.70544">
        <ele>1199.862793</ele>
        <time>2010-07-24T13:38:35Z</time>
      </trkpt>
      <trkpt lat="44.40615" lon="6.70561">
        <ele>1202.2658691</ele>
        <time>2010-07-24T13:38:43Z</time>
      </trkpt>
      <trkpt lat="44.4064" lon="6.70577">
        <ele>1204.6691895</ele>
        <time>2010-07-24T13:38:51Z</time>
      </trkpt>
      <trkpt lat="44.40652" lon="6.70596">
        <ele>1207.0725098</ele>
        <time>2010-07-24T13:38:57Z</time>
      </trkpt>
      <trkpt lat="44.40661" lon="6.70621">
        <ele>1215.7246094</ele>
        <time>2010-07-24T13:39:05Z</time>
      </trkpt>
      <trkpt lat="44.40673" lon="6.70639">
        <ele>1213.8017578</ele>
        <time>2010-07-24T13:39:11Z</time>
      </trkpt>
      <trkpt lat="44.40693" lon="6.70661">
        <ele>1211.3984375</ele>
        <time>2010-07-24T13:39:19Z</time>
      </trkpt>
      <trkpt lat="44.40715" lon="6.70676">
        <ele>1210.4370117</ele>
        <time>2010-07-24T13:39:27Z</time>
      </trkpt>
      <trkpt lat="44.40726" lon="6.70688">
        <ele>1211.3984375</ele>
        <time>2010-07-24T13:39:33Z</time>
      </trkpt>
      <trkpt lat="44.4074" lon="6.70701">
        <ele>1212.3598633</ele>
        <time>2010-07-24T13:39:40Z</time>
      </trkpt>
      <trkpt lat="44.40755" lon="6.70714">
        <ele>1216.2050781</ele>
        <time>2010-07-24T13:39:47Z</time>
      </trkpt>
      <trkpt lat="44.40769" lon="6.70728">
        <ele>1218.1276855</ele>
        <time>2010-07-24T13:39:54Z</time>
      </trkpt>
      <trkpt lat="44.40783" lon="6.70744">
        <ele>1219.5698242</ele>
        <time>2010-07-24T13:40:02Z</time>
      </trkpt>
      <trkpt lat="44.40795" lon="6.70761">
        <ele>1219.5698242</ele>
        <time>2010-07-24T13:40:09Z</time>
      </trkpt>
      <trkpt lat="44.40808" lon="6.70784">
        <ele>1222.9343262</ele>
        <time>2010-07-24T13:40:17Z</time>
      </trkpt>
      <trkpt lat="44.40821" lon="6.70809">
        <ele>1226.2988281</ele>
        <time>2010-07-24T13:40:26Z</time>
      </trkpt>
      <trkpt lat="44.40832" lon="6.70828">
        <ele>1229.1828613</ele>
        <time>2010-07-24T13:40:34Z</time>
      </trkpt>
      <trkpt lat="44.40841" lon="6.70848">
        <ele>1231.1057129</ele>
        <time>2010-07-24T13:40:42Z</time>
      </trkpt>
      <trkpt lat="44.40848" lon="6.70868">
        <ele>1232.5476074</ele>
        <time>2010-07-24T13:40:49Z</time>
      </trkpt>
      <trkpt lat="44.40861" lon="6.70889">
        <ele>1231.5861816</ele>
        <time>2010-07-24T13:40:57Z</time>
      </trkpt>
      <trkpt lat="44.40875" lon="6.7091">
        <ele>1231.1057129</ele>
        <time>2010-07-24T13:41:05Z</time>
      </trkpt>
      <trkpt lat="44.40886" lon="6.70925">
        <ele>1232.0668945</ele>
        <time>2010-07-24T13:41:12Z</time>
      </trkpt>
      <trkpt lat="44.40892" lon="6.70942">
        <ele>1233.0280762</ele>
        <time>2010-07-24T13:41:18Z</time>
      </trkpt>
      <trkpt lat="44.40896" lon="6.70959">
        <ele>1234.9509277</ele>
        <time>2010-07-24T13:41:24Z</time>
      </trkpt>
      <trkpt lat="44.40902" lon="6.70983">
        <ele>1238.3154297</ele>
        <time>2010-07-24T13:41:32Z</time>
      </trkpt>
      <trkpt lat="44.40906" lon="6.71009">
        <ele>1243.1218262</ele>
        <time>2010-07-24T13:41:40Z</time>
      </trkpt>
      <trkpt lat="44.40905" lon="6.71033">
        <ele>1247.9287109</ele>
        <time>2010-07-24T13:41:47Z</time>
      </trkpt>
      <trkpt lat="44.40912" lon="6.71053">
        <ele>1248.8898926</ele>
        <time>2010-07-24T13:41:54Z</time>
      </trkpt>
      <trkpt lat="44.40922" lon="6.71069">
        <ele>1250.3320312</ele>
        <time>2010-07-24T13:42:01Z</time>
      </trkpt>
      <trkpt lat="44.40935" lon="6.7109">
        <ele>1252.7351074</ele>
        <time>2010-07-24T13:42:10Z</time>
      </trkpt>
      <trkpt lat="44.4094" lon="6.71097">
        <ele>1253.2158203</ele>
        <time>2010-07-24T13:42:13Z</time>
      </trkpt>
      <trkpt lat="44.4096" lon="6.71105">
        <ele>1251.7739258</ele>
        <time>2010-07-24T13:42:22Z</time>
      </trkpt>
      <trkpt lat="44.40975" lon="6.71118">
        <ele>1245.5253906</ele>
        <time>2010-07-24T13:42:30Z</time>
      </trkpt>
      <trkpt lat="44.40986" lon="6.71136">
        <ele>1246.0061035</ele>
        <time>2010-07-24T13:42:38Z</time>
      </trkpt>
      <trkpt lat="44.40995" lon="6.71156">
        <ele>1248.4091797</ele>
        <time>2010-07-24T13:42:47Z</time>
      </trkpt>
      <trkpt lat="44.41002" lon="6.71169">
        <ele>1250.8125</ele>
        <time>2010-07-24T13:42:54Z</time>
      </trkpt>
      <trkpt lat="44.41013" lon="6.71183">
        <ele>1251.2932129</ele>
        <time>2010-07-24T13:43:02Z</time>
      </trkpt>
      <trkpt lat="44.41022" lon="6.71195">
        <ele>1251.2932129</ele>
        <time>2010-07-24T13:43:08Z</time>
      </trkpt>
      <trkpt lat="44.41032" lon="6.71213">
        <ele>1253.6965332</ele>
        <time>2010-07-24T13:43:16Z</time>
      </trkpt>
      <trkpt lat="44.4104" lon="6.7123">
        <ele>1256.0996094</ele>
        <time>2010-07-24T13:43:23Z</time>
      </trkpt>
      <trkpt lat="44.41051" lon="6.71249">
        <ele>1257.0610352</ele>
        <time>2010-07-24T13:43:32Z</time>
      </trkpt>
      <trkpt lat="44.41065" lon="6.71268">
        <ele>1258.5029297</ele>
        <time>2010-07-24T13:43:42Z</time>
      </trkpt>
      <trkpt lat="44.41075" lon="6.71282">
        <ele>1260.9064941</ele>
        <time>2010-07-24T13:43:49Z</time>
      </trkpt>
      <trkpt lat="44.41083" lon="6.71295">
        <ele>1264.2709961</ele>
        <time>2010-07-24T13:43:56Z</time>
      </trkpt>
      <trkpt lat="44.4109" lon="6.71312">
        <ele>1264.751709</ele>
        <time>2010-07-24T13:44:04Z</time>
      </trkpt>
      <trkpt lat="44.41099" lon="6.7133">
        <ele>1263.7902832</ele>
        <time>2010-07-24T13:44:13Z</time>
      </trkpt>
      <trkpt lat="44.41105" lon="6.71339">
        <ele>1263.3098145</ele>
        <time>2010-07-24T13:44:19Z</time>
      </trkpt>
      <trkpt lat="44.41113" lon="6.71348">
        <ele>1262.8291016</ele>
        <time>2010-07-24T13:44:25Z</time>
      </trkpt>
      <trkpt lat="44.41124" lon="6.71358">
        <ele>1259.9448242</ele>
        <time>2010-07-24T13:44:31Z</time>
      </trkpt>
      <trkpt lat="44.41133" lon="6.71364">
        <ele>1260.9064941</ele>
        <time>2010-07-24T13:44:36Z</time>
      </trkpt>
      <trkpt lat="44.41145" lon="6.71368">
        <ele>1262.3483887</ele>
        <time>2010-07-24T13:44:43Z</time>
      </trkpt>
      <trkpt lat="44.41156" lon="6.71371">
        <ele>1263.7902832</ele>
        <time>2010-07-24T13:44:51Z</time>
      </trkpt>
      <trkpt lat="44.41169" lon="6.71378">
        <ele>1264.751709</ele>
        <time>2010-07-24T13:45:00Z</time>
      </trkpt>
      <trkpt lat="44.41177" lon="6.71384">
        <ele>1266.1936035</ele>
        <time>2010-07-24T13:45:07Z</time>
      </trkpt>
      <trkpt lat="44.41184" lon="6.7139">
        <ele>1269.0776367</ele>
        <time>2010-07-24T13:45:12Z</time>
      </trkpt>
      <trkpt lat="44.4119" lon="6.71394">
        <ele>1268.1162109</ele>
        <time>2010-07-24T13:45:19Z</time>
      </trkpt>
      <trkpt lat="44.41191" lon="6.71398">
        <ele>1271.0002441</ele>
        <time>2010-07-24T13:45:22Z</time>
      </trkpt>
      <trkpt lat="44.412" lon="6.71407">
        <ele>1280.6135254</ele>
        <time>2010-07-24T13:45:31Z</time>
      </trkpt>
      <trkpt lat="44.41207" lon="6.71417">
        <ele>1282.5361328</ele>
        <time>2010-07-24T13:45:38Z</time>
      </trkpt>
      <trkpt lat="44.41219" lon="6.7143">
        <ele>1280.1328125</ele>
        <time>2010-07-24T13:45:45Z</time>
      </trkpt>
      <trkpt lat="44.4123" lon="6.71443">
        <ele>1281.574707</ele>
        <time>2010-07-24T13:45:52Z</time>
      </trkpt>
      <trkpt lat="44.41241" lon="6.71458">
        <ele>1280.1328125</ele>
        <time>2010-07-24T13:46:00Z</time>
      </trkpt>
      <trkpt lat="44.4124" lon="6.71472">
        <ele>1288.784668</ele>
        <time>2010-07-24T13:46:07Z</time>
      </trkpt>
      <trkpt lat="44.41243" lon="6.71494">
        <ele>1291.668457</ele>
        <time>2010-07-24T13:46:15Z</time>
      </trkpt>
      <trkpt lat="44.41244" lon="6.71513">
        <ele>1291.668457</ele>
        <time>2010-07-24T13:46:21Z</time>
      </trkpt>
      <trkpt lat="44.41242" lon="6.71525">
        <ele>1289.7458496</ele>
        <time>2010-07-24T13:46:26Z</time>
      </trkpt>
      <trkpt lat="44.41238" lon="6.71536">
        <ele>1290.7070312</ele>
        <time>2010-07-24T13:46:29Z</time>
      </trkpt>
      <trkpt lat="44.41237" lon="6.71579">
        <ele>1291.668457</ele>
        <time>2010-07-24T13:46:37Z</time>
      </trkpt>
      <trkpt lat="44.4124" lon="6.71605">
        <ele>1291.668457</ele>
        <time>2010-07-24T13:46:41Z</time>
      </trkpt>
      <trkpt lat="44.41246" lon="6.71649">
        <ele>1291.1877441</ele>
        <time>2010-07-24T13:46:49Z</time>
      </trkpt>
      <trkpt lat="44.41243" lon="6.71671">
        <ele>1291.1877441</ele>
        <time>2010-07-24T13:46:54Z</time>
      </trkpt>
      <trkpt lat="44.41231" lon="6.71695">
        <ele>1288.784668</ele>
        <time>2010-07-24T13:46:59Z</time>
      </trkpt>
      <trkpt lat="44.4121" lon="6.7175">
        <ele>1284.4587402</ele>
        <time>2010-07-24T13:47:07Z</time>
      </trkpt>
      <trkpt lat="44.41193" lon="6.71809">
        <ele>1284.4587402</ele>
        <time>2010-07-24T13:47:14Z</time>
      </trkpt>
      <trkpt lat="44.41191" lon="6.71816">
        <ele>1284.4587402</ele>
        <time>2010-07-24T13:47:15Z</time>
      </trkpt>
      <trkpt lat="44.41174" lon="6.71838">
        <ele>1284.9394531</ele>
        <time>2010-07-24T13:47:19Z</time>
      </trkpt>
      <trkpt lat="44.41161" lon="6.71848">
        <ele>1284.4587402</ele>
        <time>2010-07-24T13:47:21Z</time>
      </trkpt>
      <trkpt lat="44.41139" lon="6.71882">
        <ele>1282.0554199</ele>
        <time>2010-07-24T13:47:25Z</time>
      </trkpt>
      <trkpt lat="44.4113" lon="6.71899">
        <ele>1280.1328125</ele>
        <time>2010-07-24T13:47:27Z</time>
      </trkpt>
      <trkpt lat="44.4112" lon="6.71916">
        <ele>1276.7683105</ele>
        <time>2010-07-24T13:47:31Z</time>
      </trkpt>
      <trkpt lat="44.41126" lon="6.71925">
        <ele>1275.8066406</ele>
        <time>2010-07-24T13:47:33Z</time>
      </trkpt>
      <trkpt lat="44.41152" lon="6.71956">
        <ele>1274.845459</ele>
        <time>2010-07-24T13:47:39Z</time>
      </trkpt>
      <trkpt lat="44.41161" lon="6.71967">
        <ele>1273.8840332</ele>
        <time>2010-07-24T13:47:41Z</time>
      </trkpt>
      <trkpt lat="44.41173" lon="6.71984">
        <ele>1274.845459</ele>
        <time>2010-07-24T13:47:44Z</time>
      </trkpt>
      <trkpt lat="44.41202" lon="6.7201">
        <ele>1277.2490234</ele>
        <time>2010-07-24T13:47:51Z</time>
      </trkpt>
      <trkpt lat="44.41206" lon="6.72014">
        <ele>1277.2490234</ele>
        <time>2010-07-24T13:47:52Z</time>
      </trkpt>
      <trkpt lat="44.41235" lon="6.72052">
        <ele>1277.2490234</ele>
        <time>2010-07-24T13:48:00Z</time>
      </trkpt>
      <trkpt lat="44.41256" lon="6.72077">
        <ele>1279.1713867</ele>
        <time>2010-07-24T13:48:07Z</time>
      </trkpt>
      <trkpt lat="44.41258" lon="6.72081">
        <ele>1279.6520996</ele>
        <time>2010-07-24T13:48:08Z</time>
      </trkpt>
      <trkpt lat="44.41271" lon="6.72108">
        <ele>1279.1713867</ele>
        <time>2010-07-24T13:48:13Z</time>
      </trkpt>
      <trkpt lat="44.41284" lon="6.72148">
        <ele>1272.9228516</ele>
        <time>2010-07-24T13:48:19Z</time>
      </trkpt>
      <trkpt lat="44.41293" lon="6.72168">
        <ele>1271.0002441</ele>
        <time>2010-07-24T13:48:22Z</time>
      </trkpt>
      <trkpt lat="44.41309" lon="6.72191">
        <ele>1271.4807129</ele>
        <time>2010-07-24T13:48:28Z</time>
      </trkpt>
      <trkpt lat="44.41328" lon="6.72213">
        <ele>1271.4807129</ele>
        <time>2010-07-24T13:48:34Z</time>
      </trkpt>
      <trkpt lat="44.41345" lon="6.72226">
        <ele>1270.5195312</ele>
        <time>2010-07-24T13:48:38Z</time>
      </trkpt>
      <trkpt lat="44.41355" lon="6.72252">
        <ele>1270.5195312</ele>
        <time>2010-07-24T13:48:42Z</time>
      </trkpt>
      <trkpt lat="44.41355" lon="6.72261">
        <ele>1270.5195312</ele>
        <time>2010-07-24T13:48:43Z</time>
      </trkpt>
      <trkpt lat="44.41366" lon="6.72334">
        <ele>1264.2709961</ele>
        <time>2010-07-24T13:48:49Z</time>
      </trkpt>
      <trkpt lat="44.41377" lon="6.72413">
        <ele>1258.5029297</ele>
        <time>2010-07-24T13:48:55Z</time>
      </trkpt>
      <trkpt lat="44.41389" lon="6.72524">
        <ele>1256.5803223</ele>
        <time>2010-07-24T13:49:03Z</time>
      </trkpt>
      <trkpt lat="44.41394" lon="6.72611">
        <ele>1250.3320312</ele>
        <time>2010-07-24T13:49:09Z</time>
      </trkpt>
      <trkpt lat="44.4139" lon="6.72701">
        <ele>1239.2766113</ele>
        <time>2010-07-24T13:49:15Z</time>
      </trkpt>
      <trkpt lat="44.41381" lon="6.72754">
        <ele>1233.5087891</ele>
        <time>2010-07-24T13:49:19Z</time>
      </trkpt>
      <trkpt lat="44.4136" lon="6.72844">
        <ele>1228.2216797</ele>
        <time>2010-07-24T13:49:26Z</time>
      </trkpt>
      <trkpt lat="44.4135" lon="6.72883">
        <ele>1225.8181152</ele>
        <time>2010-07-24T13:49:30Z</time>
      </trkpt>
      <trkpt lat="44.41349" lon="6.72888">
        <ele>1225.8181152</ele>
        <time>2010-07-24T13:49:31Z</time>
      </trkpt>
      <trkpt lat="44.41357" lon="6.72891">
        <ele>1229.6635742</ele>
        <time>2010-07-24T13:49:36Z</time>
      </trkpt>
      <trkpt lat="44.41372" lon="6.72885">
        <ele>1229.6635742</ele>
        <time>2010-07-24T13:49:41Z</time>
      </trkpt>
      <trkpt lat="44.41402" lon="6.72872">
        <ele>1228.2216797</ele>
        <time>2010-07-24T13:49:49Z</time>
      </trkpt>
      <trkpt lat="44.41442" lon="6.72856">
        <ele>1226.779541</ele>
        <time>2010-07-24T13:49:58Z</time>
      </trkpt>
      <trkpt lat="44.41477" lon="6.72846">
        <ele>1227.2602539</ele>
        <time>2010-07-24T13:50:05Z</time>
      </trkpt>
      <trkpt lat="44.41524" lon="6.72833">
        <ele>1224.8569336</ele>
        <time>2010-07-24T13:50:14Z</time>
      </trkpt>
      <trkpt lat="44.41561" lon="6.72836">
        <ele>1224.3762207</ele>
        <time>2010-07-24T13:50:21Z</time>
      </trkpt>
      <trkpt lat="44.41599" lon="6.72844">
        <ele>1222.9343262</ele>
        <time>2010-07-24T13:50:28Z</time>
      </trkpt>
      <trkpt lat="44.41619" lon="6.72854">
        <ele>1223.8955078</ele>
        <time>2010-07-24T13:50:32Z</time>
      </trkpt>
      <trkpt lat="44.41637" lon="6.72859">
        <ele>1223.8955078</ele>
        <time>2010-07-24T13:50:35Z</time>
      </trkpt>
      <trkpt lat="44.41668" lon="6.72882">
        <ele>1222.9343262</ele>
        <time>2010-07-24T13:50:41Z</time>
      </trkpt>
      <trkpt lat="44.41697" lon="6.72912">
        <ele>1223.8955078</ele>
        <time>2010-07-24T13:50:48Z</time>
      </trkpt>
      <trkpt lat="44.41712" lon="6.72934">
        <ele>1224.3762207</ele>
        <time>2010-07-24T13:50:52Z</time>
      </trkpt>
      <trkpt lat="44.41722" lon="6.7295">
        <ele>1224.8569336</ele>
        <time>2010-07-24T13:50:55Z</time>
      </trkpt>
      <trkpt lat="44.41745" lon="6.72981">
        <ele>1223.8955078</ele>
        <time>2010-07-24T13:51:02Z</time>
      </trkpt>
      <trkpt lat="44.41756" lon="6.73008">
        <ele>1223.4150391</ele>
        <time>2010-07-24T13:51:07Z</time>
      </trkpt>
      <trkpt lat="44.41765" lon="6.73024">
        <ele>1222.4536133</ele>
        <time>2010-07-24T13:51:10Z</time>
      </trkpt>
      <trkpt lat="44.41768" lon="6.73035">
        <ele>1223.8955078</ele>
        <time>2010-07-24T13:51:12Z</time>
      </trkpt>
      <trkpt lat="44.41777" lon="6.73041">
        <ele>1225.8181152</ele>
        <time>2010-07-24T13:51:15Z</time>
      </trkpt>
      <trkpt lat="44.41786" lon="6.7305">
        <ele>1228.2216797</ele>
        <time>2010-07-24T13:51:18Z</time>
      </trkpt>
      <trkpt lat="44.41798" lon="6.73065">
        <ele>1232.5476074</ele>
        <time>2010-07-24T13:51:22Z</time>
      </trkpt>
      <trkpt lat="44.41812" lon="6.73085">
        <ele>1236.3928223</ele>
        <time>2010-07-24T13:51:26Z</time>
      </trkpt>
      <trkpt lat="44.41824" lon="6.73122">
        <ele>1238.7961426</ele>
        <time>2010-07-24T13:51:32Z</time>
      </trkpt>
      <trkpt lat="44.41832" lon="6.7315">
        <ele>1239.2766113</ele>
        <time>2010-07-24T13:51:36Z</time>
      </trkpt>
      <trkpt lat="44.4184" lon="6.73174">
        <ele>1235.4313965</ele>
        <time>2010-07-24T13:51:39Z</time>
      </trkpt>
      <trkpt lat="44.41851" lon="6.73226">
        <ele>1236.873291</ele>
        <time>2010-07-24T13:51:46Z</time>
      </trkpt>
      <trkpt lat="44.41856" lon="6.73247">
        <ele>1236.3928223</ele>
        <time>2010-07-24T13:51:49Z</time>
      </trkpt>
      <trkpt lat="44.41861" lon="6.73286">
        <ele>1235.4313965</ele>
        <time>2010-07-24T13:51:54Z</time>
      </trkpt>
      <trkpt lat="44.41879" lon="6.73313">
        <ele>1239.7573242</ele>
        <time>2010-07-24T13:51:59Z</time>
      </trkpt>
      <trkpt lat="44.41884" lon="6.73324">
        <ele>1243.1218262</ele>
        <time>2010-07-24T13:52:01Z</time>
      </trkpt>
      <trkpt lat="44.41884" lon="6.73334">
        <ele>1247.447998</ele>
        <time>2010-07-24T13:52:04Z</time>
      </trkpt>
      <trkpt lat="44.41908" lon="6.73359">
        <ele>1252.2543945</ele>
        <time>2010-07-24T13:52:09Z</time>
      </trkpt>
      <trkpt lat="44.41929" lon="6.73372">
        <ele>1259.4643555</ele>
        <time>2010-07-24T13:52:13Z</time>
      </trkpt>
      <trkpt lat="44.41934" lon="6.73387">
        <ele>1261.8679199</ele>
        <time>2010-07-24T13:52:18Z</time>
      </trkpt>
      <trkpt lat="44.41938" lon="6.73411">
        <ele>1258.9836426</ele>
        <time>2010-07-24T13:52:24Z</time>
      </trkpt>
      <trkpt lat="44.41935" lon="6.73448">
        <ele>1247.9287109</ele>
        <time>2010-07-24T13:52:31Z</time>
      </trkpt>
      <trkpt lat="44.41937" lon="6.73462">
        <ele>1235.4313965</ele>
        <time>2010-07-24T13:52:36Z</time>
      </trkpt>
      <trkpt lat="44.41936" lon="6.7347">
        <ele>1240.7185059</ele>
        <time>2010-07-24T13:52:41Z</time>
      </trkpt>
      <trkpt lat="44.41935" lon="6.73475">
        <ele>1246.0061035</ele>
        <time>2010-07-24T13:52:45Z</time>
      </trkpt>
      <trkpt lat="44.41932" lon="6.73479">
        <ele>1244.5639648</ele>
        <time>2010-07-24T13:52:50Z</time>
      </trkpt>
      <trkpt lat="44.41933" lon="6.73481">
        <ele>1253.2158203</ele>
        <time>2010-07-24T13:52:55Z</time>
      </trkpt>
      <trkpt lat="44.41932" lon="6.73479">
        <ele>1266.6743164</ele>
        <time>2010-07-24T13:53:20Z</time>
      </trkpt>
      <trkpt lat="44.41926" lon="6.7348">
        <ele>1266.1936035</ele>
        <time>2010-07-24T13:53:27Z</time>
      </trkpt>
      <trkpt lat="44.41925" lon="6.73475">
        <ele>1254.1772461</ele>
        <time>2010-07-24T13:53:35Z</time>
      </trkpt>
      <trkpt lat="44.41927" lon="6.73473">
        <ele>1247.447998</ele>
        <time>2010-07-24T13:53:42Z</time>
      </trkpt>
      <trkpt lat="44.41932" lon="6.73472">
        <ele>1242.6413574</ele>
        <time>2010-07-24T13:53:49Z</time>
      </trkpt>
      <trkpt lat="44.41928" lon="6.73468">
        <ele>1240.7185059</ele>
        <time>2010-07-24T13:53:57Z</time>
      </trkpt>
    </trkseg>
  </trk>
</gpx>